<?xml version="1.0" encoding="UTF-8" standalone="no" ?>
<gpx xmlns="http://www.topografix.com/GPX/1/1" xmlns:xsi="http://www.w3.org/2001/XMLSchema-instance" xsi:schemaLocation="http://www.topografix.com/GPX/1/1 http://www.topografix.com/GPX/1/1/gpx.xsd" version="1.1" creator="VisuGPX - https://www.visugpx.com">
  <metadata>
    <name>dahouet pleneuf</name>
    <desc><![CDATA[dahouet,plage de pleneuf,plage des vallees,dahouet]]></desc>
  </metadata>
  <trk>
    <name><![CDATA[dahouet pleneuf_1]]></name>
    <trkseg>
      <trkpt lat="48.5782" lon="-2.56688">
        <ele>15</ele>
        <time>2012-01-22T13:37:28Z</time>
      </trkpt>
      <trkpt lat="48.57833" lon="-2.56723">
        <ele>15</ele>
        <time>2012-01-22T13:37:48Z</time>
      </trkpt>
      <trkpt lat="48.57834" lon="-2.56725">
        <ele>15</ele>
        <time>2012-01-22T13:37:50Z</time>
      </trkpt>
      <trkpt lat="48.57836" lon="-2.56728">
        <ele>15</ele>
        <time>2012-01-22T13:37:52Z</time>
      </trkpt>
      <trkpt lat="48.57837" lon="-2.56731">
        <ele>15</ele>
        <time>2012-01-22T13:37:54Z</time>
      </trkpt>
      <trkpt lat="48.57839" lon="-2.56734">
        <ele>15</ele>
        <time>2012-01-22T13:37:56Z</time>
      </trkpt>
      <trkpt lat="48.5784" lon="-2.56737">
        <ele>14</ele>
        <time>2012-01-22T13:37:58Z</time>
      </trkpt>
      <trkpt lat="48.57842" lon="-2.5674">
        <ele>14</ele>
        <time>2012-01-22T13:38:00Z</time>
      </trkpt>
      <trkpt lat="48.57844" lon="-2.56743">
        <ele>13</ele>
        <time>2012-01-22T13:38:02Z</time>
      </trkpt>
      <trkpt lat="48.57845" lon="-2.56745">
        <ele>13</ele>
        <time>2012-01-22T13:38:03Z</time>
      </trkpt>
      <trkpt lat="48.57846" lon="-2.56746">
        <ele>13</ele>
        <time>2012-01-22T13:38:04Z</time>
      </trkpt>
      <trkpt lat="48.57847" lon="-2.56748">
        <ele>13</ele>
        <time>2012-01-22T13:38:05Z</time>
      </trkpt>
      <trkpt lat="48.57848" lon="-2.56751">
        <ele>13</ele>
        <time>2012-01-22T13:38:07Z</time>
      </trkpt>
      <trkpt lat="48.57849" lon="-2.56753">
        <ele>13</ele>
        <time>2012-01-22T13:38:08Z</time>
      </trkpt>
      <trkpt lat="48.5785" lon="-2.56755">
        <ele>13</ele>
        <time>2012-01-22T13:38:09Z</time>
      </trkpt>
      <trkpt lat="48.57851" lon="-2.56757">
        <ele>13</ele>
        <time>2012-01-22T13:38:11Z</time>
      </trkpt>
      <trkpt lat="48.57852" lon="-2.56759">
        <ele>13</ele>
        <time>2012-01-22T13:38:12Z</time>
      </trkpt>
      <trkpt lat="48.57854" lon="-2.56762">
        <ele>13</ele>
        <time>2012-01-22T13:38:14Z</time>
      </trkpt>
      <trkpt lat="48.57855" lon="-2.56764">
        <ele>13</ele>
        <time>2012-01-22T13:38:15Z</time>
      </trkpt>
      <trkpt lat="48.57856" lon="-2.56765">
        <ele>13</ele>
        <time>2012-01-22T13:38:16Z</time>
      </trkpt>
      <trkpt lat="48.57857" lon="-2.56767">
        <ele>13</ele>
        <time>2012-01-22T13:38:16Z</time>
      </trkpt>
      <trkpt lat="48.57858" lon="-2.5677">
        <ele>13</ele>
        <time>2012-01-22T13:38:19Z</time>
      </trkpt>
      <trkpt lat="48.57859" lon="-2.56771">
        <ele>13</ele>
        <time>2012-01-22T13:38:19Z</time>
      </trkpt>
      <trkpt lat="48.57861" lon="-2.56774">
        <ele>13</ele>
        <time>2012-01-22T13:38:22Z</time>
      </trkpt>
      <trkpt lat="48.57861" lon="-2.56776">
        <ele>13</ele>
        <time>2012-01-22T13:38:23Z</time>
      </trkpt>
      <trkpt lat="48.57862" lon="-2.56778">
        <ele>13</ele>
        <time>2012-01-22T13:38:24Z</time>
      </trkpt>
      <trkpt lat="48.57864" lon="-2.56781">
        <ele>13</ele>
        <time>2012-01-22T13:38:26Z</time>
      </trkpt>
      <trkpt lat="48.57865" lon="-2.56784">
        <ele>13</ele>
        <time>2012-01-22T13:38:28Z</time>
      </trkpt>
      <trkpt lat="48.57866" lon="-2.56786">
        <ele>13</ele>
        <time>2012-01-22T13:38:28Z</time>
      </trkpt>
      <trkpt lat="48.57867" lon="-2.56787">
        <ele>13</ele>
        <time>2012-01-22T13:38:30Z</time>
      </trkpt>
      <trkpt lat="48.57867" lon="-2.56789">
        <ele>13</ele>
        <time>2012-01-22T13:38:31Z</time>
      </trkpt>
      <trkpt lat="48.57868" lon="-2.56792">
        <ele>13</ele>
        <time>2012-01-22T13:38:33Z</time>
      </trkpt>
      <trkpt lat="48.57869" lon="-2.56795">
        <ele>12</ele>
        <time>2012-01-22T13:38:35Z</time>
      </trkpt>
      <trkpt lat="48.5787" lon="-2.56797">
        <ele>12</ele>
        <time>2012-01-22T13:38:36Z</time>
      </trkpt>
      <trkpt lat="48.57871" lon="-2.56799">
        <ele>12</ele>
        <time>2012-01-22T13:38:37Z</time>
      </trkpt>
      <trkpt lat="48.57872" lon="-2.56801">
        <ele>11</ele>
        <time>2012-01-22T13:38:38Z</time>
      </trkpt>
      <trkpt lat="48.57874" lon="-2.56803">
        <ele>11</ele>
        <time>2012-01-22T13:38:40Z</time>
      </trkpt>
      <trkpt lat="48.57876" lon="-2.56806">
        <ele>9</ele>
        <time>2012-01-22T13:38:42Z</time>
      </trkpt>
      <trkpt lat="48.57876" lon="-2.56808">
        <ele>9</ele>
        <time>2012-01-22T13:38:43Z</time>
      </trkpt>
      <trkpt lat="48.57875" lon="-2.56812">
        <ele>9</ele>
        <time>2012-01-22T13:38:44Z</time>
      </trkpt>
      <trkpt lat="48.57876" lon="-2.56814">
        <ele>9</ele>
        <time>2012-01-22T13:38:45Z</time>
      </trkpt>
      <trkpt lat="48.57877" lon="-2.56817">
        <ele>9</ele>
        <time>2012-01-22T13:38:47Z</time>
      </trkpt>
      <trkpt lat="48.57878" lon="-2.56819">
        <ele>9</ele>
        <time>2012-01-22T13:38:48Z</time>
      </trkpt>
      <trkpt lat="48.5788" lon="-2.56822">
        <ele>9</ele>
        <time>2012-01-22T13:38:50Z</time>
      </trkpt>
      <trkpt lat="48.57881" lon="-2.56823">
        <ele>9</ele>
        <time>2012-01-22T13:38:51Z</time>
      </trkpt>
      <trkpt lat="48.57882" lon="-2.56826">
        <ele>9</ele>
        <time>2012-01-22T13:38:52Z</time>
      </trkpt>
      <trkpt lat="48.57883" lon="-2.5683">
        <ele>9</ele>
        <time>2012-01-22T13:38:55Z</time>
      </trkpt>
      <trkpt lat="48.57883" lon="-2.56832">
        <ele>9</ele>
        <time>2012-01-22T13:38:56Z</time>
      </trkpt>
      <trkpt lat="48.57884" lon="-2.56834">
        <ele>9</ele>
        <time>2012-01-22T13:38:57Z</time>
      </trkpt>
      <trkpt lat="48.57885" lon="-2.56836">
        <ele>9</ele>
        <time>2012-01-22T13:38:58Z</time>
      </trkpt>
      <trkpt lat="48.57885" lon="-2.56838">
        <ele>9</ele>
        <time>2012-01-22T13:38:59Z</time>
      </trkpt>
      <trkpt lat="48.57886" lon="-2.5684">
        <ele>9</ele>
        <time>2012-01-22T13:38:59Z</time>
      </trkpt>
      <trkpt lat="48.57886" lon="-2.56842">
        <ele>9</ele>
        <time>2012-01-22T13:39:01Z</time>
      </trkpt>
      <trkpt lat="48.57886" lon="-2.56844">
        <ele>9</ele>
        <time>2012-01-22T13:39:02Z</time>
      </trkpt>
      <trkpt lat="48.57887" lon="-2.56846">
        <ele>9</ele>
        <time>2012-01-22T13:39:03Z</time>
      </trkpt>
      <trkpt lat="48.57887" lon="-2.56848">
        <ele>9</ele>
        <time>2012-01-22T13:39:04Z</time>
      </trkpt>
      <trkpt lat="48.57887" lon="-2.5685">
        <ele>9</ele>
        <time>2012-01-22T13:39:05Z</time>
      </trkpt>
      <trkpt lat="48.57888" lon="-2.56852">
        <ele>9</ele>
        <time>2012-01-22T13:39:06Z</time>
      </trkpt>
      <trkpt lat="48.57888" lon="-2.56854">
        <ele>9</ele>
        <time>2012-01-22T13:39:06Z</time>
      </trkpt>
      <trkpt lat="48.57888" lon="-2.56856">
        <ele>9</ele>
        <time>2012-01-22T13:39:08Z</time>
      </trkpt>
      <trkpt lat="48.57889" lon="-2.56858">
        <ele>9</ele>
        <time>2012-01-22T13:39:09Z</time>
      </trkpt>
      <trkpt lat="48.57889" lon="-2.56861">
        <ele>9</ele>
        <time>2012-01-22T13:39:10Z</time>
      </trkpt>
      <trkpt lat="48.57889" lon="-2.56863">
        <ele>10</ele>
        <time>2012-01-22T13:39:11Z</time>
      </trkpt>
      <trkpt lat="48.57889" lon="-2.56865">
        <ele>10</ele>
        <time>2012-01-22T13:39:11Z</time>
      </trkpt>
      <trkpt lat="48.57889" lon="-2.56868">
        <ele>10</ele>
        <time>2012-01-22T13:39:13Z</time>
      </trkpt>
      <trkpt lat="48.57889" lon="-2.5687">
        <ele>10</ele>
        <time>2012-01-22T13:39:14Z</time>
      </trkpt>
      <trkpt lat="48.5789" lon="-2.56872">
        <ele>10</ele>
        <time>2012-01-22T13:39:15Z</time>
      </trkpt>
      <trkpt lat="48.5789" lon="-2.56874">
        <ele>10</ele>
        <time>2012-01-22T13:39:15Z</time>
      </trkpt>
      <trkpt lat="48.5789" lon="-2.56876">
        <ele>11</ele>
        <time>2012-01-22T13:39:17Z</time>
      </trkpt>
      <trkpt lat="48.5789" lon="-2.56878">
        <ele>11</ele>
        <time>2012-01-22T13:39:18Z</time>
      </trkpt>
      <trkpt lat="48.5789" lon="-2.5688">
        <ele>11</ele>
        <time>2012-01-22T13:39:19Z</time>
      </trkpt>
      <trkpt lat="48.5789" lon="-2.56882">
        <ele>11</ele>
        <time>2012-01-22T13:39:20Z</time>
      </trkpt>
      <trkpt lat="48.5789" lon="-2.56884">
        <ele>11</ele>
        <time>2012-01-22T13:39:21Z</time>
      </trkpt>
      <trkpt lat="48.5789" lon="-2.56887">
        <ele>12</ele>
        <time>2012-01-22T13:39:22Z</time>
      </trkpt>
      <trkpt lat="48.5789" lon="-2.56889">
        <ele>12</ele>
        <time>2012-01-22T13:39:23Z</time>
      </trkpt>
      <trkpt lat="48.57889" lon="-2.5689">
        <ele>12</ele>
        <time>2012-01-22T13:39:24Z</time>
      </trkpt>
      <trkpt lat="48.57889" lon="-2.56893">
        <ele>12</ele>
        <time>2012-01-22T13:39:26Z</time>
      </trkpt>
      <trkpt lat="48.57889" lon="-2.56895">
        <ele>12</ele>
        <time>2012-01-22T13:39:27Z</time>
      </trkpt>
      <trkpt lat="48.57889" lon="-2.56897">
        <ele>12</ele>
        <time>2012-01-22T13:39:27Z</time>
      </trkpt>
      <trkpt lat="48.57889" lon="-2.569">
        <ele>12</ele>
        <time>2012-01-22T13:39:29Z</time>
      </trkpt>
      <trkpt lat="48.57889" lon="-2.56902">
        <ele>12</ele>
        <time>2012-01-22T13:39:30Z</time>
      </trkpt>
      <trkpt lat="48.57889" lon="-2.56904">
        <ele>12</ele>
        <time>2012-01-22T13:39:31Z</time>
      </trkpt>
      <trkpt lat="48.5789" lon="-2.56907">
        <ele>12</ele>
        <time>2012-01-22T13:39:34Z</time>
      </trkpt>
      <trkpt lat="48.5789" lon="-2.56908">
        <ele>12</ele>
        <time>2012-01-22T13:39:35Z</time>
      </trkpt>
      <trkpt lat="48.5789" lon="-2.5691">
        <ele>12</ele>
        <time>2012-01-22T13:39:36Z</time>
      </trkpt>
      <trkpt lat="48.5789" lon="-2.56912">
        <ele>12</ele>
        <time>2012-01-22T13:39:37Z</time>
      </trkpt>
      <trkpt lat="48.5789" lon="-2.56914">
        <ele>12</ele>
        <time>2012-01-22T13:39:38Z</time>
      </trkpt>
      <trkpt lat="48.5789" lon="-2.56916">
        <ele>12</ele>
        <time>2012-01-22T13:39:38Z</time>
      </trkpt>
      <trkpt lat="48.5789" lon="-2.56919">
        <ele>13</ele>
        <time>2012-01-22T13:39:41Z</time>
      </trkpt>
      <trkpt lat="48.5789" lon="-2.56921">
        <ele>13</ele>
        <time>2012-01-22T13:39:42Z</time>
      </trkpt>
      <trkpt lat="48.5789" lon="-2.56923">
        <ele>13</ele>
        <time>2012-01-22T13:39:43Z</time>
      </trkpt>
      <trkpt lat="48.5789" lon="-2.56925">
        <ele>14</ele>
        <time>2012-01-22T13:39:44Z</time>
      </trkpt>
      <trkpt lat="48.5789" lon="-2.56926">
        <ele>14</ele>
        <time>2012-01-22T13:39:45Z</time>
      </trkpt>
      <trkpt lat="48.5789" lon="-2.56928">
        <ele>15</ele>
        <time>2012-01-22T13:39:46Z</time>
      </trkpt>
      <trkpt lat="48.57891" lon="-2.5693">
        <ele>16</ele>
        <time>2012-01-22T13:39:48Z</time>
      </trkpt>
      <trkpt lat="48.57892" lon="-2.56933">
        <ele>16</ele>
        <time>2012-01-22T13:39:50Z</time>
      </trkpt>
      <trkpt lat="48.57892" lon="-2.56936">
        <ele>17</ele>
        <time>2012-01-22T13:39:52Z</time>
      </trkpt>
      <trkpt lat="48.57893" lon="-2.56939">
        <ele>17</ele>
        <time>2012-01-22T13:39:54Z</time>
      </trkpt>
      <trkpt lat="48.57894" lon="-2.56941">
        <ele>18</ele>
        <time>2012-01-22T13:39:56Z</time>
      </trkpt>
      <trkpt lat="48.57895" lon="-2.56942">
        <ele>18</ele>
        <time>2012-01-22T13:39:58Z</time>
      </trkpt>
      <trkpt lat="48.57897" lon="-2.56943">
        <ele>19</ele>
        <time>2012-01-22T13:40:01Z</time>
      </trkpt>
      <trkpt lat="48.57898" lon="-2.56944">
        <ele>19</ele>
        <time>2012-01-22T13:40:04Z</time>
      </trkpt>
      <trkpt lat="48.579" lon="-2.56943">
        <ele>19</ele>
        <time>2012-01-22T13:40:06Z</time>
      </trkpt>
      <trkpt lat="48.57901" lon="-2.56941">
        <ele>19</ele>
        <time>2012-01-22T13:40:07Z</time>
      </trkpt>
      <trkpt lat="48.57902" lon="-2.56941">
        <ele>19</ele>
        <time>2012-01-22T13:40:08Z</time>
      </trkpt>
      <trkpt lat="48.57904" lon="-2.56939">
        <ele>19</ele>
        <time>2012-01-22T13:40:10Z</time>
      </trkpt>
      <trkpt lat="48.57905" lon="-2.56937">
        <ele>19</ele>
        <time>2012-01-22T13:40:12Z</time>
      </trkpt>
      <trkpt lat="48.57904" lon="-2.56936">
        <ele>19</ele>
        <time>2012-01-22T13:40:16Z</time>
      </trkpt>
      <trkpt lat="48.57905" lon="-2.56933">
        <ele>19</ele>
        <time>2012-01-22T13:40:20Z</time>
      </trkpt>
      <trkpt lat="48.57905" lon="-2.56931">
        <ele>19</ele>
        <time>2012-01-22T13:40:21Z</time>
      </trkpt>
      <trkpt lat="48.57907" lon="-2.56929">
        <ele>19</ele>
        <time>2012-01-22T13:40:23Z</time>
      </trkpt>
      <trkpt lat="48.5791" lon="-2.56928">
        <ele>19</ele>
        <time>2012-01-22T13:40:25Z</time>
      </trkpt>
      <trkpt lat="48.57911" lon="-2.56927">
        <ele>19</ele>
        <time>2012-01-22T13:40:26Z</time>
      </trkpt>
      <trkpt lat="48.57912" lon="-2.56927">
        <ele>19</ele>
        <time>2012-01-22T13:40:27Z</time>
      </trkpt>
      <trkpt lat="48.57914" lon="-2.56927">
        <ele>19</ele>
        <time>2012-01-22T13:40:28Z</time>
      </trkpt>
      <trkpt lat="48.57916" lon="-2.56928">
        <ele>19</ele>
        <time>2012-01-22T13:40:30Z</time>
      </trkpt>
      <trkpt lat="48.57917" lon="-2.56928">
        <ele>19</ele>
        <time>2012-01-22T13:40:31Z</time>
      </trkpt>
      <trkpt lat="48.57919" lon="-2.5693">
        <ele>19</ele>
        <time>2012-01-22T13:40:33Z</time>
      </trkpt>
      <trkpt lat="48.5792" lon="-2.56931">
        <ele>19</ele>
        <time>2012-01-22T13:40:35Z</time>
      </trkpt>
      <trkpt lat="48.57922" lon="-2.56932">
        <ele>19</ele>
        <time>2012-01-22T13:40:36Z</time>
      </trkpt>
      <trkpt lat="48.57923" lon="-2.56933">
        <ele>19</ele>
        <time>2012-01-22T13:40:36Z</time>
      </trkpt>
      <trkpt lat="48.57925" lon="-2.56934">
        <ele>20</ele>
        <time>2012-01-22T13:40:39Z</time>
      </trkpt>
      <trkpt lat="48.57926" lon="-2.56935">
        <ele>20</ele>
        <time>2012-01-22T13:40:40Z</time>
      </trkpt>
      <trkpt lat="48.57927" lon="-2.56935">
        <ele>20</ele>
        <time>2012-01-22T13:40:41Z</time>
      </trkpt>
      <trkpt lat="48.57929" lon="-2.56936">
        <ele>21</ele>
        <time>2012-01-22T13:40:43Z</time>
      </trkpt>
      <trkpt lat="48.5793" lon="-2.56936">
        <ele>21</ele>
        <time>2012-01-22T13:40:44Z</time>
      </trkpt>
      <trkpt lat="48.57932" lon="-2.56936">
        <ele>21</ele>
        <time>2012-01-22T13:40:44Z</time>
      </trkpt>
      <trkpt lat="48.57933" lon="-2.56936">
        <ele>21</ele>
        <time>2012-01-22T13:40:46Z</time>
      </trkpt>
      <trkpt lat="48.57934" lon="-2.56936">
        <ele>21</ele>
        <time>2012-01-22T13:40:47Z</time>
      </trkpt>
      <trkpt lat="48.57936" lon="-2.56937">
        <ele>21</ele>
        <time>2012-01-22T13:40:48Z</time>
      </trkpt>
      <trkpt lat="48.57938" lon="-2.56937">
        <ele>22</ele>
        <time>2012-01-22T13:40:51Z</time>
      </trkpt>
      <trkpt lat="48.5794" lon="-2.56938">
        <ele>22</ele>
        <time>2012-01-22T13:40:53Z</time>
      </trkpt>
      <trkpt lat="48.57941" lon="-2.56938">
        <ele>22</ele>
        <time>2012-01-22T13:40:55Z</time>
      </trkpt>
      <trkpt lat="48.57943" lon="-2.56937">
        <ele>22</ele>
        <time>2012-01-22T13:40:56Z</time>
      </trkpt>
      <trkpt lat="48.57944" lon="-2.56937">
        <ele>22</ele>
        <time>2012-01-22T13:40:59Z</time>
      </trkpt>
      <trkpt lat="48.57946" lon="-2.56935">
        <ele>23</ele>
        <time>2012-01-22T13:41:01Z</time>
      </trkpt>
      <trkpt lat="48.57946" lon="-2.56932">
        <ele>23</ele>
        <time>2012-01-22T13:41:05Z</time>
      </trkpt>
      <trkpt lat="48.57946" lon="-2.5693">
        <ele>23</ele>
        <time>2012-01-22T13:41:07Z</time>
      </trkpt>
      <trkpt lat="48.57946" lon="-2.56927">
        <ele>23</ele>
        <time>2012-01-22T13:41:09Z</time>
      </trkpt>
      <trkpt lat="48.57946" lon="-2.56925">
        <ele>23</ele>
        <time>2012-01-22T13:41:10Z</time>
      </trkpt>
      <trkpt lat="48.57946" lon="-2.56924">
        <ele>23</ele>
        <time>2012-01-22T13:41:11Z</time>
      </trkpt>
      <trkpt lat="48.57946" lon="-2.56922">
        <ele>23</ele>
        <time>2012-01-22T13:41:11Z</time>
      </trkpt>
      <trkpt lat="48.57946" lon="-2.5692">
        <ele>23</ele>
        <time>2012-01-22T13:41:13Z</time>
      </trkpt>
      <trkpt lat="48.57946" lon="-2.56918">
        <ele>24</ele>
        <time>2012-01-22T13:41:14Z</time>
      </trkpt>
      <trkpt lat="48.57946" lon="-2.56915">
        <ele>25</ele>
        <time>2012-01-22T13:41:16Z</time>
      </trkpt>
      <trkpt lat="48.57947" lon="-2.56913">
        <ele>25</ele>
        <time>2012-01-22T13:41:18Z</time>
      </trkpt>
      <trkpt lat="48.57948" lon="-2.56911">
        <ele>26</ele>
        <time>2012-01-22T13:41:20Z</time>
      </trkpt>
      <trkpt lat="48.57949" lon="-2.56908">
        <ele>26</ele>
        <time>2012-01-22T13:41:22Z</time>
      </trkpt>
      <trkpt lat="48.57951" lon="-2.56906">
        <ele>26</ele>
        <time>2012-01-22T13:41:24Z</time>
      </trkpt>
      <trkpt lat="48.57952" lon="-2.56903">
        <ele>26</ele>
        <time>2012-01-22T13:41:26Z</time>
      </trkpt>
      <trkpt lat="48.57954" lon="-2.56901">
        <ele>26</ele>
        <time>2012-01-22T13:41:28Z</time>
      </trkpt>
      <trkpt lat="48.57956" lon="-2.56898">
        <ele>26</ele>
        <time>2012-01-22T13:41:30Z</time>
      </trkpt>
      <trkpt lat="48.57957" lon="-2.56896">
        <ele>26</ele>
        <time>2012-01-22T13:41:32Z</time>
      </trkpt>
      <trkpt lat="48.57959" lon="-2.56894">
        <ele>26</ele>
        <time>2012-01-22T13:41:34Z</time>
      </trkpt>
      <trkpt lat="48.57961" lon="-2.56892">
        <ele>26</ele>
        <time>2012-01-22T13:41:36Z</time>
      </trkpt>
      <trkpt lat="48.57963" lon="-2.56891">
        <ele>26</ele>
        <time>2012-01-22T13:41:38Z</time>
      </trkpt>
      <trkpt lat="48.57964" lon="-2.5689">
        <ele>26</ele>
        <time>2012-01-22T13:41:39Z</time>
      </trkpt>
      <trkpt lat="48.57966" lon="-2.5689">
        <ele>26</ele>
        <time>2012-01-22T13:41:40Z</time>
      </trkpt>
      <trkpt lat="48.57967" lon="-2.56889">
        <ele>26</ele>
        <time>2012-01-22T13:41:41Z</time>
      </trkpt>
      <trkpt lat="48.57969" lon="-2.56888">
        <ele>26</ele>
        <time>2012-01-22T13:41:41Z</time>
      </trkpt>
      <trkpt lat="48.5797" lon="-2.56886">
        <ele>26</ele>
        <time>2012-01-22T13:41:43Z</time>
      </trkpt>
      <trkpt lat="48.57972" lon="-2.56884">
        <ele>26</ele>
        <time>2012-01-22T13:41:46Z</time>
      </trkpt>
      <trkpt lat="48.57973" lon="-2.56883">
        <ele>26</ele>
        <time>2012-01-22T13:41:48Z</time>
      </trkpt>
      <trkpt lat="48.57975" lon="-2.56882">
        <ele>26</ele>
        <time>2012-01-22T13:41:50Z</time>
      </trkpt>
      <trkpt lat="48.57977" lon="-2.56881">
        <ele>26</ele>
        <time>2012-01-22T13:41:52Z</time>
      </trkpt>
      <trkpt lat="48.57978" lon="-2.5688">
        <ele>26</ele>
        <time>2012-01-22T13:41:53Z</time>
      </trkpt>
      <trkpt lat="48.5798" lon="-2.5688">
        <ele>26</ele>
        <time>2012-01-22T13:41:54Z</time>
      </trkpt>
      <trkpt lat="48.57981" lon="-2.56879">
        <ele>26</ele>
        <time>2012-01-22T13:41:55Z</time>
      </trkpt>
      <trkpt lat="48.57982" lon="-2.56879">
        <ele>26</ele>
        <time>2012-01-22T13:41:56Z</time>
      </trkpt>
      <trkpt lat="48.57983" lon="-2.56878">
        <ele>26</ele>
        <time>2012-01-22T13:41:57Z</time>
      </trkpt>
      <trkpt lat="48.57986" lon="-2.56877">
        <ele>26</ele>
        <time>2012-01-22T13:41:59Z</time>
      </trkpt>
      <trkpt lat="48.57988" lon="-2.56876">
        <ele>26</ele>
        <time>2012-01-22T13:42:01Z</time>
      </trkpt>
      <trkpt lat="48.5799" lon="-2.56875">
        <ele>26</ele>
        <time>2012-01-22T13:42:03Z</time>
      </trkpt>
      <trkpt lat="48.57991" lon="-2.56875">
        <ele>26</ele>
        <time>2012-01-22T13:42:04Z</time>
      </trkpt>
      <trkpt lat="48.57993" lon="-2.56874">
        <ele>26</ele>
        <time>2012-01-22T13:42:04Z</time>
      </trkpt>
      <trkpt lat="48.57994" lon="-2.56874">
        <ele>26</ele>
        <time>2012-01-22T13:42:06Z</time>
      </trkpt>
      <trkpt lat="48.57995" lon="-2.56874">
        <ele>26</ele>
        <time>2012-01-22T13:42:07Z</time>
      </trkpt>
      <trkpt lat="48.57996" lon="-2.56873">
        <ele>26</ele>
        <time>2012-01-22T13:42:08Z</time>
      </trkpt>
      <trkpt lat="48.57998" lon="-2.56873">
        <ele>26</ele>
        <time>2012-01-22T13:42:10Z</time>
      </trkpt>
      <trkpt lat="48.58" lon="-2.56873">
        <ele>26</ele>
        <time>2012-01-22T13:42:11Z</time>
      </trkpt>
      <trkpt lat="48.58002" lon="-2.56872">
        <ele>26</ele>
        <time>2012-01-22T13:42:13Z</time>
      </trkpt>
      <trkpt lat="48.58004" lon="-2.56872">
        <ele>26</ele>
        <time>2012-01-22T13:42:15Z</time>
      </trkpt>
      <trkpt lat="48.58005" lon="-2.56872">
        <ele>26</ele>
        <time>2012-01-22T13:42:16Z</time>
      </trkpt>
      <trkpt lat="48.58007" lon="-2.56872">
        <ele>26</ele>
        <time>2012-01-22T13:42:17Z</time>
      </trkpt>
      <trkpt lat="48.58009" lon="-2.56872">
        <ele>26</ele>
        <time>2012-01-22T13:42:19Z</time>
      </trkpt>
      <trkpt lat="48.5801" lon="-2.56872">
        <ele>26</ele>
        <time>2012-01-22T13:42:20Z</time>
      </trkpt>
      <trkpt lat="48.58011" lon="-2.56872">
        <ele>26</ele>
        <time>2012-01-22T13:42:21Z</time>
      </trkpt>
      <trkpt lat="48.58013" lon="-2.56872">
        <ele>26</ele>
        <time>2012-01-22T13:42:23Z</time>
      </trkpt>
      <trkpt lat="48.58015" lon="-2.56873">
        <ele>26</ele>
        <time>2012-01-22T13:42:25Z</time>
      </trkpt>
      <trkpt lat="48.58016" lon="-2.56873">
        <ele>26</ele>
        <time>2012-01-22T13:42:26Z</time>
      </trkpt>
      <trkpt lat="48.58017" lon="-2.56874">
        <ele>26</ele>
        <time>2012-01-22T13:42:27Z</time>
      </trkpt>
      <trkpt lat="48.58018" lon="-2.56874">
        <ele>26</ele>
        <time>2012-01-22T13:42:28Z</time>
      </trkpt>
      <trkpt lat="48.5802" lon="-2.56875">
        <ele>26</ele>
        <time>2012-01-22T13:42:29Z</time>
      </trkpt>
      <trkpt lat="48.58022" lon="-2.56876">
        <ele>26</ele>
        <time>2012-01-22T13:42:31Z</time>
      </trkpt>
      <trkpt lat="48.58023" lon="-2.56876">
        <ele>26</ele>
        <time>2012-01-22T13:42:33Z</time>
      </trkpt>
      <trkpt lat="48.58024" lon="-2.56876">
        <ele>26</ele>
        <time>2012-01-22T13:42:34Z</time>
      </trkpt>
      <trkpt lat="48.58025" lon="-2.56876">
        <ele>26</ele>
        <time>2012-01-22T13:42:35Z</time>
      </trkpt>
      <trkpt lat="48.58027" lon="-2.56877">
        <ele>26</ele>
        <time>2012-01-22T13:42:36Z</time>
      </trkpt>
      <trkpt lat="48.58028" lon="-2.56878">
        <ele>26</ele>
        <time>2012-01-22T13:42:37Z</time>
      </trkpt>
      <trkpt lat="48.5803" lon="-2.56879">
        <ele>26</ele>
        <time>2012-01-22T13:42:39Z</time>
      </trkpt>
      <trkpt lat="48.58031" lon="-2.56881">
        <ele>26</ele>
        <time>2012-01-22T13:42:41Z</time>
      </trkpt>
      <trkpt lat="48.58032" lon="-2.56883">
        <ele>26</ele>
        <time>2012-01-22T13:42:43Z</time>
      </trkpt>
      <trkpt lat="48.58033" lon="-2.56886">
        <ele>25</ele>
        <time>2012-01-22T13:42:45Z</time>
      </trkpt>
      <trkpt lat="48.58034" lon="-2.56889">
        <ele>24</ele>
        <time>2012-01-22T13:42:47Z</time>
      </trkpt>
      <trkpt lat="48.58035" lon="-2.56891">
        <ele>24</ele>
        <time>2012-01-22T13:42:48Z</time>
      </trkpt>
      <trkpt lat="48.58036" lon="-2.56894">
        <ele>24</ele>
        <time>2012-01-22T13:42:50Z</time>
      </trkpt>
      <trkpt lat="48.58038" lon="-2.56895">
        <ele>24</ele>
        <time>2012-01-22T13:42:51Z</time>
      </trkpt>
      <trkpt lat="48.58039" lon="-2.56896">
        <ele>24</ele>
        <time>2012-01-22T13:42:52Z</time>
      </trkpt>
      <trkpt lat="48.58041" lon="-2.56897">
        <ele>24</ele>
        <time>2012-01-22T13:42:54Z</time>
      </trkpt>
      <trkpt lat="48.58042" lon="-2.56898">
        <ele>24</ele>
        <time>2012-01-22T13:42:55Z</time>
      </trkpt>
      <trkpt lat="48.58044" lon="-2.56899">
        <ele>24</ele>
        <time>2012-01-22T13:42:56Z</time>
      </trkpt>
      <trkpt lat="48.58045" lon="-2.569">
        <ele>23</ele>
        <time>2012-01-22T13:42:57Z</time>
      </trkpt>
      <trkpt lat="48.58047" lon="-2.56901">
        <ele>23</ele>
        <time>2012-01-22T13:42:59Z</time>
      </trkpt>
      <trkpt lat="48.58048" lon="-2.56902">
        <ele>23</ele>
        <time>2012-01-22T13:43:00Z</time>
      </trkpt>
      <trkpt lat="48.5805" lon="-2.56903">
        <ele>23</ele>
        <time>2012-01-22T13:43:01Z</time>
      </trkpt>
      <trkpt lat="48.58051" lon="-2.56906">
        <ele>23</ele>
        <time>2012-01-22T13:43:03Z</time>
      </trkpt>
      <trkpt lat="48.58052" lon="-2.56908">
        <ele>23</ele>
        <time>2012-01-22T13:43:04Z</time>
      </trkpt>
      <trkpt lat="48.58052" lon="-2.5691">
        <ele>23</ele>
        <time>2012-01-22T13:43:05Z</time>
      </trkpt>
      <trkpt lat="48.58053" lon="-2.56913">
        <ele>23</ele>
        <time>2012-01-22T13:43:07Z</time>
      </trkpt>
      <trkpt lat="48.58053" lon="-2.56914">
        <ele>23</ele>
        <time>2012-01-22T13:43:08Z</time>
      </trkpt>
      <trkpt lat="48.58054" lon="-2.56918">
        <ele>23</ele>
        <time>2012-01-22T13:43:10Z</time>
      </trkpt>
      <trkpt lat="48.58055" lon="-2.56919">
        <ele>23</ele>
        <time>2012-01-22T13:43:11Z</time>
      </trkpt>
      <trkpt lat="48.58055" lon="-2.56922">
        <ele>23</ele>
        <time>2012-01-22T13:43:12Z</time>
      </trkpt>
      <trkpt lat="48.58055" lon="-2.56924">
        <ele>23</ele>
        <time>2012-01-22T13:43:13Z</time>
      </trkpt>
      <trkpt lat="48.58055" lon="-2.56926">
        <ele>23</ele>
        <time>2012-01-22T13:43:14Z</time>
      </trkpt>
      <trkpt lat="48.58057" lon="-2.56929">
        <ele>23</ele>
        <time>2012-01-22T13:43:16Z</time>
      </trkpt>
      <trkpt lat="48.58057" lon="-2.56931">
        <ele>23</ele>
        <time>2012-01-22T13:43:17Z</time>
      </trkpt>
      <trkpt lat="48.58058" lon="-2.56933">
        <ele>23</ele>
        <time>2012-01-22T13:43:18Z</time>
      </trkpt>
      <trkpt lat="48.58059" lon="-2.56935">
        <ele>23</ele>
        <time>2012-01-22T13:43:19Z</time>
      </trkpt>
      <trkpt lat="48.58059" lon="-2.56937">
        <ele>23</ele>
        <time>2012-01-22T13:43:20Z</time>
      </trkpt>
      <trkpt lat="48.5806" lon="-2.56939">
        <ele>23</ele>
        <time>2012-01-22T13:43:21Z</time>
      </trkpt>
      <trkpt lat="48.5806" lon="-2.56941">
        <ele>23</ele>
        <time>2012-01-22T13:43:22Z</time>
      </trkpt>
      <trkpt lat="48.58061" lon="-2.56943">
        <ele>23</ele>
        <time>2012-01-22T13:43:23Z</time>
      </trkpt>
      <trkpt lat="48.58063" lon="-2.56946">
        <ele>22</ele>
        <time>2012-01-22T13:43:25Z</time>
      </trkpt>
      <trkpt lat="48.58064" lon="-2.56948">
        <ele>22</ele>
        <time>2012-01-22T13:43:25Z</time>
      </trkpt>
      <trkpt lat="48.58064" lon="-2.56949">
        <ele>22</ele>
        <time>2012-01-22T13:43:26Z</time>
      </trkpt>
      <trkpt lat="48.58066" lon="-2.56952">
        <ele>21</ele>
        <time>2012-01-22T13:43:29Z</time>
      </trkpt>
      <trkpt lat="48.58068" lon="-2.56955">
        <ele>21</ele>
        <time>2012-01-22T13:43:31Z</time>
      </trkpt>
      <trkpt lat="48.5807" lon="-2.56956">
        <ele>20</ele>
        <time>2012-01-22T13:43:33Z</time>
      </trkpt>
      <trkpt lat="48.58072" lon="-2.56957">
        <ele>20</ele>
        <time>2012-01-22T13:43:34Z</time>
      </trkpt>
      <trkpt lat="48.58073" lon="-2.56958">
        <ele>20</ele>
        <time>2012-01-22T13:43:34Z</time>
      </trkpt>
      <trkpt lat="48.58074" lon="-2.56958">
        <ele>20</ele>
        <time>2012-01-22T13:43:36Z</time>
      </trkpt>
      <trkpt lat="48.58076" lon="-2.5696">
        <ele>19</ele>
        <time>2012-01-22T13:43:38Z</time>
      </trkpt>
      <trkpt lat="48.58077" lon="-2.56961">
        <ele>19</ele>
        <time>2012-01-22T13:43:39Z</time>
      </trkpt>
      <trkpt lat="48.5808" lon="-2.56962">
        <ele>19</ele>
        <time>2012-01-22T13:43:41Z</time>
      </trkpt>
      <trkpt lat="48.58081" lon="-2.56963">
        <ele>19</ele>
        <time>2012-01-22T13:43:42Z</time>
      </trkpt>
      <trkpt lat="48.58082" lon="-2.56963">
        <ele>19</ele>
        <time>2012-01-22T13:43:43Z</time>
      </trkpt>
      <trkpt lat="48.58083" lon="-2.56964">
        <ele>19</ele>
        <time>2012-01-22T13:43:44Z</time>
      </trkpt>
      <trkpt lat="48.58085" lon="-2.56964">
        <ele>19</ele>
        <time>2012-01-22T13:43:45Z</time>
      </trkpt>
      <trkpt lat="48.58086" lon="-2.56964">
        <ele>19</ele>
        <time>2012-01-22T13:43:46Z</time>
      </trkpt>
      <trkpt lat="48.58087" lon="-2.56964">
        <ele>19</ele>
        <time>2012-01-22T13:43:47Z</time>
      </trkpt>
      <trkpt lat="48.58089" lon="-2.56964">
        <ele>19</ele>
        <time>2012-01-22T13:43:48Z</time>
      </trkpt>
      <trkpt lat="48.5809" lon="-2.56964">
        <ele>19</ele>
        <time>2012-01-22T13:43:49Z</time>
      </trkpt>
      <trkpt lat="48.58091" lon="-2.56964">
        <ele>19</ele>
        <time>2012-01-22T13:43:50Z</time>
      </trkpt>
      <trkpt lat="48.58093" lon="-2.56964">
        <ele>19</ele>
        <time>2012-01-22T13:43:51Z</time>
      </trkpt>
      <trkpt lat="48.58094" lon="-2.56963">
        <ele>19</ele>
        <time>2012-01-22T13:43:52Z</time>
      </trkpt>
      <trkpt lat="48.58095" lon="-2.56963">
        <ele>19</ele>
        <time>2012-01-22T13:43:53Z</time>
      </trkpt>
      <trkpt lat="48.58097" lon="-2.56963">
        <ele>19</ele>
        <time>2012-01-22T13:43:54Z</time>
      </trkpt>
      <trkpt lat="48.58098" lon="-2.56963">
        <ele>19</ele>
        <time>2012-01-22T13:43:55Z</time>
      </trkpt>
      <trkpt lat="48.58099" lon="-2.56962">
        <ele>19</ele>
        <time>2012-01-22T13:43:56Z</time>
      </trkpt>
      <trkpt lat="48.58101" lon="-2.56962">
        <ele>19</ele>
        <time>2012-01-22T13:43:57Z</time>
      </trkpt>
      <trkpt lat="48.58102" lon="-2.56962">
        <ele>19</ele>
        <time>2012-01-22T13:43:58Z</time>
      </trkpt>
      <trkpt lat="48.58104" lon="-2.56961">
        <ele>19</ele>
        <time>2012-01-22T13:43:59Z</time>
      </trkpt>
      <trkpt lat="48.58105" lon="-2.56961">
        <ele>19</ele>
        <time>2012-01-22T13:44:00Z</time>
      </trkpt>
      <trkpt lat="48.58107" lon="-2.5696">
        <ele>19</ele>
        <time>2012-01-22T13:44:01Z</time>
      </trkpt>
      <trkpt lat="48.58108" lon="-2.5696">
        <ele>19</ele>
        <time>2012-01-22T13:44:01Z</time>
      </trkpt>
      <trkpt lat="48.58109" lon="-2.5696">
        <ele>19</ele>
        <time>2012-01-22T13:44:02Z</time>
      </trkpt>
      <trkpt lat="48.58111" lon="-2.5696">
        <ele>19</ele>
        <time>2012-01-22T13:44:04Z</time>
      </trkpt>
      <trkpt lat="48.58112" lon="-2.5696">
        <ele>20</ele>
        <time>2012-01-22T13:44:05Z</time>
      </trkpt>
      <trkpt lat="48.58113" lon="-2.5696">
        <ele>20</ele>
        <time>2012-01-22T13:44:06Z</time>
      </trkpt>
      <trkpt lat="48.58115" lon="-2.56961">
        <ele>20</ele>
        <time>2012-01-22T13:44:07Z</time>
      </trkpt>
      <trkpt lat="48.58116" lon="-2.56961">
        <ele>21</ele>
        <time>2012-01-22T13:44:08Z</time>
      </trkpt>
      <trkpt lat="48.58118" lon="-2.56962">
        <ele>21</ele>
        <time>2012-01-22T13:44:09Z</time>
      </trkpt>
      <trkpt lat="48.58119" lon="-2.56962">
        <ele>21</ele>
        <time>2012-01-22T13:44:10Z</time>
      </trkpt>
      <trkpt lat="48.5812" lon="-2.56963">
        <ele>22</ele>
        <time>2012-01-22T13:44:11Z</time>
      </trkpt>
      <trkpt lat="48.58121" lon="-2.56963">
        <ele>22</ele>
        <time>2012-01-22T13:44:12Z</time>
      </trkpt>
      <trkpt lat="48.58123" lon="-2.56963">
        <ele>23</ele>
        <time>2012-01-22T13:44:14Z</time>
      </trkpt>
      <trkpt lat="48.58125" lon="-2.56964">
        <ele>23</ele>
        <time>2012-01-22T13:44:15Z</time>
      </trkpt>
      <trkpt lat="48.58127" lon="-2.56963">
        <ele>23</ele>
        <time>2012-01-22T13:44:17Z</time>
      </trkpt>
      <trkpt lat="48.58128" lon="-2.56963">
        <ele>24</ele>
        <time>2012-01-22T13:44:18Z</time>
      </trkpt>
      <trkpt lat="48.5813" lon="-2.56963">
        <ele>24</ele>
        <time>2012-01-22T13:44:20Z</time>
      </trkpt>
      <trkpt lat="48.58131" lon="-2.56963">
        <ele>25</ele>
        <time>2012-01-22T13:44:21Z</time>
      </trkpt>
      <trkpt lat="48.58133" lon="-2.56964">
        <ele>25</ele>
        <time>2012-01-22T13:44:23Z</time>
      </trkpt>
      <trkpt lat="48.58134" lon="-2.56964">
        <ele>26</ele>
        <time>2012-01-22T13:44:24Z</time>
      </trkpt>
      <trkpt lat="48.58135" lon="-2.56964">
        <ele>26</ele>
        <time>2012-01-22T13:44:25Z</time>
      </trkpt>
      <trkpt lat="48.58136" lon="-2.56964">
        <ele>26</ele>
        <time>2012-01-22T13:44:26Z</time>
      </trkpt>
      <trkpt lat="48.58137" lon="-2.56964">
        <ele>26</ele>
        <time>2012-01-22T13:44:27Z</time>
      </trkpt>
      <trkpt lat="48.58139" lon="-2.56963">
        <ele>27</ele>
        <time>2012-01-22T13:44:29Z</time>
      </trkpt>
      <trkpt lat="48.58141" lon="-2.56963">
        <ele>28</ele>
        <time>2012-01-22T13:44:31Z</time>
      </trkpt>
      <trkpt lat="48.58143" lon="-2.56963">
        <ele>28</ele>
        <time>2012-01-22T13:44:32Z</time>
      </trkpt>
      <trkpt lat="48.58144" lon="-2.56963">
        <ele>29</ele>
        <time>2012-01-22T13:44:34Z</time>
      </trkpt>
      <trkpt lat="48.58147" lon="-2.56962">
        <ele>29</ele>
        <time>2012-01-22T13:44:36Z</time>
      </trkpt>
      <trkpt lat="48.58149" lon="-2.56963">
        <ele>30</ele>
        <time>2012-01-22T13:44:38Z</time>
      </trkpt>
      <trkpt lat="48.5815" lon="-2.56964">
        <ele>30</ele>
        <time>2012-01-22T13:44:40Z</time>
      </trkpt>
      <trkpt lat="48.58152" lon="-2.56964">
        <ele>31</ele>
        <time>2012-01-22T13:44:42Z</time>
      </trkpt>
      <trkpt lat="48.58153" lon="-2.56965">
        <ele>31</ele>
        <time>2012-01-22T13:44:43Z</time>
      </trkpt>
      <trkpt lat="48.58154" lon="-2.56964">
        <ele>31</ele>
        <time>2012-01-22T13:44:44Z</time>
      </trkpt>
      <trkpt lat="48.58155" lon="-2.56964">
        <ele>31</ele>
        <time>2012-01-22T13:44:45Z</time>
      </trkpt>
      <trkpt lat="48.58157" lon="-2.56964">
        <ele>32</ele>
        <time>2012-01-22T13:44:46Z</time>
      </trkpt>
      <trkpt lat="48.58158" lon="-2.56963">
        <ele>32</ele>
        <time>2012-01-22T13:44:47Z</time>
      </trkpt>
      <trkpt lat="48.5816" lon="-2.56963">
        <ele>32</ele>
        <time>2012-01-22T13:44:49Z</time>
      </trkpt>
      <trkpt lat="48.58162" lon="-2.56962">
        <ele>32</ele>
        <time>2012-01-22T13:44:50Z</time>
      </trkpt>
      <trkpt lat="48.58163" lon="-2.56962">
        <ele>32</ele>
        <time>2012-01-22T13:44:50Z</time>
      </trkpt>
      <trkpt lat="48.58165" lon="-2.56961">
        <ele>33</ele>
        <time>2012-01-22T13:44:53Z</time>
      </trkpt>
      <trkpt lat="48.58166" lon="-2.5696">
        <ele>33</ele>
        <time>2012-01-22T13:44:55Z</time>
      </trkpt>
      <trkpt lat="48.58168" lon="-2.5696">
        <ele>33</ele>
        <time>2012-01-22T13:44:56Z</time>
      </trkpt>
      <trkpt lat="48.58169" lon="-2.56959">
        <ele>33</ele>
        <time>2012-01-22T13:44:58Z</time>
      </trkpt>
      <trkpt lat="48.58171" lon="-2.56959">
        <ele>33</ele>
        <time>2012-01-22T13:44:58Z</time>
      </trkpt>
      <trkpt lat="48.58172" lon="-2.56958">
        <ele>33</ele>
        <time>2012-01-22T13:45:00Z</time>
      </trkpt>
      <trkpt lat="48.58173" lon="-2.56956">
        <ele>34</ele>
        <time>2012-01-22T13:45:02Z</time>
      </trkpt>
      <trkpt lat="48.58175" lon="-2.56956">
        <ele>34</ele>
        <time>2012-01-22T13:45:03Z</time>
      </trkpt>
      <trkpt lat="48.58176" lon="-2.56955">
        <ele>34</ele>
        <time>2012-01-22T13:45:04Z</time>
      </trkpt>
      <trkpt lat="48.58177" lon="-2.56955">
        <ele>35</ele>
        <time>2012-01-22T13:45:05Z</time>
      </trkpt>
      <trkpt lat="48.58179" lon="-2.56954">
        <ele>35</ele>
        <time>2012-01-22T13:45:07Z</time>
      </trkpt>
      <trkpt lat="48.58181" lon="-2.56953">
        <ele>36</ele>
        <time>2012-01-22T13:45:09Z</time>
      </trkpt>
      <trkpt lat="48.58183" lon="-2.56951">
        <ele>36</ele>
        <time>2012-01-22T13:45:11Z</time>
      </trkpt>
      <trkpt lat="48.58184" lon="-2.56951">
        <ele>36</ele>
        <time>2012-01-22T13:45:12Z</time>
      </trkpt>
      <trkpt lat="48.58186" lon="-2.56951">
        <ele>37</ele>
        <time>2012-01-22T13:45:14Z</time>
      </trkpt>
      <trkpt lat="48.58188" lon="-2.5695">
        <ele>37</ele>
        <time>2012-01-22T13:45:16Z</time>
      </trkpt>
      <trkpt lat="48.5819" lon="-2.56949">
        <ele>37</ele>
        <time>2012-01-22T13:45:18Z</time>
      </trkpt>
      <trkpt lat="48.58191" lon="-2.56948">
        <ele>37</ele>
        <time>2012-01-22T13:45:19Z</time>
      </trkpt>
      <trkpt lat="48.58192" lon="-2.56948">
        <ele>37</ele>
        <time>2012-01-22T13:45:20Z</time>
      </trkpt>
      <trkpt lat="48.58194" lon="-2.56949">
        <ele>37</ele>
        <time>2012-01-22T13:45:21Z</time>
      </trkpt>
      <trkpt lat="48.58195" lon="-2.56948">
        <ele>37</ele>
        <time>2012-01-22T13:45:22Z</time>
      </trkpt>
      <trkpt lat="48.58197" lon="-2.56946">
        <ele>37</ele>
        <time>2012-01-22T13:45:25Z</time>
      </trkpt>
      <trkpt lat="48.58199" lon="-2.56945">
        <ele>37</ele>
        <time>2012-01-22T13:45:27Z</time>
      </trkpt>
      <trkpt lat="48.58201" lon="-2.56943">
        <ele>37</ele>
        <time>2012-01-22T13:45:29Z</time>
      </trkpt>
      <trkpt lat="48.58203" lon="-2.56942">
        <ele>37</ele>
        <time>2012-01-22T13:45:31Z</time>
      </trkpt>
      <trkpt lat="48.58205" lon="-2.56939">
        <ele>37</ele>
        <time>2012-01-22T13:45:33Z</time>
      </trkpt>
      <trkpt lat="48.58206" lon="-2.56938">
        <ele>37</ele>
        <time>2012-01-22T13:45:34Z</time>
      </trkpt>
      <trkpt lat="48.58207" lon="-2.56937">
        <ele>37</ele>
        <time>2012-01-22T13:45:35Z</time>
      </trkpt>
      <trkpt lat="48.58208" lon="-2.56936">
        <ele>37</ele>
        <time>2012-01-22T13:45:36Z</time>
      </trkpt>
      <trkpt lat="48.5821" lon="-2.56936">
        <ele>37</ele>
        <time>2012-01-22T13:45:37Z</time>
      </trkpt>
      <trkpt lat="48.58211" lon="-2.56935">
        <ele>37</ele>
        <time>2012-01-22T13:45:38Z</time>
      </trkpt>
      <trkpt lat="48.58212" lon="-2.56934">
        <ele>37</ele>
        <time>2012-01-22T13:45:39Z</time>
      </trkpt>
      <trkpt lat="48.58213" lon="-2.56934">
        <ele>37</ele>
        <time>2012-01-22T13:45:40Z</time>
      </trkpt>
      <trkpt lat="48.58214" lon="-2.56933">
        <ele>37</ele>
        <time>2012-01-22T13:45:41Z</time>
      </trkpt>
      <trkpt lat="48.58216" lon="-2.56933">
        <ele>37</ele>
        <time>2012-01-22T13:45:42Z</time>
      </trkpt>
      <trkpt lat="48.58217" lon="-2.56933">
        <ele>37</ele>
        <time>2012-01-22T13:45:43Z</time>
      </trkpt>
      <trkpt lat="48.58218" lon="-2.56933">
        <ele>37</ele>
        <time>2012-01-22T13:45:44Z</time>
      </trkpt>
      <trkpt lat="48.58219" lon="-2.56933">
        <ele>37</ele>
        <time>2012-01-22T13:45:45Z</time>
      </trkpt>
      <trkpt lat="48.58221" lon="-2.56932">
        <ele>37</ele>
        <time>2012-01-22T13:45:46Z</time>
      </trkpt>
      <trkpt lat="48.58222" lon="-2.56932">
        <ele>37</ele>
        <time>2012-01-22T13:45:47Z</time>
      </trkpt>
      <trkpt lat="48.58223" lon="-2.56933">
        <ele>37</ele>
        <time>2012-01-22T13:45:48Z</time>
      </trkpt>
      <trkpt lat="48.58224" lon="-2.56933">
        <ele>37</ele>
        <time>2012-01-22T13:45:49Z</time>
      </trkpt>
      <trkpt lat="48.58226" lon="-2.56933">
        <ele>37</ele>
        <time>2012-01-22T13:45:50Z</time>
      </trkpt>
      <trkpt lat="48.58227" lon="-2.56933">
        <ele>37</ele>
        <time>2012-01-22T13:45:50Z</time>
      </trkpt>
      <trkpt lat="48.58228" lon="-2.56934">
        <ele>37</ele>
        <time>2012-01-22T13:45:52Z</time>
      </trkpt>
      <trkpt lat="48.5823" lon="-2.56934">
        <ele>37</ele>
        <time>2012-01-22T13:45:53Z</time>
      </trkpt>
      <trkpt lat="48.58231" lon="-2.56934">
        <ele>37</ele>
        <time>2012-01-22T13:45:54Z</time>
      </trkpt>
      <trkpt lat="48.58233" lon="-2.56934">
        <ele>37</ele>
        <time>2012-01-22T13:45:56Z</time>
      </trkpt>
      <trkpt lat="48.58234" lon="-2.56933">
        <ele>37</ele>
        <time>2012-01-22T13:45:58Z</time>
      </trkpt>
      <trkpt lat="48.58236" lon="-2.56933">
        <ele>37</ele>
        <time>2012-01-22T13:46:00Z</time>
      </trkpt>
      <trkpt lat="48.58237" lon="-2.56932">
        <ele>37</ele>
        <time>2012-01-22T13:46:01Z</time>
      </trkpt>
      <trkpt lat="48.58238" lon="-2.56932">
        <ele>37</ele>
        <time>2012-01-22T13:46:02Z</time>
      </trkpt>
      <trkpt lat="48.5824" lon="-2.56932">
        <ele>37</ele>
        <time>2012-01-22T13:46:04Z</time>
      </trkpt>
      <trkpt lat="48.58241" lon="-2.56932">
        <ele>37</ele>
        <time>2012-01-22T13:46:06Z</time>
      </trkpt>
      <trkpt lat="48.58243" lon="-2.56933">
        <ele>37</ele>
        <time>2012-01-22T13:46:08Z</time>
      </trkpt>
      <trkpt lat="48.58244" lon="-2.56933">
        <ele>37</ele>
        <time>2012-01-22T13:46:09Z</time>
      </trkpt>
      <trkpt lat="48.58245" lon="-2.56934">
        <ele>37</ele>
        <time>2012-01-22T13:46:10Z</time>
      </trkpt>
      <trkpt lat="48.58247" lon="-2.56935">
        <ele>37</ele>
        <time>2012-01-22T13:46:11Z</time>
      </trkpt>
      <trkpt lat="48.58248" lon="-2.56936">
        <ele>37</ele>
        <time>2012-01-22T13:46:11Z</time>
      </trkpt>
      <trkpt lat="48.58249" lon="-2.56936">
        <ele>37</ele>
        <time>2012-01-22T13:46:12Z</time>
      </trkpt>
      <trkpt lat="48.5825" lon="-2.56936">
        <ele>37</ele>
        <time>2012-01-22T13:46:14Z</time>
      </trkpt>
      <trkpt lat="48.58252" lon="-2.56937">
        <ele>37</ele>
        <time>2012-01-22T13:46:15Z</time>
      </trkpt>
      <trkpt lat="48.58253" lon="-2.56937">
        <ele>37</ele>
        <time>2012-01-22T13:46:16Z</time>
      </trkpt>
      <trkpt lat="48.58255" lon="-2.56937">
        <ele>37</ele>
        <time>2012-01-22T13:46:17Z</time>
      </trkpt>
      <trkpt lat="48.58256" lon="-2.56937">
        <ele>37</ele>
        <time>2012-01-22T13:46:18Z</time>
      </trkpt>
      <trkpt lat="48.58257" lon="-2.56937">
        <ele>37</ele>
        <time>2012-01-22T13:46:18Z</time>
      </trkpt>
      <trkpt lat="48.58259" lon="-2.56937">
        <ele>37</ele>
        <time>2012-01-22T13:46:20Z</time>
      </trkpt>
      <trkpt lat="48.5826" lon="-2.56937">
        <ele>37</ele>
        <time>2012-01-22T13:46:21Z</time>
      </trkpt>
      <trkpt lat="48.58262" lon="-2.56936">
        <ele>37</ele>
        <time>2012-01-22T13:46:22Z</time>
      </trkpt>
      <trkpt lat="48.58263" lon="-2.56936">
        <ele>37</ele>
        <time>2012-01-22T13:46:23Z</time>
      </trkpt>
      <trkpt lat="48.58264" lon="-2.56936">
        <ele>37</ele>
        <time>2012-01-22T13:46:24Z</time>
      </trkpt>
      <trkpt lat="48.58266" lon="-2.56935">
        <ele>37</ele>
        <time>2012-01-22T13:46:25Z</time>
      </trkpt>
      <trkpt lat="48.58268" lon="-2.56935">
        <ele>37</ele>
        <time>2012-01-22T13:46:27Z</time>
      </trkpt>
      <trkpt lat="48.58269" lon="-2.56934">
        <ele>37</ele>
        <time>2012-01-22T13:46:29Z</time>
      </trkpt>
      <trkpt lat="48.58271" lon="-2.56933">
        <ele>37</ele>
        <time>2012-01-22T13:46:31Z</time>
      </trkpt>
      <trkpt lat="48.58272" lon="-2.56933">
        <ele>37</ele>
        <time>2012-01-22T13:46:32Z</time>
      </trkpt>
      <trkpt lat="48.58274" lon="-2.56933">
        <ele>37</ele>
        <time>2012-01-22T13:46:34Z</time>
      </trkpt>
      <trkpt lat="48.58276" lon="-2.56932">
        <ele>37</ele>
        <time>2012-01-22T13:46:36Z</time>
      </trkpt>
      <trkpt lat="48.58277" lon="-2.56932">
        <ele>37</ele>
        <time>2012-01-22T13:46:36Z</time>
      </trkpt>
      <trkpt lat="48.58279" lon="-2.56933">
        <ele>37</ele>
        <time>2012-01-22T13:46:39Z</time>
      </trkpt>
      <trkpt lat="48.58281" lon="-2.56933">
        <ele>37</ele>
        <time>2012-01-22T13:46:41Z</time>
      </trkpt>
      <trkpt lat="48.58282" lon="-2.56932">
        <ele>37</ele>
        <time>2012-01-22T13:46:41Z</time>
      </trkpt>
      <trkpt lat="48.58284" lon="-2.56932">
        <ele>37</ele>
        <time>2012-01-22T13:46:43Z</time>
      </trkpt>
      <trkpt lat="48.58285" lon="-2.56932">
        <ele>37</ele>
        <time>2012-01-22T13:46:44Z</time>
      </trkpt>
      <trkpt lat="48.58286" lon="-2.56932">
        <ele>37</ele>
        <time>2012-01-22T13:46:45Z</time>
      </trkpt>
      <trkpt lat="48.58287" lon="-2.56932">
        <ele>37</ele>
        <time>2012-01-22T13:46:46Z</time>
      </trkpt>
      <trkpt lat="48.58289" lon="-2.56932">
        <ele>37</ele>
        <time>2012-01-22T13:46:48Z</time>
      </trkpt>
      <trkpt lat="48.58291" lon="-2.56932">
        <ele>37</ele>
        <time>2012-01-22T13:46:50Z</time>
      </trkpt>
      <trkpt lat="48.58292" lon="-2.56932">
        <ele>37</ele>
        <time>2012-01-22T13:46:51Z</time>
      </trkpt>
      <trkpt lat="48.58294" lon="-2.56932">
        <ele>37</ele>
        <time>2012-01-22T13:46:53Z</time>
      </trkpt>
      <trkpt lat="48.58295" lon="-2.56931">
        <ele>37</ele>
        <time>2012-01-22T13:47:02Z</time>
      </trkpt>
      <trkpt lat="48.58296" lon="-2.56931">
        <ele>37</ele>
        <time>2012-01-22T13:47:03Z</time>
      </trkpt>
      <trkpt lat="48.58298" lon="-2.56931">
        <ele>37</ele>
        <time>2012-01-22T13:47:05Z</time>
      </trkpt>
      <trkpt lat="48.58299" lon="-2.5693">
        <ele>37</ele>
        <time>2012-01-22T13:47:07Z</time>
      </trkpt>
      <trkpt lat="48.58301" lon="-2.5693">
        <ele>37</ele>
        <time>2012-01-22T13:47:07Z</time>
      </trkpt>
      <trkpt lat="48.58302" lon="-2.5693">
        <ele>37</ele>
        <time>2012-01-22T13:47:09Z</time>
      </trkpt>
      <trkpt lat="48.58303" lon="-2.5693">
        <ele>37</ele>
        <time>2012-01-22T13:47:10Z</time>
      </trkpt>
      <trkpt lat="48.58305" lon="-2.56929">
        <ele>37</ele>
        <time>2012-01-22T13:47:12Z</time>
      </trkpt>
      <trkpt lat="48.58307" lon="-2.56929">
        <ele>37</ele>
        <time>2012-01-22T13:47:14Z</time>
      </trkpt>
      <trkpt lat="48.58308" lon="-2.56929">
        <ele>37</ele>
        <time>2012-01-22T13:47:19Z</time>
      </trkpt>
      <trkpt lat="48.5831" lon="-2.56928">
        <ele>37</ele>
        <time>2012-01-22T13:47:21Z</time>
      </trkpt>
      <trkpt lat="48.58311" lon="-2.56929">
        <ele>37</ele>
        <time>2012-01-22T13:47:21Z</time>
      </trkpt>
      <trkpt lat="48.58313" lon="-2.56928">
        <ele>37</ele>
        <time>2012-01-22T13:47:24Z</time>
      </trkpt>
      <trkpt lat="48.58315" lon="-2.56928">
        <ele>37</ele>
        <time>2012-01-22T13:47:26Z</time>
      </trkpt>
      <trkpt lat="48.58316" lon="-2.56927">
        <ele>37</ele>
        <time>2012-01-22T13:47:27Z</time>
      </trkpt>
      <trkpt lat="48.58315" lon="-2.56926">
        <ele>37</ele>
        <time>2012-01-22T13:47:38Z</time>
      </trkpt>
      <trkpt lat="48.58317" lon="-2.56925">
        <ele>37</ele>
        <time>2012-01-22T13:47:43Z</time>
      </trkpt>
      <trkpt lat="48.58318" lon="-2.56924">
        <ele>37</ele>
        <time>2012-01-22T13:47:43Z</time>
      </trkpt>
      <trkpt lat="48.58319" lon="-2.56924">
        <ele>37</ele>
        <time>2012-01-22T13:47:44Z</time>
      </trkpt>
      <trkpt lat="48.58321" lon="-2.56923">
        <ele>37</ele>
        <time>2012-01-22T13:47:46Z</time>
      </trkpt>
      <trkpt lat="48.58322" lon="-2.56922">
        <ele>37</ele>
        <time>2012-01-22T13:47:47Z</time>
      </trkpt>
      <trkpt lat="48.58324" lon="-2.56921">
        <ele>37</ele>
        <time>2012-01-22T13:47:48Z</time>
      </trkpt>
      <trkpt lat="48.58325" lon="-2.56919">
        <ele>37</ele>
        <time>2012-01-22T13:47:49Z</time>
      </trkpt>
      <trkpt lat="48.58326" lon="-2.56917">
        <ele>37</ele>
        <time>2012-01-22T13:47:50Z</time>
      </trkpt>
      <trkpt lat="48.58327" lon="-2.56915">
        <ele>37</ele>
        <time>2012-01-22T13:47:51Z</time>
      </trkpt>
      <trkpt lat="48.58327" lon="-2.56914">
        <ele>37</ele>
        <time>2012-01-22T13:47:52Z</time>
      </trkpt>
      <trkpt lat="48.58328" lon="-2.56911">
        <ele>37</ele>
        <time>2012-01-22T13:47:54Z</time>
      </trkpt>
      <trkpt lat="48.58328" lon="-2.56908">
        <ele>37</ele>
        <time>2012-01-22T13:47:55Z</time>
      </trkpt>
      <trkpt lat="48.58328" lon="-2.56906">
        <ele>37</ele>
        <time>2012-01-22T13:47:56Z</time>
      </trkpt>
      <trkpt lat="48.58327" lon="-2.56904">
        <ele>36</ele>
        <time>2012-01-22T13:47:58Z</time>
      </trkpt>
      <trkpt lat="48.58327" lon="-2.56902">
        <ele>36</ele>
        <time>2012-01-22T13:47:59Z</time>
      </trkpt>
      <trkpt lat="48.58326" lon="-2.56899">
        <ele>36</ele>
        <time>2012-01-22T13:48:00Z</time>
      </trkpt>
      <trkpt lat="48.58326" lon="-2.56898">
        <ele>36</ele>
        <time>2012-01-22T13:48:01Z</time>
      </trkpt>
      <trkpt lat="48.58325" lon="-2.56896">
        <ele>36</ele>
        <time>2012-01-22T13:48:02Z</time>
      </trkpt>
      <trkpt lat="48.58324" lon="-2.56894">
        <ele>36</ele>
        <time>2012-01-22T13:48:02Z</time>
      </trkpt>
      <trkpt lat="48.58324" lon="-2.56892">
        <ele>36</ele>
        <time>2012-01-22T13:48:04Z</time>
      </trkpt>
      <trkpt lat="48.58323" lon="-2.5689">
        <ele>36</ele>
        <time>2012-01-22T13:48:05Z</time>
      </trkpt>
      <trkpt lat="48.58323" lon="-2.56888">
        <ele>36</ele>
        <time>2012-01-22T13:48:06Z</time>
      </trkpt>
      <trkpt lat="48.58322" lon="-2.56886">
        <ele>36</ele>
        <time>2012-01-22T13:48:07Z</time>
      </trkpt>
      <trkpt lat="48.58321" lon="-2.56884">
        <ele>36</ele>
        <time>2012-01-22T13:48:08Z</time>
      </trkpt>
      <trkpt lat="48.5832" lon="-2.56883">
        <ele>36</ele>
        <time>2012-01-22T13:48:09Z</time>
      </trkpt>
      <trkpt lat="48.58319" lon="-2.56881">
        <ele>36</ele>
        <time>2012-01-22T13:48:10Z</time>
      </trkpt>
      <trkpt lat="48.58318" lon="-2.56879">
        <ele>36</ele>
        <time>2012-01-22T13:48:11Z</time>
      </trkpt>
      <trkpt lat="48.58317" lon="-2.56878">
        <ele>36</ele>
        <time>2012-01-22T13:48:12Z</time>
      </trkpt>
      <trkpt lat="48.58315" lon="-2.56876">
        <ele>36</ele>
        <time>2012-01-22T13:48:13Z</time>
      </trkpt>
      <trkpt lat="48.58314" lon="-2.56874">
        <ele>35</ele>
        <time>2012-01-22T13:48:14Z</time>
      </trkpt>
      <trkpt lat="48.58313" lon="-2.56873">
        <ele>35</ele>
        <time>2012-01-22T13:48:15Z</time>
      </trkpt>
      <trkpt lat="48.58311" lon="-2.56871">
        <ele>35</ele>
        <time>2012-01-22T13:48:16Z</time>
      </trkpt>
      <trkpt lat="48.5831" lon="-2.5687">
        <ele>35</ele>
        <time>2012-01-22T13:48:17Z</time>
      </trkpt>
      <trkpt lat="48.58308" lon="-2.5687">
        <ele>35</ele>
        <time>2012-01-22T13:48:18Z</time>
      </trkpt>
      <trkpt lat="48.58307" lon="-2.56867">
        <ele>35</ele>
        <time>2012-01-22T13:48:20Z</time>
      </trkpt>
      <trkpt lat="48.58305" lon="-2.56866">
        <ele>35</ele>
        <time>2012-01-22T13:48:21Z</time>
      </trkpt>
      <trkpt lat="48.58303" lon="-2.56865">
        <ele>34</ele>
        <time>2012-01-22T13:48:23Z</time>
      </trkpt>
      <trkpt lat="48.58302" lon="-2.56864">
        <ele>34</ele>
        <time>2012-01-22T13:48:24Z</time>
      </trkpt>
      <trkpt lat="48.583" lon="-2.56863">
        <ele>34</ele>
        <time>2012-01-22T13:48:25Z</time>
      </trkpt>
      <trkpt lat="48.58299" lon="-2.56861">
        <ele>33</ele>
        <time>2012-01-22T13:48:26Z</time>
      </trkpt>
      <trkpt lat="48.58298" lon="-2.56861">
        <ele>33</ele>
        <time>2012-01-22T13:48:27Z</time>
      </trkpt>
      <trkpt lat="48.58297" lon="-2.56859">
        <ele>32</ele>
        <time>2012-01-22T13:48:28Z</time>
      </trkpt>
      <trkpt lat="48.58295" lon="-2.56858">
        <ele>32</ele>
        <time>2012-01-22T13:48:29Z</time>
      </trkpt>
      <trkpt lat="48.58294" lon="-2.56857">
        <ele>31</ele>
        <time>2012-01-22T13:48:30Z</time>
      </trkpt>
      <trkpt lat="48.58293" lon="-2.56856">
        <ele>31</ele>
        <time>2012-01-22T13:48:31Z</time>
      </trkpt>
      <trkpt lat="48.58292" lon="-2.56854">
        <ele>30</ele>
        <time>2012-01-22T13:48:32Z</time>
      </trkpt>
      <trkpt lat="48.5829" lon="-2.56853">
        <ele>30</ele>
        <time>2012-01-22T13:48:33Z</time>
      </trkpt>
      <trkpt lat="48.58289" lon="-2.56851">
        <ele>29</ele>
        <time>2012-01-22T13:48:34Z</time>
      </trkpt>
      <trkpt lat="48.58288" lon="-2.5685">
        <ele>29</ele>
        <time>2012-01-22T13:48:35Z</time>
      </trkpt>
      <trkpt lat="48.58286" lon="-2.56847">
        <ele>29</ele>
        <time>2012-01-22T13:48:37Z</time>
      </trkpt>
      <trkpt lat="48.58284" lon="-2.56844">
        <ele>29</ele>
        <time>2012-01-22T13:48:39Z</time>
      </trkpt>
      <trkpt lat="48.58282" lon="-2.56842">
        <ele>28</ele>
        <time>2012-01-22T13:48:40Z</time>
      </trkpt>
      <trkpt lat="48.58281" lon="-2.56841">
        <ele>28</ele>
        <time>2012-01-22T13:48:41Z</time>
      </trkpt>
      <trkpt lat="48.58278" lon="-2.56839">
        <ele>28</ele>
        <time>2012-01-22T13:48:43Z</time>
      </trkpt>
      <trkpt lat="48.58277" lon="-2.56837">
        <ele>27</ele>
        <time>2012-01-22T13:48:44Z</time>
      </trkpt>
      <trkpt lat="48.58275" lon="-2.56835">
        <ele>27</ele>
        <time>2012-01-22T13:48:46Z</time>
      </trkpt>
      <trkpt lat="48.58273" lon="-2.56833">
        <ele>26</ele>
        <time>2012-01-22T13:48:48Z</time>
      </trkpt>
      <trkpt lat="48.58272" lon="-2.56832">
        <ele>26</ele>
        <time>2012-01-22T13:48:49Z</time>
      </trkpt>
      <trkpt lat="48.58271" lon="-2.56831">
        <ele>26</ele>
        <time>2012-01-22T13:48:50Z</time>
      </trkpt>
      <trkpt lat="48.58269" lon="-2.56829">
        <ele>26</ele>
        <time>2012-01-22T13:48:52Z</time>
      </trkpt>
      <trkpt lat="48.58268" lon="-2.56828">
        <ele>26</ele>
        <time>2012-01-22T13:48:53Z</time>
      </trkpt>
      <trkpt lat="48.58266" lon="-2.56825">
        <ele>26</ele>
        <time>2012-01-22T13:48:55Z</time>
      </trkpt>
      <trkpt lat="48.58264" lon="-2.56824">
        <ele>26</ele>
        <time>2012-01-22T13:48:56Z</time>
      </trkpt>
      <trkpt lat="48.58262" lon="-2.56823">
        <ele>26</ele>
        <time>2012-01-22T13:48:58Z</time>
      </trkpt>
      <trkpt lat="48.58261" lon="-2.56821">
        <ele>26</ele>
        <time>2012-01-22T13:48:59Z</time>
      </trkpt>
      <trkpt lat="48.58259" lon="-2.56821">
        <ele>26</ele>
        <time>2012-01-22T13:49:00Z</time>
      </trkpt>
      <trkpt lat="48.58258" lon="-2.56819">
        <ele>25</ele>
        <time>2012-01-22T13:49:01Z</time>
      </trkpt>
      <trkpt lat="48.58257" lon="-2.56818">
        <ele>25</ele>
        <time>2012-01-22T13:49:02Z</time>
      </trkpt>
      <trkpt lat="48.58255" lon="-2.56817">
        <ele>25</ele>
        <time>2012-01-22T13:49:03Z</time>
      </trkpt>
      <trkpt lat="48.58253" lon="-2.56815">
        <ele>24</ele>
        <time>2012-01-22T13:49:05Z</time>
      </trkpt>
      <trkpt lat="48.58252" lon="-2.56813">
        <ele>24</ele>
        <time>2012-01-22T13:49:06Z</time>
      </trkpt>
      <trkpt lat="48.5825" lon="-2.5681">
        <ele>24</ele>
        <time>2012-01-22T13:49:08Z</time>
      </trkpt>
      <trkpt lat="48.5825" lon="-2.56808">
        <ele>23</ele>
        <time>2012-01-22T13:49:09Z</time>
      </trkpt>
      <trkpt lat="48.58248" lon="-2.56805">
        <ele>23</ele>
        <time>2012-01-22T13:49:11Z</time>
      </trkpt>
      <trkpt lat="48.58247" lon="-2.56804">
        <ele>23</ele>
        <time>2012-01-22T13:49:12Z</time>
      </trkpt>
      <trkpt lat="48.58247" lon="-2.56802">
        <ele>23</ele>
        <time>2012-01-22T13:49:13Z</time>
      </trkpt>
      <trkpt lat="48.58246" lon="-2.56799">
        <ele>23</ele>
        <time>2012-01-22T13:49:14Z</time>
      </trkpt>
      <trkpt lat="48.58245" lon="-2.56797">
        <ele>23</ele>
        <time>2012-01-22T13:49:15Z</time>
      </trkpt>
      <trkpt lat="48.58245" lon="-2.56795">
        <ele>23</ele>
        <time>2012-01-22T13:49:16Z</time>
      </trkpt>
      <trkpt lat="48.58244" lon="-2.56793">
        <ele>23</ele>
        <time>2012-01-22T13:49:17Z</time>
      </trkpt>
      <trkpt lat="48.58244" lon="-2.56791">
        <ele>23</ele>
        <time>2012-01-22T13:49:18Z</time>
      </trkpt>
      <trkpt lat="48.58243" lon="-2.56789">
        <ele>23</ele>
        <time>2012-01-22T13:49:19Z</time>
      </trkpt>
      <trkpt lat="48.58243" lon="-2.56787">
        <ele>23</ele>
        <time>2012-01-22T13:49:20Z</time>
      </trkpt>
      <trkpt lat="48.58243" lon="-2.56785">
        <ele>22</ele>
        <time>2012-01-22T13:49:22Z</time>
      </trkpt>
      <trkpt lat="48.58242" lon="-2.56781">
        <ele>22</ele>
        <time>2012-01-22T13:49:24Z</time>
      </trkpt>
      <trkpt lat="48.58242" lon="-2.56779">
        <ele>22</ele>
        <time>2012-01-22T13:49:24Z</time>
      </trkpt>
      <trkpt lat="48.58242" lon="-2.56777">
        <ele>22</ele>
        <time>2012-01-22T13:49:25Z</time>
      </trkpt>
      <trkpt lat="48.58242" lon="-2.56775">
        <ele>22</ele>
        <time>2012-01-22T13:49:27Z</time>
      </trkpt>
      <trkpt lat="48.58243" lon="-2.56772">
        <ele>22</ele>
        <time>2012-01-22T13:49:28Z</time>
      </trkpt>
      <trkpt lat="48.58243" lon="-2.5677">
        <ele>22</ele>
        <time>2012-01-22T13:49:29Z</time>
      </trkpt>
      <trkpt lat="48.58244" lon="-2.56768">
        <ele>21</ele>
        <time>2012-01-22T13:49:30Z</time>
      </trkpt>
      <trkpt lat="48.58244" lon="-2.56766">
        <ele>21</ele>
        <time>2012-01-22T13:49:31Z</time>
      </trkpt>
      <trkpt lat="48.58244" lon="-2.56764">
        <ele>21</ele>
        <time>2012-01-22T13:49:32Z</time>
      </trkpt>
      <trkpt lat="48.58244" lon="-2.56762">
        <ele>21</ele>
        <time>2012-01-22T13:49:33Z</time>
      </trkpt>
      <trkpt lat="48.58244" lon="-2.5676">
        <ele>21</ele>
        <time>2012-01-22T13:49:34Z</time>
      </trkpt>
      <trkpt lat="48.58245" lon="-2.56757">
        <ele>21</ele>
        <time>2012-01-22T13:49:35Z</time>
      </trkpt>
      <trkpt lat="48.58245" lon="-2.56755">
        <ele>20</ele>
        <time>2012-01-22T13:49:36Z</time>
      </trkpt>
      <trkpt lat="48.58246" lon="-2.56753">
        <ele>20</ele>
        <time>2012-01-22T13:49:37Z</time>
      </trkpt>
      <trkpt lat="48.58246" lon="-2.56751">
        <ele>20</ele>
        <time>2012-01-22T13:49:38Z</time>
      </trkpt>
      <trkpt lat="48.58247" lon="-2.56749">
        <ele>20</ele>
        <time>2012-01-22T13:49:39Z</time>
      </trkpt>
      <trkpt lat="48.58247" lon="-2.56747">
        <ele>20</ele>
        <time>2012-01-22T13:49:40Z</time>
      </trkpt>
      <trkpt lat="48.58247" lon="-2.56744">
        <ele>20</ele>
        <time>2012-01-22T13:49:41Z</time>
      </trkpt>
      <trkpt lat="48.58247" lon="-2.56742">
        <ele>20</ele>
        <time>2012-01-22T13:49:42Z</time>
      </trkpt>
      <trkpt lat="48.58247" lon="-2.56739">
        <ele>20</ele>
        <time>2012-01-22T13:49:43Z</time>
      </trkpt>
      <trkpt lat="48.58247" lon="-2.56737">
        <ele>20</ele>
        <time>2012-01-22T13:49:44Z</time>
      </trkpt>
      <trkpt lat="48.58246" lon="-2.56735">
        <ele>20</ele>
        <time>2012-01-22T13:49:45Z</time>
      </trkpt>
      <trkpt lat="48.58246" lon="-2.56733">
        <ele>20</ele>
        <time>2012-01-22T13:49:46Z</time>
      </trkpt>
      <trkpt lat="48.58247" lon="-2.5673">
        <ele>20</ele>
        <time>2012-01-22T13:49:47Z</time>
      </trkpt>
      <trkpt lat="48.58247" lon="-2.56728">
        <ele>20</ele>
        <time>2012-01-22T13:49:48Z</time>
      </trkpt>
      <trkpt lat="48.58248" lon="-2.56726">
        <ele>20</ele>
        <time>2012-01-22T13:49:49Z</time>
      </trkpt>
      <trkpt lat="48.58248" lon="-2.56723">
        <ele>20</ele>
        <time>2012-01-22T13:49:50Z</time>
      </trkpt>
      <trkpt lat="48.58248" lon="-2.56721">
        <ele>20</ele>
        <time>2012-01-22T13:49:51Z</time>
      </trkpt>
      <trkpt lat="48.58247" lon="-2.56719">
        <ele>20</ele>
        <time>2012-01-22T13:49:52Z</time>
      </trkpt>
      <trkpt lat="48.58246" lon="-2.56717">
        <ele>20</ele>
        <time>2012-01-22T13:49:53Z</time>
      </trkpt>
      <trkpt lat="48.58245" lon="-2.56715">
        <ele>19</ele>
        <time>2012-01-22T13:49:54Z</time>
      </trkpt>
      <trkpt lat="48.58244" lon="-2.56713">
        <ele>19</ele>
        <time>2012-01-22T13:49:55Z</time>
      </trkpt>
      <trkpt lat="48.58244" lon="-2.5671">
        <ele>19</ele>
        <time>2012-01-22T13:49:56Z</time>
      </trkpt>
      <trkpt lat="48.58244" lon="-2.56708">
        <ele>19</ele>
        <time>2012-01-22T13:49:57Z</time>
      </trkpt>
      <trkpt lat="48.58244" lon="-2.56705">
        <ele>19</ele>
        <time>2012-01-22T13:49:58Z</time>
      </trkpt>
      <trkpt lat="48.58245" lon="-2.56703">
        <ele>19</ele>
        <time>2012-01-22T13:49:59Z</time>
      </trkpt>
      <trkpt lat="48.58246" lon="-2.56701">
        <ele>18</ele>
        <time>2012-01-22T13:50:00Z</time>
      </trkpt>
      <trkpt lat="48.58247" lon="-2.56698">
        <ele>18</ele>
        <time>2012-01-22T13:50:01Z</time>
      </trkpt>
      <trkpt lat="48.58247" lon="-2.56696">
        <ele>18</ele>
        <time>2012-01-22T13:50:01Z</time>
      </trkpt>
      <trkpt lat="48.58248" lon="-2.56694">
        <ele>18</ele>
        <time>2012-01-22T13:50:03Z</time>
      </trkpt>
      <trkpt lat="48.58248" lon="-2.56691">
        <ele>18</ele>
        <time>2012-01-22T13:50:04Z</time>
      </trkpt>
      <trkpt lat="48.58248" lon="-2.56688">
        <ele>18</ele>
        <time>2012-01-22T13:50:05Z</time>
      </trkpt>
      <trkpt lat="48.58248" lon="-2.56686">
        <ele>17</ele>
        <time>2012-01-22T13:50:06Z</time>
      </trkpt>
      <trkpt lat="48.58248" lon="-2.56684">
        <ele>17</ele>
        <time>2012-01-22T13:50:07Z</time>
      </trkpt>
      <trkpt lat="48.58248" lon="-2.56682">
        <ele>17</ele>
        <time>2012-01-22T13:50:08Z</time>
      </trkpt>
      <trkpt lat="48.58248" lon="-2.56679">
        <ele>17</ele>
        <time>2012-01-22T13:50:09Z</time>
      </trkpt>
      <trkpt lat="48.58248" lon="-2.56677">
        <ele>17</ele>
        <time>2012-01-22T13:50:10Z</time>
      </trkpt>
      <trkpt lat="48.58248" lon="-2.56675">
        <ele>16</ele>
        <time>2012-01-22T13:50:11Z</time>
      </trkpt>
      <trkpt lat="48.58248" lon="-2.56672">
        <ele>16</ele>
        <time>2012-01-22T13:50:12Z</time>
      </trkpt>
      <trkpt lat="48.58248" lon="-2.5667">
        <ele>16</ele>
        <time>2012-01-22T13:50:13Z</time>
      </trkpt>
      <trkpt lat="48.58248" lon="-2.56667">
        <ele>16</ele>
        <time>2012-01-22T13:50:14Z</time>
      </trkpt>
      <trkpt lat="48.58248" lon="-2.56665">
        <ele>16</ele>
        <time>2012-01-22T13:50:15Z</time>
      </trkpt>
      <trkpt lat="48.58248" lon="-2.56663">
        <ele>16</ele>
        <time>2012-01-22T13:50:15Z</time>
      </trkpt>
      <trkpt lat="48.58248" lon="-2.56661">
        <ele>16</ele>
        <time>2012-01-22T13:50:17Z</time>
      </trkpt>
      <trkpt lat="48.58248" lon="-2.56659">
        <ele>16</ele>
        <time>2012-01-22T13:50:18Z</time>
      </trkpt>
      <trkpt lat="48.58248" lon="-2.56657">
        <ele>16</ele>
        <time>2012-01-22T13:50:19Z</time>
      </trkpt>
      <trkpt lat="48.58248" lon="-2.56654">
        <ele>16</ele>
        <time>2012-01-22T13:50:20Z</time>
      </trkpt>
      <trkpt lat="48.58248" lon="-2.56652">
        <ele>16</ele>
        <time>2012-01-22T13:50:21Z</time>
      </trkpt>
      <trkpt lat="48.58248" lon="-2.5665">
        <ele>16</ele>
        <time>2012-01-22T13:50:22Z</time>
      </trkpt>
      <trkpt lat="48.58248" lon="-2.56647">
        <ele>16</ele>
        <time>2012-01-22T13:50:23Z</time>
      </trkpt>
      <trkpt lat="48.58248" lon="-2.56646">
        <ele>16</ele>
        <time>2012-01-22T13:50:24Z</time>
      </trkpt>
      <trkpt lat="48.58248" lon="-2.56644">
        <ele>16</ele>
        <time>2012-01-22T13:50:25Z</time>
      </trkpt>
      <trkpt lat="48.58248" lon="-2.56642">
        <ele>16</ele>
        <time>2012-01-22T13:50:26Z</time>
      </trkpt>
      <trkpt lat="48.58248" lon="-2.5664">
        <ele>16</ele>
        <time>2012-01-22T13:50:27Z</time>
      </trkpt>
      <trkpt lat="48.58249" lon="-2.56638">
        <ele>16</ele>
        <time>2012-01-22T13:50:27Z</time>
      </trkpt>
      <trkpt lat="48.58249" lon="-2.56636">
        <ele>16</ele>
        <time>2012-01-22T13:50:29Z</time>
      </trkpt>
      <trkpt lat="48.5825" lon="-2.56634">
        <ele>16</ele>
        <time>2012-01-22T13:50:30Z</time>
      </trkpt>
      <trkpt lat="48.5825" lon="-2.56632">
        <ele>16</ele>
        <time>2012-01-22T13:50:31Z</time>
      </trkpt>
      <trkpt lat="48.5825" lon="-2.56629">
        <ele>16</ele>
        <time>2012-01-22T13:50:32Z</time>
      </trkpt>
      <trkpt lat="48.58251" lon="-2.56627">
        <ele>16</ele>
        <time>2012-01-22T13:50:33Z</time>
      </trkpt>
      <trkpt lat="48.58251" lon="-2.56625">
        <ele>16</ele>
        <time>2012-01-22T13:50:34Z</time>
      </trkpt>
      <trkpt lat="48.58252" lon="-2.56623">
        <ele>16</ele>
        <time>2012-01-22T13:50:35Z</time>
      </trkpt>
      <trkpt lat="48.58252" lon="-2.56621">
        <ele>16</ele>
        <time>2012-01-22T13:50:36Z</time>
      </trkpt>
      <trkpt lat="48.58252" lon="-2.56619">
        <ele>16</ele>
        <time>2012-01-22T13:50:37Z</time>
      </trkpt>
      <trkpt lat="48.58252" lon="-2.56617">
        <ele>16</ele>
        <time>2012-01-22T13:50:38Z</time>
      </trkpt>
      <trkpt lat="48.58253" lon="-2.56615">
        <ele>16</ele>
        <time>2012-01-22T13:50:39Z</time>
      </trkpt>
      <trkpt lat="48.58253" lon="-2.56613">
        <ele>16</ele>
        <time>2012-01-22T13:50:40Z</time>
      </trkpt>
      <trkpt lat="48.58253" lon="-2.56611">
        <ele>16</ele>
        <time>2012-01-22T13:50:41Z</time>
      </trkpt>
      <trkpt lat="48.58254" lon="-2.56609">
        <ele>16</ele>
        <time>2012-01-22T13:50:42Z</time>
      </trkpt>
      <trkpt lat="48.58254" lon="-2.56608">
        <ele>16</ele>
        <time>2012-01-22T13:50:43Z</time>
      </trkpt>
      <trkpt lat="48.58255" lon="-2.56606">
        <ele>16</ele>
        <time>2012-01-22T13:50:44Z</time>
      </trkpt>
      <trkpt lat="48.58255" lon="-2.56604">
        <ele>16</ele>
        <time>2012-01-22T13:50:45Z</time>
      </trkpt>
      <trkpt lat="48.58256" lon="-2.56602">
        <ele>16</ele>
        <time>2012-01-22T13:50:46Z</time>
      </trkpt>
      <trkpt lat="48.58258" lon="-2.566">
        <ele>16</ele>
        <time>2012-01-22T13:50:48Z</time>
      </trkpt>
      <trkpt lat="48.5826" lon="-2.56597">
        <ele>16</ele>
        <time>2012-01-22T13:50:50Z</time>
      </trkpt>
      <trkpt lat="48.5826" lon="-2.56595">
        <ele>16</ele>
        <time>2012-01-22T13:50:51Z</time>
      </trkpt>
      <trkpt lat="48.58261" lon="-2.56592">
        <ele>16</ele>
        <time>2012-01-22T13:50:53Z</time>
      </trkpt>
      <trkpt lat="48.58263" lon="-2.56589">
        <ele>16</ele>
        <time>2012-01-22T13:50:55Z</time>
      </trkpt>
      <trkpt lat="48.58265" lon="-2.56587">
        <ele>16</ele>
        <time>2012-01-22T13:50:56Z</time>
      </trkpt>
      <trkpt lat="48.58267" lon="-2.56584">
        <ele>16</ele>
        <time>2012-01-22T13:50:59Z</time>
      </trkpt>
      <trkpt lat="48.58269" lon="-2.56581">
        <ele>16</ele>
        <time>2012-01-22T13:51:01Z</time>
      </trkpt>
      <trkpt lat="48.5827" lon="-2.56578">
        <ele>16</ele>
        <time>2012-01-22T13:51:03Z</time>
      </trkpt>
      <trkpt lat="48.58273" lon="-2.56575">
        <ele>16</ele>
        <time>2012-01-22T13:51:04Z</time>
      </trkpt>
      <trkpt lat="48.58274" lon="-2.56574">
        <ele>16</ele>
        <time>2012-01-22T13:51:06Z</time>
      </trkpt>
      <trkpt lat="48.58275" lon="-2.56573">
        <ele>16</ele>
        <time>2012-01-22T13:51:07Z</time>
      </trkpt>
      <trkpt lat="48.58276" lon="-2.56571">
        <ele>16</ele>
        <time>2012-01-22T13:51:08Z</time>
      </trkpt>
      <trkpt lat="48.58278" lon="-2.56568">
        <ele>16</ele>
        <time>2012-01-22T13:51:10Z</time>
      </trkpt>
      <trkpt lat="48.58279" lon="-2.56565">
        <ele>16</ele>
        <time>2012-01-22T13:51:11Z</time>
      </trkpt>
      <trkpt lat="48.5828" lon="-2.56563">
        <ele>16</ele>
        <time>2012-01-22T13:51:13Z</time>
      </trkpt>
      <trkpt lat="48.58282" lon="-2.5656">
        <ele>16</ele>
        <time>2012-01-22T13:51:15Z</time>
      </trkpt>
      <trkpt lat="48.58284" lon="-2.56558">
        <ele>16</ele>
        <time>2012-01-22T13:51:17Z</time>
      </trkpt>
      <trkpt lat="48.58286" lon="-2.56556">
        <ele>16</ele>
        <time>2012-01-22T13:51:19Z</time>
      </trkpt>
      <trkpt lat="48.58287" lon="-2.56554">
        <ele>16</ele>
        <time>2012-01-22T13:51:20Z</time>
      </trkpt>
      <trkpt lat="48.58289" lon="-2.56552">
        <ele>16</ele>
        <time>2012-01-22T13:51:22Z</time>
      </trkpt>
      <trkpt lat="48.58292" lon="-2.5655">
        <ele>16</ele>
        <time>2012-01-22T13:51:24Z</time>
      </trkpt>
      <trkpt lat="48.58293" lon="-2.56547">
        <ele>16</ele>
        <time>2012-01-22T13:51:26Z</time>
      </trkpt>
      <trkpt lat="48.58295" lon="-2.56545">
        <ele>16</ele>
        <time>2012-01-22T13:51:28Z</time>
      </trkpt>
      <trkpt lat="48.58297" lon="-2.56544">
        <ele>16</ele>
        <time>2012-01-22T13:51:28Z</time>
      </trkpt>
      <trkpt lat="48.58298" lon="-2.56543">
        <ele>16</ele>
        <time>2012-01-22T13:51:30Z</time>
      </trkpt>
      <trkpt lat="48.583" lon="-2.56541">
        <ele>16</ele>
        <time>2012-01-22T13:51:32Z</time>
      </trkpt>
      <trkpt lat="48.58302" lon="-2.5654">
        <ele>16</ele>
        <time>2012-01-22T13:51:34Z</time>
      </trkpt>
      <trkpt lat="48.58303" lon="-2.56539">
        <ele>16</ele>
        <time>2012-01-22T13:51:35Z</time>
      </trkpt>
      <trkpt lat="48.58305" lon="-2.56537">
        <ele>16</ele>
        <time>2012-01-22T13:51:37Z</time>
      </trkpt>
      <trkpt lat="48.58307" lon="-2.56535">
        <ele>16</ele>
        <time>2012-01-22T13:51:39Z</time>
      </trkpt>
      <trkpt lat="48.58308" lon="-2.56535">
        <ele>16</ele>
        <time>2012-01-22T13:51:40Z</time>
      </trkpt>
      <trkpt lat="48.5831" lon="-2.56534">
        <ele>16</ele>
        <time>2012-01-22T13:51:41Z</time>
      </trkpt>
      <trkpt lat="48.58311" lon="-2.56533">
        <ele>16</ele>
        <time>2012-01-22T13:51:42Z</time>
      </trkpt>
      <trkpt lat="48.58313" lon="-2.56533">
        <ele>16</ele>
        <time>2012-01-22T13:51:43Z</time>
      </trkpt>
      <trkpt lat="48.58314" lon="-2.56533">
        <ele>16</ele>
        <time>2012-01-22T13:51:44Z</time>
      </trkpt>
      <trkpt lat="48.58315" lon="-2.56532">
        <ele>17</ele>
        <time>2012-01-22T13:51:45Z</time>
      </trkpt>
      <trkpt lat="48.58318" lon="-2.56532">
        <ele>17</ele>
        <time>2012-01-22T13:51:47Z</time>
      </trkpt>
      <trkpt lat="48.58319" lon="-2.56531">
        <ele>18</ele>
        <time>2012-01-22T13:51:48Z</time>
      </trkpt>
      <trkpt lat="48.58321" lon="-2.56531">
        <ele>18</ele>
        <time>2012-01-22T13:51:50Z</time>
      </trkpt>
      <trkpt lat="48.58322" lon="-2.56531">
        <ele>18</ele>
        <time>2012-01-22T13:51:51Z</time>
      </trkpt>
      <trkpt lat="48.58323" lon="-2.56531">
        <ele>18</ele>
        <time>2012-01-22T13:51:52Z</time>
      </trkpt>
      <trkpt lat="48.58324" lon="-2.56532">
        <ele>18</ele>
        <time>2012-01-22T13:51:53Z</time>
      </trkpt>
      <trkpt lat="48.58326" lon="-2.56532">
        <ele>18</ele>
        <time>2012-01-22T13:51:54Z</time>
      </trkpt>
      <trkpt lat="48.58328" lon="-2.56532">
        <ele>18</ele>
        <time>2012-01-22T13:51:56Z</time>
      </trkpt>
      <trkpt lat="48.5833" lon="-2.56532">
        <ele>18</ele>
        <time>2012-01-22T13:51:57Z</time>
      </trkpt>
      <trkpt lat="48.58331" lon="-2.56532">
        <ele>18</ele>
        <time>2012-01-22T13:51:58Z</time>
      </trkpt>
      <trkpt lat="48.58333" lon="-2.56532">
        <ele>18</ele>
        <time>2012-01-22T13:51:59Z</time>
      </trkpt>
      <trkpt lat="48.58334" lon="-2.56532">
        <ele>18</ele>
        <time>2012-01-22T13:52:00Z</time>
      </trkpt>
      <trkpt lat="48.58335" lon="-2.56532">
        <ele>18</ele>
        <time>2012-01-22T13:52:01Z</time>
      </trkpt>
      <trkpt lat="48.58337" lon="-2.56532">
        <ele>18</ele>
        <time>2012-01-22T13:52:03Z</time>
      </trkpt>
      <trkpt lat="48.58339" lon="-2.56532">
        <ele>18</ele>
        <time>2012-01-22T13:52:04Z</time>
      </trkpt>
      <trkpt lat="48.5834" lon="-2.56533">
        <ele>18</ele>
        <time>2012-01-22T13:52:05Z</time>
      </trkpt>
      <trkpt lat="48.58342" lon="-2.56533">
        <ele>18</ele>
        <time>2012-01-22T13:52:06Z</time>
      </trkpt>
      <trkpt lat="48.58343" lon="-2.56533">
        <ele>18</ele>
        <time>2012-01-22T13:52:07Z</time>
      </trkpt>
      <trkpt lat="48.58345" lon="-2.56534">
        <ele>18</ele>
        <time>2012-01-22T13:52:08Z</time>
      </trkpt>
      <trkpt lat="48.58346" lon="-2.56535">
        <ele>18</ele>
        <time>2012-01-22T13:52:10Z</time>
      </trkpt>
      <trkpt lat="48.58347" lon="-2.56535">
        <ele>18</ele>
        <time>2012-01-22T13:52:11Z</time>
      </trkpt>
      <trkpt lat="48.58349" lon="-2.56535">
        <ele>18</ele>
        <time>2012-01-22T13:52:12Z</time>
      </trkpt>
      <trkpt lat="48.5835" lon="-2.56536">
        <ele>18</ele>
        <time>2012-01-22T13:52:13Z</time>
      </trkpt>
      <trkpt lat="48.58351" lon="-2.56536">
        <ele>18</ele>
        <time>2012-01-22T13:52:15Z</time>
      </trkpt>
      <trkpt lat="48.58353" lon="-2.56536">
        <ele>18</ele>
        <time>2012-01-22T13:52:17Z</time>
      </trkpt>
      <trkpt lat="48.58355" lon="-2.56537">
        <ele>18</ele>
        <time>2012-01-22T13:52:18Z</time>
      </trkpt>
      <trkpt lat="48.58357" lon="-2.56537">
        <ele>18</ele>
        <time>2012-01-22T13:52:20Z</time>
      </trkpt>
      <trkpt lat="48.58358" lon="-2.56537">
        <ele>18</ele>
        <time>2012-01-22T13:52:21Z</time>
      </trkpt>
      <trkpt lat="48.5836" lon="-2.56537">
        <ele>18</ele>
        <time>2012-01-22T13:52:23Z</time>
      </trkpt>
      <trkpt lat="48.58362" lon="-2.56537">
        <ele>18</ele>
        <time>2012-01-22T13:52:25Z</time>
      </trkpt>
      <trkpt lat="48.58364" lon="-2.56539">
        <ele>18</ele>
        <time>2012-01-22T13:52:27Z</time>
      </trkpt>
      <trkpt lat="48.58365" lon="-2.56541">
        <ele>18</ele>
        <time>2012-01-22T13:52:29Z</time>
      </trkpt>
      <trkpt lat="48.58366" lon="-2.56544">
        <ele>18</ele>
        <time>2012-01-22T13:52:31Z</time>
      </trkpt>
      <trkpt lat="48.58367" lon="-2.56547">
        <ele>18</ele>
        <time>2012-01-22T13:52:33Z</time>
      </trkpt>
      <trkpt lat="48.58367" lon="-2.5655">
        <ele>18</ele>
        <time>2012-01-22T13:52:35Z</time>
      </trkpt>
      <trkpt lat="48.58369" lon="-2.56553">
        <ele>18</ele>
        <time>2012-01-22T13:52:37Z</time>
      </trkpt>
      <trkpt lat="48.58369" lon="-2.56555">
        <ele>18</ele>
        <time>2012-01-22T13:52:38Z</time>
      </trkpt>
      <trkpt lat="48.58371" lon="-2.56556">
        <ele>18</ele>
        <time>2012-01-22T13:52:39Z</time>
      </trkpt>
      <trkpt lat="48.58372" lon="-2.56557">
        <ele>18</ele>
        <time>2012-01-22T13:52:40Z</time>
      </trkpt>
      <trkpt lat="48.58374" lon="-2.56559">
        <ele>18</ele>
        <time>2012-01-22T13:52:42Z</time>
      </trkpt>
      <trkpt lat="48.58376" lon="-2.5656">
        <ele>18</ele>
        <time>2012-01-22T13:52:43Z</time>
      </trkpt>
      <trkpt lat="48.58377" lon="-2.56561">
        <ele>18</ele>
        <time>2012-01-22T13:52:44Z</time>
      </trkpt>
      <trkpt lat="48.58378" lon="-2.56562">
        <ele>18</ele>
        <time>2012-01-22T13:52:45Z</time>
      </trkpt>
      <trkpt lat="48.58379" lon="-2.56563">
        <ele>18</ele>
        <time>2012-01-22T13:52:46Z</time>
      </trkpt>
      <trkpt lat="48.58382" lon="-2.56566">
        <ele>18</ele>
        <time>2012-01-22T13:52:47Z</time>
      </trkpt>
      <trkpt lat="48.58382" lon="-2.56568">
        <ele>18</ele>
        <time>2012-01-22T13:52:49Z</time>
      </trkpt>
      <trkpt lat="48.58384" lon="-2.56569">
        <ele>18</ele>
        <time>2012-01-22T13:52:49Z</time>
      </trkpt>
      <trkpt lat="48.58385" lon="-2.56572">
        <ele>18</ele>
        <time>2012-01-22T13:52:52Z</time>
      </trkpt>
      <trkpt lat="48.58387" lon="-2.56575">
        <ele>18</ele>
        <time>2012-01-22T13:52:54Z</time>
      </trkpt>
      <trkpt lat="48.58388" lon="-2.56578">
        <ele>18</ele>
        <time>2012-01-22T13:52:56Z</time>
      </trkpt>
      <trkpt lat="48.58388" lon="-2.5658">
        <ele>18</ele>
        <time>2012-01-22T13:52:57Z</time>
      </trkpt>
      <trkpt lat="48.58388" lon="-2.56582">
        <ele>18</ele>
        <time>2012-01-22T13:52:58Z</time>
      </trkpt>
      <trkpt lat="48.58387" lon="-2.56584">
        <ele>18</ele>
        <time>2012-01-22T13:53:00Z</time>
      </trkpt>
      <trkpt lat="48.58387" lon="-2.56586">
        <ele>18</ele>
        <time>2012-01-22T13:53:00Z</time>
      </trkpt>
      <trkpt lat="48.58387" lon="-2.56588">
        <ele>18</ele>
        <time>2012-01-22T13:53:02Z</time>
      </trkpt>
      <trkpt lat="48.58387" lon="-2.56589">
        <ele>18</ele>
        <time>2012-01-22T13:53:03Z</time>
      </trkpt>
      <trkpt lat="48.58387" lon="-2.56591">
        <ele>18</ele>
        <time>2012-01-22T13:53:04Z</time>
      </trkpt>
      <trkpt lat="48.58387" lon="-2.56594">
        <ele>17</ele>
        <time>2012-01-22T13:53:05Z</time>
      </trkpt>
      <trkpt lat="48.58387" lon="-2.56596">
        <ele>17</ele>
        <time>2012-01-22T13:53:06Z</time>
      </trkpt>
      <trkpt lat="48.58388" lon="-2.56598">
        <ele>17</ele>
        <time>2012-01-22T13:53:06Z</time>
      </trkpt>
      <trkpt lat="48.58389" lon="-2.566">
        <ele>17</ele>
        <time>2012-01-22T13:53:07Z</time>
      </trkpt>
      <trkpt lat="48.58391" lon="-2.56603">
        <ele>17</ele>
        <time>2012-01-22T13:53:10Z</time>
      </trkpt>
      <trkpt lat="48.58392" lon="-2.56603">
        <ele>17</ele>
        <time>2012-01-22T13:53:10Z</time>
      </trkpt>
      <trkpt lat="48.58393" lon="-2.56604">
        <ele>17</ele>
        <time>2012-01-22T13:53:12Z</time>
      </trkpt>
      <trkpt lat="48.58395" lon="-2.56604">
        <ele>17</ele>
        <time>2012-01-22T13:53:13Z</time>
      </trkpt>
      <trkpt lat="48.58396" lon="-2.56604">
        <ele>17</ele>
        <time>2012-01-22T13:53:14Z</time>
      </trkpt>
      <trkpt lat="48.58397" lon="-2.56603">
        <ele>16</ele>
        <time>2012-01-22T13:53:15Z</time>
      </trkpt>
      <trkpt lat="48.58399" lon="-2.56604">
        <ele>16</ele>
        <time>2012-01-22T13:53:16Z</time>
      </trkpt>
      <trkpt lat="48.584" lon="-2.56604">
        <ele>16</ele>
        <time>2012-01-22T13:53:16Z</time>
      </trkpt>
      <trkpt lat="48.58401" lon="-2.56603">
        <ele>16</ele>
        <time>2012-01-22T13:53:18Z</time>
      </trkpt>
      <trkpt lat="48.58403" lon="-2.56603">
        <ele>16</ele>
        <time>2012-01-22T13:53:19Z</time>
      </trkpt>
      <trkpt lat="48.58404" lon="-2.56602">
        <ele>16</ele>
        <time>2012-01-22T13:53:20Z</time>
      </trkpt>
      <trkpt lat="48.58406" lon="-2.56601">
        <ele>16</ele>
        <time>2012-01-22T13:53:21Z</time>
      </trkpt>
      <trkpt lat="48.58408" lon="-2.56599">
        <ele>16</ele>
        <time>2012-01-22T13:53:24Z</time>
      </trkpt>
      <trkpt lat="48.5841" lon="-2.56598">
        <ele>16</ele>
        <time>2012-01-22T13:53:25Z</time>
      </trkpt>
      <trkpt lat="48.58412" lon="-2.56597">
        <ele>16</ele>
        <time>2012-01-22T13:53:27Z</time>
      </trkpt>
      <trkpt lat="48.58413" lon="-2.56596">
        <ele>16</ele>
        <time>2012-01-22T13:53:29Z</time>
      </trkpt>
      <trkpt lat="48.58415" lon="-2.56594">
        <ele>16</ele>
        <time>2012-01-22T13:53:31Z</time>
      </trkpt>
      <trkpt lat="48.58416" lon="-2.56592">
        <ele>16</ele>
        <time>2012-01-22T13:53:33Z</time>
      </trkpt>
      <trkpt lat="48.58417" lon="-2.56591">
        <ele>16</ele>
        <time>2012-01-22T13:53:35Z</time>
      </trkpt>
      <trkpt lat="48.58417" lon="-2.56589">
        <ele>16</ele>
        <time>2012-01-22T13:53:37Z</time>
      </trkpt>
      <trkpt lat="48.58417" lon="-2.56587">
        <ele>16</ele>
        <time>2012-01-22T13:53:38Z</time>
      </trkpt>
      <trkpt lat="48.58418" lon="-2.56585">
        <ele>16</ele>
        <time>2012-01-22T13:53:41Z</time>
      </trkpt>
      <trkpt lat="48.58418" lon="-2.56583">
        <ele>16</ele>
        <time>2012-01-22T13:53:43Z</time>
      </trkpt>
      <trkpt lat="48.58418" lon="-2.56582">
        <ele>16</ele>
        <time>2012-01-22T13:53:45Z</time>
      </trkpt>
      <trkpt lat="48.58419" lon="-2.5658">
        <ele>16</ele>
        <time>2012-01-22T13:53:47Z</time>
      </trkpt>
      <trkpt lat="48.5842" lon="-2.56579">
        <ele>16</ele>
        <time>2012-01-22T13:53:49Z</time>
      </trkpt>
      <trkpt lat="48.58421" lon="-2.56578">
        <ele>16</ele>
        <time>2012-01-22T13:53:51Z</time>
      </trkpt>
      <trkpt lat="48.58423" lon="-2.56577">
        <ele>16</ele>
        <time>2012-01-22T13:53:53Z</time>
      </trkpt>
      <trkpt lat="48.58424" lon="-2.56577">
        <ele>17</ele>
        <time>2012-01-22T13:53:54Z</time>
      </trkpt>
      <trkpt lat="48.58427" lon="-2.56578">
        <ele>17</ele>
        <time>2012-01-22T13:53:56Z</time>
      </trkpt>
      <trkpt lat="48.58428" lon="-2.56578">
        <ele>17</ele>
        <time>2012-01-22T13:53:57Z</time>
      </trkpt>
      <trkpt lat="48.58429" lon="-2.56578">
        <ele>17</ele>
        <time>2012-01-22T13:53:58Z</time>
      </trkpt>
      <trkpt lat="48.58431" lon="-2.56578">
        <ele>17</ele>
        <time>2012-01-22T13:53:59Z</time>
      </trkpt>
      <trkpt lat="48.58432" lon="-2.56577">
        <ele>17</ele>
        <time>2012-01-22T13:54:00Z</time>
      </trkpt>
      <trkpt lat="48.58434" lon="-2.56577">
        <ele>17</ele>
        <time>2012-01-22T13:54:02Z</time>
      </trkpt>
      <trkpt lat="48.58435" lon="-2.56576">
        <ele>17</ele>
        <time>2012-01-22T13:54:02Z</time>
      </trkpt>
      <trkpt lat="48.58436" lon="-2.56575">
        <ele>17</ele>
        <time>2012-01-22T13:54:03Z</time>
      </trkpt>
      <trkpt lat="48.58438" lon="-2.56572">
        <ele>17</ele>
        <time>2012-01-22T13:54:06Z</time>
      </trkpt>
      <trkpt lat="48.5844" lon="-2.5657">
        <ele>17</ele>
        <time>2012-01-22T13:54:07Z</time>
      </trkpt>
      <trkpt lat="48.58441" lon="-2.56567">
        <ele>17</ele>
        <time>2012-01-22T13:54:10Z</time>
      </trkpt>
      <trkpt lat="48.58442" lon="-2.56564">
        <ele>17</ele>
        <time>2012-01-22T13:54:12Z</time>
      </trkpt>
      <trkpt lat="48.58442" lon="-2.56562">
        <ele>17</ele>
        <time>2012-01-22T13:54:13Z</time>
      </trkpt>
      <trkpt lat="48.58443" lon="-2.5656">
        <ele>17</ele>
        <time>2012-01-22T13:54:14Z</time>
      </trkpt>
      <trkpt lat="48.58443" lon="-2.56558">
        <ele>17</ele>
        <time>2012-01-22T13:54:15Z</time>
      </trkpt>
      <trkpt lat="48.58443" lon="-2.56557">
        <ele>17</ele>
        <time>2012-01-22T13:54:16Z</time>
      </trkpt>
      <trkpt lat="48.58443" lon="-2.56555">
        <ele>17</ele>
        <time>2012-01-22T13:54:17Z</time>
      </trkpt>
      <trkpt lat="48.58444" lon="-2.56553">
        <ele>17</ele>
        <time>2012-01-22T13:54:18Z</time>
      </trkpt>
      <trkpt lat="48.58444" lon="-2.56552">
        <ele>17</ele>
        <time>2012-01-22T13:54:19Z</time>
      </trkpt>
      <trkpt lat="48.58444" lon="-2.5655">
        <ele>17</ele>
        <time>2012-01-22T13:54:20Z</time>
      </trkpt>
      <trkpt lat="48.58444" lon="-2.56548">
        <ele>17</ele>
        <time>2012-01-22T13:54:21Z</time>
      </trkpt>
      <trkpt lat="48.58444" lon="-2.56545">
        <ele>17</ele>
        <time>2012-01-22T13:54:23Z</time>
      </trkpt>
      <trkpt lat="48.58444" lon="-2.56543">
        <ele>17</ele>
        <time>2012-01-22T13:54:24Z</time>
      </trkpt>
      <trkpt lat="48.58443" lon="-2.56542">
        <ele>17</ele>
        <time>2012-01-22T13:54:25Z</time>
      </trkpt>
      <trkpt lat="48.58443" lon="-2.5654">
        <ele>17</ele>
        <time>2012-01-22T13:54:26Z</time>
      </trkpt>
      <trkpt lat="48.58443" lon="-2.56537">
        <ele>17</ele>
        <time>2012-01-22T13:54:28Z</time>
      </trkpt>
      <trkpt lat="48.58443" lon="-2.56535">
        <ele>17</ele>
        <time>2012-01-22T13:54:29Z</time>
      </trkpt>
      <trkpt lat="48.58443" lon="-2.56534">
        <ele>17</ele>
        <time>2012-01-22T13:54:30Z</time>
      </trkpt>
      <trkpt lat="48.58443" lon="-2.56531">
        <ele>17</ele>
        <time>2012-01-22T13:54:31Z</time>
      </trkpt>
      <trkpt lat="48.58443" lon="-2.56529">
        <ele>17</ele>
        <time>2012-01-22T13:54:32Z</time>
      </trkpt>
      <trkpt lat="48.58443" lon="-2.56527">
        <ele>18</ele>
        <time>2012-01-22T13:54:34Z</time>
      </trkpt>
      <trkpt lat="48.58443" lon="-2.56525">
        <ele>18</ele>
        <time>2012-01-22T13:54:34Z</time>
      </trkpt>
      <trkpt lat="48.58443" lon="-2.56523">
        <ele>18</ele>
        <time>2012-01-22T13:54:36Z</time>
      </trkpt>
      <trkpt lat="48.58443" lon="-2.56521">
        <ele>18</ele>
        <time>2012-01-22T13:54:37Z</time>
      </trkpt>
      <trkpt lat="48.58443" lon="-2.56519">
        <ele>18</ele>
        <time>2012-01-22T13:54:38Z</time>
      </trkpt>
      <trkpt lat="48.58443" lon="-2.56517">
        <ele>18</ele>
        <time>2012-01-22T13:54:39Z</time>
      </trkpt>
      <trkpt lat="48.58443" lon="-2.56514">
        <ele>18</ele>
        <time>2012-01-22T13:54:40Z</time>
      </trkpt>
      <trkpt lat="48.58443" lon="-2.56512">
        <ele>18</ele>
        <time>2012-01-22T13:54:41Z</time>
      </trkpt>
      <trkpt lat="48.58443" lon="-2.5651">
        <ele>18</ele>
        <time>2012-01-22T13:54:42Z</time>
      </trkpt>
      <trkpt lat="48.58442" lon="-2.56508">
        <ele>18</ele>
        <time>2012-01-22T13:54:42Z</time>
      </trkpt>
      <trkpt lat="48.58442" lon="-2.56506">
        <ele>18</ele>
        <time>2012-01-22T13:54:43Z</time>
      </trkpt>
      <trkpt lat="48.58442" lon="-2.56504">
        <ele>18</ele>
        <time>2012-01-22T13:54:45Z</time>
      </trkpt>
      <trkpt lat="48.58442" lon="-2.56502">
        <ele>18</ele>
        <time>2012-01-22T13:54:46Z</time>
      </trkpt>
      <trkpt lat="48.58441" lon="-2.565">
        <ele>18</ele>
        <time>2012-01-22T13:54:47Z</time>
      </trkpt>
      <trkpt lat="48.58441" lon="-2.56499">
        <ele>18</ele>
        <time>2012-01-22T13:54:48Z</time>
      </trkpt>
      <trkpt lat="48.5844" lon="-2.56495">
        <ele>18</ele>
        <time>2012-01-22T13:54:50Z</time>
      </trkpt>
      <trkpt lat="48.5844" lon="-2.56493">
        <ele>18</ele>
        <time>2012-01-22T13:54:51Z</time>
      </trkpt>
      <trkpt lat="48.5844" lon="-2.5649">
        <ele>18</ele>
        <time>2012-01-22T13:54:53Z</time>
      </trkpt>
      <trkpt lat="48.5844" lon="-2.56489">
        <ele>18</ele>
        <time>2012-01-22T13:54:54Z</time>
      </trkpt>
      <trkpt lat="48.5844" lon="-2.56487">
        <ele>18</ele>
        <time>2012-01-22T13:54:54Z</time>
      </trkpt>
      <trkpt lat="48.5844" lon="-2.56485">
        <ele>18</ele>
        <time>2012-01-22T13:54:56Z</time>
      </trkpt>
      <trkpt lat="48.5844" lon="-2.56483">
        <ele>18</ele>
        <time>2012-01-22T13:54:57Z</time>
      </trkpt>
      <trkpt lat="48.58441" lon="-2.5648">
        <ele>18</ele>
        <time>2012-01-22T13:54:58Z</time>
      </trkpt>
      <trkpt lat="48.58441" lon="-2.56478">
        <ele>18</ele>
        <time>2012-01-22T13:55:00Z</time>
      </trkpt>
      <trkpt lat="48.58441" lon="-2.56477">
        <ele>18</ele>
        <time>2012-01-22T13:55:01Z</time>
      </trkpt>
      <trkpt lat="48.58442" lon="-2.56474">
        <ele>18</ele>
        <time>2012-01-22T13:55:03Z</time>
      </trkpt>
      <trkpt lat="48.58442" lon="-2.56472">
        <ele>18</ele>
        <time>2012-01-22T13:55:04Z</time>
      </trkpt>
      <trkpt lat="48.58442" lon="-2.5647">
        <ele>18</ele>
        <time>2012-01-22T13:55:04Z</time>
      </trkpt>
      <trkpt lat="48.58442" lon="-2.56467">
        <ele>18</ele>
        <time>2012-01-22T13:55:06Z</time>
      </trkpt>
      <trkpt lat="48.58442" lon="-2.56465">
        <ele>18</ele>
        <time>2012-01-22T13:55:07Z</time>
      </trkpt>
      <trkpt lat="48.58441" lon="-2.56463">
        <ele>18</ele>
        <time>2012-01-22T13:55:08Z</time>
      </trkpt>
      <trkpt lat="48.5844" lon="-2.56461">
        <ele>18</ele>
        <time>2012-01-22T13:55:09Z</time>
      </trkpt>
      <trkpt lat="48.5844" lon="-2.56459">
        <ele>18</ele>
        <time>2012-01-22T13:55:10Z</time>
      </trkpt>
      <trkpt lat="48.58438" lon="-2.56456">
        <ele>18</ele>
        <time>2012-01-22T13:55:12Z</time>
      </trkpt>
      <trkpt lat="48.58437" lon="-2.56455">
        <ele>18</ele>
        <time>2012-01-22T13:55:13Z</time>
      </trkpt>
      <trkpt lat="48.58436" lon="-2.56454">
        <ele>18</ele>
        <time>2012-01-22T13:55:14Z</time>
      </trkpt>
      <trkpt lat="48.58434" lon="-2.56452">
        <ele>18</ele>
        <time>2012-01-22T13:55:16Z</time>
      </trkpt>
      <trkpt lat="48.58432" lon="-2.56451">
        <ele>18</ele>
        <time>2012-01-22T13:55:18Z</time>
      </trkpt>
      <trkpt lat="48.5843" lon="-2.56451">
        <ele>18</ele>
        <time>2012-01-22T13:55:20Z</time>
      </trkpt>
      <trkpt lat="48.58429" lon="-2.56451">
        <ele>18</ele>
        <time>2012-01-22T13:55:21Z</time>
      </trkpt>
      <trkpt lat="48.58427" lon="-2.56451">
        <ele>18</ele>
        <time>2012-01-22T13:55:23Z</time>
      </trkpt>
      <trkpt lat="48.58425" lon="-2.56451">
        <ele>18</ele>
        <time>2012-01-22T13:55:25Z</time>
      </trkpt>
      <trkpt lat="48.58424" lon="-2.56452">
        <ele>18</ele>
        <time>2012-01-22T13:55:27Z</time>
      </trkpt>
      <trkpt lat="48.58422" lon="-2.56452">
        <ele>18</ele>
        <time>2012-01-22T13:55:29Z</time>
      </trkpt>
      <trkpt lat="48.58421" lon="-2.56454">
        <ele>18</ele>
        <time>2012-01-22T13:55:31Z</time>
      </trkpt>
      <trkpt lat="48.58419" lon="-2.56455">
        <ele>18</ele>
        <time>2012-01-22T13:55:33Z</time>
      </trkpt>
      <trkpt lat="48.58417" lon="-2.56456">
        <ele>18</ele>
        <time>2012-01-22T13:55:35Z</time>
      </trkpt>
      <trkpt lat="48.58416" lon="-2.56457">
        <ele>18</ele>
        <time>2012-01-22T13:55:36Z</time>
      </trkpt>
      <trkpt lat="48.58414" lon="-2.56458">
        <ele>18</ele>
        <time>2012-01-22T13:55:39Z</time>
      </trkpt>
      <trkpt lat="48.58413" lon="-2.56459">
        <ele>19</ele>
        <time>2012-01-22T13:55:41Z</time>
      </trkpt>
      <trkpt lat="48.58411" lon="-2.56459">
        <ele>19</ele>
        <time>2012-01-22T13:55:43Z</time>
      </trkpt>
      <trkpt lat="48.5841" lon="-2.56459">
        <ele>20</ele>
        <time>2012-01-22T13:55:45Z</time>
      </trkpt>
      <trkpt lat="48.58408" lon="-2.56459">
        <ele>21</ele>
        <time>2012-01-22T13:55:47Z</time>
      </trkpt>
      <trkpt lat="48.58406" lon="-2.56461">
        <ele>22</ele>
        <time>2012-01-22T13:55:49Z</time>
      </trkpt>
      <trkpt lat="48.58405" lon="-2.56461">
        <ele>23</ele>
        <time>2012-01-22T13:55:52Z</time>
      </trkpt>
      <trkpt lat="48.58403" lon="-2.5646">
        <ele>24</ele>
        <time>2012-01-22T13:55:53Z</time>
      </trkpt>
      <trkpt lat="48.58402" lon="-2.5646">
        <ele>24</ele>
        <time>2012-01-22T13:55:55Z</time>
      </trkpt>
      <trkpt lat="48.584" lon="-2.56459">
        <ele>25</ele>
        <time>2012-01-22T13:55:58Z</time>
      </trkpt>
      <trkpt lat="48.58399" lon="-2.56459">
        <ele>25</ele>
        <time>2012-01-22T13:55:58Z</time>
      </trkpt>
      <trkpt lat="48.58398" lon="-2.56459">
        <ele>25</ele>
        <time>2012-01-22T13:55:59Z</time>
      </trkpt>
      <trkpt lat="48.58396" lon="-2.56458">
        <ele>25</ele>
        <time>2012-01-22T13:56:01Z</time>
      </trkpt>
      <trkpt lat="48.58394" lon="-2.56455">
        <ele>25</ele>
        <time>2012-01-22T13:56:04Z</time>
      </trkpt>
      <trkpt lat="48.58393" lon="-2.56452">
        <ele>25</ele>
        <time>2012-01-22T13:56:06Z</time>
      </trkpt>
      <trkpt lat="48.58391" lon="-2.5645">
        <ele>25</ele>
        <time>2012-01-22T13:56:08Z</time>
      </trkpt>
      <trkpt lat="48.5839" lon="-2.56448">
        <ele>25</ele>
        <time>2012-01-22T13:56:10Z</time>
      </trkpt>
      <trkpt lat="48.58389" lon="-2.56445">
        <ele>25</ele>
        <time>2012-01-22T13:56:11Z</time>
      </trkpt>
      <trkpt lat="48.58387" lon="-2.56442">
        <ele>25</ele>
        <time>2012-01-22T13:56:14Z</time>
      </trkpt>
      <trkpt lat="48.58387" lon="-2.5644">
        <ele>25</ele>
        <time>2012-01-22T13:56:15Z</time>
      </trkpt>
      <trkpt lat="48.58386" lon="-2.56439">
        <ele>25</ele>
        <time>2012-01-22T13:56:15Z</time>
      </trkpt>
      <trkpt lat="48.58385" lon="-2.56437">
        <ele>25</ele>
        <time>2012-01-22T13:56:17Z</time>
      </trkpt>
      <trkpt lat="48.58385" lon="-2.56433">
        <ele>25</ele>
        <time>2012-01-22T13:56:18Z</time>
      </trkpt>
      <trkpt lat="48.58385" lon="-2.56431">
        <ele>25</ele>
        <time>2012-01-22T13:56:20Z</time>
      </trkpt>
      <trkpt lat="48.58385" lon="-2.56429">
        <ele>25</ele>
        <time>2012-01-22T13:56:21Z</time>
      </trkpt>
      <trkpt lat="48.58385" lon="-2.56427">
        <ele>25</ele>
        <time>2012-01-22T13:56:22Z</time>
      </trkpt>
      <trkpt lat="48.58385" lon="-2.56425">
        <ele>25</ele>
        <time>2012-01-22T13:56:23Z</time>
      </trkpt>
      <trkpt lat="48.58385" lon="-2.56423">
        <ele>25</ele>
        <time>2012-01-22T13:56:24Z</time>
      </trkpt>
      <trkpt lat="48.58385" lon="-2.56421">
        <ele>25</ele>
        <time>2012-01-22T13:56:25Z</time>
      </trkpt>
      <trkpt lat="48.58385" lon="-2.56419">
        <ele>25</ele>
        <time>2012-01-22T13:56:26Z</time>
      </trkpt>
      <trkpt lat="48.58385" lon="-2.56417">
        <ele>25</ele>
        <time>2012-01-22T13:56:27Z</time>
      </trkpt>
      <trkpt lat="48.58385" lon="-2.56415">
        <ele>25</ele>
        <time>2012-01-22T13:56:28Z</time>
      </trkpt>
      <trkpt lat="48.58385" lon="-2.56412">
        <ele>25</ele>
        <time>2012-01-22T13:56:29Z</time>
      </trkpt>
      <trkpt lat="48.58385" lon="-2.5641">
        <ele>25</ele>
        <time>2012-01-22T13:56:30Z</time>
      </trkpt>
      <trkpt lat="48.58384" lon="-2.56409">
        <ele>25</ele>
        <time>2012-01-22T13:56:31Z</time>
      </trkpt>
      <trkpt lat="48.58384" lon="-2.56407">
        <ele>25</ele>
        <time>2012-01-22T13:56:32Z</time>
      </trkpt>
      <trkpt lat="48.58384" lon="-2.56405">
        <ele>25</ele>
        <time>2012-01-22T13:56:33Z</time>
      </trkpt>
      <trkpt lat="48.58384" lon="-2.56403">
        <ele>25</ele>
        <time>2012-01-22T13:56:34Z</time>
      </trkpt>
      <trkpt lat="48.58384" lon="-2.56401">
        <ele>25</ele>
        <time>2012-01-22T13:56:35Z</time>
      </trkpt>
      <trkpt lat="48.58384" lon="-2.56399">
        <ele>25</ele>
        <time>2012-01-22T13:56:35Z</time>
      </trkpt>
      <trkpt lat="48.58384" lon="-2.56397">
        <ele>25</ele>
        <time>2012-01-22T13:56:38Z</time>
      </trkpt>
      <trkpt lat="48.58384" lon="-2.56395">
        <ele>25</ele>
        <time>2012-01-22T13:56:42Z</time>
      </trkpt>
      <trkpt lat="48.58384" lon="-2.56393">
        <ele>25</ele>
        <time>2012-01-22T13:56:42Z</time>
      </trkpt>
      <trkpt lat="48.58384" lon="-2.5639">
        <ele>25</ele>
        <time>2012-01-22T13:56:44Z</time>
      </trkpt>
      <trkpt lat="48.58384" lon="-2.56388">
        <ele>25</ele>
        <time>2012-01-22T13:56:45Z</time>
      </trkpt>
      <trkpt lat="48.58384" lon="-2.56385">
        <ele>25</ele>
        <time>2012-01-22T13:56:46Z</time>
      </trkpt>
      <trkpt lat="48.58384" lon="-2.56383">
        <ele>25</ele>
        <time>2012-01-22T13:56:47Z</time>
      </trkpt>
      <trkpt lat="48.58384" lon="-2.56382">
        <ele>25</ele>
        <time>2012-01-22T13:56:48Z</time>
      </trkpt>
      <trkpt lat="48.58384" lon="-2.56378">
        <ele>24</ele>
        <time>2012-01-22T13:56:50Z</time>
      </trkpt>
      <trkpt lat="48.58384" lon="-2.56376">
        <ele>24</ele>
        <time>2012-01-22T13:56:51Z</time>
      </trkpt>
      <trkpt lat="48.58384" lon="-2.56374">
        <ele>24</ele>
        <time>2012-01-22T13:56:52Z</time>
      </trkpt>
      <trkpt lat="48.58383" lon="-2.56371">
        <ele>24</ele>
        <time>2012-01-22T13:56:53Z</time>
      </trkpt>
      <trkpt lat="48.58383" lon="-2.56368">
        <ele>23</ele>
        <time>2012-01-22T13:56:54Z</time>
      </trkpt>
      <trkpt lat="48.58383" lon="-2.56366">
        <ele>23</ele>
        <time>2012-01-22T13:56:55Z</time>
      </trkpt>
      <trkpt lat="48.58384" lon="-2.56364">
        <ele>23</ele>
        <time>2012-01-22T13:56:55Z</time>
      </trkpt>
      <trkpt lat="48.58384" lon="-2.56362">
        <ele>23</ele>
        <time>2012-01-22T13:56:56Z</time>
      </trkpt>
      <trkpt lat="48.58384" lon="-2.5636">
        <ele>23</ele>
        <time>2012-01-22T13:56:57Z</time>
      </trkpt>
      <trkpt lat="48.58384" lon="-2.56358">
        <ele>23</ele>
        <time>2012-01-22T13:56:59Z</time>
      </trkpt>
      <trkpt lat="48.58385" lon="-2.56356">
        <ele>23</ele>
        <time>2012-01-22T13:57:00Z</time>
      </trkpt>
      <trkpt lat="48.58386" lon="-2.56353">
        <ele>23</ele>
        <time>2012-01-22T13:57:01Z</time>
      </trkpt>
      <trkpt lat="48.58388" lon="-2.56351">
        <ele>23</ele>
        <time>2012-01-22T13:57:04Z</time>
      </trkpt>
      <trkpt lat="48.58389" lon="-2.56349">
        <ele>22</ele>
        <time>2012-01-22T13:57:05Z</time>
      </trkpt>
      <trkpt lat="48.5839" lon="-2.56347">
        <ele>22</ele>
        <time>2012-01-22T13:57:07Z</time>
      </trkpt>
      <trkpt lat="48.58391" lon="-2.56346">
        <ele>22</ele>
        <time>2012-01-22T13:57:08Z</time>
      </trkpt>
      <trkpt lat="48.58392" lon="-2.56343">
        <ele>22</ele>
        <time>2012-01-22T13:57:11Z</time>
      </trkpt>
      <trkpt lat="48.58393" lon="-2.5634">
        <ele>21</ele>
        <time>2012-01-22T13:57:12Z</time>
      </trkpt>
      <trkpt lat="48.58395" lon="-2.56338">
        <ele>21</ele>
        <time>2012-01-22T13:57:14Z</time>
      </trkpt>
      <trkpt lat="48.58396" lon="-2.56337">
        <ele>21</ele>
        <time>2012-01-22T13:57:16Z</time>
      </trkpt>
      <trkpt lat="48.58398" lon="-2.56335">
        <ele>20</ele>
        <time>2012-01-22T13:57:17Z</time>
      </trkpt>
      <trkpt lat="48.58398" lon="-2.56332">
        <ele>20</ele>
        <time>2012-01-22T13:57:19Z</time>
      </trkpt>
      <trkpt lat="48.58399" lon="-2.5633">
        <ele>19</ele>
        <time>2012-01-22T13:57:22Z</time>
      </trkpt>
      <trkpt lat="48.58399" lon="-2.56326">
        <ele>18</ele>
        <time>2012-01-22T13:57:23Z</time>
      </trkpt>
      <trkpt lat="48.58399" lon="-2.56324">
        <ele>18</ele>
        <time>2012-01-22T13:57:24Z</time>
      </trkpt>
      <trkpt lat="48.58399" lon="-2.56323">
        <ele>17</ele>
        <time>2012-01-22T13:57:25Z</time>
      </trkpt>
      <trkpt lat="48.58398" lon="-2.56321">
        <ele>16</ele>
        <time>2012-01-22T13:57:27Z</time>
      </trkpt>
      <trkpt lat="48.58398" lon="-2.56319">
        <ele>16</ele>
        <time>2012-01-22T13:57:27Z</time>
      </trkpt>
      <trkpt lat="48.58398" lon="-2.56317">
        <ele>15</ele>
        <time>2012-01-22T13:57:28Z</time>
      </trkpt>
      <trkpt lat="48.58398" lon="-2.56315">
        <ele>15</ele>
        <time>2012-01-22T13:57:29Z</time>
      </trkpt>
      <trkpt lat="48.58398" lon="-2.56313">
        <ele>15</ele>
        <time>2012-01-22T13:57:30Z</time>
      </trkpt>
      <trkpt lat="48.58398" lon="-2.5631">
        <ele>14</ele>
        <time>2012-01-22T13:57:33Z</time>
      </trkpt>
      <trkpt lat="48.58398" lon="-2.56308">
        <ele>14</ele>
        <time>2012-01-22T13:57:33Z</time>
      </trkpt>
      <trkpt lat="48.58397" lon="-2.56306">
        <ele>14</ele>
        <time>2012-01-22T13:57:34Z</time>
      </trkpt>
      <trkpt lat="48.58398" lon="-2.56303">
        <ele>13</ele>
        <time>2012-01-22T13:57:36Z</time>
      </trkpt>
      <trkpt lat="48.58399" lon="-2.56301">
        <ele>13</ele>
        <time>2012-01-22T13:57:37Z</time>
      </trkpt>
      <trkpt lat="48.58399" lon="-2.563">
        <ele>13</ele>
        <time>2012-01-22T13:57:39Z</time>
      </trkpt>
      <trkpt lat="48.58399" lon="-2.56298">
        <ele>13</ele>
        <time>2012-01-22T13:57:39Z</time>
      </trkpt>
      <trkpt lat="48.58399" lon="-2.56294">
        <ele>13</ele>
        <time>2012-01-22T13:57:41Z</time>
      </trkpt>
      <trkpt lat="48.58399" lon="-2.56293">
        <ele>13</ele>
        <time>2012-01-22T13:57:42Z</time>
      </trkpt>
      <trkpt lat="48.584" lon="-2.56291">
        <ele>12</ele>
        <time>2012-01-22T13:57:44Z</time>
      </trkpt>
      <trkpt lat="48.584" lon="-2.56288">
        <ele>12</ele>
        <time>2012-01-22T13:57:45Z</time>
      </trkpt>
      <trkpt lat="48.584" lon="-2.56286">
        <ele>11</ele>
        <time>2012-01-22T13:57:46Z</time>
      </trkpt>
      <trkpt lat="48.584" lon="-2.56284">
        <ele>11</ele>
        <time>2012-01-22T13:57:47Z</time>
      </trkpt>
      <trkpt lat="48.584" lon="-2.56282">
        <ele>11</ele>
        <time>2012-01-22T13:57:49Z</time>
      </trkpt>
      <trkpt lat="48.584" lon="-2.56281">
        <ele>11</ele>
        <time>2012-01-22T13:57:49Z</time>
      </trkpt>
      <trkpt lat="48.58401" lon="-2.5628">
        <ele>10</ele>
        <time>2012-01-22T13:57:50Z</time>
      </trkpt>
      <trkpt lat="48.58403" lon="-2.56278">
        <ele>10</ele>
        <time>2012-01-22T13:57:52Z</time>
      </trkpt>
      <trkpt lat="48.58405" lon="-2.56275">
        <ele>9</ele>
        <time>2012-01-22T13:57:55Z</time>
      </trkpt>
      <trkpt lat="48.58406" lon="-2.56272">
        <ele>9</ele>
        <time>2012-01-22T13:57:55Z</time>
      </trkpt>
      <trkpt lat="48.58406" lon="-2.56269">
        <ele>9</ele>
        <time>2012-01-22T13:57:57Z</time>
      </trkpt>
      <trkpt lat="48.58406" lon="-2.56267">
        <ele>9</ele>
        <time>2012-01-22T13:57:58Z</time>
      </trkpt>
      <trkpt lat="48.58408" lon="-2.56265">
        <ele>9</ele>
        <time>2012-01-22T13:58:01Z</time>
      </trkpt>
      <trkpt lat="48.5841" lon="-2.56262">
        <ele>9</ele>
        <time>2012-01-22T13:58:02Z</time>
      </trkpt>
      <trkpt lat="48.58412" lon="-2.5626">
        <ele>9</ele>
        <time>2012-01-22T13:58:04Z</time>
      </trkpt>
      <trkpt lat="48.58413" lon="-2.5626">
        <ele>9</ele>
        <time>2012-01-22T13:58:06Z</time>
      </trkpt>
      <trkpt lat="48.58414" lon="-2.56261">
        <ele>9</ele>
        <time>2012-01-22T13:58:07Z</time>
      </trkpt>
      <trkpt lat="48.58416" lon="-2.56261">
        <ele>9</ele>
        <time>2012-01-22T13:58:08Z</time>
      </trkpt>
      <trkpt lat="48.58417" lon="-2.56262">
        <ele>9</ele>
        <time>2012-01-22T13:58:09Z</time>
      </trkpt>
      <trkpt lat="48.58419" lon="-2.56263">
        <ele>9</ele>
        <time>2012-01-22T13:58:11Z</time>
      </trkpt>
      <trkpt lat="48.5842" lon="-2.56264">
        <ele>9</ele>
        <time>2012-01-22T13:58:11Z</time>
      </trkpt>
      <trkpt lat="48.58421" lon="-2.56265">
        <ele>9</ele>
        <time>2012-01-22T13:58:12Z</time>
      </trkpt>
      <trkpt lat="48.58422" lon="-2.56266">
        <ele>9</ele>
        <time>2012-01-22T13:58:13Z</time>
      </trkpt>
      <trkpt lat="48.58424" lon="-2.56266">
        <ele>9</ele>
        <time>2012-01-22T13:58:14Z</time>
      </trkpt>
      <trkpt lat="48.58425" lon="-2.56267">
        <ele>9</ele>
        <time>2012-01-22T13:58:15Z</time>
      </trkpt>
      <trkpt lat="48.58427" lon="-2.56268">
        <ele>9</ele>
        <time>2012-01-22T13:58:17Z</time>
      </trkpt>
      <trkpt lat="48.58429" lon="-2.56268">
        <ele>9</ele>
        <time>2012-01-22T13:58:17Z</time>
      </trkpt>
      <trkpt lat="48.5843" lon="-2.56269">
        <ele>9</ele>
        <time>2012-01-22T13:58:18Z</time>
      </trkpt>
      <trkpt lat="48.58431" lon="-2.56269">
        <ele>9</ele>
        <time>2012-01-22T13:58:19Z</time>
      </trkpt>
      <trkpt lat="48.58433" lon="-2.56271">
        <ele>9</ele>
        <time>2012-01-22T13:58:21Z</time>
      </trkpt>
      <trkpt lat="48.58434" lon="-2.56271">
        <ele>9</ele>
        <time>2012-01-22T13:58:25Z</time>
      </trkpt>
      <trkpt lat="48.58436" lon="-2.56272">
        <ele>9</ele>
        <time>2012-01-22T13:58:30Z</time>
      </trkpt>
      <trkpt lat="48.58437" lon="-2.56271">
        <ele>9</ele>
        <time>2012-01-22T13:58:31Z</time>
      </trkpt>
      <trkpt lat="48.58439" lon="-2.5627">
        <ele>9</ele>
        <time>2012-01-22T13:58:33Z</time>
      </trkpt>
      <trkpt lat="48.5844" lon="-2.56269">
        <ele>9</ele>
        <time>2012-01-22T13:58:35Z</time>
      </trkpt>
      <trkpt lat="48.58441" lon="-2.56268">
        <ele>9</ele>
        <time>2012-01-22T13:58:35Z</time>
      </trkpt>
      <trkpt lat="48.58443" lon="-2.56265">
        <ele>9</ele>
        <time>2012-01-22T13:58:37Z</time>
      </trkpt>
      <trkpt lat="48.58445" lon="-2.56262">
        <ele>9</ele>
        <time>2012-01-22T13:58:39Z</time>
      </trkpt>
      <trkpt lat="48.58446" lon="-2.5626">
        <ele>9</ele>
        <time>2012-01-22T13:58:42Z</time>
      </trkpt>
      <trkpt lat="48.58448" lon="-2.56257">
        <ele>9</ele>
        <time>2012-01-22T13:58:43Z</time>
      </trkpt>
      <trkpt lat="48.5845" lon="-2.56254">
        <ele>9</ele>
        <time>2012-01-22T13:58:45Z</time>
      </trkpt>
      <trkpt lat="48.5845" lon="-2.56252">
        <ele>9</ele>
        <time>2012-01-22T13:58:47Z</time>
      </trkpt>
      <trkpt lat="48.58451" lon="-2.56249">
        <ele>9</ele>
        <time>2012-01-22T13:58:48Z</time>
      </trkpt>
      <trkpt lat="48.58453" lon="-2.56247">
        <ele>8</ele>
        <time>2012-01-22T13:58:50Z</time>
      </trkpt>
      <trkpt lat="48.58455" lon="-2.56244">
        <ele>8</ele>
        <time>2012-01-22T13:58:53Z</time>
      </trkpt>
      <trkpt lat="48.58457" lon="-2.56241">
        <ele>8</ele>
        <time>2012-01-22T13:58:54Z</time>
      </trkpt>
      <trkpt lat="48.58458" lon="-2.56239">
        <ele>8</ele>
        <time>2012-01-22T13:58:56Z</time>
      </trkpt>
      <trkpt lat="48.5846" lon="-2.56237">
        <ele>8</ele>
        <time>2012-01-22T13:58:59Z</time>
      </trkpt>
      <trkpt lat="48.58462" lon="-2.56234">
        <ele>8</ele>
        <time>2012-01-22T13:59:00Z</time>
      </trkpt>
      <trkpt lat="48.58464" lon="-2.56232">
        <ele>8</ele>
        <time>2012-01-22T13:59:02Z</time>
      </trkpt>
      <trkpt lat="48.58466" lon="-2.5623">
        <ele>8</ele>
        <time>2012-01-22T13:59:05Z</time>
      </trkpt>
      <trkpt lat="48.58467" lon="-2.5623">
        <ele>8</ele>
        <time>2012-01-22T13:59:05Z</time>
      </trkpt>
      <trkpt lat="48.58469" lon="-2.56231">
        <ele>8</ele>
        <time>2012-01-22T13:59:07Z</time>
      </trkpt>
      <trkpt lat="48.5847" lon="-2.56233">
        <ele>8</ele>
        <time>2012-01-22T13:59:10Z</time>
      </trkpt>
      <trkpt lat="48.58471" lon="-2.56236">
        <ele>8</ele>
        <time>2012-01-22T13:59:11Z</time>
      </trkpt>
      <trkpt lat="48.58471" lon="-2.56237">
        <ele>8</ele>
        <time>2012-01-22T13:59:12Z</time>
      </trkpt>
      <trkpt lat="48.58469" lon="-2.56239">
        <ele>7</ele>
        <time>2012-01-22T13:59:15Z</time>
      </trkpt>
      <trkpt lat="48.58468" lon="-2.56241">
        <ele>7</ele>
        <time>2012-01-22T13:59:16Z</time>
      </trkpt>
      <trkpt lat="48.58468" lon="-2.56244">
        <ele>7</ele>
        <time>2012-01-22T13:59:18Z</time>
      </trkpt>
      <trkpt lat="48.58467" lon="-2.56247">
        <ele>7</ele>
        <time>2012-01-22T13:59:21Z</time>
      </trkpt>
      <trkpt lat="48.58466" lon="-2.5625">
        <ele>6</ele>
        <time>2012-01-22T13:59:22Z</time>
      </trkpt>
      <trkpt lat="48.58466" lon="-2.56253">
        <ele>6</ele>
        <time>2012-01-22T13:59:24Z</time>
      </trkpt>
      <trkpt lat="48.58467" lon="-2.56255">
        <ele>5</ele>
        <time>2012-01-22T13:59:26Z</time>
      </trkpt>
      <trkpt lat="48.58467" lon="-2.56257">
        <ele>5</ele>
        <time>2012-01-22T13:59:26Z</time>
      </trkpt>
      <trkpt lat="48.58467" lon="-2.56259">
        <ele>5</ele>
        <time>2012-01-22T13:59:27Z</time>
      </trkpt>
      <trkpt lat="48.58467" lon="-2.56262">
        <ele>5</ele>
        <time>2012-01-22T13:59:28Z</time>
      </trkpt>
      <trkpt lat="48.58467" lon="-2.56263">
        <ele>5</ele>
        <time>2012-01-22T13:59:29Z</time>
      </trkpt>
      <trkpt lat="48.58468" lon="-2.56265">
        <ele>5</ele>
        <time>2012-01-22T13:59:30Z</time>
      </trkpt>
      <trkpt lat="48.58468" lon="-2.56268">
        <ele>5</ele>
        <time>2012-01-22T13:59:33Z</time>
      </trkpt>
      <trkpt lat="48.58469" lon="-2.56271">
        <ele>5</ele>
        <time>2012-01-22T13:59:34Z</time>
      </trkpt>
      <trkpt lat="48.5847" lon="-2.56273">
        <ele>5</ele>
        <time>2012-01-22T13:59:35Z</time>
      </trkpt>
      <trkpt lat="48.58471" lon="-2.56275">
        <ele>5</ele>
        <time>2012-01-22T13:59:38Z</time>
      </trkpt>
      <trkpt lat="48.58472" lon="-2.56277">
        <ele>4</ele>
        <time>2012-01-22T13:59:39Z</time>
      </trkpt>
      <trkpt lat="48.58474" lon="-2.5628">
        <ele>4</ele>
        <time>2012-01-22T13:59:41Z</time>
      </trkpt>
      <trkpt lat="48.58476" lon="-2.56283">
        <ele>4</ele>
        <time>2012-01-22T13:59:44Z</time>
      </trkpt>
      <trkpt lat="48.58477" lon="-2.56284">
        <ele>4</ele>
        <time>2012-01-22T13:59:44Z</time>
      </trkpt>
      <trkpt lat="48.58479" lon="-2.56286">
        <ele>3</ele>
        <time>2012-01-22T13:59:46Z</time>
      </trkpt>
      <trkpt lat="48.58481" lon="-2.56287">
        <ele>3</ele>
        <time>2012-01-22T13:59:47Z</time>
      </trkpt>
      <trkpt lat="48.58482" lon="-2.56288">
        <ele>3</ele>
        <time>2012-01-22T13:59:49Z</time>
      </trkpt>
      <trkpt lat="48.58483" lon="-2.56289">
        <ele>3</ele>
        <time>2012-01-22T13:59:49Z</time>
      </trkpt>
      <trkpt lat="48.58484" lon="-2.56289">
        <ele>3</ele>
        <time>2012-01-22T13:59:50Z</time>
      </trkpt>
      <trkpt lat="48.58485" lon="-2.56288">
        <ele>3</ele>
        <time>2012-01-22T13:59:51Z</time>
      </trkpt>
      <trkpt lat="48.58487" lon="-2.56287">
        <ele>3</ele>
        <time>2012-01-22T13:59:52Z</time>
      </trkpt>
      <trkpt lat="48.58488" lon="-2.56287">
        <ele>3</ele>
        <time>2012-01-22T13:59:53Z</time>
      </trkpt>
      <trkpt lat="48.58489" lon="-2.56285">
        <ele>3</ele>
        <time>2012-01-22T13:59:55Z</time>
      </trkpt>
      <trkpt lat="48.58491" lon="-2.56283">
        <ele>3</ele>
        <time>2012-01-22T13:59:56Z</time>
      </trkpt>
      <trkpt lat="48.58493" lon="-2.5628">
        <ele>3</ele>
        <time>2012-01-22T13:59:58Z</time>
      </trkpt>
      <trkpt lat="48.58495" lon="-2.56278">
        <ele>3</ele>
        <time>2012-01-22T14:00:01Z</time>
      </trkpt>
      <trkpt lat="48.58496" lon="-2.56276">
        <ele>3</ele>
        <time>2012-01-22T14:00:03Z</time>
      </trkpt>
      <trkpt lat="48.58498" lon="-2.56273">
        <ele>3</ele>
        <time>2012-01-22T14:00:04Z</time>
      </trkpt>
      <trkpt lat="48.585" lon="-2.56271">
        <ele>3</ele>
        <time>2012-01-22T14:00:07Z</time>
      </trkpt>
      <trkpt lat="48.58501" lon="-2.56268">
        <ele>3</ele>
        <time>2012-01-22T14:00:08Z</time>
      </trkpt>
      <trkpt lat="48.58503" lon="-2.56266">
        <ele>3</ele>
        <time>2012-01-22T14:00:10Z</time>
      </trkpt>
      <trkpt lat="48.58505" lon="-2.56263">
        <ele>3</ele>
        <time>2012-01-22T14:00:13Z</time>
      </trkpt>
      <trkpt lat="48.58507" lon="-2.56261">
        <ele>3</ele>
        <time>2012-01-22T14:00:14Z</time>
      </trkpt>
      <trkpt lat="48.58509" lon="-2.56258">
        <ele>3</ele>
        <time>2012-01-22T14:00:16Z</time>
      </trkpt>
      <trkpt lat="48.58511" lon="-2.56256">
        <ele>3</ele>
        <time>2012-01-22T14:00:19Z</time>
      </trkpt>
      <trkpt lat="48.58513" lon="-2.56253">
        <ele>3</ele>
        <time>2012-01-22T14:00:20Z</time>
      </trkpt>
      <trkpt lat="48.58515" lon="-2.56251">
        <ele>3</ele>
        <time>2012-01-22T14:00:22Z</time>
      </trkpt>
      <trkpt lat="48.58517" lon="-2.56248">
        <ele>3</ele>
        <time>2012-01-22T14:00:25Z</time>
      </trkpt>
      <trkpt lat="48.58517" lon="-2.56247">
        <ele>3</ele>
        <time>2012-01-22T14:00:25Z</time>
      </trkpt>
      <trkpt lat="48.58519" lon="-2.56245">
        <ele>3</ele>
        <time>2012-01-22T14:00:26Z</time>
      </trkpt>
      <trkpt lat="48.5852" lon="-2.56242">
        <ele>3</ele>
        <time>2012-01-22T14:00:28Z</time>
      </trkpt>
      <trkpt lat="48.58522" lon="-2.5624">
        <ele>3</ele>
        <time>2012-01-22T14:00:31Z</time>
      </trkpt>
      <trkpt lat="48.58524" lon="-2.56237">
        <ele>3</ele>
        <time>2012-01-22T14:00:33Z</time>
      </trkpt>
      <trkpt lat="48.58525" lon="-2.56234">
        <ele>3</ele>
        <time>2012-01-22T14:00:34Z</time>
      </trkpt>
      <trkpt lat="48.58527" lon="-2.56232">
        <ele>3</ele>
        <time>2012-01-22T14:00:37Z</time>
      </trkpt>
      <trkpt lat="48.58529" lon="-2.56229">
        <ele>3</ele>
        <time>2012-01-22T14:00:38Z</time>
      </trkpt>
      <trkpt lat="48.58531" lon="-2.56226">
        <ele>3</ele>
        <time>2012-01-22T14:00:40Z</time>
      </trkpt>
      <trkpt lat="48.58533" lon="-2.56223">
        <ele>3</ele>
        <time>2012-01-22T14:00:43Z</time>
      </trkpt>
      <trkpt lat="48.58534" lon="-2.56221">
        <ele>3</ele>
        <time>2012-01-22T14:00:44Z</time>
      </trkpt>
      <trkpt lat="48.58536" lon="-2.56218">
        <ele>3</ele>
        <time>2012-01-22T14:00:46Z</time>
      </trkpt>
      <trkpt lat="48.58538" lon="-2.56215">
        <ele>3</ele>
        <time>2012-01-22T14:00:48Z</time>
      </trkpt>
      <trkpt lat="48.5854" lon="-2.56212">
        <ele>3</ele>
        <time>2012-01-22T14:00:50Z</time>
      </trkpt>
      <trkpt lat="48.58541" lon="-2.5621">
        <ele>2</ele>
        <time>2012-01-22T14:00:52Z</time>
      </trkpt>
      <trkpt lat="48.58543" lon="-2.56208">
        <ele>2</ele>
        <time>2012-01-22T14:00:54Z</time>
      </trkpt>
      <trkpt lat="48.58545" lon="-2.56205">
        <ele>2</ele>
        <time>2012-01-22T14:00:56Z</time>
      </trkpt>
      <trkpt lat="48.58547" lon="-2.56202">
        <ele>2</ele>
        <time>2012-01-22T14:00:58Z</time>
      </trkpt>
      <trkpt lat="48.58548" lon="-2.562">
        <ele>2</ele>
        <time>2012-01-22T14:01:01Z</time>
      </trkpt>
      <trkpt lat="48.58551" lon="-2.56197">
        <ele>2</ele>
        <time>2012-01-22T14:01:02Z</time>
      </trkpt>
      <trkpt lat="48.58553" lon="-2.56194">
        <ele>2</ele>
        <time>2012-01-22T14:01:04Z</time>
      </trkpt>
      <trkpt lat="48.58554" lon="-2.56193">
        <ele>2</ele>
        <time>2012-01-22T14:01:06Z</time>
      </trkpt>
      <trkpt lat="48.58556" lon="-2.5619">
        <ele>2</ele>
        <time>2012-01-22T14:01:07Z</time>
      </trkpt>
      <trkpt lat="48.58557" lon="-2.56187">
        <ele>2</ele>
        <time>2012-01-22T14:01:09Z</time>
      </trkpt>
      <trkpt lat="48.58559" lon="-2.56185">
        <ele>2</ele>
        <time>2012-01-22T14:01:11Z</time>
      </trkpt>
      <trkpt lat="48.58561" lon="-2.56182">
        <ele>2</ele>
        <time>2012-01-22T14:01:13Z</time>
      </trkpt>
      <trkpt lat="48.58563" lon="-2.56179">
        <ele>2</ele>
        <time>2012-01-22T14:01:15Z</time>
      </trkpt>
      <trkpt lat="48.58565" lon="-2.56177">
        <ele>2</ele>
        <time>2012-01-22T14:01:17Z</time>
      </trkpt>
      <trkpt lat="48.58567" lon="-2.56174">
        <ele>2</ele>
        <time>2012-01-22T14:01:19Z</time>
      </trkpt>
      <trkpt lat="48.58569" lon="-2.56171">
        <ele>2</ele>
        <time>2012-01-22T14:01:21Z</time>
      </trkpt>
      <trkpt lat="48.58571" lon="-2.56169">
        <ele>2</ele>
        <time>2012-01-22T14:01:23Z</time>
      </trkpt>
      <trkpt lat="48.58572" lon="-2.56167">
        <ele>2</ele>
        <time>2012-01-22T14:01:25Z</time>
      </trkpt>
      <trkpt lat="48.58574" lon="-2.56164">
        <ele>2</ele>
        <time>2012-01-22T14:01:27Z</time>
      </trkpt>
      <trkpt lat="48.58575" lon="-2.56163">
        <ele>2</ele>
        <time>2012-01-22T14:01:28Z</time>
      </trkpt>
      <trkpt lat="48.58577" lon="-2.5616">
        <ele>2</ele>
        <time>2012-01-22T14:01:30Z</time>
      </trkpt>
      <trkpt lat="48.58579" lon="-2.56158">
        <ele>2</ele>
        <time>2012-01-22T14:01:32Z</time>
      </trkpt>
      <trkpt lat="48.58581" lon="-2.56155">
        <ele>2</ele>
        <time>2012-01-22T14:01:34Z</time>
      </trkpt>
      <trkpt lat="48.58583" lon="-2.56153">
        <ele>2</ele>
        <time>2012-01-22T14:01:36Z</time>
      </trkpt>
      <trkpt lat="48.58585" lon="-2.5615">
        <ele>2</ele>
        <time>2012-01-22T14:01:38Z</time>
      </trkpt>
      <trkpt lat="48.58587" lon="-2.56148">
        <ele>2</ele>
        <time>2012-01-22T14:01:41Z</time>
      </trkpt>
      <trkpt lat="48.58588" lon="-2.56146">
        <ele>2</ele>
        <time>2012-01-22T14:01:42Z</time>
      </trkpt>
      <trkpt lat="48.5859" lon="-2.56143">
        <ele>2</ele>
        <time>2012-01-22T14:01:44Z</time>
      </trkpt>
      <trkpt lat="48.58592" lon="-2.5614">
        <ele>1</ele>
        <time>2012-01-22T14:01:46Z</time>
      </trkpt>
      <trkpt lat="48.58594" lon="-2.56138">
        <ele>1</ele>
        <time>2012-01-22T14:01:48Z</time>
      </trkpt>
      <trkpt lat="48.58596" lon="-2.56135">
        <ele>1</ele>
        <time>2012-01-22T14:01:50Z</time>
      </trkpt>
      <trkpt lat="48.58598" lon="-2.56132">
        <ele>1</ele>
        <time>2012-01-22T14:01:52Z</time>
      </trkpt>
      <trkpt lat="48.586" lon="-2.5613">
        <ele>1</ele>
        <time>2012-01-22T14:01:54Z</time>
      </trkpt>
      <trkpt lat="48.58602" lon="-2.56127">
        <ele>1</ele>
        <time>2012-01-22T14:01:56Z</time>
      </trkpt>
      <trkpt lat="48.58604" lon="-2.56124">
        <ele>1</ele>
        <time>2012-01-22T14:01:59Z</time>
      </trkpt>
      <trkpt lat="48.58606" lon="-2.56122">
        <ele>1</ele>
        <time>2012-01-22T14:02:00Z</time>
      </trkpt>
      <trkpt lat="48.58608" lon="-2.56119">
        <ele>1</ele>
        <time>2012-01-22T14:02:02Z</time>
      </trkpt>
      <trkpt lat="48.5861" lon="-2.56117">
        <ele>1</ele>
        <time>2012-01-22T14:02:04Z</time>
      </trkpt>
      <trkpt lat="48.58612" lon="-2.56114">
        <ele>1</ele>
        <time>2012-01-22T14:02:06Z</time>
      </trkpt>
      <trkpt lat="48.58614" lon="-2.56111">
        <ele>1</ele>
        <time>2012-01-22T14:02:09Z</time>
      </trkpt>
      <trkpt lat="48.58616" lon="-2.56108">
        <ele>1</ele>
        <time>2012-01-22T14:02:11Z</time>
      </trkpt>
      <trkpt lat="48.58618" lon="-2.56105">
        <ele>1</ele>
        <time>2012-01-22T14:02:12Z</time>
      </trkpt>
      <trkpt lat="48.5862" lon="-2.56103">
        <ele>1</ele>
        <time>2012-01-22T14:02:14Z</time>
      </trkpt>
      <trkpt lat="48.58622" lon="-2.561">
        <ele>1</ele>
        <time>2012-01-22T14:02:16Z</time>
      </trkpt>
      <trkpt lat="48.58623" lon="-2.56098">
        <ele>1</ele>
        <time>2012-01-22T14:02:18Z</time>
      </trkpt>
      <trkpt lat="48.58625" lon="-2.56095">
        <ele>1</ele>
        <time>2012-01-22T14:02:20Z</time>
      </trkpt>
      <trkpt lat="48.58627" lon="-2.56093">
        <ele>1</ele>
        <time>2012-01-22T14:02:22Z</time>
      </trkpt>
      <trkpt lat="48.58628" lon="-2.5609">
        <ele>3.3</ele>
        <time>2012-01-22T14:02:24Z</time>
      </trkpt>
      <trkpt lat="48.5863" lon="-2.56088">
        <ele>3.3</ele>
        <time>2012-01-22T14:02:26Z</time>
      </trkpt>
      <trkpt lat="48.58632" lon="-2.56087">
        <ele>3.2</ele>
        <time>2012-01-22T14:02:27Z</time>
      </trkpt>
      <trkpt lat="48.58634" lon="-2.56084">
        <ele>3.2</ele>
        <time>2012-01-22T14:02:29Z</time>
      </trkpt>
      <trkpt lat="48.58636" lon="-2.56082">
        <ele>3.2</ele>
        <time>2012-01-22T14:02:31Z</time>
      </trkpt>
      <trkpt lat="48.58638" lon="-2.5608">
        <ele>3.2</ele>
        <time>2012-01-22T14:02:33Z</time>
      </trkpt>
      <trkpt lat="48.58639" lon="-2.56079">
        <ele>3.2</ele>
        <time>2012-01-22T14:02:34Z</time>
      </trkpt>
      <trkpt lat="48.5864" lon="-2.56077">
        <ele>3.2</ele>
        <time>2012-01-22T14:02:35Z</time>
      </trkpt>
      <trkpt lat="48.58643" lon="-2.56075">
        <ele>3.2</ele>
        <time>2012-01-22T14:02:37Z</time>
      </trkpt>
      <trkpt lat="48.58644" lon="-2.56072">
        <ele>3.2</ele>
        <time>2012-01-22T14:02:39Z</time>
      </trkpt>
      <trkpt lat="48.58646" lon="-2.56069">
        <ele>3.2</ele>
        <time>2012-01-22T14:02:41Z</time>
      </trkpt>
      <trkpt lat="48.58649" lon="-2.56067">
        <ele>3.2</ele>
        <time>2012-01-22T14:02:43Z</time>
      </trkpt>
      <trkpt lat="48.5865" lon="-2.56066">
        <ele>3.2</ele>
        <time>2012-01-22T14:02:44Z</time>
      </trkpt>
      <trkpt lat="48.58652" lon="-2.56063">
        <ele>3.3</ele>
        <time>2012-01-22T14:02:46Z</time>
      </trkpt>
      <trkpt lat="48.58654" lon="-2.56061">
        <ele>3.3</ele>
        <time>2012-01-22T14:02:48Z</time>
      </trkpt>
      <trkpt lat="48.58656" lon="-2.56058">
        <ele>3.3</ele>
        <time>2012-01-22T14:02:50Z</time>
      </trkpt>
      <trkpt lat="48.58658" lon="-2.56055">
        <ele>3.3</ele>
        <time>2012-01-22T14:02:52Z</time>
      </trkpt>
      <trkpt lat="48.58659" lon="-2.56054">
        <ele>3.3</ele>
        <time>2012-01-22T14:02:53Z</time>
      </trkpt>
      <trkpt lat="48.5866" lon="-2.56053">
        <ele>3.2</ele>
        <time>2012-01-22T14:02:54Z</time>
      </trkpt>
      <trkpt lat="48.58662" lon="-2.56051">
        <ele>3.2</ele>
        <time>2012-01-22T14:02:56Z</time>
      </trkpt>
      <trkpt lat="48.58664" lon="-2.56048">
        <ele>3.1</ele>
        <time>2012-01-22T14:02:58Z</time>
      </trkpt>
      <trkpt lat="48.58665" lon="-2.56047">
        <ele>3.1</ele>
        <time>2012-01-22T14:02:59Z</time>
      </trkpt>
      <trkpt lat="48.58667" lon="-2.56045">
        <ele>3</ele>
        <time>2012-01-22T14:03:01Z</time>
      </trkpt>
      <trkpt lat="48.58668" lon="-2.56044">
        <ele>3</ele>
        <time>2012-01-22T14:03:02Z</time>
      </trkpt>
      <trkpt lat="48.5867" lon="-2.56041">
        <ele>2.9</ele>
        <time>2012-01-22T14:03:04Z</time>
      </trkpt>
      <trkpt lat="48.58672" lon="-2.56038">
        <ele>2.9</ele>
        <time>2012-01-22T14:03:06Z</time>
      </trkpt>
      <trkpt lat="48.58674" lon="-2.56035">
        <ele>2.9</ele>
        <time>2012-01-22T14:03:08Z</time>
      </trkpt>
      <trkpt lat="48.58675" lon="-2.56034">
        <ele>2.9</ele>
        <time>2012-01-22T14:03:09Z</time>
      </trkpt>
      <trkpt lat="48.58678" lon="-2.56031">
        <ele>2.9</ele>
        <time>2012-01-22T14:03:11Z</time>
      </trkpt>
      <trkpt lat="48.5868" lon="-2.56029">
        <ele>3</ele>
        <time>2012-01-22T14:03:13Z</time>
      </trkpt>
      <trkpt lat="48.58682" lon="-2.56027">
        <ele>3</ele>
        <time>2012-01-22T14:03:15Z</time>
      </trkpt>
      <trkpt lat="48.58684" lon="-2.56024">
        <ele>3</ele>
        <time>2012-01-22T14:03:17Z</time>
      </trkpt>
      <trkpt lat="48.58685" lon="-2.56023">
        <ele>3.1</ele>
        <time>2012-01-22T14:03:18Z</time>
      </trkpt>
      <trkpt lat="48.58688" lon="-2.5602">
        <ele>3.1</ele>
        <time>2012-01-22T14:03:20Z</time>
      </trkpt>
      <trkpt lat="48.58689" lon="-2.56018">
        <ele>3.1</ele>
        <time>2012-01-22T14:03:22Z</time>
      </trkpt>
      <trkpt lat="48.58691" lon="-2.56015">
        <ele>3.1</ele>
        <time>2012-01-22T14:03:24Z</time>
      </trkpt>
      <trkpt lat="48.58692" lon="-2.56014">
        <ele>3</ele>
        <time>2012-01-22T14:03:25Z</time>
      </trkpt>
      <trkpt lat="48.58693" lon="-2.56012">
        <ele>3</ele>
        <time>2012-01-22T14:03:26Z</time>
      </trkpt>
      <trkpt lat="48.58694" lon="-2.56011">
        <ele>3</ele>
        <time>2012-01-22T14:03:27Z</time>
      </trkpt>
      <trkpt lat="48.58696" lon="-2.5601">
        <ele>3</ele>
        <time>2012-01-22T14:03:28Z</time>
      </trkpt>
      <trkpt lat="48.58698" lon="-2.56007">
        <ele>2.9</ele>
        <time>2012-01-22T14:03:30Z</time>
      </trkpt>
      <trkpt lat="48.58699" lon="-2.56006">
        <ele>2.8</ele>
        <time>2012-01-22T14:03:32Z</time>
      </trkpt>
      <trkpt lat="48.58701" lon="-2.56003">
        <ele>2.8</ele>
        <time>2012-01-22T14:03:33Z</time>
      </trkpt>
      <trkpt lat="48.58702" lon="-2.56001">
        <ele>2.7</ele>
        <time>2012-01-22T14:03:35Z</time>
      </trkpt>
      <trkpt lat="48.58704" lon="-2.55999">
        <ele>2.7</ele>
        <time>2012-01-22T14:03:36Z</time>
      </trkpt>
      <trkpt lat="48.58706" lon="-2.55996">
        <ele>2.7</ele>
        <time>2012-01-22T14:03:38Z</time>
      </trkpt>
      <trkpt lat="48.58707" lon="-2.55994">
        <ele>2.6</ele>
        <time>2012-01-22T14:03:40Z</time>
      </trkpt>
      <trkpt lat="48.58709" lon="-2.55991">
        <ele>2.6</ele>
        <time>2012-01-22T14:03:42Z</time>
      </trkpt>
      <trkpt lat="48.58711" lon="-2.55988">
        <ele>2.6</ele>
        <time>2012-01-22T14:03:44Z</time>
      </trkpt>
      <trkpt lat="48.58713" lon="-2.55985">
        <ele>2.7</ele>
        <time>2012-01-22T14:03:46Z</time>
      </trkpt>
      <trkpt lat="48.58715" lon="-2.55983">
        <ele>2.7</ele>
        <time>2012-01-22T14:03:48Z</time>
      </trkpt>
      <trkpt lat="48.58717" lon="-2.5598">
        <ele>2.8</ele>
        <time>2012-01-22T14:03:50Z</time>
      </trkpt>
      <trkpt lat="48.58719" lon="-2.55977">
        <ele>2.8</ele>
        <time>2012-01-22T14:03:52Z</time>
      </trkpt>
      <trkpt lat="48.5872" lon="-2.55976">
        <ele>2.9</ele>
        <time>2012-01-22T14:03:53Z</time>
      </trkpt>
      <trkpt lat="48.58721" lon="-2.55975">
        <ele>2.9</ele>
        <time>2012-01-22T14:03:54Z</time>
      </trkpt>
      <trkpt lat="48.58723" lon="-2.55972">
        <ele>3</ele>
        <time>2012-01-22T14:03:56Z</time>
      </trkpt>
      <trkpt lat="48.58725" lon="-2.5597">
        <ele>2.9</ele>
        <time>2012-01-22T14:03:57Z</time>
      </trkpt>
      <trkpt lat="48.58727" lon="-2.55968">
        <ele>2.9</ele>
        <time>2012-01-22T14:03:59Z</time>
      </trkpt>
      <trkpt lat="48.58728" lon="-2.55966">
        <ele>2.8</ele>
        <time>2012-01-22T14:04:00Z</time>
      </trkpt>
      <trkpt lat="48.58729" lon="-2.55965">
        <ele>2.8</ele>
        <time>2012-01-22T14:04:01Z</time>
      </trkpt>
      <trkpt lat="48.5873" lon="-2.55964">
        <ele>2.8</ele>
        <time>2012-01-22T14:04:02Z</time>
      </trkpt>
      <trkpt lat="48.58732" lon="-2.55963">
        <ele>2.8</ele>
        <time>2012-01-22T14:04:03Z</time>
      </trkpt>
      <trkpt lat="48.58734" lon="-2.55961">
        <ele>2.8</ele>
        <time>2012-01-22T14:04:05Z</time>
      </trkpt>
      <trkpt lat="48.58736" lon="-2.55959">
        <ele>2.7</ele>
        <time>2012-01-22T14:04:07Z</time>
      </trkpt>
      <trkpt lat="48.58738" lon="-2.55957">
        <ele>2.7</ele>
        <time>2012-01-22T14:04:09Z</time>
      </trkpt>
      <trkpt lat="48.5874" lon="-2.55955">
        <ele>2.8</ele>
        <time>2012-01-22T14:04:11Z</time>
      </trkpt>
      <trkpt lat="48.58741" lon="-2.55952">
        <ele>2.8</ele>
        <time>2012-01-22T14:04:13Z</time>
      </trkpt>
      <trkpt lat="48.58744" lon="-2.5595">
        <ele>2.8</ele>
        <time>2012-01-22T14:04:15Z</time>
      </trkpt>
      <trkpt lat="48.58745" lon="-2.55949">
        <ele>2.9</ele>
        <time>2012-01-22T14:04:16Z</time>
      </trkpt>
      <trkpt lat="48.58747" lon="-2.55946">
        <ele>2.9</ele>
        <time>2012-01-22T14:04:18Z</time>
      </trkpt>
      <trkpt lat="48.58748" lon="-2.55945">
        <ele>3</ele>
        <time>2012-01-22T14:04:19Z</time>
      </trkpt>
      <trkpt lat="48.58749" lon="-2.55944">
        <ele>3</ele>
        <time>2012-01-22T14:04:20Z</time>
      </trkpt>
      <trkpt lat="48.58751" lon="-2.55941">
        <ele>3</ele>
        <time>2012-01-22T14:04:22Z</time>
      </trkpt>
      <trkpt lat="48.58753" lon="-2.55939">
        <ele>2.9</ele>
        <time>2012-01-22T14:04:24Z</time>
      </trkpt>
      <trkpt lat="48.58755" lon="-2.55936">
        <ele>2.8</ele>
        <time>2012-01-22T14:04:26Z</time>
      </trkpt>
      <trkpt lat="48.58757" lon="-2.55933">
        <ele>2.7</ele>
        <time>2012-01-22T14:04:28Z</time>
      </trkpt>
      <trkpt lat="48.58759" lon="-2.55932">
        <ele>2.7</ele>
        <time>2012-01-22T14:04:29Z</time>
      </trkpt>
      <trkpt lat="48.5876" lon="-2.55931">
        <ele>2.6</ele>
        <time>2012-01-22T14:04:30Z</time>
      </trkpt>
      <trkpt lat="48.58761" lon="-2.5593">
        <ele>2.6</ele>
        <time>2012-01-22T14:04:31Z</time>
      </trkpt>
      <trkpt lat="48.58763" lon="-2.55928">
        <ele>2.5</ele>
        <time>2012-01-22T14:04:33Z</time>
      </trkpt>
      <trkpt lat="48.58765" lon="-2.55925">
        <ele>2.5</ele>
        <time>2012-01-22T14:04:35Z</time>
      </trkpt>
      <trkpt lat="48.58767" lon="-2.55922">
        <ele>2.4</ele>
        <time>2012-01-22T14:04:37Z</time>
      </trkpt>
      <trkpt lat="48.58768" lon="-2.5592">
        <ele>2.3</ele>
        <time>2012-01-22T14:04:39Z</time>
      </trkpt>
      <trkpt lat="48.5877" lon="-2.55917">
        <ele>2.3</ele>
        <time>2012-01-22T14:04:41Z</time>
      </trkpt>
      <trkpt lat="48.58772" lon="-2.55914">
        <ele>2.3</ele>
        <time>2012-01-22T14:04:43Z</time>
      </trkpt>
      <trkpt lat="48.58773" lon="-2.55913">
        <ele>2.3</ele>
        <time>2012-01-22T14:04:44Z</time>
      </trkpt>
      <trkpt lat="48.58775" lon="-2.55911">
        <ele>2.3</ele>
        <time>2012-01-22T14:04:46Z</time>
      </trkpt>
      <trkpt lat="48.58777" lon="-2.55909">
        <ele>2.3</ele>
        <time>2012-01-22T14:04:48Z</time>
      </trkpt>
      <trkpt lat="48.58779" lon="-2.55906">
        <ele>2.4</ele>
        <time>2012-01-22T14:04:50Z</time>
      </trkpt>
      <trkpt lat="48.58781" lon="-2.55904">
        <ele>2.4</ele>
        <time>2012-01-22T14:04:52Z</time>
      </trkpt>
      <trkpt lat="48.58783" lon="-2.55902">
        <ele>2.4</ele>
        <time>2012-01-22T14:04:54Z</time>
      </trkpt>
      <trkpt lat="48.58785" lon="-2.55899">
        <ele>2.5</ele>
        <time>2012-01-22T14:04:56Z</time>
      </trkpt>
      <trkpt lat="48.58786" lon="-2.55898">
        <ele>2.5</ele>
        <time>2012-01-22T14:04:57Z</time>
      </trkpt>
      <trkpt lat="48.58788" lon="-2.55897">
        <ele>2.5</ele>
        <time>2012-01-22T14:04:58Z</time>
      </trkpt>
      <trkpt lat="48.5879" lon="-2.55894">
        <ele>2.5</ele>
        <time>2012-01-22T14:05:00Z</time>
      </trkpt>
      <trkpt lat="48.58792" lon="-2.55892">
        <ele>2.4</ele>
        <time>2012-01-22T14:05:02Z</time>
      </trkpt>
      <trkpt lat="48.58793" lon="-2.55891">
        <ele>2.4</ele>
        <time>2012-01-22T14:05:03Z</time>
      </trkpt>
      <trkpt lat="48.58794" lon="-2.5589">
        <ele>2.4</ele>
        <time>2012-01-22T14:05:04Z</time>
      </trkpt>
      <trkpt lat="48.58796" lon="-2.55889">
        <ele>2.4</ele>
        <time>2012-01-22T14:05:05Z</time>
      </trkpt>
      <trkpt lat="48.58798" lon="-2.55887">
        <ele>2.3</ele>
        <time>2012-01-22T14:05:07Z</time>
      </trkpt>
      <trkpt lat="48.588" lon="-2.55884">
        <ele>2.4</ele>
        <time>2012-01-22T14:05:09Z</time>
      </trkpt>
      <trkpt lat="48.58802" lon="-2.55881">
        <ele>2.4</ele>
        <time>2012-01-22T14:05:11Z</time>
      </trkpt>
      <trkpt lat="48.58804" lon="-2.55878">
        <ele>2.4</ele>
        <time>2012-01-22T14:05:13Z</time>
      </trkpt>
      <trkpt lat="48.58806" lon="-2.55876">
        <ele>2.4</ele>
        <time>2012-01-22T14:05:15Z</time>
      </trkpt>
      <trkpt lat="48.58807" lon="-2.55875">
        <ele>2.5</ele>
        <time>2012-01-22T14:05:16Z</time>
      </trkpt>
      <trkpt lat="48.58809" lon="-2.55874">
        <ele>2.5</ele>
        <time>2012-01-22T14:05:17Z</time>
      </trkpt>
      <trkpt lat="48.5881" lon="-2.55872">
        <ele>2.5</ele>
        <time>2012-01-22T14:05:19Z</time>
      </trkpt>
      <trkpt lat="48.58811" lon="-2.5587">
        <ele>2.5</ele>
        <time>2012-01-22T14:05:20Z</time>
      </trkpt>
      <trkpt lat="48.58812" lon="-2.55869">
        <ele>2.5</ele>
        <time>2012-01-22T14:05:21Z</time>
      </trkpt>
      <trkpt lat="48.58815" lon="-2.55867">
        <ele>2.5</ele>
        <time>2012-01-22T14:05:23Z</time>
      </trkpt>
      <trkpt lat="48.58816" lon="-2.55866">
        <ele>2.5</ele>
        <time>2012-01-22T14:05:24Z</time>
      </trkpt>
      <trkpt lat="48.58818" lon="-2.55864">
        <ele>2.5</ele>
        <time>2012-01-22T14:05:26Z</time>
      </trkpt>
      <trkpt lat="48.58819" lon="-2.55863">
        <ele>2.5</ele>
        <time>2012-01-22T14:05:27Z</time>
      </trkpt>
      <trkpt lat="48.5882" lon="-2.55862">
        <ele>2.5</ele>
        <time>2012-01-22T14:05:28Z</time>
      </trkpt>
      <trkpt lat="48.58822" lon="-2.5586">
        <ele>2.4</ele>
        <time>2012-01-22T14:05:29Z</time>
      </trkpt>
      <trkpt lat="48.58823" lon="-2.55859">
        <ele>2.4</ele>
        <time>2012-01-22T14:05:30Z</time>
      </trkpt>
      <trkpt lat="48.58824" lon="-2.55858">
        <ele>2.3</ele>
        <time>2012-01-22T14:05:31Z</time>
      </trkpt>
      <trkpt lat="48.58826" lon="-2.55855">
        <ele>2.2</ele>
        <time>2012-01-22T14:05:33Z</time>
      </trkpt>
      <trkpt lat="48.58828" lon="-2.55853">
        <ele>2.2</ele>
        <time>2012-01-22T14:05:35Z</time>
      </trkpt>
      <trkpt lat="48.58831" lon="-2.55851">
        <ele>2.1</ele>
        <time>2012-01-22T14:05:37Z</time>
      </trkpt>
      <trkpt lat="48.58832" lon="-2.55849">
        <ele>2.1</ele>
        <time>2012-01-22T14:05:38Z</time>
      </trkpt>
      <trkpt lat="48.58833" lon="-2.55848">
        <ele>2</ele>
        <time>2012-01-22T14:05:39Z</time>
      </trkpt>
      <trkpt lat="48.58834" lon="-2.55846">
        <ele>2</ele>
        <time>2012-01-22T14:05:40Z</time>
      </trkpt>
      <trkpt lat="48.58836" lon="-2.55844">
        <ele>2</ele>
        <time>2012-01-22T14:05:42Z</time>
      </trkpt>
      <trkpt lat="48.58838" lon="-2.55842">
        <ele>2</ele>
        <time>2012-01-22T14:05:44Z</time>
      </trkpt>
      <trkpt lat="48.5884" lon="-2.55839">
        <ele>1.9</ele>
        <time>2012-01-22T14:05:46Z</time>
      </trkpt>
      <trkpt lat="48.58841" lon="-2.55838">
        <ele>2</ele>
        <time>2012-01-22T14:05:47Z</time>
      </trkpt>
      <trkpt lat="48.58842" lon="-2.55837">
        <ele>2</ele>
        <time>2012-01-22T14:05:48Z</time>
      </trkpt>
      <trkpt lat="48.58844" lon="-2.55835">
        <ele>2</ele>
        <time>2012-01-22T14:05:50Z</time>
      </trkpt>
      <trkpt lat="48.58846" lon="-2.55833">
        <ele>2</ele>
        <time>2012-01-22T14:05:51Z</time>
      </trkpt>
      <trkpt lat="48.58847" lon="-2.55832">
        <ele>2</ele>
        <time>2012-01-22T14:05:52Z</time>
      </trkpt>
      <trkpt lat="48.58848" lon="-2.55831">
        <ele>2</ele>
        <time>2012-01-22T14:05:53Z</time>
      </trkpt>
      <trkpt lat="48.58849" lon="-2.5583">
        <ele>2</ele>
        <time>2012-01-22T14:05:54Z</time>
      </trkpt>
      <trkpt lat="48.5885" lon="-2.55829">
        <ele>2.1</ele>
        <time>2012-01-22T14:05:55Z</time>
      </trkpt>
      <trkpt lat="48.58852" lon="-2.55828">
        <ele>2.1</ele>
        <time>2012-01-22T14:05:56Z</time>
      </trkpt>
      <trkpt lat="48.58853" lon="-2.55827">
        <ele>2.1</ele>
        <time>2012-01-22T14:05:57Z</time>
      </trkpt>
      <trkpt lat="48.58855" lon="-2.55824">
        <ele>2.1</ele>
        <time>2012-01-22T14:05:59Z</time>
      </trkpt>
      <trkpt lat="48.58857" lon="-2.55822">
        <ele>2.1</ele>
        <time>2012-01-22T14:06:01Z</time>
      </trkpt>
      <trkpt lat="48.58859" lon="-2.5582">
        <ele>2</ele>
        <time>2012-01-22T14:06:03Z</time>
      </trkpt>
      <trkpt lat="48.5886" lon="-2.55819">
        <ele>2</ele>
        <time>2012-01-22T14:06:04Z</time>
      </trkpt>
      <trkpt lat="48.58863" lon="-2.55816">
        <ele>2</ele>
        <time>2012-01-22T14:06:06Z</time>
      </trkpt>
      <trkpt lat="48.58865" lon="-2.55814">
        <ele>2</ele>
        <time>2012-01-22T14:06:08Z</time>
      </trkpt>
      <trkpt lat="48.58866" lon="-2.55813">
        <ele>2</ele>
        <time>2012-01-22T14:06:09Z</time>
      </trkpt>
      <trkpt lat="48.58867" lon="-2.55812">
        <ele>2</ele>
        <time>2012-01-22T14:06:10Z</time>
      </trkpt>
      <trkpt lat="48.58868" lon="-2.55811">
        <ele>1.9</ele>
        <time>2012-01-22T14:06:11Z</time>
      </trkpt>
      <trkpt lat="48.58869" lon="-2.5581">
        <ele>1.9</ele>
        <time>2012-01-22T14:06:12Z</time>
      </trkpt>
      <trkpt lat="48.58871" lon="-2.55809">
        <ele>2</ele>
        <time>2012-01-22T14:06:13Z</time>
      </trkpt>
      <trkpt lat="48.58872" lon="-2.55808">
        <ele>2</ele>
        <time>2012-01-22T14:06:14Z</time>
      </trkpt>
      <trkpt lat="48.58873" lon="-2.55807">
        <ele>2</ele>
        <time>2012-01-22T14:06:15Z</time>
      </trkpt>
      <trkpt lat="48.58875" lon="-2.55805">
        <ele>2</ele>
        <time>2012-01-22T14:06:17Z</time>
      </trkpt>
      <trkpt lat="48.58876" lon="-2.55804">
        <ele>2</ele>
        <time>2012-01-22T14:06:18Z</time>
      </trkpt>
      <trkpt lat="48.58878" lon="-2.55803">
        <ele>2</ele>
        <time>2012-01-22T14:06:19Z</time>
      </trkpt>
      <trkpt lat="48.58879" lon="-2.55802">
        <ele>2</ele>
        <time>2012-01-22T14:06:20Z</time>
      </trkpt>
      <trkpt lat="48.5888" lon="-2.55801">
        <ele>2.1</ele>
        <time>2012-01-22T14:06:21Z</time>
      </trkpt>
      <trkpt lat="48.58881" lon="-2.558">
        <ele>2.1</ele>
        <time>2012-01-22T14:06:22Z</time>
      </trkpt>
      <trkpt lat="48.58883" lon="-2.55798">
        <ele>2.1</ele>
        <time>2012-01-22T14:06:24Z</time>
      </trkpt>
      <trkpt lat="48.58884" lon="-2.55797">
        <ele>2.1</ele>
        <time>2012-01-22T14:06:25Z</time>
      </trkpt>
      <trkpt lat="48.58886" lon="-2.55795">
        <ele>2</ele>
        <time>2012-01-22T14:06:27Z</time>
      </trkpt>
      <trkpt lat="48.58888" lon="-2.55794">
        <ele>2</ele>
        <time>2012-01-22T14:06:28Z</time>
      </trkpt>
      <trkpt lat="48.58889" lon="-2.55792">
        <ele>2</ele>
        <time>2012-01-22T14:06:29Z</time>
      </trkpt>
      <trkpt lat="48.5889" lon="-2.55791">
        <ele>2</ele>
        <time>2012-01-22T14:06:30Z</time>
      </trkpt>
      <trkpt lat="48.58892" lon="-2.55789">
        <ele>1.9</ele>
        <time>2012-01-22T14:06:32Z</time>
      </trkpt>
      <trkpt lat="48.58894" lon="-2.55787">
        <ele>1.9</ele>
        <time>2012-01-22T14:06:34Z</time>
      </trkpt>
      <trkpt lat="48.58896" lon="-2.55786">
        <ele>1.9</ele>
        <time>2012-01-22T14:06:35Z</time>
      </trkpt>
      <trkpt lat="48.58897" lon="-2.55785">
        <ele>1.9</ele>
        <time>2012-01-22T14:06:36Z</time>
      </trkpt>
      <trkpt lat="48.58898" lon="-2.55783">
        <ele>1.9</ele>
        <time>2012-01-22T14:06:37Z</time>
      </trkpt>
      <trkpt lat="48.58899" lon="-2.55782">
        <ele>1.9</ele>
        <time>2012-01-22T14:06:38Z</time>
      </trkpt>
      <trkpt lat="48.589" lon="-2.55781">
        <ele>2</ele>
        <time>2012-01-22T14:06:39Z</time>
      </trkpt>
      <trkpt lat="48.58903" lon="-2.55779">
        <ele>2</ele>
        <time>2012-01-22T14:06:41Z</time>
      </trkpt>
      <trkpt lat="48.58905" lon="-2.55777">
        <ele>2</ele>
        <time>2012-01-22T14:06:43Z</time>
      </trkpt>
      <trkpt lat="48.58906" lon="-2.55776">
        <ele>2</ele>
        <time>2012-01-22T14:06:44Z</time>
      </trkpt>
      <trkpt lat="48.58907" lon="-2.55775">
        <ele>2</ele>
        <time>2012-01-22T14:06:45Z</time>
      </trkpt>
      <trkpt lat="48.58908" lon="-2.55773">
        <ele>2</ele>
        <time>2012-01-22T14:06:46Z</time>
      </trkpt>
      <trkpt lat="48.5891" lon="-2.55772">
        <ele>2.1</ele>
        <time>2012-01-22T14:06:47Z</time>
      </trkpt>
      <trkpt lat="48.58912" lon="-2.5577">
        <ele>2</ele>
        <time>2012-01-22T14:06:49Z</time>
      </trkpt>
      <trkpt lat="48.58914" lon="-2.55768">
        <ele>2</ele>
        <time>2012-01-22T14:06:51Z</time>
      </trkpt>
      <trkpt lat="48.58915" lon="-2.55767">
        <ele>2</ele>
        <time>2012-01-22T14:06:52Z</time>
      </trkpt>
      <trkpt lat="48.58916" lon="-2.55766">
        <ele>2</ele>
        <time>2012-01-22T14:06:53Z</time>
      </trkpt>
      <trkpt lat="48.58918" lon="-2.55765">
        <ele>2</ele>
        <time>2012-01-22T14:06:54Z</time>
      </trkpt>
      <trkpt lat="48.58919" lon="-2.55764">
        <ele>1.9</ele>
        <time>2012-01-22T14:06:55Z</time>
      </trkpt>
      <trkpt lat="48.5892" lon="-2.55763">
        <ele>1.9</ele>
        <time>2012-01-22T14:06:56Z</time>
      </trkpt>
      <trkpt lat="48.58921" lon="-2.55762">
        <ele>1.8</ele>
        <time>2012-01-22T14:06:57Z</time>
      </trkpt>
      <trkpt lat="48.58923" lon="-2.55759">
        <ele>1.8</ele>
        <time>2012-01-22T14:06:59Z</time>
      </trkpt>
      <trkpt lat="48.58925" lon="-2.55758">
        <ele>1.7</ele>
        <time>2012-01-22T14:07:00Z</time>
      </trkpt>
      <trkpt lat="48.58926" lon="-2.55757">
        <ele>1.7</ele>
        <time>2012-01-22T14:07:01Z</time>
      </trkpt>
      <trkpt lat="48.58927" lon="-2.55756">
        <ele>1.6</ele>
        <time>2012-01-22T14:07:02Z</time>
      </trkpt>
      <trkpt lat="48.58929" lon="-2.55754">
        <ele>1.6</ele>
        <time>2012-01-22T14:07:03Z</time>
      </trkpt>
      <trkpt lat="48.5893" lon="-2.55753">
        <ele>1.5</ele>
        <time>2012-01-22T14:07:04Z</time>
      </trkpt>
      <trkpt lat="48.58931" lon="-2.55752">
        <ele>1.5</ele>
        <time>2012-01-22T14:07:05Z</time>
      </trkpt>
      <trkpt lat="48.58932" lon="-2.55751">
        <ele>1.4</ele>
        <time>2012-01-22T14:07:06Z</time>
      </trkpt>
      <trkpt lat="48.58934" lon="-2.5575">
        <ele>1.4</ele>
        <time>2012-01-22T14:07:07Z</time>
      </trkpt>
      <trkpt lat="48.58936" lon="-2.55748">
        <ele>1.4</ele>
        <time>2012-01-22T14:07:09Z</time>
      </trkpt>
      <trkpt lat="48.58938" lon="-2.55745">
        <ele>1.4</ele>
        <time>2012-01-22T14:07:11Z</time>
      </trkpt>
      <trkpt lat="48.5894" lon="-2.55743">
        <ele>1.4</ele>
        <time>2012-01-22T14:07:13Z</time>
      </trkpt>
      <trkpt lat="48.58942" lon="-2.55742">
        <ele>1.4</ele>
        <time>2012-01-22T14:07:14Z</time>
      </trkpt>
      <trkpt lat="48.58944" lon="-2.55739">
        <ele>1.4</ele>
        <time>2012-01-22T14:07:16Z</time>
      </trkpt>
      <trkpt lat="48.58946" lon="-2.55736">
        <ele>1.5</ele>
        <time>2012-01-22T14:07:18Z</time>
      </trkpt>
      <trkpt lat="48.58948" lon="-2.55734">
        <ele>1.5</ele>
        <time>2012-01-22T14:07:20Z</time>
      </trkpt>
      <trkpt lat="48.58949" lon="-2.55733">
        <ele>1.5</ele>
        <time>2012-01-22T14:07:21Z</time>
      </trkpt>
      <trkpt lat="48.58951" lon="-2.55731">
        <ele>1.5</ele>
        <time>2012-01-22T14:07:23Z</time>
      </trkpt>
      <trkpt lat="48.58952" lon="-2.5573">
        <ele>1.5</ele>
        <time>2012-01-22T14:07:24Z</time>
      </trkpt>
      <trkpt lat="48.58954" lon="-2.55728">
        <ele>1.5</ele>
        <time>2012-01-22T14:07:26Z</time>
      </trkpt>
      <trkpt lat="48.58956" lon="-2.55725">
        <ele>1.5</ele>
        <time>2012-01-22T14:07:28Z</time>
      </trkpt>
      <trkpt lat="48.58958" lon="-2.55724">
        <ele>1.5</ele>
        <time>2012-01-22T14:07:30Z</time>
      </trkpt>
      <trkpt lat="48.58959" lon="-2.55723">
        <ele>1.5</ele>
        <time>2012-01-22T14:07:31Z</time>
      </trkpt>
      <trkpt lat="48.58961" lon="-2.55722">
        <ele>1.4</ele>
        <time>2012-01-22T14:07:32Z</time>
      </trkpt>
      <trkpt lat="48.58962" lon="-2.55721">
        <ele>1.4</ele>
        <time>2012-01-22T14:07:33Z</time>
      </trkpt>
      <trkpt lat="48.58963" lon="-2.5572">
        <ele>1.4</ele>
        <time>2012-01-22T14:07:34Z</time>
      </trkpt>
      <trkpt lat="48.58964" lon="-2.55719">
        <ele>1.4</ele>
        <time>2012-01-22T14:07:35Z</time>
      </trkpt>
      <trkpt lat="48.58966" lon="-2.55717">
        <ele>1.3</ele>
        <time>2012-01-22T14:07:37Z</time>
      </trkpt>
      <trkpt lat="48.58969" lon="-2.55715">
        <ele>1.4</ele>
        <time>2012-01-22T14:07:39Z</time>
      </trkpt>
      <trkpt lat="48.58971" lon="-2.55712">
        <ele>1.4</ele>
        <time>2012-01-22T14:07:41Z</time>
      </trkpt>
      <trkpt lat="48.58972" lon="-2.55711">
        <ele>1.4</ele>
        <time>2012-01-22T14:07:42Z</time>
      </trkpt>
      <trkpt lat="48.58973" lon="-2.5571">
        <ele>1.4</ele>
        <time>2012-01-22T14:07:43Z</time>
      </trkpt>
      <trkpt lat="48.58976" lon="-2.55708">
        <ele>1.4</ele>
        <time>2012-01-22T14:07:45Z</time>
      </trkpt>
      <trkpt lat="48.58977" lon="-2.55707">
        <ele>1.5</ele>
        <time>2012-01-22T14:07:46Z</time>
      </trkpt>
      <trkpt lat="48.58978" lon="-2.55706">
        <ele>1.5</ele>
        <time>2012-01-22T14:07:47Z</time>
      </trkpt>
      <trkpt lat="48.58979" lon="-2.55705">
        <ele>1.5</ele>
        <time>2012-01-22T14:07:48Z</time>
      </trkpt>
      <trkpt lat="48.58981" lon="-2.55704">
        <ele>1.5</ele>
        <time>2012-01-22T14:07:49Z</time>
      </trkpt>
      <trkpt lat="48.58982" lon="-2.55703">
        <ele>1.4</ele>
        <time>2012-01-22T14:07:50Z</time>
      </trkpt>
      <trkpt lat="48.58983" lon="-2.55702">
        <ele>1.4</ele>
        <time>2012-01-22T14:07:51Z</time>
      </trkpt>
      <trkpt lat="48.58984" lon="-2.55701">
        <ele>1.4</ele>
        <time>2012-01-22T14:07:52Z</time>
      </trkpt>
      <trkpt lat="48.58986" lon="-2.55701">
        <ele>1.4</ele>
        <time>2012-01-22T14:07:53Z</time>
      </trkpt>
      <trkpt lat="48.58987" lon="-2.557">
        <ele>1.4</ele>
        <time>2012-01-22T14:07:54Z</time>
      </trkpt>
      <trkpt lat="48.58988" lon="-2.55699">
        <ele>1.4</ele>
        <time>2012-01-22T14:07:55Z</time>
      </trkpt>
      <trkpt lat="48.5899" lon="-2.55698">
        <ele>1.3</ele>
        <time>2012-01-22T14:07:56Z</time>
      </trkpt>
      <trkpt lat="48.58991" lon="-2.55697">
        <ele>1.3</ele>
        <time>2012-01-22T14:07:57Z</time>
      </trkpt>
      <trkpt lat="48.58992" lon="-2.55696">
        <ele>1.3</ele>
        <time>2012-01-22T14:07:58Z</time>
      </trkpt>
      <trkpt lat="48.58994" lon="-2.55694">
        <ele>1.2</ele>
        <time>2012-01-22T14:08:00Z</time>
      </trkpt>
      <trkpt lat="48.58996" lon="-2.55692">
        <ele>1.2</ele>
        <time>2012-01-22T14:08:02Z</time>
      </trkpt>
      <trkpt lat="48.58997" lon="-2.55691">
        <ele>1.2</ele>
        <time>2012-01-22T14:08:03Z</time>
      </trkpt>
      <trkpt lat="48.59" lon="-2.5569">
        <ele>1.2</ele>
        <time>2012-01-22T14:08:05Z</time>
      </trkpt>
      <trkpt lat="48.59001" lon="-2.55688">
        <ele>1.2</ele>
        <time>2012-01-22T14:08:06Z</time>
      </trkpt>
      <trkpt lat="48.59002" lon="-2.55687">
        <ele>1.2</ele>
        <time>2012-01-22T14:08:07Z</time>
      </trkpt>
      <trkpt lat="48.59004" lon="-2.55685">
        <ele>1.3</ele>
        <time>2012-01-22T14:08:09Z</time>
      </trkpt>
      <trkpt lat="48.59005" lon="-2.55684">
        <ele>1.3</ele>
        <time>2012-01-22T14:08:10Z</time>
      </trkpt>
      <trkpt lat="48.59007" lon="-2.55683">
        <ele>1.3</ele>
        <time>2012-01-22T14:08:11Z</time>
      </trkpt>
      <trkpt lat="48.59008" lon="-2.55682">
        <ele>1.3</ele>
        <time>2012-01-22T14:08:12Z</time>
      </trkpt>
      <trkpt lat="48.5901" lon="-2.55681">
        <ele>1.3</ele>
        <time>2012-01-22T14:08:13Z</time>
      </trkpt>
      <trkpt lat="48.59011" lon="-2.5568">
        <ele>1.3</ele>
        <time>2012-01-22T14:08:14Z</time>
      </trkpt>
      <trkpt lat="48.59012" lon="-2.55679">
        <ele>1.3</ele>
        <time>2012-01-22T14:08:15Z</time>
      </trkpt>
      <trkpt lat="48.59013" lon="-2.55678">
        <ele>1.3</ele>
        <time>2012-01-22T14:08:16Z</time>
      </trkpt>
      <trkpt lat="48.59014" lon="-2.55677">
        <ele>1.3</ele>
        <time>2012-01-22T14:08:17Z</time>
      </trkpt>
      <trkpt lat="48.59016" lon="-2.55676">
        <ele>1.3</ele>
        <time>2012-01-22T14:08:18Z</time>
      </trkpt>
      <trkpt lat="48.59017" lon="-2.55675">
        <ele>1.3</ele>
        <time>2012-01-22T14:08:19Z</time>
      </trkpt>
      <trkpt lat="48.59018" lon="-2.55674">
        <ele>1.2</ele>
        <time>2012-01-22T14:08:20Z</time>
      </trkpt>
      <trkpt lat="48.5902" lon="-2.55673">
        <ele>1.2</ele>
        <time>2012-01-22T14:08:21Z</time>
      </trkpt>
      <trkpt lat="48.59021" lon="-2.55672">
        <ele>1.2</ele>
        <time>2012-01-22T14:08:22Z</time>
      </trkpt>
      <trkpt lat="48.59023" lon="-2.5567">
        <ele>1.2</ele>
        <time>2012-01-22T14:08:24Z</time>
      </trkpt>
      <trkpt lat="48.59024" lon="-2.55669">
        <ele>1.1</ele>
        <time>2012-01-22T14:08:25Z</time>
      </trkpt>
      <trkpt lat="48.59026" lon="-2.55668">
        <ele>1.1</ele>
        <time>2012-01-22T14:08:26Z</time>
      </trkpt>
      <trkpt lat="48.59027" lon="-2.55667">
        <ele>1</ele>
        <time>2012-01-22T14:08:27Z</time>
      </trkpt>
      <trkpt lat="48.59028" lon="-2.55666">
        <ele>1</ele>
        <time>2012-01-22T14:08:28Z</time>
      </trkpt>
      <trkpt lat="48.59029" lon="-2.55665">
        <ele>1</ele>
        <time>2012-01-22T14:08:29Z</time>
      </trkpt>
      <trkpt lat="48.59031" lon="-2.55664">
        <ele>1</ele>
        <time>2012-01-22T14:08:30Z</time>
      </trkpt>
      <trkpt lat="48.59032" lon="-2.55663">
        <ele>1</ele>
        <time>2012-01-22T14:08:31Z</time>
      </trkpt>
      <trkpt lat="48.59033" lon="-2.55662">
        <ele>1</ele>
        <time>2012-01-22T14:08:32Z</time>
      </trkpt>
      <trkpt lat="48.59034" lon="-2.55661">
        <ele>1</ele>
        <time>2012-01-22T14:08:33Z</time>
      </trkpt>
      <trkpt lat="48.59035" lon="-2.5566">
        <ele>1</ele>
        <time>2012-01-22T14:08:34Z</time>
      </trkpt>
      <trkpt lat="48.59037" lon="-2.55659">
        <ele>1</ele>
        <time>2012-01-22T14:08:35Z</time>
      </trkpt>
      <trkpt lat="48.59038" lon="-2.55658">
        <ele>1</ele>
        <time>2012-01-22T14:08:36Z</time>
      </trkpt>
      <trkpt lat="48.59039" lon="-2.55657">
        <ele>1</ele>
        <time>2012-01-22T14:08:37Z</time>
      </trkpt>
      <trkpt lat="48.5904" lon="-2.55656">
        <ele>1</ele>
        <time>2012-01-22T14:08:38Z</time>
      </trkpt>
      <trkpt lat="48.59042" lon="-2.55655">
        <ele>1</ele>
        <time>2012-01-22T14:08:39Z</time>
      </trkpt>
      <trkpt lat="48.59043" lon="-2.55655">
        <ele>1</ele>
        <time>2012-01-22T14:08:40Z</time>
      </trkpt>
      <trkpt lat="48.59044" lon="-2.55654">
        <ele>1</ele>
        <time>2012-01-22T14:08:41Z</time>
      </trkpt>
      <trkpt lat="48.59045" lon="-2.55652">
        <ele>1</ele>
        <time>2012-01-22T14:08:42Z</time>
      </trkpt>
      <trkpt lat="48.59046" lon="-2.55651">
        <ele>1</ele>
        <time>2012-01-22T14:08:43Z</time>
      </trkpt>
      <trkpt lat="48.59048" lon="-2.5565">
        <ele>1</ele>
        <time>2012-01-22T14:08:44Z</time>
      </trkpt>
      <trkpt lat="48.59049" lon="-2.55649">
        <ele>1</ele>
        <time>2012-01-22T14:08:45Z</time>
      </trkpt>
      <trkpt lat="48.59051" lon="-2.55648">
        <ele>1</ele>
        <time>2012-01-22T14:08:46Z</time>
      </trkpt>
      <trkpt lat="48.59052" lon="-2.55647">
        <ele>1</ele>
        <time>2012-01-22T14:08:47Z</time>
      </trkpt>
      <trkpt lat="48.59054" lon="-2.55646">
        <ele>1</ele>
        <time>2012-01-22T14:08:48Z</time>
      </trkpt>
      <trkpt lat="48.59055" lon="-2.55646">
        <ele>1</ele>
        <time>2012-01-22T14:08:49Z</time>
      </trkpt>
      <trkpt lat="48.59056" lon="-2.55645">
        <ele>1</ele>
        <time>2012-01-22T14:08:50Z</time>
      </trkpt>
      <trkpt lat="48.59057" lon="-2.55644">
        <ele>1</ele>
        <time>2012-01-22T14:08:51Z</time>
      </trkpt>
      <trkpt lat="48.59059" lon="-2.55643">
        <ele>1</ele>
        <time>2012-01-22T14:08:52Z</time>
      </trkpt>
      <trkpt lat="48.5906" lon="-2.55642">
        <ele>1</ele>
        <time>2012-01-22T14:08:53Z</time>
      </trkpt>
      <trkpt lat="48.59061" lon="-2.55641">
        <ele>1</ele>
        <time>2012-01-22T14:08:54Z</time>
      </trkpt>
      <trkpt lat="48.59062" lon="-2.5564">
        <ele>1</ele>
        <time>2012-01-22T14:08:55Z</time>
      </trkpt>
      <trkpt lat="48.59063" lon="-2.55639">
        <ele>1</ele>
        <time>2012-01-22T14:08:56Z</time>
      </trkpt>
      <trkpt lat="48.59065" lon="-2.55638">
        <ele>1</ele>
        <time>2012-01-22T14:08:57Z</time>
      </trkpt>
      <trkpt lat="48.59066" lon="-2.55637">
        <ele>1</ele>
        <time>2012-01-22T14:08:58Z</time>
      </trkpt>
      <trkpt lat="48.59068" lon="-2.55636">
        <ele>1</ele>
        <time>2012-01-22T14:08:59Z</time>
      </trkpt>
      <trkpt lat="48.59069" lon="-2.55635">
        <ele>1</ele>
        <time>2012-01-22T14:09:00Z</time>
      </trkpt>
      <trkpt lat="48.5907" lon="-2.55634">
        <ele>1</ele>
        <time>2012-01-22T14:09:01Z</time>
      </trkpt>
      <trkpt lat="48.59071" lon="-2.55634">
        <ele>1</ele>
        <time>2012-01-22T14:09:02Z</time>
      </trkpt>
      <trkpt lat="48.59072" lon="-2.55633">
        <ele>1</ele>
        <time>2012-01-22T14:09:03Z</time>
      </trkpt>
      <trkpt lat="48.59074" lon="-2.55632">
        <ele>1</ele>
        <time>2012-01-22T14:09:04Z</time>
      </trkpt>
      <trkpt lat="48.59075" lon="-2.55631">
        <ele>1</ele>
        <time>2012-01-22T14:09:05Z</time>
      </trkpt>
      <trkpt lat="48.59076" lon="-2.5563">
        <ele>1</ele>
        <time>2012-01-22T14:09:06Z</time>
      </trkpt>
      <trkpt lat="48.59077" lon="-2.55629">
        <ele>1</ele>
        <time>2012-01-22T14:09:07Z</time>
      </trkpt>
      <trkpt lat="48.59079" lon="-2.55628">
        <ele>1</ele>
        <time>2012-01-22T14:09:08Z</time>
      </trkpt>
      <trkpt lat="48.59081" lon="-2.55626">
        <ele>1</ele>
        <time>2012-01-22T14:09:10Z</time>
      </trkpt>
      <trkpt lat="48.59082" lon="-2.55625">
        <ele>1</ele>
        <time>2012-01-22T14:09:11Z</time>
      </trkpt>
      <trkpt lat="48.59083" lon="-2.55624">
        <ele>1</ele>
        <time>2012-01-22T14:09:12Z</time>
      </trkpt>
      <trkpt lat="48.59084" lon="-2.55624">
        <ele>1</ele>
        <time>2012-01-22T14:09:13Z</time>
      </trkpt>
      <trkpt lat="48.59085" lon="-2.55623">
        <ele>1</ele>
        <time>2012-01-22T14:09:14Z</time>
      </trkpt>
      <trkpt lat="48.59087" lon="-2.55622">
        <ele>1</ele>
        <time>2012-01-22T14:09:15Z</time>
      </trkpt>
      <trkpt lat="48.59088" lon="-2.55621">
        <ele>1</ele>
        <time>2012-01-22T14:09:16Z</time>
      </trkpt>
      <trkpt lat="48.59089" lon="-2.5562">
        <ele>1</ele>
        <time>2012-01-22T14:09:17Z</time>
      </trkpt>
      <trkpt lat="48.5909" lon="-2.55619">
        <ele>1</ele>
        <time>2012-01-22T14:09:18Z</time>
      </trkpt>
      <trkpt lat="48.59091" lon="-2.55618">
        <ele>1</ele>
        <time>2012-01-22T14:09:19Z</time>
      </trkpt>
      <trkpt lat="48.59092" lon="-2.55617">
        <ele>1</ele>
        <time>2012-01-22T14:09:20Z</time>
      </trkpt>
      <trkpt lat="48.59094" lon="-2.55617">
        <ele>1</ele>
        <time>2012-01-22T14:09:21Z</time>
      </trkpt>
      <trkpt lat="48.59095" lon="-2.55616">
        <ele>1</ele>
        <time>2012-01-22T14:09:22Z</time>
      </trkpt>
      <trkpt lat="48.59096" lon="-2.55615">
        <ele>1</ele>
        <time>2012-01-22T14:09:23Z</time>
      </trkpt>
      <trkpt lat="48.59097" lon="-2.55613">
        <ele>1</ele>
        <time>2012-01-22T14:09:24Z</time>
      </trkpt>
      <trkpt lat="48.59098" lon="-2.55612">
        <ele>1</ele>
        <time>2012-01-22T14:09:25Z</time>
      </trkpt>
      <trkpt lat="48.591" lon="-2.55611">
        <ele>1</ele>
        <time>2012-01-22T14:09:26Z</time>
      </trkpt>
      <trkpt lat="48.59101" lon="-2.5561">
        <ele>1</ele>
        <time>2012-01-22T14:09:27Z</time>
      </trkpt>
      <trkpt lat="48.59102" lon="-2.55609">
        <ele>1</ele>
        <time>2012-01-22T14:09:28Z</time>
      </trkpt>
      <trkpt lat="48.59103" lon="-2.55609">
        <ele>1</ele>
        <time>2012-01-22T14:09:29Z</time>
      </trkpt>
      <trkpt lat="48.59105" lon="-2.55608">
        <ele>1</ele>
        <time>2012-01-22T14:09:30Z</time>
      </trkpt>
      <trkpt lat="48.59106" lon="-2.55607">
        <ele>1</ele>
        <time>2012-01-22T14:09:31Z</time>
      </trkpt>
      <trkpt lat="48.59107" lon="-2.55606">
        <ele>1</ele>
        <time>2012-01-22T14:09:32Z</time>
      </trkpt>
      <trkpt lat="48.59109" lon="-2.55605">
        <ele>1</ele>
        <time>2012-01-22T14:09:33Z</time>
      </trkpt>
      <trkpt lat="48.5911" lon="-2.55604">
        <ele>1</ele>
        <time>2012-01-22T14:09:34Z</time>
      </trkpt>
      <trkpt lat="48.59111" lon="-2.55603">
        <ele>1</ele>
        <time>2012-01-22T14:09:35Z</time>
      </trkpt>
      <trkpt lat="48.59113" lon="-2.55602">
        <ele>1</ele>
        <time>2012-01-22T14:09:36Z</time>
      </trkpt>
      <trkpt lat="48.59114" lon="-2.55601">
        <ele>1</ele>
        <time>2012-01-22T14:09:37Z</time>
      </trkpt>
      <trkpt lat="48.59115" lon="-2.556">
        <ele>1</ele>
        <time>2012-01-22T14:09:38Z</time>
      </trkpt>
      <trkpt lat="48.59116" lon="-2.55599">
        <ele>1</ele>
        <time>2012-01-22T14:09:39Z</time>
      </trkpt>
      <trkpt lat="48.59117" lon="-2.55598">
        <ele>1</ele>
        <time>2012-01-22T14:09:40Z</time>
      </trkpt>
      <trkpt lat="48.59119" lon="-2.55598">
        <ele>1</ele>
        <time>2012-01-22T14:09:41Z</time>
      </trkpt>
      <trkpt lat="48.5912" lon="-2.55597">
        <ele>1</ele>
        <time>2012-01-22T14:09:42Z</time>
      </trkpt>
      <trkpt lat="48.59121" lon="-2.55596">
        <ele>1</ele>
        <time>2012-01-22T14:09:43Z</time>
      </trkpt>
      <trkpt lat="48.59122" lon="-2.55595">
        <ele>1</ele>
        <time>2012-01-22T14:09:44Z</time>
      </trkpt>
      <trkpt lat="48.59124" lon="-2.55594">
        <ele>1</ele>
        <time>2012-01-22T14:09:45Z</time>
      </trkpt>
      <trkpt lat="48.59125" lon="-2.55593">
        <ele>1</ele>
        <time>2012-01-22T14:09:46Z</time>
      </trkpt>
      <trkpt lat="48.59126" lon="-2.55592">
        <ele>1</ele>
        <time>2012-01-22T14:09:47Z</time>
      </trkpt>
      <trkpt lat="48.59127" lon="-2.55591">
        <ele>1</ele>
        <time>2012-01-22T14:09:48Z</time>
      </trkpt>
      <trkpt lat="48.59129" lon="-2.5559">
        <ele>1</ele>
        <time>2012-01-22T14:09:50Z</time>
      </trkpt>
      <trkpt lat="48.5913" lon="-2.55589">
        <ele>1</ele>
        <time>2012-01-22T14:09:51Z</time>
      </trkpt>
      <trkpt lat="48.59132" lon="-2.55588">
        <ele>1</ele>
        <time>2012-01-22T14:09:52Z</time>
      </trkpt>
      <trkpt lat="48.59133" lon="-2.55587">
        <ele>1</ele>
        <time>2012-01-22T14:09:53Z</time>
      </trkpt>
      <trkpt lat="48.59134" lon="-2.55586">
        <ele>1</ele>
        <time>2012-01-22T14:09:54Z</time>
      </trkpt>
      <trkpt lat="48.59135" lon="-2.55585">
        <ele>1</ele>
        <time>2012-01-22T14:09:55Z</time>
      </trkpt>
      <trkpt lat="48.59137" lon="-2.55584">
        <ele>1</ele>
        <time>2012-01-22T14:09:56Z</time>
      </trkpt>
      <trkpt lat="48.59138" lon="-2.55583">
        <ele>1</ele>
        <time>2012-01-22T14:09:57Z</time>
      </trkpt>
      <trkpt lat="48.59139" lon="-2.55582">
        <ele>1</ele>
        <time>2012-01-22T14:09:58Z</time>
      </trkpt>
      <trkpt lat="48.5914" lon="-2.55581">
        <ele>1</ele>
        <time>2012-01-22T14:09:59Z</time>
      </trkpt>
      <trkpt lat="48.59142" lon="-2.5558">
        <ele>1</ele>
        <time>2012-01-22T14:10:00Z</time>
      </trkpt>
      <trkpt lat="48.59143" lon="-2.55579">
        <ele>1</ele>
        <time>2012-01-22T14:10:01Z</time>
      </trkpt>
      <trkpt lat="48.59144" lon="-2.55578">
        <ele>1</ele>
        <time>2012-01-22T14:10:02Z</time>
      </trkpt>
      <trkpt lat="48.59145" lon="-2.55577">
        <ele>1</ele>
        <time>2012-01-22T14:10:03Z</time>
      </trkpt>
      <trkpt lat="48.59146" lon="-2.55576">
        <ele>1</ele>
        <time>2012-01-22T14:10:04Z</time>
      </trkpt>
      <trkpt lat="48.59148" lon="-2.55575">
        <ele>1</ele>
        <time>2012-01-22T14:10:05Z</time>
      </trkpt>
      <trkpt lat="48.59149" lon="-2.55574">
        <ele>1</ele>
        <time>2012-01-22T14:10:06Z</time>
      </trkpt>
      <trkpt lat="48.5915" lon="-2.55573">
        <ele>1</ele>
        <time>2012-01-22T14:10:07Z</time>
      </trkpt>
      <trkpt lat="48.59151" lon="-2.55572">
        <ele>1</ele>
        <time>2012-01-22T14:10:08Z</time>
      </trkpt>
      <trkpt lat="48.59153" lon="-2.55571">
        <ele>1</ele>
        <time>2012-01-22T14:10:09Z</time>
      </trkpt>
      <trkpt lat="48.59154" lon="-2.5557">
        <ele>1</ele>
        <time>2012-01-22T14:10:10Z</time>
      </trkpt>
      <trkpt lat="48.59155" lon="-2.55569">
        <ele>1</ele>
        <time>2012-01-22T14:10:11Z</time>
      </trkpt>
      <trkpt lat="48.59156" lon="-2.55568">
        <ele>1</ele>
        <time>2012-01-22T14:10:12Z</time>
      </trkpt>
      <trkpt lat="48.59157" lon="-2.55567">
        <ele>1</ele>
        <time>2012-01-22T14:10:13Z</time>
      </trkpt>
      <trkpt lat="48.59159" lon="-2.55567">
        <ele>1</ele>
        <time>2012-01-22T14:10:14Z</time>
      </trkpt>
      <trkpt lat="48.5916" lon="-2.55566">
        <ele>1</ele>
        <time>2012-01-22T14:10:15Z</time>
      </trkpt>
      <trkpt lat="48.59161" lon="-2.55565">
        <ele>1</ele>
        <time>2012-01-22T14:10:16Z</time>
      </trkpt>
      <trkpt lat="48.59162" lon="-2.55564">
        <ele>1</ele>
        <time>2012-01-22T14:10:17Z</time>
      </trkpt>
      <trkpt lat="48.59164" lon="-2.55564">
        <ele>1</ele>
        <time>2012-01-22T14:10:18Z</time>
      </trkpt>
      <trkpt lat="48.59165" lon="-2.55563">
        <ele>1</ele>
        <time>2012-01-22T14:10:19Z</time>
      </trkpt>
      <trkpt lat="48.59166" lon="-2.55561">
        <ele>1</ele>
        <time>2012-01-22T14:10:20Z</time>
      </trkpt>
      <trkpt lat="48.59167" lon="-2.5556">
        <ele>1</ele>
        <time>2012-01-22T14:10:21Z</time>
      </trkpt>
      <trkpt lat="48.5917" lon="-2.55559">
        <ele>1</ele>
        <time>2012-01-22T14:10:23Z</time>
      </trkpt>
      <trkpt lat="48.59171" lon="-2.55558">
        <ele>1</ele>
        <time>2012-01-22T14:10:24Z</time>
      </trkpt>
      <trkpt lat="48.59172" lon="-2.55557">
        <ele>1</ele>
        <time>2012-01-22T14:10:25Z</time>
      </trkpt>
      <trkpt lat="48.59174" lon="-2.55556">
        <ele>1</ele>
        <time>2012-01-22T14:10:26Z</time>
      </trkpt>
      <trkpt lat="48.59175" lon="-2.55555">
        <ele>1</ele>
        <time>2012-01-22T14:10:27Z</time>
      </trkpt>
      <trkpt lat="48.59177" lon="-2.55555">
        <ele>1</ele>
        <time>2012-01-22T14:10:28Z</time>
      </trkpt>
      <trkpt lat="48.59178" lon="-2.55554">
        <ele>1</ele>
        <time>2012-01-22T14:10:29Z</time>
      </trkpt>
      <trkpt lat="48.59179" lon="-2.55553">
        <ele>1</ele>
        <time>2012-01-22T14:10:30Z</time>
      </trkpt>
      <trkpt lat="48.5918" lon="-2.55552">
        <ele>1</ele>
        <time>2012-01-22T14:10:31Z</time>
      </trkpt>
      <trkpt lat="48.59182" lon="-2.55552">
        <ele>1</ele>
        <time>2012-01-22T14:10:32Z</time>
      </trkpt>
      <trkpt lat="48.59183" lon="-2.55551">
        <ele>1</ele>
        <time>2012-01-22T14:10:33Z</time>
      </trkpt>
      <trkpt lat="48.59184" lon="-2.5555">
        <ele>1</ele>
        <time>2012-01-22T14:10:34Z</time>
      </trkpt>
      <trkpt lat="48.59185" lon="-2.55549">
        <ele>1</ele>
        <time>2012-01-22T14:10:35Z</time>
      </trkpt>
      <trkpt lat="48.59187" lon="-2.55547">
        <ele>1</ele>
        <time>2012-01-22T14:10:36Z</time>
      </trkpt>
      <trkpt lat="48.59188" lon="-2.55546">
        <ele>1</ele>
        <time>2012-01-22T14:10:37Z</time>
      </trkpt>
      <trkpt lat="48.59189" lon="-2.55546">
        <ele>1</ele>
        <time>2012-01-22T14:10:38Z</time>
      </trkpt>
      <trkpt lat="48.5919" lon="-2.55545">
        <ele>1</ele>
        <time>2012-01-22T14:10:39Z</time>
      </trkpt>
      <trkpt lat="48.59192" lon="-2.55544">
        <ele>1</ele>
        <time>2012-01-22T14:10:40Z</time>
      </trkpt>
      <trkpt lat="48.59193" lon="-2.55544">
        <ele>1</ele>
        <time>2012-01-22T14:10:41Z</time>
      </trkpt>
      <trkpt lat="48.59194" lon="-2.55543">
        <ele>1</ele>
        <time>2012-01-22T14:10:42Z</time>
      </trkpt>
      <trkpt lat="48.59196" lon="-2.55543">
        <ele>1</ele>
        <time>2012-01-22T14:10:43Z</time>
      </trkpt>
      <trkpt lat="48.59197" lon="-2.55542">
        <ele>1</ele>
        <time>2012-01-22T14:10:44Z</time>
      </trkpt>
      <trkpt lat="48.59198" lon="-2.55541">
        <ele>1</ele>
        <time>2012-01-22T14:10:45Z</time>
      </trkpt>
      <trkpt lat="48.592" lon="-2.5554">
        <ele>1</ele>
        <time>2012-01-22T14:10:46Z</time>
      </trkpt>
      <trkpt lat="48.59201" lon="-2.55539">
        <ele>1</ele>
        <time>2012-01-22T14:10:47Z</time>
      </trkpt>
      <trkpt lat="48.59202" lon="-2.55538">
        <ele>1</ele>
        <time>2012-01-22T14:10:48Z</time>
      </trkpt>
      <trkpt lat="48.59203" lon="-2.55537">
        <ele>1</ele>
        <time>2012-01-22T14:10:49Z</time>
      </trkpt>
      <trkpt lat="48.59205" lon="-2.55537">
        <ele>1</ele>
        <time>2012-01-22T14:10:50Z</time>
      </trkpt>
      <trkpt lat="48.59206" lon="-2.55536">
        <ele>1</ele>
        <time>2012-01-22T14:10:51Z</time>
      </trkpt>
      <trkpt lat="48.59207" lon="-2.55535">
        <ele>1</ele>
        <time>2012-01-22T14:10:52Z</time>
      </trkpt>
      <trkpt lat="48.59209" lon="-2.55534">
        <ele>1</ele>
        <time>2012-01-22T14:10:53Z</time>
      </trkpt>
      <trkpt lat="48.5921" lon="-2.55533">
        <ele>1</ele>
        <time>2012-01-22T14:10:54Z</time>
      </trkpt>
      <trkpt lat="48.59211" lon="-2.55532">
        <ele>1</ele>
        <time>2012-01-22T14:10:55Z</time>
      </trkpt>
      <trkpt lat="48.59212" lon="-2.55532">
        <ele>1</ele>
        <time>2012-01-22T14:10:56Z</time>
      </trkpt>
      <trkpt lat="48.59214" lon="-2.55531">
        <ele>1</ele>
        <time>2012-01-22T14:10:57Z</time>
      </trkpt>
      <trkpt lat="48.59215" lon="-2.5553">
        <ele>1</ele>
        <time>2012-01-22T14:10:58Z</time>
      </trkpt>
      <trkpt lat="48.59216" lon="-2.55529">
        <ele>1</ele>
        <time>2012-01-22T14:10:59Z</time>
      </trkpt>
      <trkpt lat="48.59218" lon="-2.55528">
        <ele>1</ele>
        <time>2012-01-22T14:11:00Z</time>
      </trkpt>
      <trkpt lat="48.59219" lon="-2.55528">
        <ele>1</ele>
        <time>2012-01-22T14:11:01Z</time>
      </trkpt>
      <trkpt lat="48.59221" lon="-2.55527">
        <ele>1</ele>
        <time>2012-01-22T14:11:02Z</time>
      </trkpt>
      <trkpt lat="48.59222" lon="-2.55526">
        <ele>1</ele>
        <time>2012-01-22T14:11:03Z</time>
      </trkpt>
      <trkpt lat="48.59223" lon="-2.55526">
        <ele>1</ele>
        <time>2012-01-22T14:11:04Z</time>
      </trkpt>
      <trkpt lat="48.59224" lon="-2.55525">
        <ele>1</ele>
        <time>2012-01-22T14:11:05Z</time>
      </trkpt>
      <trkpt lat="48.59226" lon="-2.55524">
        <ele>1</ele>
        <time>2012-01-22T14:11:06Z</time>
      </trkpt>
      <trkpt lat="48.59227" lon="-2.55523">
        <ele>1</ele>
        <time>2012-01-22T14:11:07Z</time>
      </trkpt>
      <trkpt lat="48.59228" lon="-2.55522">
        <ele>1</ele>
        <time>2012-01-22T14:11:08Z</time>
      </trkpt>
      <trkpt lat="48.5923" lon="-2.55521">
        <ele>1</ele>
        <time>2012-01-22T14:11:09Z</time>
      </trkpt>
      <trkpt lat="48.59231" lon="-2.55521">
        <ele>1</ele>
        <time>2012-01-22T14:11:10Z</time>
      </trkpt>
      <trkpt lat="48.59233" lon="-2.5552">
        <ele>1</ele>
        <time>2012-01-22T14:11:11Z</time>
      </trkpt>
      <trkpt lat="48.59234" lon="-2.55519">
        <ele>1</ele>
        <time>2012-01-22T14:11:12Z</time>
      </trkpt>
      <trkpt lat="48.59235" lon="-2.55519">
        <ele>1</ele>
        <time>2012-01-22T14:11:13Z</time>
      </trkpt>
      <trkpt lat="48.59236" lon="-2.55518">
        <ele>1</ele>
        <time>2012-01-22T14:11:14Z</time>
      </trkpt>
      <trkpt lat="48.59238" lon="-2.55517">
        <ele>1</ele>
        <time>2012-01-22T14:11:15Z</time>
      </trkpt>
      <trkpt lat="48.59239" lon="-2.55516">
        <ele>1</ele>
        <time>2012-01-22T14:11:16Z</time>
      </trkpt>
      <trkpt lat="48.5924" lon="-2.55515">
        <ele>1</ele>
        <time>2012-01-22T14:11:17Z</time>
      </trkpt>
      <trkpt lat="48.59242" lon="-2.55514">
        <ele>1</ele>
        <time>2012-01-22T14:11:18Z</time>
      </trkpt>
      <trkpt lat="48.59243" lon="-2.55514">
        <ele>1</ele>
        <time>2012-01-22T14:11:19Z</time>
      </trkpt>
      <trkpt lat="48.59244" lon="-2.55513">
        <ele>1</ele>
        <time>2012-01-22T14:11:20Z</time>
      </trkpt>
      <trkpt lat="48.59246" lon="-2.55512">
        <ele>1</ele>
        <time>2012-01-22T14:11:21Z</time>
      </trkpt>
      <trkpt lat="48.59247" lon="-2.55511">
        <ele>1</ele>
        <time>2012-01-22T14:11:22Z</time>
      </trkpt>
      <trkpt lat="48.59248" lon="-2.5551">
        <ele>1</ele>
        <time>2012-01-22T14:11:23Z</time>
      </trkpt>
      <trkpt lat="48.59249" lon="-2.55509">
        <ele>1</ele>
        <time>2012-01-22T14:11:24Z</time>
      </trkpt>
      <trkpt lat="48.5925" lon="-2.55508">
        <time>2012-01-22T14:11:25Z</time>
      </trkpt>
      <trkpt lat="48.59252" lon="-2.55508">
        <time>2012-01-22T14:11:26Z</time>
      </trkpt>
      <trkpt lat="48.59253" lon="-2.55507">
        <time>2012-01-22T14:11:27Z</time>
      </trkpt>
      <trkpt lat="48.59254" lon="-2.55506">
        <time>2012-01-22T14:11:28Z</time>
      </trkpt>
      <trkpt lat="48.59256" lon="-2.55505">
        <time>2012-01-22T14:11:29Z</time>
      </trkpt>
      <trkpt lat="48.59257" lon="-2.55504">
        <time>2012-01-22T14:11:30Z</time>
      </trkpt>
      <trkpt lat="48.59258" lon="-2.55503">
        <time>2012-01-22T14:11:31Z</time>
      </trkpt>
      <trkpt lat="48.59259" lon="-2.55502">
        <time>2012-01-22T14:11:32Z</time>
      </trkpt>
      <trkpt lat="48.59261" lon="-2.55501">
        <time>2012-01-22T14:11:33Z</time>
      </trkpt>
      <trkpt lat="48.59262" lon="-2.555">
        <time>2012-01-22T14:11:34Z</time>
      </trkpt>
      <trkpt lat="48.59263" lon="-2.555">
        <ele>1</ele>
        <time>2012-01-22T14:11:35Z</time>
      </trkpt>
      <trkpt lat="48.59264" lon="-2.55499">
        <ele>1</ele>
        <time>2012-01-22T14:11:36Z</time>
      </trkpt>
      <trkpt lat="48.59266" lon="-2.55498">
        <ele>1</ele>
        <time>2012-01-22T14:11:37Z</time>
      </trkpt>
      <trkpt lat="48.59267" lon="-2.55497">
        <ele>1</ele>
        <time>2012-01-22T14:11:38Z</time>
      </trkpt>
      <trkpt lat="48.59268" lon="-2.55496">
        <ele>1</ele>
        <time>2012-01-22T14:11:39Z</time>
      </trkpt>
      <trkpt lat="48.5927" lon="-2.55496">
        <ele>1</ele>
        <time>2012-01-22T14:11:40Z</time>
      </trkpt>
      <trkpt lat="48.59271" lon="-2.55495">
        <ele>1</ele>
        <time>2012-01-22T14:11:41Z</time>
      </trkpt>
      <trkpt lat="48.59272" lon="-2.55494">
        <ele>1</ele>
        <time>2012-01-22T14:11:42Z</time>
      </trkpt>
      <trkpt lat="48.59274" lon="-2.55493">
        <ele>1</ele>
        <time>2012-01-22T14:11:43Z</time>
      </trkpt>
      <trkpt lat="48.59275" lon="-2.55493">
        <ele>1</ele>
        <time>2012-01-22T14:11:44Z</time>
      </trkpt>
      <trkpt lat="48.59276" lon="-2.55492">
        <ele>1</ele>
        <time>2012-01-22T14:11:45Z</time>
      </trkpt>
      <trkpt lat="48.59278" lon="-2.55492">
        <ele>1</ele>
        <time>2012-01-22T14:11:46Z</time>
      </trkpt>
      <trkpt lat="48.59279" lon="-2.55491">
        <time>2012-01-22T14:11:47Z</time>
      </trkpt>
      <trkpt lat="48.5928" lon="-2.5549">
        <time>2012-01-22T14:11:48Z</time>
      </trkpt>
      <trkpt lat="48.59282" lon="-2.55489">
        <time>2012-01-22T14:11:49Z</time>
      </trkpt>
      <trkpt lat="48.59283" lon="-2.55488">
        <time>2012-01-22T14:11:50Z</time>
      </trkpt>
      <trkpt lat="48.59284" lon="-2.55488">
        <time>2012-01-22T14:11:51Z</time>
      </trkpt>
      <trkpt lat="48.59285" lon="-2.55487">
        <time>2012-01-22T14:11:52Z</time>
      </trkpt>
      <trkpt lat="48.59286" lon="-2.55486">
        <time>2012-01-22T14:11:53Z</time>
      </trkpt>
      <trkpt lat="48.59288" lon="-2.55486">
        <time>2012-01-22T14:11:54Z</time>
      </trkpt>
      <trkpt lat="48.59289" lon="-2.55485">
        <time>2012-01-22T14:11:55Z</time>
      </trkpt>
      <trkpt lat="48.5929" lon="-2.55484">
        <time>2012-01-22T14:11:56Z</time>
      </trkpt>
      <trkpt lat="48.59292" lon="-2.55484">
        <time>2012-01-22T14:11:57Z</time>
      </trkpt>
      <trkpt lat="48.59293" lon="-2.55483">
        <time>2012-01-22T14:11:58Z</time>
      </trkpt>
      <trkpt lat="48.59294" lon="-2.55482">
        <time>2012-01-22T14:11:59Z</time>
      </trkpt>
      <trkpt lat="48.59296" lon="-2.55481">
        <time>2012-01-22T14:12:00Z</time>
      </trkpt>
      <trkpt lat="48.59297" lon="-2.55481">
        <time>2012-01-22T14:12:01Z</time>
      </trkpt>
      <trkpt lat="48.59298" lon="-2.5548">
        <time>2012-01-22T14:12:02Z</time>
      </trkpt>
      <trkpt lat="48.593" lon="-2.5548">
        <time>2012-01-22T14:12:03Z</time>
      </trkpt>
      <trkpt lat="48.59301" lon="-2.55479">
        <time>2012-01-22T14:12:04Z</time>
      </trkpt>
      <trkpt lat="48.59302" lon="-2.55478">
        <time>2012-01-22T14:12:05Z</time>
      </trkpt>
      <trkpt lat="48.59304" lon="-2.55477">
        <time>2012-01-22T14:12:06Z</time>
      </trkpt>
      <trkpt lat="48.59305" lon="-2.55476">
        <time>2012-01-22T14:12:07Z</time>
      </trkpt>
      <trkpt lat="48.59306" lon="-2.55475">
        <time>2012-01-22T14:12:08Z</time>
      </trkpt>
      <trkpt lat="48.59308" lon="-2.55475">
        <time>2012-01-22T14:12:09Z</time>
      </trkpt>
      <trkpt lat="48.59309" lon="-2.55474">
        <time>2012-01-22T14:12:10Z</time>
      </trkpt>
      <trkpt lat="48.59311" lon="-2.55473">
        <time>2012-01-22T14:12:11Z</time>
      </trkpt>
      <trkpt lat="48.59312" lon="-2.55473">
        <time>2012-01-22T14:12:12Z</time>
      </trkpt>
      <trkpt lat="48.59313" lon="-2.55472">
        <time>2012-01-22T14:12:13Z</time>
      </trkpt>
      <trkpt lat="48.59314" lon="-2.55471">
        <time>2012-01-22T14:12:14Z</time>
      </trkpt>
      <trkpt lat="48.59316" lon="-2.55471">
        <time>2012-01-22T14:12:15Z</time>
      </trkpt>
      <trkpt lat="48.59317" lon="-2.5547">
        <time>2012-01-22T14:12:16Z</time>
      </trkpt>
      <trkpt lat="48.59319" lon="-2.55469">
        <time>2012-01-22T14:12:17Z</time>
      </trkpt>
      <trkpt lat="48.5932" lon="-2.55469">
        <time>2012-01-22T14:12:18Z</time>
      </trkpt>
      <trkpt lat="48.59321" lon="-2.55468">
        <time>2012-01-22T14:12:19Z</time>
      </trkpt>
      <trkpt lat="48.59322" lon="-2.55468">
        <time>2012-01-22T14:12:20Z</time>
      </trkpt>
      <trkpt lat="48.59324" lon="-2.55467">
        <time>2012-01-22T14:12:21Z</time>
      </trkpt>
      <trkpt lat="48.59325" lon="-2.55466">
        <time>2012-01-22T14:12:22Z</time>
      </trkpt>
      <trkpt lat="48.59326" lon="-2.55466">
        <time>2012-01-22T14:12:23Z</time>
      </trkpt>
      <trkpt lat="48.59327" lon="-2.55465">
        <time>2012-01-22T14:12:24Z</time>
      </trkpt>
      <trkpt lat="48.59329" lon="-2.55465">
        <time>2012-01-22T14:12:25Z</time>
      </trkpt>
      <trkpt lat="48.5933" lon="-2.55464">
        <time>2012-01-22T14:12:26Z</time>
      </trkpt>
      <trkpt lat="48.59332" lon="-2.55464">
        <time>2012-01-22T14:12:27Z</time>
      </trkpt>
      <trkpt lat="48.59333" lon="-2.55463">
        <time>2012-01-22T14:12:28Z</time>
      </trkpt>
      <trkpt lat="48.59334" lon="-2.55463">
        <time>2012-01-22T14:12:29Z</time>
      </trkpt>
      <trkpt lat="48.59335" lon="-2.55462">
        <time>2012-01-22T14:12:30Z</time>
      </trkpt>
      <trkpt lat="48.59337" lon="-2.55462">
        <time>2012-01-22T14:12:31Z</time>
      </trkpt>
      <trkpt lat="48.59338" lon="-2.55461">
        <time>2012-01-22T14:12:32Z</time>
      </trkpt>
      <trkpt lat="48.5934" lon="-2.5546">
        <time>2012-01-22T14:12:33Z</time>
      </trkpt>
      <trkpt lat="48.59341" lon="-2.55459">
        <time>2012-01-22T14:12:34Z</time>
      </trkpt>
      <trkpt lat="48.59342" lon="-2.55459">
        <time>2012-01-22T14:12:35Z</time>
      </trkpt>
      <trkpt lat="48.59343" lon="-2.55458">
        <time>2012-01-22T14:12:36Z</time>
      </trkpt>
      <trkpt lat="48.59345" lon="-2.55458">
        <time>2012-01-22T14:12:37Z</time>
      </trkpt>
      <trkpt lat="48.59346" lon="-2.55457">
        <time>2012-01-22T14:12:38Z</time>
      </trkpt>
      <trkpt lat="48.59347" lon="-2.55457">
        <time>2012-01-22T14:12:39Z</time>
      </trkpt>
      <trkpt lat="48.59349" lon="-2.55456">
        <time>2012-01-22T14:12:40Z</time>
      </trkpt>
      <trkpt lat="48.5935" lon="-2.55455">
        <time>2012-01-22T14:12:41Z</time>
      </trkpt>
      <trkpt lat="48.59351" lon="-2.55455">
        <time>2012-01-22T14:12:42Z</time>
      </trkpt>
      <trkpt lat="48.59353" lon="-2.55454">
        <time>2012-01-22T14:12:43Z</time>
      </trkpt>
      <trkpt lat="48.59354" lon="-2.55453">
        <time>2012-01-22T14:12:44Z</time>
      </trkpt>
      <trkpt lat="48.59355" lon="-2.55453">
        <time>2012-01-22T14:12:45Z</time>
      </trkpt>
      <trkpt lat="48.59357" lon="-2.55452">
        <time>2012-01-22T14:12:46Z</time>
      </trkpt>
      <trkpt lat="48.59358" lon="-2.55452">
        <time>2012-01-22T14:12:47Z</time>
      </trkpt>
      <trkpt lat="48.59359" lon="-2.55451">
        <time>2012-01-22T14:12:48Z</time>
      </trkpt>
      <trkpt lat="48.5936" lon="-2.5545">
        <time>2012-01-22T14:12:49Z</time>
      </trkpt>
      <trkpt lat="48.59362" lon="-2.5545">
        <time>2012-01-22T14:12:50Z</time>
      </trkpt>
      <trkpt lat="48.59363" lon="-2.55449">
        <time>2012-01-22T14:12:51Z</time>
      </trkpt>
      <trkpt lat="48.59364" lon="-2.55448">
        <time>2012-01-22T14:12:52Z</time>
      </trkpt>
      <trkpt lat="48.59366" lon="-2.55448">
        <time>2012-01-22T14:12:53Z</time>
      </trkpt>
      <trkpt lat="48.59367" lon="-2.55447">
        <time>2012-01-22T14:12:54Z</time>
      </trkpt>
      <trkpt lat="48.59368" lon="-2.55447">
        <time>2012-01-22T14:12:55Z</time>
      </trkpt>
      <trkpt lat="48.59369" lon="-2.55446">
        <time>2012-01-22T14:12:56Z</time>
      </trkpt>
      <trkpt lat="48.59371" lon="-2.55445">
        <time>2012-01-22T14:12:57Z</time>
      </trkpt>
      <trkpt lat="48.59372" lon="-2.55445">
        <time>2012-01-22T14:12:58Z</time>
      </trkpt>
      <trkpt lat="48.59373" lon="-2.55444">
        <time>2012-01-22T14:12:59Z</time>
      </trkpt>
      <trkpt lat="48.59375" lon="-2.55443">
        <time>2012-01-22T14:13:00Z</time>
      </trkpt>
      <trkpt lat="48.59376" lon="-2.55443">
        <time>2012-01-22T14:13:01Z</time>
      </trkpt>
      <trkpt lat="48.59377" lon="-2.55442">
        <time>2012-01-22T14:13:02Z</time>
      </trkpt>
      <trkpt lat="48.59379" lon="-2.55441">
        <time>2012-01-22T14:13:03Z</time>
      </trkpt>
      <trkpt lat="48.5938" lon="-2.55441">
        <time>2012-01-22T14:13:04Z</time>
      </trkpt>
      <trkpt lat="48.59381" lon="-2.5544">
        <time>2012-01-22T14:13:05Z</time>
      </trkpt>
      <trkpt lat="48.59383" lon="-2.5544">
        <time>2012-01-22T14:13:06Z</time>
      </trkpt>
      <trkpt lat="48.59384" lon="-2.55439">
        <time>2012-01-22T14:13:07Z</time>
      </trkpt>
      <trkpt lat="48.59385" lon="-2.55438">
        <time>2012-01-22T14:13:08Z</time>
      </trkpt>
      <trkpt lat="48.59387" lon="-2.55438">
        <time>2012-01-22T14:13:09Z</time>
      </trkpt>
      <trkpt lat="48.59388" lon="-2.55437">
        <time>2012-01-22T14:13:10Z</time>
      </trkpt>
      <trkpt lat="48.59389" lon="-2.55436">
        <time>2012-01-22T14:13:11Z</time>
      </trkpt>
      <trkpt lat="48.59391" lon="-2.55436">
        <time>2012-01-22T14:13:12Z</time>
      </trkpt>
      <trkpt lat="48.59392" lon="-2.55435">
        <time>2012-01-22T14:13:13Z</time>
      </trkpt>
      <trkpt lat="48.59393" lon="-2.55435">
        <time>2012-01-22T14:13:14Z</time>
      </trkpt>
      <trkpt lat="48.59395" lon="-2.55435">
        <time>2012-01-22T14:13:15Z</time>
      </trkpt>
      <trkpt lat="48.59396" lon="-2.55435">
        <time>2012-01-22T14:13:16Z</time>
      </trkpt>
      <trkpt lat="48.59398" lon="-2.55434">
        <time>2012-01-22T14:13:17Z</time>
      </trkpt>
      <trkpt lat="48.59399" lon="-2.55434">
        <time>2012-01-22T14:13:18Z</time>
      </trkpt>
      <trkpt lat="48.594" lon="-2.55434">
        <time>2012-01-22T14:13:19Z</time>
      </trkpt>
      <trkpt lat="48.59401" lon="-2.55433">
        <time>2012-01-22T14:13:20Z</time>
      </trkpt>
      <trkpt lat="48.59403" lon="-2.55432">
        <time>2012-01-22T14:13:21Z</time>
      </trkpt>
      <trkpt lat="48.59404" lon="-2.55431">
        <time>2012-01-22T14:13:22Z</time>
      </trkpt>
      <trkpt lat="48.59406" lon="-2.55431">
        <time>2012-01-22T14:13:23Z</time>
      </trkpt>
      <trkpt lat="48.59407" lon="-2.5543">
        <time>2012-01-22T14:13:24Z</time>
      </trkpt>
      <trkpt lat="48.59408" lon="-2.5543">
        <time>2012-01-22T14:13:25Z</time>
      </trkpt>
      <trkpt lat="48.59409" lon="-2.55429">
        <time>2012-01-22T14:13:26Z</time>
      </trkpt>
      <trkpt lat="48.5941" lon="-2.55429">
        <time>2012-01-22T14:13:27Z</time>
      </trkpt>
      <trkpt lat="48.59412" lon="-2.55428">
        <time>2012-01-22T14:13:28Z</time>
      </trkpt>
      <trkpt lat="48.59413" lon="-2.55428">
        <time>2012-01-22T14:13:29Z</time>
      </trkpt>
      <trkpt lat="48.59415" lon="-2.55427">
        <time>2012-01-22T14:13:30Z</time>
      </trkpt>
      <trkpt lat="48.59416" lon="-2.55427">
        <time>2012-01-22T14:13:31Z</time>
      </trkpt>
      <trkpt lat="48.59417" lon="-2.55426">
        <time>2012-01-22T14:13:32Z</time>
      </trkpt>
      <trkpt lat="48.59418" lon="-2.55426">
        <time>2012-01-22T14:13:33Z</time>
      </trkpt>
      <trkpt lat="48.5942" lon="-2.55425">
        <time>2012-01-22T14:13:34Z</time>
      </trkpt>
      <trkpt lat="48.59421" lon="-2.55425">
        <time>2012-01-22T14:13:35Z</time>
      </trkpt>
      <trkpt lat="48.59422" lon="-2.55424">
        <time>2012-01-22T14:13:36Z</time>
      </trkpt>
      <trkpt lat="48.59423" lon="-2.55424">
        <time>2012-01-22T14:13:37Z</time>
      </trkpt>
      <trkpt lat="48.59425" lon="-2.55423">
        <time>2012-01-22T14:13:38Z</time>
      </trkpt>
      <trkpt lat="48.59426" lon="-2.55423">
        <time>2012-01-22T14:13:39Z</time>
      </trkpt>
      <trkpt lat="48.59428" lon="-2.55422">
        <time>2012-01-22T14:13:40Z</time>
      </trkpt>
      <trkpt lat="48.59429" lon="-2.55422">
        <time>2012-01-22T14:13:41Z</time>
      </trkpt>
      <trkpt lat="48.5943" lon="-2.55421">
        <time>2012-01-22T14:13:42Z</time>
      </trkpt>
      <trkpt lat="48.59431" lon="-2.55421">
        <time>2012-01-22T14:13:43Z</time>
      </trkpt>
      <trkpt lat="48.59433" lon="-2.55421">
        <time>2012-01-22T14:13:44Z</time>
      </trkpt>
      <trkpt lat="48.59434" lon="-2.5542">
        <time>2012-01-22T14:13:45Z</time>
      </trkpt>
      <trkpt lat="48.59436" lon="-2.5542">
        <time>2012-01-22T14:13:46Z</time>
      </trkpt>
      <trkpt lat="48.59437" lon="-2.55419">
        <time>2012-01-22T14:13:47Z</time>
      </trkpt>
      <trkpt lat="48.59438" lon="-2.55419">
        <time>2012-01-22T14:13:48Z</time>
      </trkpt>
      <trkpt lat="48.5944" lon="-2.55418">
        <time>2012-01-22T14:13:49Z</time>
      </trkpt>
      <trkpt lat="48.59441" lon="-2.55418">
        <time>2012-01-22T14:13:50Z</time>
      </trkpt>
      <trkpt lat="48.59442" lon="-2.55418">
        <time>2012-01-22T14:13:51Z</time>
      </trkpt>
      <trkpt lat="48.59444" lon="-2.55417">
        <time>2012-01-22T14:13:52Z</time>
      </trkpt>
      <trkpt lat="48.59445" lon="-2.55417">
        <time>2012-01-22T14:13:53Z</time>
      </trkpt>
      <trkpt lat="48.59446" lon="-2.55417">
        <time>2012-01-22T14:13:54Z</time>
      </trkpt>
      <trkpt lat="48.59448" lon="-2.55416">
        <time>2012-01-22T14:13:55Z</time>
      </trkpt>
      <trkpt lat="48.59449" lon="-2.55416">
        <time>2012-01-22T14:13:56Z</time>
      </trkpt>
      <trkpt lat="48.59451" lon="-2.55416">
        <time>2012-01-22T14:13:57Z</time>
      </trkpt>
      <trkpt lat="48.59452" lon="-2.55415">
        <time>2012-01-22T14:13:58Z</time>
      </trkpt>
      <trkpt lat="48.59453" lon="-2.55415">
        <time>2012-01-22T14:13:59Z</time>
      </trkpt>
      <trkpt lat="48.59454" lon="-2.55414">
        <time>2012-01-22T14:14:00Z</time>
      </trkpt>
      <trkpt lat="48.59456" lon="-2.55414">
        <time>2012-01-22T14:14:01Z</time>
      </trkpt>
      <trkpt lat="48.59457" lon="-2.55413">
        <time>2012-01-22T14:14:02Z</time>
      </trkpt>
      <trkpt lat="48.59459" lon="-2.55412">
        <time>2012-01-22T14:14:03Z</time>
      </trkpt>
      <trkpt lat="48.5946" lon="-2.55412">
        <time>2012-01-22T14:14:04Z</time>
      </trkpt>
      <trkpt lat="48.59461" lon="-2.55412">
        <time>2012-01-22T14:14:05Z</time>
      </trkpt>
      <trkpt lat="48.59462" lon="-2.55411">
        <time>2012-01-22T14:14:06Z</time>
      </trkpt>
      <trkpt lat="48.59464" lon="-2.55411">
        <time>2012-01-22T14:14:07Z</time>
      </trkpt>
      <trkpt lat="48.59465" lon="-2.5541">
        <time>2012-01-22T14:14:08Z</time>
      </trkpt>
      <trkpt lat="48.59466" lon="-2.5541">
        <time>2012-01-22T14:14:09Z</time>
      </trkpt>
      <trkpt lat="48.59468" lon="-2.55409">
        <time>2012-01-22T14:14:10Z</time>
      </trkpt>
      <trkpt lat="48.59469" lon="-2.55409">
        <time>2012-01-22T14:14:11Z</time>
      </trkpt>
      <trkpt lat="48.5947" lon="-2.55408">
        <time>2012-01-22T14:14:12Z</time>
      </trkpt>
      <trkpt lat="48.59472" lon="-2.55408">
        <time>2012-01-22T14:14:13Z</time>
      </trkpt>
      <trkpt lat="48.59473" lon="-2.55407">
        <time>2012-01-22T14:14:14Z</time>
      </trkpt>
      <trkpt lat="48.59474" lon="-2.55407">
        <time>2012-01-22T14:14:15Z</time>
      </trkpt>
      <trkpt lat="48.59476" lon="-2.55406">
        <time>2012-01-22T14:14:16Z</time>
      </trkpt>
      <trkpt lat="48.59477" lon="-2.55406">
        <time>2012-01-22T14:14:17Z</time>
      </trkpt>
      <trkpt lat="48.59478" lon="-2.55405">
        <time>2012-01-22T14:14:18Z</time>
      </trkpt>
      <trkpt lat="48.5948" lon="-2.55405">
        <time>2012-01-22T14:14:19Z</time>
      </trkpt>
      <trkpt lat="48.59481" lon="-2.55405">
        <time>2012-01-22T14:14:20Z</time>
      </trkpt>
      <trkpt lat="48.59482" lon="-2.55404">
        <time>2012-01-22T14:14:21Z</time>
      </trkpt>
      <trkpt lat="48.59483" lon="-2.55404">
        <time>2012-01-22T14:14:22Z</time>
      </trkpt>
      <trkpt lat="48.59485" lon="-2.55404">
        <time>2012-01-22T14:14:23Z</time>
      </trkpt>
      <trkpt lat="48.59486" lon="-2.55403">
        <time>2012-01-22T14:14:24Z</time>
      </trkpt>
      <trkpt lat="48.59488" lon="-2.55403">
        <time>2012-01-22T14:14:25Z</time>
      </trkpt>
      <trkpt lat="48.59489" lon="-2.55403">
        <time>2012-01-22T14:14:26Z</time>
      </trkpt>
      <trkpt lat="48.59491" lon="-2.55403">
        <time>2012-01-22T14:14:27Z</time>
      </trkpt>
      <trkpt lat="48.59492" lon="-2.55403">
        <time>2012-01-22T14:14:28Z</time>
      </trkpt>
      <trkpt lat="48.59493" lon="-2.55403">
        <time>2012-01-22T14:14:29Z</time>
      </trkpt>
      <trkpt lat="48.59494" lon="-2.55402">
        <time>2012-01-22T14:14:30Z</time>
      </trkpt>
      <trkpt lat="48.59496" lon="-2.55402">
        <time>2012-01-22T14:14:31Z</time>
      </trkpt>
      <trkpt lat="48.59497" lon="-2.55402">
        <time>2012-01-22T14:14:32Z</time>
      </trkpt>
      <trkpt lat="48.59499" lon="-2.55402">
        <time>2012-01-22T14:14:33Z</time>
      </trkpt>
      <trkpt lat="48.595" lon="-2.55402">
        <time>2012-01-22T14:14:34Z</time>
      </trkpt>
      <trkpt lat="48.59501" lon="-2.55402">
        <time>2012-01-22T14:14:35Z</time>
      </trkpt>
      <trkpt lat="48.59503" lon="-2.55401">
        <time>2012-01-22T14:14:36Z</time>
      </trkpt>
      <trkpt lat="48.59504" lon="-2.55401">
        <time>2012-01-22T14:14:37Z</time>
      </trkpt>
      <trkpt lat="48.59505" lon="-2.55401">
        <time>2012-01-22T14:14:38Z</time>
      </trkpt>
      <trkpt lat="48.59507" lon="-2.55401">
        <time>2012-01-22T14:14:39Z</time>
      </trkpt>
      <trkpt lat="48.59508" lon="-2.55401">
        <time>2012-01-22T14:14:40Z</time>
      </trkpt>
      <trkpt lat="48.59509" lon="-2.55401">
        <time>2012-01-22T14:14:41Z</time>
      </trkpt>
      <trkpt lat="48.5951" lon="-2.55401">
        <time>2012-01-22T14:14:42Z</time>
      </trkpt>
      <trkpt lat="48.59512" lon="-2.55401">
        <time>2012-01-22T14:14:43Z</time>
      </trkpt>
      <trkpt lat="48.59514" lon="-2.55401">
        <time>2012-01-22T14:14:45Z</time>
      </trkpt>
      <trkpt lat="48.59515" lon="-2.55401">
        <time>2012-01-22T14:14:46Z</time>
      </trkpt>
      <trkpt lat="48.59517" lon="-2.55401">
        <time>2012-01-22T14:14:47Z</time>
      </trkpt>
      <trkpt lat="48.59518" lon="-2.554">
        <time>2012-01-22T14:14:48Z</time>
      </trkpt>
      <trkpt lat="48.59519" lon="-2.554">
        <time>2012-01-22T14:14:49Z</time>
      </trkpt>
      <trkpt lat="48.5952" lon="-2.554">
        <time>2012-01-22T14:14:50Z</time>
      </trkpt>
      <trkpt lat="48.59522" lon="-2.55399">
        <time>2012-01-22T14:14:51Z</time>
      </trkpt>
      <trkpt lat="48.59523" lon="-2.55399">
        <time>2012-01-22T14:14:52Z</time>
      </trkpt>
      <trkpt lat="48.59524" lon="-2.55399">
        <time>2012-01-22T14:14:53Z</time>
      </trkpt>
      <trkpt lat="48.59526" lon="-2.55399">
        <time>2012-01-22T14:14:54Z</time>
      </trkpt>
      <trkpt lat="48.59527" lon="-2.55398">
        <time>2012-01-22T14:14:55Z</time>
      </trkpt>
      <trkpt lat="48.59528" lon="-2.55398">
        <time>2012-01-22T14:14:56Z</time>
      </trkpt>
      <trkpt lat="48.59529" lon="-2.55397">
        <time>2012-01-22T14:14:57Z</time>
      </trkpt>
      <trkpt lat="48.59531" lon="-2.55396">
        <time>2012-01-22T14:14:58Z</time>
      </trkpt>
      <trkpt lat="48.59532" lon="-2.55396">
        <time>2012-01-22T14:14:59Z</time>
      </trkpt>
      <trkpt lat="48.59533" lon="-2.55395">
        <time>2012-01-22T14:15:00Z</time>
      </trkpt>
      <trkpt lat="48.59534" lon="-2.55395">
        <time>2012-01-22T14:15:01Z</time>
      </trkpt>
      <trkpt lat="48.59537" lon="-2.55394">
        <time>2012-01-22T14:15:03Z</time>
      </trkpt>
      <trkpt lat="48.59538" lon="-2.55394">
        <time>2012-01-22T14:15:04Z</time>
      </trkpt>
      <trkpt lat="48.59539" lon="-2.55393">
        <time>2012-01-22T14:15:05Z</time>
      </trkpt>
      <trkpt lat="48.59541" lon="-2.55393">
        <time>2012-01-22T14:15:06Z</time>
      </trkpt>
      <trkpt lat="48.59542" lon="-2.55393">
        <time>2012-01-22T14:15:07Z</time>
      </trkpt>
      <trkpt lat="48.59544" lon="-2.55393">
        <time>2012-01-22T14:15:08Z</time>
      </trkpt>
      <trkpt lat="48.59545" lon="-2.55393">
        <time>2012-01-22T14:15:09Z</time>
      </trkpt>
      <trkpt lat="48.59546" lon="-2.55393">
        <time>2012-01-22T14:15:10Z</time>
      </trkpt>
      <trkpt lat="48.59547" lon="-2.55393">
        <time>2012-01-22T14:15:11Z</time>
      </trkpt>
      <trkpt lat="48.59549" lon="-2.55392">
        <time>2012-01-22T14:15:12Z</time>
      </trkpt>
      <trkpt lat="48.5955" lon="-2.55392">
        <time>2012-01-22T14:15:13Z</time>
      </trkpt>
      <trkpt lat="48.59551" lon="-2.55392">
        <time>2012-01-22T14:15:14Z</time>
      </trkpt>
      <trkpt lat="48.59552" lon="-2.55392">
        <time>2012-01-22T14:15:15Z</time>
      </trkpt>
      <trkpt lat="48.59554" lon="-2.55392">
        <time>2012-01-22T14:15:16Z</time>
      </trkpt>
      <trkpt lat="48.59555" lon="-2.55392">
        <time>2012-01-22T14:15:17Z</time>
      </trkpt>
      <trkpt lat="48.59557" lon="-2.55392">
        <time>2012-01-22T14:15:18Z</time>
      </trkpt>
      <trkpt lat="48.59558" lon="-2.55392">
        <time>2012-01-22T14:15:19Z</time>
      </trkpt>
      <trkpt lat="48.5956" lon="-2.55392">
        <time>2012-01-22T14:15:21Z</time>
      </trkpt>
      <trkpt lat="48.59561" lon="-2.55392">
        <time>2012-01-22T14:15:22Z</time>
      </trkpt>
      <trkpt lat="48.59563" lon="-2.55391">
        <time>2012-01-22T14:15:23Z</time>
      </trkpt>
      <trkpt lat="48.59564" lon="-2.55391">
        <time>2012-01-22T14:15:24Z</time>
      </trkpt>
      <trkpt lat="48.59565" lon="-2.55391">
        <time>2012-01-22T14:15:25Z</time>
      </trkpt>
      <trkpt lat="48.59566" lon="-2.55391">
        <time>2012-01-22T14:15:26Z</time>
      </trkpt>
      <trkpt lat="48.59568" lon="-2.55391">
        <time>2012-01-22T14:15:27Z</time>
      </trkpt>
      <trkpt lat="48.59569" lon="-2.55391">
        <time>2012-01-22T14:15:28Z</time>
      </trkpt>
      <trkpt lat="48.59571" lon="-2.55391">
        <time>2012-01-22T14:15:30Z</time>
      </trkpt>
      <trkpt lat="48.59572" lon="-2.55391">
        <time>2012-01-22T14:15:31Z</time>
      </trkpt>
      <trkpt lat="48.59574" lon="-2.55391">
        <time>2012-01-22T14:15:32Z</time>
      </trkpt>
      <trkpt lat="48.59575" lon="-2.55391">
        <time>2012-01-22T14:15:33Z</time>
      </trkpt>
      <trkpt lat="48.59576" lon="-2.55391">
        <time>2012-01-22T14:15:34Z</time>
      </trkpt>
      <trkpt lat="48.59578" lon="-2.5539">
        <time>2012-01-22T14:15:35Z</time>
      </trkpt>
      <trkpt lat="48.59579" lon="-2.5539">
        <time>2012-01-22T14:15:36Z</time>
      </trkpt>
      <trkpt lat="48.5958" lon="-2.5539">
        <time>2012-01-22T14:15:37Z</time>
      </trkpt>
      <trkpt lat="48.59581" lon="-2.5539">
        <time>2012-01-22T14:15:38Z</time>
      </trkpt>
      <trkpt lat="48.59583" lon="-2.5539">
        <time>2012-01-22T14:15:39Z</time>
      </trkpt>
      <trkpt lat="48.59584" lon="-2.5539">
        <time>2012-01-22T14:15:40Z</time>
      </trkpt>
      <trkpt lat="48.59586" lon="-2.55391">
        <time>2012-01-22T14:15:41Z</time>
      </trkpt>
      <trkpt lat="48.59587" lon="-2.55391">
        <time>2012-01-22T14:15:42Z</time>
      </trkpt>
      <trkpt lat="48.59589" lon="-2.55391">
        <time>2012-01-22T14:15:43Z</time>
      </trkpt>
      <trkpt lat="48.5959" lon="-2.55391">
        <time>2012-01-22T14:15:44Z</time>
      </trkpt>
      <trkpt lat="48.59591" lon="-2.55391">
        <time>2012-01-22T14:15:45Z</time>
      </trkpt>
      <trkpt lat="48.59592" lon="-2.55391">
        <time>2012-01-22T14:15:46Z</time>
      </trkpt>
      <trkpt lat="48.59594" lon="-2.55391">
        <time>2012-01-22T14:15:47Z</time>
      </trkpt>
      <trkpt lat="48.59595" lon="-2.55391">
        <time>2012-01-22T14:15:48Z</time>
      </trkpt>
      <trkpt lat="48.59597" lon="-2.55391">
        <time>2012-01-22T14:15:49Z</time>
      </trkpt>
      <trkpt lat="48.59598" lon="-2.55391">
        <time>2012-01-22T14:15:50Z</time>
      </trkpt>
      <trkpt lat="48.596" lon="-2.55391">
        <time>2012-01-22T14:15:51Z</time>
      </trkpt>
      <trkpt lat="48.59601" lon="-2.55391">
        <time>2012-01-22T14:15:52Z</time>
      </trkpt>
      <trkpt lat="48.59602" lon="-2.55391">
        <time>2012-01-22T14:15:53Z</time>
      </trkpt>
      <trkpt lat="48.59604" lon="-2.55392">
        <time>2012-01-22T14:15:54Z</time>
      </trkpt>
      <trkpt lat="48.59605" lon="-2.55392">
        <time>2012-01-22T14:15:55Z</time>
      </trkpt>
      <trkpt lat="48.59606" lon="-2.55392">
        <time>2012-01-22T14:15:56Z</time>
      </trkpt>
      <trkpt lat="48.59608" lon="-2.55392">
        <time>2012-01-22T14:15:57Z</time>
      </trkpt>
      <trkpt lat="48.59609" lon="-2.55392">
        <time>2012-01-22T14:15:58Z</time>
      </trkpt>
      <trkpt lat="48.5961" lon="-2.55392">
        <time>2012-01-22T14:15:59Z</time>
      </trkpt>
      <trkpt lat="48.59612" lon="-2.55393">
        <time>2012-01-22T14:16:00Z</time>
      </trkpt>
      <trkpt lat="48.59613" lon="-2.55393">
        <time>2012-01-22T14:16:01Z</time>
      </trkpt>
      <trkpt lat="48.59615" lon="-2.55394">
        <time>2012-01-22T14:16:02Z</time>
      </trkpt>
      <trkpt lat="48.59616" lon="-2.55394">
        <time>2012-01-22T14:16:03Z</time>
      </trkpt>
      <trkpt lat="48.59617" lon="-2.55395">
        <time>2012-01-22T14:16:04Z</time>
      </trkpt>
      <trkpt lat="48.59618" lon="-2.55395">
        <time>2012-01-22T14:16:05Z</time>
      </trkpt>
      <trkpt lat="48.5962" lon="-2.55396">
        <time>2012-01-22T14:16:06Z</time>
      </trkpt>
      <trkpt lat="48.59621" lon="-2.55397">
        <time>2012-01-22T14:16:07Z</time>
      </trkpt>
      <trkpt lat="48.59622" lon="-2.55397">
        <time>2012-01-22T14:16:08Z</time>
      </trkpt>
      <trkpt lat="48.59623" lon="-2.55398">
        <time>2012-01-22T14:16:09Z</time>
      </trkpt>
      <trkpt lat="48.59625" lon="-2.55399">
        <time>2012-01-22T14:16:10Z</time>
      </trkpt>
      <trkpt lat="48.59626" lon="-2.55399">
        <time>2012-01-22T14:16:11Z</time>
      </trkpt>
      <trkpt lat="48.59628" lon="-2.554">
        <time>2012-01-22T14:16:12Z</time>
      </trkpt>
      <trkpt lat="48.59629" lon="-2.55401">
        <time>2012-01-22T14:16:13Z</time>
      </trkpt>
      <trkpt lat="48.59631" lon="-2.55401">
        <time>2012-01-22T14:16:14Z</time>
      </trkpt>
      <trkpt lat="48.59632" lon="-2.55402">
        <time>2012-01-22T14:16:15Z</time>
      </trkpt>
      <trkpt lat="48.59633" lon="-2.55403">
        <time>2012-01-22T14:16:16Z</time>
      </trkpt>
      <trkpt lat="48.59634" lon="-2.55404">
        <time>2012-01-22T14:16:17Z</time>
      </trkpt>
      <trkpt lat="48.59636" lon="-2.55405">
        <time>2012-01-22T14:16:18Z</time>
      </trkpt>
      <trkpt lat="48.59637" lon="-2.55406">
        <time>2012-01-22T14:16:19Z</time>
      </trkpt>
      <trkpt lat="48.59638" lon="-2.55407">
        <time>2012-01-22T14:16:20Z</time>
      </trkpt>
      <trkpt lat="48.5964" lon="-2.55408">
        <time>2012-01-22T14:16:21Z</time>
      </trkpt>
      <trkpt lat="48.59641" lon="-2.55409">
        <time>2012-01-22T14:16:22Z</time>
      </trkpt>
      <trkpt lat="48.59642" lon="-2.5541">
        <time>2012-01-22T14:16:23Z</time>
      </trkpt>
      <trkpt lat="48.59644" lon="-2.55411">
        <time>2012-01-22T14:16:24Z</time>
      </trkpt>
      <trkpt lat="48.59645" lon="-2.55412">
        <time>2012-01-22T14:16:25Z</time>
      </trkpt>
      <trkpt lat="48.59646" lon="-2.55413">
        <time>2012-01-22T14:16:26Z</time>
      </trkpt>
      <trkpt lat="48.59647" lon="-2.55414">
        <time>2012-01-22T14:16:27Z</time>
      </trkpt>
      <trkpt lat="48.59649" lon="-2.55415">
        <time>2012-01-22T14:16:28Z</time>
      </trkpt>
      <trkpt lat="48.5965" lon="-2.55416">
        <time>2012-01-22T14:16:29Z</time>
      </trkpt>
      <trkpt lat="48.59652" lon="-2.55417">
        <time>2012-01-22T14:16:30Z</time>
      </trkpt>
      <trkpt lat="48.59653" lon="-2.55418">
        <time>2012-01-22T14:16:31Z</time>
      </trkpt>
      <trkpt lat="48.59654" lon="-2.55419">
        <time>2012-01-22T14:16:32Z</time>
      </trkpt>
      <trkpt lat="48.59655" lon="-2.5542">
        <time>2012-01-22T14:16:33Z</time>
      </trkpt>
      <trkpt lat="48.59656" lon="-2.55421">
        <time>2012-01-22T14:16:34Z</time>
      </trkpt>
      <trkpt lat="48.59658" lon="-2.55422">
        <time>2012-01-22T14:16:35Z</time>
      </trkpt>
      <trkpt lat="48.59659" lon="-2.55423">
        <time>2012-01-22T14:16:36Z</time>
      </trkpt>
      <trkpt lat="48.5966" lon="-2.55425">
        <time>2012-01-22T14:16:37Z</time>
      </trkpt>
      <trkpt lat="48.59662" lon="-2.55426">
        <time>2012-01-22T14:16:38Z</time>
      </trkpt>
      <trkpt lat="48.59663" lon="-2.55427">
        <time>2012-01-22T14:16:39Z</time>
      </trkpt>
      <trkpt lat="48.59665" lon="-2.55428">
        <time>2012-01-22T14:16:40Z</time>
      </trkpt>
      <trkpt lat="48.59666" lon="-2.55429">
        <time>2012-01-22T14:16:41Z</time>
      </trkpt>
      <trkpt lat="48.59667" lon="-2.5543">
        <time>2012-01-22T14:16:42Z</time>
      </trkpt>
      <trkpt lat="48.59668" lon="-2.55431">
        <time>2012-01-22T14:16:43Z</time>
      </trkpt>
      <trkpt lat="48.59669" lon="-2.55432">
        <time>2012-01-22T14:16:44Z</time>
      </trkpt>
      <trkpt lat="48.5967" lon="-2.55434">
        <time>2012-01-22T14:16:45Z</time>
      </trkpt>
      <trkpt lat="48.59671" lon="-2.55435">
        <time>2012-01-22T14:16:46Z</time>
      </trkpt>
      <trkpt lat="48.59673" lon="-2.55437">
        <time>2012-01-22T14:16:47Z</time>
      </trkpt>
      <trkpt lat="48.59675" lon="-2.55438">
        <time>2012-01-22T14:16:48Z</time>
      </trkpt>
      <trkpt lat="48.59676" lon="-2.55439">
        <time>2012-01-22T14:16:49Z</time>
      </trkpt>
      <trkpt lat="48.59677" lon="-2.5544">
        <time>2012-01-22T14:16:50Z</time>
      </trkpt>
      <trkpt lat="48.59678" lon="-2.55441">
        <time>2012-01-22T14:16:51Z</time>
      </trkpt>
      <trkpt lat="48.5968" lon="-2.55442">
        <time>2012-01-22T14:16:52Z</time>
      </trkpt>
      <trkpt lat="48.59681" lon="-2.55443">
        <time>2012-01-22T14:16:53Z</time>
      </trkpt>
      <trkpt lat="48.59682" lon="-2.55445">
        <time>2012-01-22T14:16:54Z</time>
      </trkpt>
      <trkpt lat="48.59684" lon="-2.55448">
        <time>2012-01-22T14:16:56Z</time>
      </trkpt>
      <trkpt lat="48.59686" lon="-2.5545">
        <time>2012-01-22T14:16:57Z</time>
      </trkpt>
      <trkpt lat="48.59688" lon="-2.55452">
        <time>2012-01-22T14:16:59Z</time>
      </trkpt>
      <trkpt lat="48.5969" lon="-2.55455">
        <time>2012-01-22T14:17:01Z</time>
      </trkpt>
      <trkpt lat="48.59692" lon="-2.55458">
        <time>2012-01-22T14:17:03Z</time>
      </trkpt>
      <trkpt lat="48.59694" lon="-2.55461">
        <time>2012-01-22T14:17:05Z</time>
      </trkpt>
      <trkpt lat="48.59695" lon="-2.55463">
        <ele>1</ele>
        <time>2012-01-22T14:17:06Z</time>
      </trkpt>
      <trkpt lat="48.59696" lon="-2.55464">
        <ele>1</ele>
        <time>2012-01-22T14:17:07Z</time>
      </trkpt>
      <trkpt lat="48.59697" lon="-2.55466">
        <ele>1</ele>
        <time>2012-01-22T14:17:08Z</time>
      </trkpt>
      <trkpt lat="48.59699" lon="-2.55469">
        <ele>1</ele>
        <time>2012-01-22T14:17:10Z</time>
      </trkpt>
      <trkpt lat="48.597" lon="-2.5547">
        <ele>1</ele>
        <time>2012-01-22T14:17:11Z</time>
      </trkpt>
      <trkpt lat="48.59701" lon="-2.55472">
        <ele>1</ele>
        <time>2012-01-22T14:17:12Z</time>
      </trkpt>
      <trkpt lat="48.59702" lon="-2.55474">
        <time>2012-01-22T14:17:13Z</time>
      </trkpt>
      <trkpt lat="48.59703" lon="-2.55476">
        <time>2012-01-22T14:17:14Z</time>
      </trkpt>
      <trkpt lat="48.59703" lon="-2.55478">
        <time>2012-01-22T14:17:15Z</time>
      </trkpt>
      <trkpt lat="48.59705" lon="-2.5548">
        <time>2012-01-22T14:17:16Z</time>
      </trkpt>
      <trkpt lat="48.59705" lon="-2.55482">
        <time>2012-01-22T14:17:17Z</time>
      </trkpt>
      <trkpt lat="48.59705" lon="-2.55483">
        <time>2012-01-22T14:17:18Z</time>
      </trkpt>
      <trkpt lat="48.59706" lon="-2.55485">
        <time>2012-01-22T14:17:19Z</time>
      </trkpt>
      <trkpt lat="48.59707" lon="-2.55487">
        <time>2012-01-22T14:17:20Z</time>
      </trkpt>
      <trkpt lat="48.59709" lon="-2.55488">
        <time>2012-01-22T14:17:21Z</time>
      </trkpt>
      <trkpt lat="48.5971" lon="-2.5549">
        <time>2012-01-22T14:17:22Z</time>
      </trkpt>
      <trkpt lat="48.59711" lon="-2.55491">
        <time>2012-01-22T14:17:23Z</time>
      </trkpt>
      <trkpt lat="48.59712" lon="-2.55492">
        <time>2012-01-22T14:17:24Z</time>
      </trkpt>
      <trkpt lat="48.59713" lon="-2.55495">
        <time>2012-01-22T14:17:25Z</time>
      </trkpt>
      <trkpt lat="48.59714" lon="-2.55497">
        <time>2012-01-22T14:17:26Z</time>
      </trkpt>
      <trkpt lat="48.59715" lon="-2.55498">
        <time>2012-01-22T14:17:27Z</time>
      </trkpt>
      <trkpt lat="48.59715" lon="-2.555">
        <ele>4.21</ele>
        <time>2012-01-22T14:17:28Z</time>
      </trkpt>
      <trkpt lat="48.59716" lon="-2.55502">
        <ele>4.29</ele>
        <time>2012-01-22T14:17:29Z</time>
      </trkpt>
      <trkpt lat="48.59716" lon="-2.55504">
        <ele>4.37</ele>
        <time>2012-01-22T14:17:30Z</time>
      </trkpt>
      <trkpt lat="48.59717" lon="-2.55506">
        <ele>4.46</ele>
        <time>2012-01-22T14:17:31Z</time>
      </trkpt>
      <trkpt lat="48.59718" lon="-2.55508">
        <ele>4.58</ele>
        <time>2012-01-22T14:17:33Z</time>
      </trkpt>
      <trkpt lat="48.5972" lon="-2.55509">
        <ele>4.74</ele>
        <time>2012-01-22T14:17:34Z</time>
      </trkpt>
      <trkpt lat="48.59721" lon="-2.55509">
        <ele>4.87</ele>
        <time>2012-01-22T14:17:35Z</time>
      </trkpt>
      <trkpt lat="48.59723" lon="-2.5551">
        <ele>5</ele>
        <time>2012-01-22T14:17:37Z</time>
      </trkpt>
      <trkpt lat="48.59725" lon="-2.55509">
        <ele>5.2</ele>
        <time>2012-01-22T14:17:39Z</time>
      </trkpt>
      <trkpt lat="48.59726" lon="-2.55509">
        <ele>5.2</ele>
        <time>2012-01-22T14:17:40Z</time>
      </trkpt>
      <trkpt lat="48.59728" lon="-2.55509">
        <ele>5.3</ele>
        <time>2012-01-22T14:17:45Z</time>
      </trkpt>
      <trkpt lat="48.59729" lon="-2.55508">
        <ele>5.3</ele>
        <time>2012-01-22T14:17:46Z</time>
      </trkpt>
      <trkpt lat="48.5973" lon="-2.55508">
        <ele>5.4</ele>
        <time>2012-01-22T14:17:47Z</time>
      </trkpt>
      <trkpt lat="48.59731" lon="-2.55508">
        <ele>5.5</ele>
        <time>2012-01-22T14:17:48Z</time>
      </trkpt>
      <trkpt lat="48.59732" lon="-2.55508">
        <ele>5.5</ele>
        <time>2012-01-22T14:17:49Z</time>
      </trkpt>
      <trkpt lat="48.59734" lon="-2.55507">
        <ele>5.6</ele>
        <time>2012-01-22T14:17:50Z</time>
      </trkpt>
      <trkpt lat="48.59735" lon="-2.55508">
        <ele>5.6</ele>
        <time>2012-01-22T14:17:51Z</time>
      </trkpt>
      <trkpt lat="48.59737" lon="-2.55507">
        <ele>5.7</ele>
        <time>2012-01-22T14:17:52Z</time>
      </trkpt>
      <trkpt lat="48.59738" lon="-2.55507">
        <ele>5.7</ele>
        <time>2012-01-22T14:17:53Z</time>
      </trkpt>
      <trkpt lat="48.59739" lon="-2.55507">
        <ele>5.8</ele>
        <time>2012-01-22T14:17:54Z</time>
      </trkpt>
      <trkpt lat="48.59741" lon="-2.55508">
        <ele>5.9</ele>
        <time>2012-01-22T14:17:55Z</time>
      </trkpt>
      <trkpt lat="48.59742" lon="-2.55508">
        <ele>6</ele>
        <time>2012-01-22T14:17:56Z</time>
      </trkpt>
      <trkpt lat="48.59744" lon="-2.55508">
        <ele>6.1</ele>
        <time>2012-01-22T14:17:57Z</time>
      </trkpt>
      <trkpt lat="48.59745" lon="-2.55508">
        <ele>6.2</ele>
        <time>2012-01-22T14:17:58Z</time>
      </trkpt>
      <trkpt lat="48.59747" lon="-2.55508">
        <ele>6.2</ele>
        <time>2012-01-22T14:17:59Z</time>
      </trkpt>
      <trkpt lat="48.59748" lon="-2.55506">
        <ele>6.1</ele>
        <time>2012-01-22T14:18:01Z</time>
      </trkpt>
      <trkpt lat="48.59746" lon="-2.55503">
        <ele>5.4</ele>
        <time>2012-01-22T14:18:02Z</time>
      </trkpt>
      <trkpt lat="48.59747" lon="-2.55501">
        <ele>5.1</ele>
        <time>2012-01-22T14:18:03Z</time>
      </trkpt>
      <trkpt lat="48.59747" lon="-2.55499">
        <ele>4.9</ele>
        <time>2012-01-22T14:18:04Z</time>
      </trkpt>
      <trkpt lat="48.59748" lon="-2.55498">
        <ele>4.9</ele>
        <time>2012-01-22T14:18:06Z</time>
      </trkpt>
      <trkpt lat="48.5975" lon="-2.55497">
        <ele>4.8</ele>
        <time>2012-01-22T14:18:08Z</time>
      </trkpt>
      <trkpt lat="48.59752" lon="-2.55494">
        <ele>4.9</ele>
        <time>2012-01-22T14:18:10Z</time>
      </trkpt>
      <trkpt lat="48.59753" lon="-2.55492">
        <ele>5</ele>
        <time>2012-01-22T14:18:12Z</time>
      </trkpt>
      <trkpt lat="48.59755" lon="-2.5549">
        <ele>5.2</ele>
        <time>2012-01-22T14:18:14Z</time>
      </trkpt>
      <trkpt lat="48.59758" lon="-2.55488">
        <ele>5.6</ele>
        <time>2012-01-22T14:18:16Z</time>
      </trkpt>
      <trkpt lat="48.59759" lon="-2.55487">
        <ele>5.8</ele>
        <time>2012-01-22T14:18:17Z</time>
      </trkpt>
      <trkpt lat="48.59761" lon="-2.55486">
        <ele>6.1</ele>
        <time>2012-01-22T14:18:19Z</time>
      </trkpt>
      <trkpt lat="48.59762" lon="-2.55484">
        <ele>6.4</ele>
        <time>2012-01-22T14:18:21Z</time>
      </trkpt>
      <trkpt lat="48.59763" lon="-2.55483">
        <ele>6.6</ele>
        <time>2012-01-22T14:18:22Z</time>
      </trkpt>
      <trkpt lat="48.59765" lon="-2.55483">
        <ele>6.9</ele>
        <time>2012-01-22T14:18:23Z</time>
      </trkpt>
      <trkpt lat="48.59766" lon="-2.55482">
        <ele>7.2</ele>
        <time>2012-01-22T14:18:24Z</time>
      </trkpt>
      <trkpt lat="48.59768" lon="-2.55482">
        <ele>7.5</ele>
        <time>2012-01-22T14:18:25Z</time>
      </trkpt>
      <trkpt lat="48.59769" lon="-2.55482">
        <ele>7.7</ele>
        <time>2012-01-22T14:18:26Z</time>
      </trkpt>
      <trkpt lat="48.59771" lon="-2.55481">
        <ele>8.2</ele>
        <time>2012-01-22T14:18:28Z</time>
      </trkpt>
      <trkpt lat="48.59772" lon="-2.55481">
        <ele>8.5</ele>
        <time>2012-01-22T14:18:29Z</time>
      </trkpt>
      <trkpt lat="48.59774" lon="-2.55479">
        <ele>8.8</ele>
        <time>2012-01-22T14:18:31Z</time>
      </trkpt>
      <trkpt lat="48.59775" lon="-2.55475">
        <ele>9.3</ele>
        <time>2012-01-22T14:18:33Z</time>
      </trkpt>
      <trkpt lat="48.59777" lon="-2.55473">
        <ele>9.8</ele>
        <time>2012-01-22T14:18:35Z</time>
      </trkpt>
      <trkpt lat="48.59779" lon="-2.55473">
        <ele>9.9</ele>
        <time>2012-01-22T14:18:36Z</time>
      </trkpt>
      <trkpt lat="48.59781" lon="-2.55474">
        <ele>9.7</ele>
        <time>2012-01-22T14:18:38Z</time>
      </trkpt>
      <trkpt lat="48.59782" lon="-2.55475">
        <ele>9.6</ele>
        <time>2012-01-22T14:18:40Z</time>
      </trkpt>
      <trkpt lat="48.59783" lon="-2.55475">
        <ele>9.5</ele>
        <time>2012-01-22T14:18:43Z</time>
      </trkpt>
      <trkpt lat="48.59785" lon="-2.55475">
        <ele>1</ele>
        <time>2012-01-22T14:18:45Z</time>
      </trkpt>
      <trkpt lat="48.59786" lon="-2.55475">
        <ele>1</ele>
        <time>2012-01-22T14:18:47Z</time>
      </trkpt>
      <trkpt lat="48.59787" lon="-2.55475">
        <ele>2</ele>
        <time>2012-01-22T14:18:49Z</time>
      </trkpt>
      <trkpt lat="48.59789" lon="-2.55474">
        <ele>3</ele>
        <time>2012-01-22T14:18:52Z</time>
      </trkpt>
      <trkpt lat="48.5979" lon="-2.55474">
        <ele>3</ele>
        <time>2012-01-22T14:18:54Z</time>
      </trkpt>
      <trkpt lat="48.59792" lon="-2.55473">
        <ele>4</ele>
        <time>2012-01-22T14:18:57Z</time>
      </trkpt>
      <trkpt lat="48.59793" lon="-2.55472">
        <ele>5</ele>
        <time>2012-01-22T14:19:01Z</time>
      </trkpt>
      <trkpt lat="48.59795" lon="-2.55471">
        <ele>5</ele>
        <time>2012-01-22T14:19:03Z</time>
      </trkpt>
      <trkpt lat="48.59794" lon="-2.55469">
        <ele>5</ele>
        <time>2012-01-22T14:19:08Z</time>
      </trkpt>
      <trkpt lat="48.59794" lon="-2.55468">
        <ele>5</ele>
        <time>2012-01-22T14:19:14Z</time>
      </trkpt>
      <trkpt lat="48.59793" lon="-2.55466">
        <ele>5</ele>
        <time>2012-01-22T14:19:28Z</time>
      </trkpt>
      <trkpt lat="48.59792" lon="-2.55464">
        <ele>5</ele>
        <time>2012-01-22T14:19:30Z</time>
      </trkpt>
      <trkpt lat="48.59791" lon="-2.55462">
        <ele>5</ele>
        <time>2012-01-22T14:19:34Z</time>
      </trkpt>
      <trkpt lat="48.59789" lon="-2.55463">
        <ele>5</ele>
        <time>2012-01-22T14:19:36Z</time>
      </trkpt>
      <trkpt lat="48.59787" lon="-2.55465">
        <ele>5</ele>
        <time>2012-01-22T14:19:38Z</time>
      </trkpt>
      <trkpt lat="48.59785" lon="-2.55467">
        <ele>6</ele>
        <time>2012-01-22T14:19:40Z</time>
      </trkpt>
      <trkpt lat="48.59784" lon="-2.55468">
        <ele>6</ele>
        <time>2012-01-22T14:19:41Z</time>
      </trkpt>
      <trkpt lat="48.59782" lon="-2.55467">
        <ele>7</ele>
        <time>2012-01-22T14:19:43Z</time>
      </trkpt>
      <trkpt lat="48.59782" lon="-2.55465">
        <ele>8</ele>
        <time>2012-01-22T14:19:45Z</time>
      </trkpt>
      <trkpt lat="48.59782" lon="-2.55462">
        <ele>9</ele>
        <time>2012-01-22T14:19:47Z</time>
      </trkpt>
      <trkpt lat="48.59782" lon="-2.5546">
        <ele>9</ele>
        <time>2012-01-22T14:19:48Z</time>
      </trkpt>
      <trkpt lat="48.59782" lon="-2.55458">
        <ele>10</ele>
        <time>2012-01-22T14:19:50Z</time>
      </trkpt>
      <trkpt lat="48.59783" lon="-2.55456">
        <ele>10</ele>
        <time>2012-01-22T14:19:52Z</time>
      </trkpt>
      <trkpt lat="48.59783" lon="-2.55453">
        <ele>11</ele>
        <time>2012-01-22T14:19:54Z</time>
      </trkpt>
      <trkpt lat="48.59783" lon="-2.55451">
        <ele>11</ele>
        <time>2012-01-22T14:19:56Z</time>
      </trkpt>
      <trkpt lat="48.59783" lon="-2.55449">
        <ele>12</ele>
        <time>2012-01-22T14:19:58Z</time>
      </trkpt>
      <trkpt lat="48.59783" lon="-2.55446">
        <ele>13</ele>
        <time>2012-01-22T14:20:00Z</time>
      </trkpt>
      <trkpt lat="48.59783" lon="-2.55444">
        <ele>13</ele>
        <time>2012-01-22T14:20:02Z</time>
      </trkpt>
      <trkpt lat="48.59783" lon="-2.55441">
        <ele>14</ele>
        <time>2012-01-22T14:20:04Z</time>
      </trkpt>
      <trkpt lat="48.59782" lon="-2.55439">
        <ele>15</ele>
        <time>2012-01-22T14:20:06Z</time>
      </trkpt>
      <trkpt lat="48.59782" lon="-2.55437">
        <ele>15</ele>
        <time>2012-01-22T14:20:08Z</time>
      </trkpt>
      <trkpt lat="48.59781" lon="-2.55434">
        <ele>16</ele>
        <time>2012-01-22T14:20:10Z</time>
      </trkpt>
      <trkpt lat="48.59781" lon="-2.55432">
        <ele>17</ele>
        <time>2012-01-22T14:20:12Z</time>
      </trkpt>
      <trkpt lat="48.59781" lon="-2.5543">
        <ele>17</ele>
        <time>2012-01-22T14:20:14Z</time>
      </trkpt>
      <trkpt lat="48.5978" lon="-2.55427">
        <ele>18</ele>
        <time>2012-01-22T14:20:16Z</time>
      </trkpt>
      <trkpt lat="48.5978" lon="-2.55425">
        <ele>18</ele>
        <time>2012-01-22T14:20:18Z</time>
      </trkpt>
      <trkpt lat="48.59781" lon="-2.55423">
        <ele>19</ele>
        <time>2012-01-22T14:20:20Z</time>
      </trkpt>
      <trkpt lat="48.59783" lon="-2.55423">
        <ele>20</ele>
        <time>2012-01-22T14:20:22Z</time>
      </trkpt>
      <trkpt lat="48.59785" lon="-2.55424">
        <ele>20</ele>
        <time>2012-01-22T14:20:24Z</time>
      </trkpt>
      <trkpt lat="48.59787" lon="-2.55426">
        <ele>20</ele>
        <time>2012-01-22T14:20:26Z</time>
      </trkpt>
      <trkpt lat="48.59789" lon="-2.55427">
        <ele>21</ele>
        <time>2012-01-22T14:20:28Z</time>
      </trkpt>
      <trkpt lat="48.59791" lon="-2.55429">
        <ele>21</ele>
        <time>2012-01-22T14:20:30Z</time>
      </trkpt>
      <trkpt lat="48.59793" lon="-2.55431">
        <ele>21</ele>
        <time>2012-01-22T14:20:32Z</time>
      </trkpt>
      <trkpt lat="48.59795" lon="-2.55432">
        <ele>21</ele>
        <time>2012-01-22T14:20:33Z</time>
      </trkpt>
      <trkpt lat="48.59797" lon="-2.55433">
        <ele>21</ele>
        <time>2012-01-22T14:20:35Z</time>
      </trkpt>
      <trkpt lat="48.59799" lon="-2.55434">
        <ele>21</ele>
        <time>2012-01-22T14:20:37Z</time>
      </trkpt>
      <trkpt lat="48.59801" lon="-2.55434">
        <ele>21</ele>
        <time>2012-01-22T14:20:39Z</time>
      </trkpt>
      <trkpt lat="48.59802" lon="-2.55434">
        <ele>21</ele>
        <time>2012-01-22T14:20:40Z</time>
      </trkpt>
      <trkpt lat="48.59803" lon="-2.55434">
        <ele>22</ele>
        <time>2012-01-22T14:20:42Z</time>
      </trkpt>
      <trkpt lat="48.59805" lon="-2.55434">
        <ele>22</ele>
        <time>2012-01-22T14:20:43Z</time>
      </trkpt>
      <trkpt lat="48.59806" lon="-2.55434">
        <ele>22</ele>
        <time>2012-01-22T14:20:44Z</time>
      </trkpt>
      <trkpt lat="48.59807" lon="-2.55434">
        <ele>22</ele>
        <time>2012-01-22T14:20:45Z</time>
      </trkpt>
      <trkpt lat="48.59808" lon="-2.55433">
        <ele>22</ele>
        <time>2012-01-22T14:20:46Z</time>
      </trkpt>
      <trkpt lat="48.5981" lon="-2.55433">
        <ele>22</ele>
        <time>2012-01-22T14:20:47Z</time>
      </trkpt>
      <trkpt lat="48.59811" lon="-2.55432">
        <ele>22</ele>
        <time>2012-01-22T14:20:48Z</time>
      </trkpt>
      <trkpt lat="48.59812" lon="-2.55432">
        <ele>23</ele>
        <time>2012-01-22T14:20:49Z</time>
      </trkpt>
      <trkpt lat="48.59814" lon="-2.55431">
        <ele>23</ele>
        <time>2012-01-22T14:20:51Z</time>
      </trkpt>
      <trkpt lat="48.59816" lon="-2.5543">
        <ele>23</ele>
        <time>2012-01-22T14:20:52Z</time>
      </trkpt>
      <trkpt lat="48.59817" lon="-2.55429">
        <ele>23</ele>
        <time>2012-01-22T14:20:53Z</time>
      </trkpt>
      <trkpt lat="48.59818" lon="-2.55429">
        <ele>23</ele>
        <time>2012-01-22T14:20:54Z</time>
      </trkpt>
      <trkpt lat="48.59819" lon="-2.55429">
        <ele>23</ele>
        <time>2012-01-22T14:20:55Z</time>
      </trkpt>
      <trkpt lat="48.59821" lon="-2.55427">
        <ele>24</ele>
        <time>2012-01-22T14:20:57Z</time>
      </trkpt>
      <trkpt lat="48.59822" lon="-2.55425">
        <ele>24</ele>
        <time>2012-01-22T14:20:59Z</time>
      </trkpt>
      <trkpt lat="48.59824" lon="-2.55423">
        <ele>24</ele>
        <time>2012-01-22T14:21:01Z</time>
      </trkpt>
      <trkpt lat="48.59827" lon="-2.55422">
        <ele>24</ele>
        <time>2012-01-22T14:21:03Z</time>
      </trkpt>
      <trkpt lat="48.59829" lon="-2.5542">
        <ele>24</ele>
        <time>2012-01-22T14:21:05Z</time>
      </trkpt>
      <trkpt lat="48.5983" lon="-2.55418">
        <ele>24</ele>
        <time>2012-01-22T14:21:07Z</time>
      </trkpt>
      <trkpt lat="48.59833" lon="-2.55417">
        <ele>24</ele>
        <time>2012-01-22T14:21:09Z</time>
      </trkpt>
      <trkpt lat="48.59834" lon="-2.55415">
        <ele>24</ele>
        <time>2012-01-22T14:21:11Z</time>
      </trkpt>
      <trkpt lat="48.59836" lon="-2.55413">
        <ele>25</ele>
        <time>2012-01-22T14:21:13Z</time>
      </trkpt>
      <trkpt lat="48.59837" lon="-2.55411">
        <ele>25</ele>
        <time>2012-01-22T14:21:15Z</time>
      </trkpt>
      <trkpt lat="48.59838" lon="-2.55409">
        <ele>25</ele>
        <time>2012-01-22T14:21:17Z</time>
      </trkpt>
      <trkpt lat="48.5984" lon="-2.55407">
        <ele>25</ele>
        <time>2012-01-22T14:21:19Z</time>
      </trkpt>
      <trkpt lat="48.59841" lon="-2.55405">
        <ele>25</ele>
        <time>2012-01-22T14:21:21Z</time>
      </trkpt>
      <trkpt lat="48.59842" lon="-2.55402">
        <ele>25</ele>
        <time>2012-01-22T14:21:23Z</time>
      </trkpt>
      <trkpt lat="48.59842" lon="-2.554">
        <ele>25</ele>
        <time>2012-01-22T14:21:24Z</time>
      </trkpt>
      <trkpt lat="48.59844" lon="-2.55399">
        <ele>26</ele>
        <time>2012-01-22T14:21:26Z</time>
      </trkpt>
      <trkpt lat="48.59845" lon="-2.55398">
        <ele>26</ele>
        <time>2012-01-22T14:21:27Z</time>
      </trkpt>
      <trkpt lat="48.59847" lon="-2.55396">
        <ele>27</ele>
        <time>2012-01-22T14:21:29Z</time>
      </trkpt>
      <trkpt lat="48.59849" lon="-2.55395">
        <ele>27</ele>
        <time>2012-01-22T14:21:31Z</time>
      </trkpt>
      <trkpt lat="48.5985" lon="-2.55393">
        <ele>27</ele>
        <time>2012-01-22T14:21:33Z</time>
      </trkpt>
      <trkpt lat="48.59853" lon="-2.55392">
        <ele>28</ele>
        <time>2012-01-22T14:21:35Z</time>
      </trkpt>
      <trkpt lat="48.59854" lon="-2.55392">
        <ele>28</ele>
        <time>2012-01-22T14:21:36Z</time>
      </trkpt>
      <trkpt lat="48.59855" lon="-2.55392">
        <ele>28</ele>
        <time>2012-01-22T14:21:37Z</time>
      </trkpt>
      <trkpt lat="48.59857" lon="-2.55392">
        <ele>29</ele>
        <time>2012-01-22T14:21:38Z</time>
      </trkpt>
      <trkpt lat="48.59858" lon="-2.55392">
        <ele>30</ele>
        <time>2012-01-22T14:21:39Z</time>
      </trkpt>
      <trkpt lat="48.5986" lon="-2.55391">
        <ele>30</ele>
        <time>2012-01-22T14:21:41Z</time>
      </trkpt>
      <trkpt lat="48.59862" lon="-2.55392">
        <ele>31</ele>
        <time>2012-01-22T14:21:43Z</time>
      </trkpt>
      <trkpt lat="48.59863" lon="-2.55391">
        <ele>31</ele>
        <time>2012-01-22T14:21:44Z</time>
      </trkpt>
      <trkpt lat="48.59864" lon="-2.55391">
        <ele>31</ele>
        <time>2012-01-22T14:21:45Z</time>
      </trkpt>
      <trkpt lat="48.59866" lon="-2.5539">
        <ele>31</ele>
        <time>2012-01-22T14:21:46Z</time>
      </trkpt>
      <trkpt lat="48.59867" lon="-2.5539">
        <ele>31</ele>
        <time>2012-01-22T14:21:47Z</time>
      </trkpt>
      <trkpt lat="48.59869" lon="-2.55389">
        <ele>31</ele>
        <time>2012-01-22T14:21:48Z</time>
      </trkpt>
      <trkpt lat="48.5987" lon="-2.55389">
        <ele>31</ele>
        <time>2012-01-22T14:21:49Z</time>
      </trkpt>
      <trkpt lat="48.59871" lon="-2.55388">
        <ele>31</ele>
        <time>2012-01-22T14:21:50Z</time>
      </trkpt>
      <trkpt lat="48.59872" lon="-2.55388">
        <ele>31</ele>
        <time>2012-01-22T14:21:51Z</time>
      </trkpt>
      <trkpt lat="48.59874" lon="-2.55387">
        <ele>31</ele>
        <time>2012-01-22T14:21:53Z</time>
      </trkpt>
      <trkpt lat="48.59875" lon="-2.55387">
        <ele>31</ele>
        <time>2012-01-22T14:21:54Z</time>
      </trkpt>
      <trkpt lat="48.59877" lon="-2.55387">
        <ele>31</ele>
        <time>2012-01-22T14:21:55Z</time>
      </trkpt>
      <trkpt lat="48.59878" lon="-2.55386">
        <ele>31</ele>
        <time>2012-01-22T14:21:56Z</time>
      </trkpt>
      <trkpt lat="48.5988" lon="-2.55386">
        <ele>31</ele>
        <time>2012-01-22T14:21:58Z</time>
      </trkpt>
      <trkpt lat="48.59882" lon="-2.55386">
        <ele>31</ele>
        <time>2012-01-22T14:22:00Z</time>
      </trkpt>
      <trkpt lat="48.59883" lon="-2.55385">
        <ele>31</ele>
        <time>2012-01-22T14:22:02Z</time>
      </trkpt>
      <trkpt lat="48.59885" lon="-2.55383">
        <ele>31</ele>
        <time>2012-01-22T14:22:04Z</time>
      </trkpt>
      <trkpt lat="48.59887" lon="-2.55383">
        <ele>31</ele>
        <time>2012-01-22T14:22:05Z</time>
      </trkpt>
      <trkpt lat="48.59889" lon="-2.55381">
        <ele>31</ele>
        <time>2012-01-22T14:22:07Z</time>
      </trkpt>
      <trkpt lat="48.59891" lon="-2.5538">
        <ele>31</ele>
        <time>2012-01-22T14:22:09Z</time>
      </trkpt>
      <trkpt lat="48.59893" lon="-2.55378">
        <ele>31</ele>
        <time>2012-01-22T14:22:11Z</time>
      </trkpt>
      <trkpt lat="48.59894" lon="-2.55377">
        <ele>31</ele>
        <time>2012-01-22T14:22:12Z</time>
      </trkpt>
      <trkpt lat="48.59895" lon="-2.55376">
        <ele>31</ele>
        <time>2012-01-22T14:22:13Z</time>
      </trkpt>
      <trkpt lat="48.59897" lon="-2.55374">
        <ele>31</ele>
        <time>2012-01-22T14:22:15Z</time>
      </trkpt>
      <trkpt lat="48.59899" lon="-2.55373">
        <ele>31</ele>
        <time>2012-01-22T14:22:17Z</time>
      </trkpt>
      <trkpt lat="48.59901" lon="-2.55372">
        <ele>31</ele>
        <time>2012-01-22T14:22:18Z</time>
      </trkpt>
      <trkpt lat="48.59902" lon="-2.5537">
        <ele>31</ele>
        <time>2012-01-22T14:22:20Z</time>
      </trkpt>
      <trkpt lat="48.59904" lon="-2.55368">
        <ele>31</ele>
        <time>2012-01-22T14:22:22Z</time>
      </trkpt>
      <trkpt lat="48.59906" lon="-2.55368">
        <ele>31</ele>
        <time>2012-01-22T14:22:23Z</time>
      </trkpt>
      <trkpt lat="48.59907" lon="-2.55367">
        <ele>31</ele>
        <time>2012-01-22T14:22:24Z</time>
      </trkpt>
      <trkpt lat="48.59908" lon="-2.55366">
        <ele>31</ele>
        <time>2012-01-22T14:22:25Z</time>
      </trkpt>
      <trkpt lat="48.59909" lon="-2.55364">
        <ele>31</ele>
        <time>2012-01-22T14:22:27Z</time>
      </trkpt>
      <trkpt lat="48.59911" lon="-2.55363">
        <ele>31</ele>
        <time>2012-01-22T14:22:29Z</time>
      </trkpt>
      <trkpt lat="48.59911" lon="-2.55361">
        <ele>31</ele>
        <time>2012-01-22T14:22:31Z</time>
      </trkpt>
      <trkpt lat="48.59912" lon="-2.55358">
        <ele>31</ele>
        <time>2012-01-22T14:22:33Z</time>
      </trkpt>
      <trkpt lat="48.59913" lon="-2.55355">
        <ele>31</ele>
        <time>2012-01-22T14:22:35Z</time>
      </trkpt>
      <trkpt lat="48.59912" lon="-2.55352">
        <ele>31</ele>
        <time>2012-01-22T14:22:37Z</time>
      </trkpt>
      <trkpt lat="48.59912" lon="-2.55351">
        <ele>31</ele>
        <time>2012-01-22T14:22:38Z</time>
      </trkpt>
      <trkpt lat="48.59912" lon="-2.55348">
        <ele>31</ele>
        <time>2012-01-22T14:22:40Z</time>
      </trkpt>
      <trkpt lat="48.59912" lon="-2.55345">
        <ele>31</ele>
        <time>2012-01-22T14:22:42Z</time>
      </trkpt>
      <trkpt lat="48.59912" lon="-2.55343">
        <ele>31</ele>
        <time>2012-01-22T14:22:44Z</time>
      </trkpt>
      <trkpt lat="48.59912" lon="-2.5534">
        <ele>31</ele>
        <time>2012-01-22T14:22:46Z</time>
      </trkpt>
      <trkpt lat="48.59912" lon="-2.55338">
        <ele>31</ele>
        <time>2012-01-22T14:22:48Z</time>
      </trkpt>
      <trkpt lat="48.59912" lon="-2.55335">
        <ele>31</ele>
        <time>2012-01-22T14:22:50Z</time>
      </trkpt>
      <trkpt lat="48.59912" lon="-2.55333">
        <ele>31</ele>
        <time>2012-01-22T14:22:52Z</time>
      </trkpt>
      <trkpt lat="48.59913" lon="-2.5533">
        <ele>31</ele>
        <time>2012-01-22T14:22:55Z</time>
      </trkpt>
      <trkpt lat="48.59914" lon="-2.55328">
        <ele>32</ele>
        <time>2012-01-22T14:22:57Z</time>
      </trkpt>
      <trkpt lat="48.59915" lon="-2.55326">
        <ele>32</ele>
        <time>2012-01-22T14:22:58Z</time>
      </trkpt>
      <trkpt lat="48.59915" lon="-2.55324">
        <ele>32</ele>
        <time>2012-01-22T14:23:00Z</time>
      </trkpt>
      <trkpt lat="48.59915" lon="-2.55322">
        <ele>32</ele>
        <time>2012-01-22T14:23:01Z</time>
      </trkpt>
      <trkpt lat="48.59916" lon="-2.5532">
        <ele>32</ele>
        <time>2012-01-22T14:23:02Z</time>
      </trkpt>
      <trkpt lat="48.59916" lon="-2.55318">
        <ele>32</ele>
        <time>2012-01-22T14:23:03Z</time>
      </trkpt>
      <trkpt lat="48.59917" lon="-2.55315">
        <ele>32</ele>
        <time>2012-01-22T14:23:05Z</time>
      </trkpt>
      <trkpt lat="48.59919" lon="-2.55313">
        <ele>32</ele>
        <time>2012-01-22T14:23:07Z</time>
      </trkpt>
      <trkpt lat="48.5992" lon="-2.55312">
        <ele>32</ele>
        <time>2012-01-22T14:23:09Z</time>
      </trkpt>
      <trkpt lat="48.59922" lon="-2.5531">
        <ele>32</ele>
        <time>2012-01-22T14:23:11Z</time>
      </trkpt>
      <trkpt lat="48.59922" lon="-2.55309">
        <ele>33</ele>
        <time>2012-01-22T14:23:13Z</time>
      </trkpt>
      <trkpt lat="48.59922" lon="-2.55306">
        <ele>33</ele>
        <time>2012-01-22T14:23:15Z</time>
      </trkpt>
      <trkpt lat="48.59923" lon="-2.55304">
        <ele>33</ele>
        <time>2012-01-22T14:23:17Z</time>
      </trkpt>
      <trkpt lat="48.59924" lon="-2.55303">
        <ele>33</ele>
        <time>2012-01-22T14:23:20Z</time>
      </trkpt>
      <trkpt lat="48.59924" lon="-2.55305">
        <ele>33</ele>
        <time>2012-01-22T14:23:30Z</time>
      </trkpt>
      <trkpt lat="48.59925" lon="-2.55306">
        <ele>33</ele>
        <time>2012-01-22T14:23:34Z</time>
      </trkpt>
      <trkpt lat="48.59925" lon="-2.55308">
        <ele>34</ele>
        <time>2012-01-22T14:23:46Z</time>
      </trkpt>
      <trkpt lat="48.59926" lon="-2.55308">
        <ele>36</ele>
        <time>2012-01-22T14:24:14Z</time>
      </trkpt>
      <trkpt lat="48.59925" lon="-2.55306">
        <ele>37</ele>
        <time>2012-01-22T14:24:24Z</time>
      </trkpt>
      <trkpt lat="48.59926" lon="-2.55307">
        <ele>37</ele>
        <time>2012-01-22T14:24:30Z</time>
      </trkpt>
      <trkpt lat="48.59924" lon="-2.55308">
        <ele>37</ele>
        <time>2012-01-22T14:24:55Z</time>
      </trkpt>
      <trkpt lat="48.59924" lon="-2.55307">
        <ele>37</ele>
        <time>2012-01-22T14:25:10Z</time>
      </trkpt>
      <trkpt lat="48.59922" lon="-2.55306">
        <ele>37</ele>
        <time>2012-01-22T14:25:13Z</time>
      </trkpt>
      <trkpt lat="48.59921" lon="-2.55305">
        <ele>37</ele>
        <time>2012-01-22T14:25:15Z</time>
      </trkpt>
      <trkpt lat="48.5992" lon="-2.55303">
        <ele>37</ele>
        <time>2012-01-22T14:25:17Z</time>
      </trkpt>
      <trkpt lat="48.59919" lon="-2.55301">
        <ele>37</ele>
        <time>2012-01-22T14:25:19Z</time>
      </trkpt>
      <trkpt lat="48.59917" lon="-2.55299">
        <ele>37</ele>
        <time>2012-01-22T14:25:21Z</time>
      </trkpt>
      <trkpt lat="48.59916" lon="-2.55298">
        <ele>37</ele>
        <time>2012-01-22T14:25:22Z</time>
      </trkpt>
      <trkpt lat="48.59914" lon="-2.55298">
        <ele>37</ele>
        <time>2012-01-22T14:25:23Z</time>
      </trkpt>
      <trkpt lat="48.59913" lon="-2.55297">
        <ele>37</ele>
        <time>2012-01-22T14:25:25Z</time>
      </trkpt>
      <trkpt lat="48.59911" lon="-2.55295">
        <ele>37</ele>
        <time>2012-01-22T14:25:27Z</time>
      </trkpt>
      <trkpt lat="48.5991" lon="-2.55294">
        <ele>37</ele>
        <time>2012-01-22T14:25:29Z</time>
      </trkpt>
      <trkpt lat="48.59908" lon="-2.55293">
        <ele>37</ele>
        <time>2012-01-22T14:25:31Z</time>
      </trkpt>
      <trkpt lat="48.59906" lon="-2.55291">
        <ele>37</ele>
        <time>2012-01-22T14:25:33Z</time>
      </trkpt>
      <trkpt lat="48.59904" lon="-2.55289">
        <ele>37</ele>
        <time>2012-01-22T14:25:35Z</time>
      </trkpt>
      <trkpt lat="48.59903" lon="-2.55289">
        <ele>37</ele>
        <time>2012-01-22T14:25:36Z</time>
      </trkpt>
      <trkpt lat="48.59902" lon="-2.55288">
        <ele>37</ele>
        <time>2012-01-22T14:25:37Z</time>
      </trkpt>
      <trkpt lat="48.599" lon="-2.55287">
        <ele>37</ele>
        <time>2012-01-22T14:25:39Z</time>
      </trkpt>
      <trkpt lat="48.59898" lon="-2.55286">
        <ele>37</ele>
        <time>2012-01-22T14:25:41Z</time>
      </trkpt>
      <trkpt lat="48.59897" lon="-2.55285">
        <ele>37</ele>
        <time>2012-01-22T14:25:42Z</time>
      </trkpt>
      <trkpt lat="48.59895" lon="-2.55282">
        <ele>37</ele>
        <time>2012-01-22T14:25:44Z</time>
      </trkpt>
      <trkpt lat="48.59893" lon="-2.5528">
        <ele>37</ele>
        <time>2012-01-22T14:25:46Z</time>
      </trkpt>
      <trkpt lat="48.59892" lon="-2.55277">
        <ele>37</ele>
        <time>2012-01-22T14:25:48Z</time>
      </trkpt>
      <trkpt lat="48.5989" lon="-2.55274">
        <ele>37</ele>
        <time>2012-01-22T14:25:50Z</time>
      </trkpt>
      <trkpt lat="48.5989" lon="-2.55272">
        <ele>37</ele>
        <time>2012-01-22T14:25:51Z</time>
      </trkpt>
      <trkpt lat="48.59889" lon="-2.5527">
        <ele>37</ele>
        <time>2012-01-22T14:25:52Z</time>
      </trkpt>
      <trkpt lat="48.59888" lon="-2.55268">
        <ele>37</ele>
        <time>2012-01-22T14:25:54Z</time>
      </trkpt>
      <trkpt lat="48.59888" lon="-2.55264">
        <ele>37</ele>
        <time>2012-01-22T14:25:56Z</time>
      </trkpt>
      <trkpt lat="48.59887" lon="-2.55262">
        <ele>37</ele>
        <time>2012-01-22T14:25:57Z</time>
      </trkpt>
      <trkpt lat="48.59886" lon="-2.5526">
        <ele>37</ele>
        <time>2012-01-22T14:25:58Z</time>
      </trkpt>
      <trkpt lat="48.59886" lon="-2.55258">
        <ele>37</ele>
        <time>2012-01-22T14:25:59Z</time>
      </trkpt>
      <trkpt lat="48.59884" lon="-2.55255">
        <ele>37</ele>
        <time>2012-01-22T14:26:01Z</time>
      </trkpt>
      <trkpt lat="48.59884" lon="-2.55254">
        <ele>37</ele>
        <time>2012-01-22T14:26:02Z</time>
      </trkpt>
      <trkpt lat="48.59883" lon="-2.55251">
        <ele>37</ele>
        <time>2012-01-22T14:26:04Z</time>
      </trkpt>
      <trkpt lat="48.59882" lon="-2.55248">
        <ele>36</ele>
        <time>2012-01-22T14:26:06Z</time>
      </trkpt>
      <trkpt lat="48.59882" lon="-2.55246">
        <ele>36</ele>
        <time>2012-01-22T14:26:07Z</time>
      </trkpt>
      <trkpt lat="48.59881" lon="-2.55244">
        <ele>35</ele>
        <time>2012-01-22T14:26:08Z</time>
      </trkpt>
      <trkpt lat="48.5988" lon="-2.55241">
        <ele>35</ele>
        <time>2012-01-22T14:26:10Z</time>
      </trkpt>
      <trkpt lat="48.5988" lon="-2.55239">
        <ele>35</ele>
        <time>2012-01-22T14:26:11Z</time>
      </trkpt>
      <trkpt lat="48.59879" lon="-2.55236">
        <ele>35</ele>
        <time>2012-01-22T14:26:13Z</time>
      </trkpt>
      <trkpt lat="48.59878" lon="-2.55234">
        <ele>35</ele>
        <time>2012-01-22T14:26:14Z</time>
      </trkpt>
      <trkpt lat="48.59878" lon="-2.55231">
        <ele>34</ele>
        <time>2012-01-22T14:26:15Z</time>
      </trkpt>
      <trkpt lat="48.59878" lon="-2.55229">
        <ele>34</ele>
        <time>2012-01-22T14:26:16Z</time>
      </trkpt>
      <trkpt lat="48.59877" lon="-2.55227">
        <ele>34</ele>
        <time>2012-01-22T14:26:17Z</time>
      </trkpt>
      <trkpt lat="48.59877" lon="-2.55225">
        <ele>33</ele>
        <time>2012-01-22T14:26:18Z</time>
      </trkpt>
      <trkpt lat="48.59876" lon="-2.55222">
        <ele>33</ele>
        <time>2012-01-22T14:26:20Z</time>
      </trkpt>
      <trkpt lat="48.59876" lon="-2.5522">
        <ele>33</ele>
        <time>2012-01-22T14:26:21Z</time>
      </trkpt>
      <trkpt lat="48.59875" lon="-2.55218">
        <ele>33</ele>
        <time>2012-01-22T14:26:22Z</time>
      </trkpt>
      <trkpt lat="48.59875" lon="-2.55217">
        <ele>33</ele>
        <time>2012-01-22T14:26:23Z</time>
      </trkpt>
      <trkpt lat="48.59875" lon="-2.55214">
        <ele>33</ele>
        <time>2012-01-22T14:26:24Z</time>
      </trkpt>
      <trkpt lat="48.59875" lon="-2.55213">
        <ele>33</ele>
        <time>2012-01-22T14:26:25Z</time>
      </trkpt>
      <trkpt lat="48.59875" lon="-2.55211">
        <ele>33</ele>
        <time>2012-01-22T14:26:26Z</time>
      </trkpt>
      <trkpt lat="48.59875" lon="-2.55209">
        <ele>33</ele>
        <time>2012-01-22T14:26:27Z</time>
      </trkpt>
      <trkpt lat="48.59874" lon="-2.55207">
        <ele>33</ele>
        <time>2012-01-22T14:26:28Z</time>
      </trkpt>
      <trkpt lat="48.59874" lon="-2.55205">
        <ele>33</ele>
        <time>2012-01-22T14:26:29Z</time>
      </trkpt>
      <trkpt lat="48.59875" lon="-2.55203">
        <ele>33</ele>
        <time>2012-01-22T14:26:30Z</time>
      </trkpt>
      <trkpt lat="48.59874" lon="-2.552">
        <ele>33</ele>
        <time>2012-01-22T14:26:32Z</time>
      </trkpt>
      <trkpt lat="48.59874" lon="-2.55199">
        <ele>33</ele>
        <time>2012-01-22T14:26:33Z</time>
      </trkpt>
      <trkpt lat="48.59874" lon="-2.55196">
        <ele>33</ele>
        <time>2012-01-22T14:26:34Z</time>
      </trkpt>
      <trkpt lat="48.59873" lon="-2.55194">
        <ele>33</ele>
        <time>2012-01-22T14:26:35Z</time>
      </trkpt>
      <trkpt lat="48.59872" lon="-2.55192">
        <ele>33</ele>
        <time>2012-01-22T14:26:36Z</time>
      </trkpt>
      <trkpt lat="48.59871" lon="-2.5519">
        <ele>33</ele>
        <time>2012-01-22T14:26:37Z</time>
      </trkpt>
      <trkpt lat="48.5987" lon="-2.55188">
        <ele>33</ele>
        <time>2012-01-22T14:26:38Z</time>
      </trkpt>
      <trkpt lat="48.5987" lon="-2.55186">
        <ele>33</ele>
        <time>2012-01-22T14:26:39Z</time>
      </trkpt>
      <trkpt lat="48.5987" lon="-2.55184">
        <ele>33</ele>
        <time>2012-01-22T14:26:40Z</time>
      </trkpt>
      <trkpt lat="48.59869" lon="-2.55182">
        <ele>33</ele>
        <time>2012-01-22T14:26:41Z</time>
      </trkpt>
      <trkpt lat="48.59869" lon="-2.55179">
        <ele>33</ele>
        <time>2012-01-22T14:26:43Z</time>
      </trkpt>
      <trkpt lat="48.59869" lon="-2.55177">
        <ele>32</ele>
        <time>2012-01-22T14:26:44Z</time>
      </trkpt>
      <trkpt lat="48.59869" lon="-2.55175">
        <ele>32</ele>
        <time>2012-01-22T14:26:45Z</time>
      </trkpt>
      <trkpt lat="48.59869" lon="-2.55173">
        <ele>32</ele>
        <time>2012-01-22T14:26:46Z</time>
      </trkpt>
      <trkpt lat="48.59869" lon="-2.55171">
        <ele>32</ele>
        <time>2012-01-22T14:26:47Z</time>
      </trkpt>
      <trkpt lat="48.59868" lon="-2.55169">
        <ele>32</ele>
        <time>2012-01-22T14:26:48Z</time>
      </trkpt>
      <trkpt lat="48.59868" lon="-2.55167">
        <ele>32</ele>
        <time>2012-01-22T14:26:49Z</time>
      </trkpt>
      <trkpt lat="48.59868" lon="-2.55164">
        <ele>31</ele>
        <time>2012-01-22T14:26:51Z</time>
      </trkpt>
      <trkpt lat="48.59868" lon="-2.55162">
        <ele>31</ele>
        <time>2012-01-22T14:26:52Z</time>
      </trkpt>
      <trkpt lat="48.59868" lon="-2.55161">
        <ele>31</ele>
        <time>2012-01-22T14:26:53Z</time>
      </trkpt>
      <trkpt lat="48.59868" lon="-2.55159">
        <ele>31</ele>
        <time>2012-01-22T14:26:54Z</time>
      </trkpt>
      <trkpt lat="48.59868" lon="-2.55157">
        <ele>30</ele>
        <time>2012-01-22T14:26:55Z</time>
      </trkpt>
      <trkpt lat="48.59868" lon="-2.55154">
        <ele>30</ele>
        <time>2012-01-22T14:26:57Z</time>
      </trkpt>
      <trkpt lat="48.59868" lon="-2.55152">
        <ele>29</ele>
        <time>2012-01-22T14:26:58Z</time>
      </trkpt>
      <trkpt lat="48.59868" lon="-2.5515">
        <ele>29</ele>
        <time>2012-01-22T14:26:59Z</time>
      </trkpt>
      <trkpt lat="48.59868" lon="-2.55148">
        <ele>29</ele>
        <time>2012-01-22T14:27:00Z</time>
      </trkpt>
      <trkpt lat="48.59868" lon="-2.55145">
        <ele>29</ele>
        <time>2012-01-22T14:27:01Z</time>
      </trkpt>
      <trkpt lat="48.59868" lon="-2.55143">
        <ele>29</ele>
        <time>2012-01-22T14:27:02Z</time>
      </trkpt>
      <trkpt lat="48.59868" lon="-2.55141">
        <ele>29</ele>
        <time>2012-01-22T14:27:03Z</time>
      </trkpt>
      <trkpt lat="48.59868" lon="-2.55139">
        <ele>29</ele>
        <time>2012-01-22T14:27:04Z</time>
      </trkpt>
      <trkpt lat="48.59868" lon="-2.55137">
        <ele>29</ele>
        <time>2012-01-22T14:27:05Z</time>
      </trkpt>
      <trkpt lat="48.59869" lon="-2.55135">
        <ele>29</ele>
        <time>2012-01-22T14:27:06Z</time>
      </trkpt>
      <trkpt lat="48.59869" lon="-2.55133">
        <ele>29</ele>
        <time>2012-01-22T14:27:07Z</time>
      </trkpt>
      <trkpt lat="48.5987" lon="-2.55131">
        <ele>29</ele>
        <time>2012-01-22T14:27:08Z</time>
      </trkpt>
      <trkpt lat="48.5987" lon="-2.55129">
        <ele>29</ele>
        <time>2012-01-22T14:27:09Z</time>
      </trkpt>
      <trkpt lat="48.5987" lon="-2.55127">
        <ele>29</ele>
        <time>2012-01-22T14:27:10Z</time>
      </trkpt>
      <trkpt lat="48.59871" lon="-2.55126">
        <ele>29</ele>
        <time>2012-01-22T14:27:11Z</time>
      </trkpt>
      <trkpt lat="48.59871" lon="-2.55124">
        <ele>29</ele>
        <time>2012-01-22T14:27:12Z</time>
      </trkpt>
      <trkpt lat="48.59872" lon="-2.55122">
        <ele>29</ele>
        <time>2012-01-22T14:27:13Z</time>
      </trkpt>
      <trkpt lat="48.59872" lon="-2.5512">
        <ele>29</ele>
        <time>2012-01-22T14:27:14Z</time>
      </trkpt>
      <trkpt lat="48.59873" lon="-2.55118">
        <ele>28</ele>
        <time>2012-01-22T14:27:15Z</time>
      </trkpt>
      <trkpt lat="48.59874" lon="-2.55116">
        <ele>28</ele>
        <time>2012-01-22T14:27:16Z</time>
      </trkpt>
      <trkpt lat="48.59874" lon="-2.55115">
        <ele>28</ele>
        <time>2012-01-22T14:27:17Z</time>
      </trkpt>
      <trkpt lat="48.59875" lon="-2.55111">
        <ele>28</ele>
        <time>2012-01-22T14:27:19Z</time>
      </trkpt>
      <trkpt lat="48.59875" lon="-2.55109">
        <ele>28</ele>
        <time>2012-01-22T14:27:20Z</time>
      </trkpt>
      <trkpt lat="48.59876" lon="-2.55107">
        <ele>28</ele>
        <time>2012-01-22T14:27:21Z</time>
      </trkpt>
      <trkpt lat="48.59877" lon="-2.55106">
        <ele>28</ele>
        <time>2012-01-22T14:27:22Z</time>
      </trkpt>
      <trkpt lat="48.59878" lon="-2.55103">
        <ele>28</ele>
        <time>2012-01-22T14:27:24Z</time>
      </trkpt>
      <trkpt lat="48.59879" lon="-2.55101">
        <ele>28</ele>
        <time>2012-01-22T14:27:25Z</time>
      </trkpt>
      <trkpt lat="48.59879" lon="-2.55099">
        <ele>28</ele>
        <time>2012-01-22T14:27:26Z</time>
      </trkpt>
      <trkpt lat="48.5988" lon="-2.55097">
        <ele>28</ele>
        <time>2012-01-22T14:27:28Z</time>
      </trkpt>
      <trkpt lat="48.5988" lon="-2.55093">
        <ele>28</ele>
        <time>2012-01-22T14:27:30Z</time>
      </trkpt>
      <trkpt lat="48.59878" lon="-2.5509">
        <ele>28</ele>
        <time>2012-01-22T14:27:32Z</time>
      </trkpt>
      <trkpt lat="48.59876" lon="-2.55088">
        <ele>28</ele>
        <time>2012-01-22T14:27:34Z</time>
      </trkpt>
      <trkpt lat="48.59875" lon="-2.55086">
        <ele>28</ele>
        <time>2012-01-22T14:27:35Z</time>
      </trkpt>
      <trkpt lat="48.59874" lon="-2.55085">
        <ele>28</ele>
        <time>2012-01-22T14:27:36Z</time>
      </trkpt>
      <trkpt lat="48.59873" lon="-2.55083">
        <ele>28</ele>
        <time>2012-01-22T14:27:37Z</time>
      </trkpt>
      <trkpt lat="48.59871" lon="-2.5508">
        <ele>28</ele>
        <time>2012-01-22T14:27:39Z</time>
      </trkpt>
      <trkpt lat="48.59869" lon="-2.55078">
        <ele>28</ele>
        <time>2012-01-22T14:27:41Z</time>
      </trkpt>
      <trkpt lat="48.59868" lon="-2.55076">
        <ele>28</ele>
        <time>2012-01-22T14:27:42Z</time>
      </trkpt>
      <trkpt lat="48.59866" lon="-2.55074">
        <ele>28</ele>
        <time>2012-01-22T14:27:44Z</time>
      </trkpt>
      <trkpt lat="48.59864" lon="-2.55071">
        <ele>28</ele>
        <time>2012-01-22T14:27:46Z</time>
      </trkpt>
      <trkpt lat="48.59862" lon="-2.55068">
        <ele>28</ele>
        <time>2012-01-22T14:27:48Z</time>
      </trkpt>
      <trkpt lat="48.59861" lon="-2.55066">
        <ele>28</ele>
        <time>2012-01-22T14:27:49Z</time>
      </trkpt>
      <trkpt lat="48.5986" lon="-2.55065">
        <ele>28</ele>
        <time>2012-01-22T14:27:50Z</time>
      </trkpt>
      <trkpt lat="48.59858" lon="-2.55062">
        <ele>28</ele>
        <time>2012-01-22T14:27:52Z</time>
      </trkpt>
      <trkpt lat="48.59858" lon="-2.5506">
        <ele>28</ele>
        <time>2012-01-22T14:27:53Z</time>
      </trkpt>
      <trkpt lat="48.59857" lon="-2.55058">
        <ele>28</ele>
        <time>2012-01-22T14:27:54Z</time>
      </trkpt>
      <trkpt lat="48.59856" lon="-2.55056">
        <ele>28</ele>
        <time>2012-01-22T14:27:55Z</time>
      </trkpt>
      <trkpt lat="48.59855" lon="-2.55054">
        <ele>28</ele>
        <time>2012-01-22T14:27:56Z</time>
      </trkpt>
      <trkpt lat="48.59854" lon="-2.55053">
        <ele>28</ele>
        <time>2012-01-22T14:27:57Z</time>
      </trkpt>
      <trkpt lat="48.59854" lon="-2.55051">
        <ele>28</ele>
        <time>2012-01-22T14:27:58Z</time>
      </trkpt>
      <trkpt lat="48.59853" lon="-2.55049">
        <ele>28</ele>
        <time>2012-01-22T14:27:59Z</time>
      </trkpt>
      <trkpt lat="48.59853" lon="-2.55047">
        <ele>28</ele>
        <time>2012-01-22T14:28:00Z</time>
      </trkpt>
      <trkpt lat="48.59853" lon="-2.55046">
        <ele>28</ele>
        <time>2012-01-22T14:28:01Z</time>
      </trkpt>
      <trkpt lat="48.59852" lon="-2.55044">
        <ele>28</ele>
        <time>2012-01-22T14:28:02Z</time>
      </trkpt>
      <trkpt lat="48.59852" lon="-2.55042">
        <ele>28</ele>
        <time>2012-01-22T14:28:03Z</time>
      </trkpt>
      <trkpt lat="48.59852" lon="-2.5504">
        <ele>28</ele>
        <time>2012-01-22T14:28:04Z</time>
      </trkpt>
      <trkpt lat="48.59852" lon="-2.55038">
        <ele>28</ele>
        <time>2012-01-22T14:28:05Z</time>
      </trkpt>
      <trkpt lat="48.59852" lon="-2.55035">
        <ele>28</ele>
        <time>2012-01-22T14:28:06Z</time>
      </trkpt>
      <trkpt lat="48.59852" lon="-2.55033">
        <ele>28</ele>
        <time>2012-01-22T14:28:07Z</time>
      </trkpt>
      <trkpt lat="48.59851" lon="-2.55031">
        <ele>28</ele>
        <time>2012-01-22T14:28:08Z</time>
      </trkpt>
      <trkpt lat="48.59852" lon="-2.55029">
        <ele>28</ele>
        <time>2012-01-22T14:28:09Z</time>
      </trkpt>
      <trkpt lat="48.59852" lon="-2.55027">
        <ele>28</ele>
        <time>2012-01-22T14:28:10Z</time>
      </trkpt>
      <trkpt lat="48.59852" lon="-2.55025">
        <ele>28</ele>
        <time>2012-01-22T14:28:11Z</time>
      </trkpt>
      <trkpt lat="48.59852" lon="-2.55023">
        <ele>28</ele>
        <time>2012-01-22T14:28:12Z</time>
      </trkpt>
      <trkpt lat="48.59852" lon="-2.55021">
        <ele>28</ele>
        <time>2012-01-22T14:28:13Z</time>
      </trkpt>
      <trkpt lat="48.59852" lon="-2.55019">
        <ele>27</ele>
        <time>2012-01-22T14:28:15Z</time>
      </trkpt>
      <trkpt lat="48.59852" lon="-2.55016">
        <ele>27</ele>
        <time>2012-01-22T14:28:17Z</time>
      </trkpt>
      <trkpt lat="48.59853" lon="-2.55013">
        <ele>26</ele>
        <time>2012-01-22T14:28:19Z</time>
      </trkpt>
      <trkpt lat="48.59853" lon="-2.55011">
        <ele>26</ele>
        <time>2012-01-22T14:28:21Z</time>
      </trkpt>
      <trkpt lat="48.59853" lon="-2.55009">
        <ele>26</ele>
        <time>2012-01-22T14:28:22Z</time>
      </trkpt>
      <trkpt lat="48.59853" lon="-2.55007">
        <ele>26</ele>
        <time>2012-01-22T14:28:23Z</time>
      </trkpt>
      <trkpt lat="48.59852" lon="-2.55005">
        <ele>26</ele>
        <time>2012-01-22T14:28:24Z</time>
      </trkpt>
      <trkpt lat="48.59852" lon="-2.55003">
        <ele>26</ele>
        <time>2012-01-22T14:28:25Z</time>
      </trkpt>
      <trkpt lat="48.59852" lon="-2.55001">
        <ele>26</ele>
        <time>2012-01-22T14:28:26Z</time>
      </trkpt>
      <trkpt lat="48.59852" lon="-2.54999">
        <ele>26</ele>
        <time>2012-01-22T14:28:27Z</time>
      </trkpt>
      <trkpt lat="48.59852" lon="-2.54998">
        <ele>26</ele>
        <time>2012-01-22T14:28:28Z</time>
      </trkpt>
      <trkpt lat="48.59851" lon="-2.54996">
        <ele>25</ele>
        <time>2012-01-22T14:28:29Z</time>
      </trkpt>
      <trkpt lat="48.59851" lon="-2.54994">
        <ele>25</ele>
        <time>2012-01-22T14:28:30Z</time>
      </trkpt>
      <trkpt lat="48.59849" lon="-2.54991">
        <ele>25</ele>
        <time>2012-01-22T14:28:32Z</time>
      </trkpt>
      <trkpt lat="48.59848" lon="-2.54988">
        <ele>25</ele>
        <time>2012-01-22T14:28:34Z</time>
      </trkpt>
      <trkpt lat="48.59845" lon="-2.54985">
        <ele>25</ele>
        <time>2012-01-22T14:28:36Z</time>
      </trkpt>
      <trkpt lat="48.59845" lon="-2.54984">
        <ele>25</ele>
        <time>2012-01-22T14:28:37Z</time>
      </trkpt>
      <trkpt lat="48.59843" lon="-2.54981">
        <ele>25</ele>
        <time>2012-01-22T14:28:39Z</time>
      </trkpt>
      <trkpt lat="48.59841" lon="-2.5498">
        <ele>25</ele>
        <time>2012-01-22T14:28:40Z</time>
      </trkpt>
      <trkpt lat="48.5984" lon="-2.5498">
        <ele>25</ele>
        <time>2012-01-22T14:28:41Z</time>
      </trkpt>
      <trkpt lat="48.59838" lon="-2.54978">
        <ele>25</ele>
        <time>2012-01-22T14:28:43Z</time>
      </trkpt>
      <trkpt lat="48.59836" lon="-2.54976">
        <ele>25</ele>
        <time>2012-01-22T14:28:45Z</time>
      </trkpt>
      <trkpt lat="48.59835" lon="-2.54973">
        <ele>25</ele>
        <time>2012-01-22T14:28:47Z</time>
      </trkpt>
      <trkpt lat="48.59833" lon="-2.54972">
        <ele>25</ele>
        <time>2012-01-22T14:28:49Z</time>
      </trkpt>
      <trkpt lat="48.59833" lon="-2.5497">
        <ele>25</ele>
        <time>2012-01-22T14:28:51Z</time>
      </trkpt>
      <trkpt lat="48.59832" lon="-2.54967">
        <ele>25</ele>
        <time>2012-01-22T14:28:56Z</time>
      </trkpt>
      <trkpt lat="48.59832" lon="-2.54965">
        <ele>25</ele>
        <time>2012-01-22T14:28:57Z</time>
      </trkpt>
      <trkpt lat="48.59831" lon="-2.54962">
        <ele>26</ele>
        <time>2012-01-22T14:28:58Z</time>
      </trkpt>
      <trkpt lat="48.5983" lon="-2.5496">
        <ele>26</ele>
        <time>2012-01-22T14:28:59Z</time>
      </trkpt>
      <trkpt lat="48.5983" lon="-2.54958">
        <ele>26</ele>
        <time>2012-01-22T14:29:00Z</time>
      </trkpt>
      <trkpt lat="48.59829" lon="-2.54956">
        <ele>26</ele>
        <time>2012-01-22T14:29:01Z</time>
      </trkpt>
      <trkpt lat="48.59828" lon="-2.54955">
        <ele>27</ele>
        <time>2012-01-22T14:29:02Z</time>
      </trkpt>
      <trkpt lat="48.59828" lon="-2.54953">
        <ele>27</ele>
        <time>2012-01-22T14:29:03Z</time>
      </trkpt>
      <trkpt lat="48.59827" lon="-2.54951">
        <ele>27</ele>
        <time>2012-01-22T14:29:04Z</time>
      </trkpt>
      <trkpt lat="48.59825" lon="-2.54948">
        <ele>27</ele>
        <time>2012-01-22T14:29:06Z</time>
      </trkpt>
      <trkpt lat="48.59824" lon="-2.54945">
        <ele>27</ele>
        <time>2012-01-22T14:29:08Z</time>
      </trkpt>
      <trkpt lat="48.59824" lon="-2.54943">
        <ele>27</ele>
        <time>2012-01-22T14:29:09Z</time>
      </trkpt>
      <trkpt lat="48.59823" lon="-2.54941">
        <ele>27</ele>
        <time>2012-01-22T14:29:10Z</time>
      </trkpt>
      <trkpt lat="48.59822" lon="-2.54939">
        <ele>28</ele>
        <time>2012-01-22T14:29:11Z</time>
      </trkpt>
      <trkpt lat="48.59821" lon="-2.54938">
        <ele>28</ele>
        <time>2012-01-22T14:29:12Z</time>
      </trkpt>
      <trkpt lat="48.59821" lon="-2.54936">
        <ele>28</ele>
        <time>2012-01-22T14:29:13Z</time>
      </trkpt>
      <trkpt lat="48.5982" lon="-2.54934">
        <ele>28</ele>
        <time>2012-01-22T14:29:14Z</time>
      </trkpt>
      <trkpt lat="48.59818" lon="-2.54932">
        <ele>28</ele>
        <time>2012-01-22T14:29:16Z</time>
      </trkpt>
      <trkpt lat="48.59817" lon="-2.54931">
        <ele>28</ele>
        <time>2012-01-22T14:29:17Z</time>
      </trkpt>
      <trkpt lat="48.59816" lon="-2.5493">
        <ele>28</ele>
        <time>2012-01-22T14:29:18Z</time>
      </trkpt>
      <trkpt lat="48.59814" lon="-2.54928">
        <ele>28</ele>
        <time>2012-01-22T14:29:20Z</time>
      </trkpt>
      <trkpt lat="48.59812" lon="-2.54925">
        <ele>28</ele>
        <time>2012-01-22T14:29:22Z</time>
      </trkpt>
      <trkpt lat="48.5981" lon="-2.54923">
        <ele>29</ele>
        <time>2012-01-22T14:29:24Z</time>
      </trkpt>
      <trkpt lat="48.59808" lon="-2.54919">
        <ele>29</ele>
        <time>2012-01-22T14:29:26Z</time>
      </trkpt>
      <trkpt lat="48.59808" lon="-2.54918">
        <ele>29</ele>
        <time>2012-01-22T14:29:27Z</time>
      </trkpt>
      <trkpt lat="48.59808" lon="-2.54916">
        <ele>30</ele>
        <time>2012-01-22T14:29:28Z</time>
      </trkpt>
      <trkpt lat="48.59807" lon="-2.54913">
        <ele>30</ele>
        <time>2012-01-22T14:29:30Z</time>
      </trkpt>
      <trkpt lat="48.59807" lon="-2.5491">
        <ele>30</ele>
        <time>2012-01-22T14:29:32Z</time>
      </trkpt>
      <trkpt lat="48.59808" lon="-2.54908">
        <ele>30</ele>
        <time>2012-01-22T14:29:33Z</time>
      </trkpt>
      <trkpt lat="48.59807" lon="-2.54907">
        <ele>30</ele>
        <time>2012-01-22T14:29:34Z</time>
      </trkpt>
      <trkpt lat="48.59807" lon="-2.54905">
        <ele>30</ele>
        <time>2012-01-22T14:29:35Z</time>
      </trkpt>
      <trkpt lat="48.59807" lon="-2.54903">
        <ele>30</ele>
        <time>2012-01-22T14:29:36Z</time>
      </trkpt>
      <trkpt lat="48.59807" lon="-2.54901">
        <ele>30</ele>
        <time>2012-01-22T14:29:37Z</time>
      </trkpt>
      <trkpt lat="48.59807" lon="-2.54899">
        <ele>30</ele>
        <time>2012-01-22T14:29:38Z</time>
      </trkpt>
      <trkpt lat="48.59807" lon="-2.54896">
        <ele>30</ele>
        <time>2012-01-22T14:29:40Z</time>
      </trkpt>
      <trkpt lat="48.59806" lon="-2.54894">
        <ele>30</ele>
        <time>2012-01-22T14:29:41Z</time>
      </trkpt>
      <trkpt lat="48.59806" lon="-2.54892">
        <ele>30</ele>
        <time>2012-01-22T14:29:42Z</time>
      </trkpt>
      <trkpt lat="48.59805" lon="-2.54889">
        <ele>30</ele>
        <time>2012-01-22T14:29:44Z</time>
      </trkpt>
      <trkpt lat="48.59805" lon="-2.54887">
        <ele>30</ele>
        <time>2012-01-22T14:29:46Z</time>
      </trkpt>
      <trkpt lat="48.59805" lon="-2.54885">
        <ele>30</ele>
        <time>2012-01-22T14:29:47Z</time>
      </trkpt>
      <trkpt lat="48.59804" lon="-2.54883">
        <ele>30</ele>
        <time>2012-01-22T14:29:48Z</time>
      </trkpt>
      <trkpt lat="48.59803" lon="-2.54882">
        <ele>30</ele>
        <time>2012-01-22T14:29:49Z</time>
      </trkpt>
      <trkpt lat="48.59802" lon="-2.5488">
        <ele>30</ele>
        <time>2012-01-22T14:29:51Z</time>
      </trkpt>
      <trkpt lat="48.598" lon="-2.54876">
        <ele>30</ele>
        <time>2012-01-22T14:29:52Z</time>
      </trkpt>
      <trkpt lat="48.59798" lon="-2.54874">
        <ele>30</ele>
        <time>2012-01-22T14:29:54Z</time>
      </trkpt>
      <trkpt lat="48.59796" lon="-2.54871">
        <ele>30</ele>
        <time>2012-01-22T14:29:56Z</time>
      </trkpt>
      <trkpt lat="48.59794" lon="-2.5487">
        <ele>30</ele>
        <time>2012-01-22T14:29:58Z</time>
      </trkpt>
      <trkpt lat="48.59793" lon="-2.54869">
        <ele>30</ele>
        <time>2012-01-22T14:29:59Z</time>
      </trkpt>
      <trkpt lat="48.59791" lon="-2.54867">
        <ele>30</ele>
        <time>2012-01-22T14:30:01Z</time>
      </trkpt>
      <trkpt lat="48.59789" lon="-2.54865">
        <ele>30</ele>
        <time>2012-01-22T14:30:03Z</time>
      </trkpt>
      <trkpt lat="48.59787" lon="-2.54865">
        <ele>30</ele>
        <time>2012-01-22T14:30:04Z</time>
      </trkpt>
      <trkpt lat="48.59786" lon="-2.54864">
        <ele>30</ele>
        <time>2012-01-22T14:30:05Z</time>
      </trkpt>
      <trkpt lat="48.59785" lon="-2.54864">
        <ele>30</ele>
        <time>2012-01-22T14:30:06Z</time>
      </trkpt>
      <trkpt lat="48.59783" lon="-2.54862">
        <ele>30</ele>
        <time>2012-01-22T14:30:08Z</time>
      </trkpt>
      <trkpt lat="48.59782" lon="-2.54862">
        <ele>30</ele>
        <time>2012-01-22T14:30:09Z</time>
      </trkpt>
      <trkpt lat="48.5978" lon="-2.5486">
        <ele>30</ele>
        <time>2012-01-22T14:30:11Z</time>
      </trkpt>
      <trkpt lat="48.59779" lon="-2.54858">
        <ele>30</ele>
        <time>2012-01-22T14:30:13Z</time>
      </trkpt>
      <trkpt lat="48.59777" lon="-2.54856">
        <ele>30</ele>
        <time>2012-01-22T14:30:15Z</time>
      </trkpt>
      <trkpt lat="48.59775" lon="-2.54854">
        <ele>30</ele>
        <time>2012-01-22T14:30:17Z</time>
      </trkpt>
      <trkpt lat="48.59773" lon="-2.54852">
        <ele>30</ele>
        <time>2012-01-22T14:30:19Z</time>
      </trkpt>
      <trkpt lat="48.59771" lon="-2.54849">
        <ele>30</ele>
        <time>2012-01-22T14:30:21Z</time>
      </trkpt>
      <trkpt lat="48.59769" lon="-2.54847">
        <ele>30</ele>
        <time>2012-01-22T14:30:23Z</time>
      </trkpt>
      <trkpt lat="48.59767" lon="-2.54844">
        <ele>30</ele>
        <time>2012-01-22T14:30:25Z</time>
      </trkpt>
      <trkpt lat="48.59765" lon="-2.54842">
        <ele>31</ele>
        <time>2012-01-22T14:30:27Z</time>
      </trkpt>
      <trkpt lat="48.59763" lon="-2.5484">
        <ele>31</ele>
        <time>2012-01-22T14:30:29Z</time>
      </trkpt>
      <trkpt lat="48.59762" lon="-2.5484">
        <ele>32</ele>
        <time>2012-01-22T14:30:30Z</time>
      </trkpt>
      <trkpt lat="48.59761" lon="-2.54839">
        <ele>32</ele>
        <time>2012-01-22T14:30:31Z</time>
      </trkpt>
      <trkpt lat="48.59759" lon="-2.54838">
        <ele>32</ele>
        <time>2012-01-22T14:30:33Z</time>
      </trkpt>
      <trkpt lat="48.59758" lon="-2.54837">
        <ele>33</ele>
        <time>2012-01-22T14:30:34Z</time>
      </trkpt>
      <trkpt lat="48.59755" lon="-2.54836">
        <ele>33</ele>
        <time>2012-01-22T14:30:36Z</time>
      </trkpt>
      <trkpt lat="48.59754" lon="-2.54834">
        <ele>33</ele>
        <time>2012-01-22T14:30:38Z</time>
      </trkpt>
      <trkpt lat="48.59752" lon="-2.54831">
        <ele>34</ele>
        <time>2012-01-22T14:30:40Z</time>
      </trkpt>
      <trkpt lat="48.59752" lon="-2.54829">
        <ele>34</ele>
        <time>2012-01-22T14:30:41Z</time>
      </trkpt>
      <trkpt lat="48.59752" lon="-2.54827">
        <ele>34</ele>
        <time>2012-01-22T14:30:43Z</time>
      </trkpt>
      <trkpt lat="48.59751" lon="-2.54824">
        <ele>34</ele>
        <time>2012-01-22T14:30:45Z</time>
      </trkpt>
      <trkpt lat="48.59749" lon="-2.54821">
        <ele>34</ele>
        <time>2012-01-22T14:30:47Z</time>
      </trkpt>
      <trkpt lat="48.59747" lon="-2.5482">
        <ele>34</ele>
        <time>2012-01-22T14:30:49Z</time>
      </trkpt>
      <trkpt lat="48.59746" lon="-2.54819">
        <ele>34</ele>
        <time>2012-01-22T14:30:50Z</time>
      </trkpt>
      <trkpt lat="48.59745" lon="-2.54818">
        <ele>34</ele>
        <time>2012-01-22T14:30:51Z</time>
      </trkpt>
      <trkpt lat="48.59743" lon="-2.54816">
        <ele>34</ele>
        <time>2012-01-22T14:30:53Z</time>
      </trkpt>
      <trkpt lat="48.59741" lon="-2.54813">
        <ele>34</ele>
        <time>2012-01-22T14:30:55Z</time>
      </trkpt>
      <trkpt lat="48.5974" lon="-2.54811">
        <ele>34</ele>
        <time>2012-01-22T14:30:56Z</time>
      </trkpt>
      <trkpt lat="48.5974" lon="-2.54809">
        <ele>35</ele>
        <time>2012-01-22T14:30:57Z</time>
      </trkpt>
      <trkpt lat="48.59739" lon="-2.54807">
        <ele>35</ele>
        <time>2012-01-22T14:30:58Z</time>
      </trkpt>
      <trkpt lat="48.59739" lon="-2.54806">
        <ele>35</ele>
        <time>2012-01-22T14:30:59Z</time>
      </trkpt>
      <trkpt lat="48.59737" lon="-2.54802">
        <ele>35</ele>
        <time>2012-01-22T14:31:01Z</time>
      </trkpt>
      <trkpt lat="48.59736" lon="-2.54801">
        <ele>36</ele>
        <time>2012-01-22T14:31:02Z</time>
      </trkpt>
      <trkpt lat="48.59735" lon="-2.54799">
        <ele>36</ele>
        <time>2012-01-22T14:31:03Z</time>
      </trkpt>
      <trkpt lat="48.59735" lon="-2.54797">
        <ele>36</ele>
        <time>2012-01-22T14:31:04Z</time>
      </trkpt>
      <trkpt lat="48.59734" lon="-2.54795">
        <ele>36</ele>
        <time>2012-01-22T14:31:05Z</time>
      </trkpt>
      <trkpt lat="48.59733" lon="-2.54792">
        <ele>37</ele>
        <time>2012-01-22T14:31:07Z</time>
      </trkpt>
      <trkpt lat="48.59732" lon="-2.5479">
        <ele>37</ele>
        <time>2012-01-22T14:31:09Z</time>
      </trkpt>
      <trkpt lat="48.59732" lon="-2.54788">
        <ele>38</ele>
        <time>2012-01-22T14:31:11Z</time>
      </trkpt>
      <trkpt lat="48.59731" lon="-2.54786">
        <ele>38</ele>
        <time>2012-01-22T14:31:16Z</time>
      </trkpt>
      <trkpt lat="48.5973" lon="-2.54784">
        <ele>38</ele>
        <time>2012-01-22T14:31:19Z</time>
      </trkpt>
      <trkpt lat="48.59729" lon="-2.54784">
        <ele>38</ele>
        <time>2012-01-22T14:31:26Z</time>
      </trkpt>
      <trkpt lat="48.59728" lon="-2.54784">
        <ele>38</ele>
        <time>2012-01-22T14:31:29Z</time>
      </trkpt>
      <trkpt lat="48.59727" lon="-2.54783">
        <ele>38</ele>
        <time>2012-01-22T14:31:34Z</time>
      </trkpt>
      <trkpt lat="48.59726" lon="-2.54782">
        <ele>38</ele>
        <time>2012-01-22T14:32:06Z</time>
      </trkpt>
      <trkpt lat="48.59726" lon="-2.5478">
        <ele>38</ele>
        <time>2012-01-22T14:32:16Z</time>
      </trkpt>
      <trkpt lat="48.59726" lon="-2.54778">
        <ele>38</ele>
        <time>2012-01-22T14:32:18Z</time>
      </trkpt>
      <trkpt lat="48.59725" lon="-2.54776">
        <ele>38</ele>
        <time>2012-01-22T14:32:20Z</time>
      </trkpt>
      <trkpt lat="48.59724" lon="-2.54774">
        <ele>38</ele>
        <time>2012-01-22T14:32:22Z</time>
      </trkpt>
      <trkpt lat="48.59723" lon="-2.54772">
        <ele>38</ele>
        <time>2012-01-22T14:32:24Z</time>
      </trkpt>
      <trkpt lat="48.59723" lon="-2.5477">
        <ele>38</ele>
        <time>2012-01-22T14:32:26Z</time>
      </trkpt>
      <trkpt lat="48.59723" lon="-2.54767">
        <ele>38</ele>
        <time>2012-01-22T14:32:28Z</time>
      </trkpt>
      <trkpt lat="48.59723" lon="-2.54765">
        <ele>38</ele>
        <time>2012-01-22T14:32:29Z</time>
      </trkpt>
      <trkpt lat="48.59724" lon="-2.54763">
        <ele>38</ele>
        <time>2012-01-22T14:32:30Z</time>
      </trkpt>
      <trkpt lat="48.59723" lon="-2.54761">
        <ele>38</ele>
        <time>2012-01-22T14:32:31Z</time>
      </trkpt>
      <trkpt lat="48.59723" lon="-2.54759">
        <ele>38</ele>
        <time>2012-01-22T14:32:32Z</time>
      </trkpt>
      <trkpt lat="48.59724" lon="-2.54757">
        <ele>38</ele>
        <time>2012-01-22T14:32:33Z</time>
      </trkpt>
      <trkpt lat="48.59724" lon="-2.54755">
        <ele>38</ele>
        <time>2012-01-22T14:32:34Z</time>
      </trkpt>
      <trkpt lat="48.59724" lon="-2.54753">
        <ele>38</ele>
        <time>2012-01-22T14:32:35Z</time>
      </trkpt>
      <trkpt lat="48.59724" lon="-2.54751">
        <ele>38</ele>
        <time>2012-01-22T14:32:36Z</time>
      </trkpt>
      <trkpt lat="48.59725" lon="-2.54749">
        <ele>38</ele>
        <time>2012-01-22T14:32:37Z</time>
      </trkpt>
      <trkpt lat="48.59725" lon="-2.54748">
        <ele>38</ele>
        <time>2012-01-22T14:32:38Z</time>
      </trkpt>
      <trkpt lat="48.59726" lon="-2.54744">
        <ele>38</ele>
        <time>2012-01-22T14:32:40Z</time>
      </trkpt>
      <trkpt lat="48.59726" lon="-2.54742">
        <ele>38</ele>
        <time>2012-01-22T14:32:41Z</time>
      </trkpt>
      <trkpt lat="48.59726" lon="-2.5474">
        <ele>38</ele>
        <time>2012-01-22T14:32:42Z</time>
      </trkpt>
      <trkpt lat="48.59727" lon="-2.54738">
        <ele>38</ele>
        <time>2012-01-22T14:32:43Z</time>
      </trkpt>
      <trkpt lat="48.59727" lon="-2.54737">
        <ele>38</ele>
        <time>2012-01-22T14:32:44Z</time>
      </trkpt>
      <trkpt lat="48.59727" lon="-2.54735">
        <ele>38</ele>
        <time>2012-01-22T14:32:45Z</time>
      </trkpt>
      <trkpt lat="48.59728" lon="-2.54733">
        <ele>38</ele>
        <time>2012-01-22T14:32:46Z</time>
      </trkpt>
      <trkpt lat="48.59729" lon="-2.54731">
        <ele>38</ele>
        <time>2012-01-22T14:32:47Z</time>
      </trkpt>
      <trkpt lat="48.59729" lon="-2.54729">
        <ele>38</ele>
        <time>2012-01-22T14:32:48Z</time>
      </trkpt>
      <trkpt lat="48.5973" lon="-2.54727">
        <ele>38</ele>
        <time>2012-01-22T14:32:49Z</time>
      </trkpt>
      <trkpt lat="48.59731" lon="-2.54725">
        <ele>38</ele>
        <time>2012-01-22T14:32:50Z</time>
      </trkpt>
      <trkpt lat="48.59731" lon="-2.54723">
        <ele>38</ele>
        <time>2012-01-22T14:32:51Z</time>
      </trkpt>
      <trkpt lat="48.59732" lon="-2.54721">
        <ele>38</ele>
        <time>2012-01-22T14:32:52Z</time>
      </trkpt>
      <trkpt lat="48.59733" lon="-2.54719">
        <ele>38</ele>
        <time>2012-01-22T14:32:53Z</time>
      </trkpt>
      <trkpt lat="48.59733" lon="-2.54717">
        <ele>38</ele>
        <time>2012-01-22T14:32:54Z</time>
      </trkpt>
      <trkpt lat="48.59733" lon="-2.54715">
        <ele>38</ele>
        <time>2012-01-22T14:32:55Z</time>
      </trkpt>
      <trkpt lat="48.59733" lon="-2.54714">
        <ele>38</ele>
        <time>2012-01-22T14:32:56Z</time>
      </trkpt>
      <trkpt lat="48.59734" lon="-2.54712">
        <ele>38</ele>
        <time>2012-01-22T14:32:57Z</time>
      </trkpt>
      <trkpt lat="48.59734" lon="-2.5471">
        <ele>38</ele>
        <time>2012-01-22T14:32:58Z</time>
      </trkpt>
      <trkpt lat="48.59734" lon="-2.54707">
        <ele>38</ele>
        <time>2012-01-22T14:33:00Z</time>
      </trkpt>
      <trkpt lat="48.59734" lon="-2.54705">
        <ele>38</ele>
        <time>2012-01-22T14:33:01Z</time>
      </trkpt>
      <trkpt lat="48.59735" lon="-2.54702">
        <ele>38</ele>
        <time>2012-01-22T14:33:03Z</time>
      </trkpt>
      <trkpt lat="48.59736" lon="-2.547">
        <ele>38</ele>
        <time>2012-01-22T14:33:04Z</time>
      </trkpt>
      <trkpt lat="48.59736" lon="-2.54699">
        <ele>38</ele>
        <time>2012-01-22T14:33:05Z</time>
      </trkpt>
      <trkpt lat="48.59736" lon="-2.54697">
        <ele>38</ele>
        <time>2012-01-22T14:33:06Z</time>
      </trkpt>
      <trkpt lat="48.59737" lon="-2.54695">
        <ele>38</ele>
        <time>2012-01-22T14:33:07Z</time>
      </trkpt>
      <trkpt lat="48.59738" lon="-2.54694">
        <ele>38</ele>
        <time>2012-01-22T14:33:08Z</time>
      </trkpt>
      <trkpt lat="48.59738" lon="-2.54691">
        <ele>38</ele>
        <time>2012-01-22T14:33:10Z</time>
      </trkpt>
      <trkpt lat="48.59738" lon="-2.54689">
        <ele>38</ele>
        <time>2012-01-22T14:33:11Z</time>
      </trkpt>
      <trkpt lat="48.59738" lon="-2.54687">
        <ele>38</ele>
        <time>2012-01-22T14:33:12Z</time>
      </trkpt>
      <trkpt lat="48.59739" lon="-2.54685">
        <ele>38</ele>
        <time>2012-01-22T14:33:13Z</time>
      </trkpt>
      <trkpt lat="48.59739" lon="-2.54683">
        <ele>38</ele>
        <time>2012-01-22T14:33:14Z</time>
      </trkpt>
      <trkpt lat="48.5974" lon="-2.5468">
        <ele>38</ele>
        <time>2012-01-22T14:33:16Z</time>
      </trkpt>
      <trkpt lat="48.59741" lon="-2.54678">
        <ele>38</ele>
        <time>2012-01-22T14:33:17Z</time>
      </trkpt>
      <trkpt lat="48.59742" lon="-2.54675">
        <ele>38</ele>
        <time>2012-01-22T14:33:19Z</time>
      </trkpt>
      <trkpt lat="48.59742" lon="-2.54674">
        <ele>38</ele>
        <time>2012-01-22T14:33:20Z</time>
      </trkpt>
      <trkpt lat="48.59742" lon="-2.54672">
        <ele>38</ele>
        <time>2012-01-22T14:33:21Z</time>
      </trkpt>
      <trkpt lat="48.59743" lon="-2.5467">
        <ele>38</ele>
        <time>2012-01-22T14:33:22Z</time>
      </trkpt>
      <trkpt lat="48.59743" lon="-2.54668">
        <ele>38</ele>
        <time>2012-01-22T14:33:23Z</time>
      </trkpt>
      <trkpt lat="48.59743" lon="-2.54666">
        <ele>38</ele>
        <time>2012-01-22T14:33:24Z</time>
      </trkpt>
      <trkpt lat="48.59743" lon="-2.54664">
        <ele>38</ele>
        <time>2012-01-22T14:33:25Z</time>
      </trkpt>
      <trkpt lat="48.59743" lon="-2.54661">
        <ele>38</ele>
        <time>2012-01-22T14:33:27Z</time>
      </trkpt>
      <trkpt lat="48.59743" lon="-2.54659">
        <ele>38</ele>
        <time>2012-01-22T14:33:29Z</time>
      </trkpt>
      <trkpt lat="48.59743" lon="-2.54657">
        <ele>38</ele>
        <time>2012-01-22T14:33:30Z</time>
      </trkpt>
      <trkpt lat="48.59743" lon="-2.54654">
        <ele>38</ele>
        <time>2012-01-22T14:33:32Z</time>
      </trkpt>
      <trkpt lat="48.59743" lon="-2.54652">
        <ele>38</ele>
        <time>2012-01-22T14:33:33Z</time>
      </trkpt>
      <trkpt lat="48.59743" lon="-2.5465">
        <ele>38</ele>
        <time>2012-01-22T14:33:34Z</time>
      </trkpt>
      <trkpt lat="48.59743" lon="-2.54647">
        <ele>38</ele>
        <time>2012-01-22T14:33:36Z</time>
      </trkpt>
      <trkpt lat="48.59743" lon="-2.54645">
        <ele>38</ele>
        <time>2012-01-22T14:33:37Z</time>
      </trkpt>
      <trkpt lat="48.59743" lon="-2.54644">
        <ele>38</ele>
        <time>2012-01-22T14:33:38Z</time>
      </trkpt>
      <trkpt lat="48.59743" lon="-2.54641">
        <ele>38</ele>
        <time>2012-01-22T14:33:40Z</time>
      </trkpt>
      <trkpt lat="48.59743" lon="-2.54638">
        <ele>38</ele>
        <time>2012-01-22T14:33:42Z</time>
      </trkpt>
      <trkpt lat="48.59742" lon="-2.54635">
        <ele>38</ele>
        <time>2012-01-22T14:33:44Z</time>
      </trkpt>
      <trkpt lat="48.59742" lon="-2.54632">
        <ele>38</ele>
        <time>2012-01-22T14:33:46Z</time>
      </trkpt>
      <trkpt lat="48.59742" lon="-2.54629">
        <ele>39</ele>
        <time>2012-01-22T14:33:48Z</time>
      </trkpt>
      <trkpt lat="48.59742" lon="-2.54627">
        <ele>39</ele>
        <time>2012-01-22T14:33:49Z</time>
      </trkpt>
      <trkpt lat="48.59742" lon="-2.54624">
        <ele>39</ele>
        <time>2012-01-22T14:33:51Z</time>
      </trkpt>
      <trkpt lat="48.59742" lon="-2.54623">
        <ele>40</ele>
        <time>2012-01-22T14:33:52Z</time>
      </trkpt>
      <trkpt lat="48.59742" lon="-2.5462">
        <ele>40</ele>
        <time>2012-01-22T14:33:54Z</time>
      </trkpt>
      <trkpt lat="48.59742" lon="-2.54617">
        <ele>40</ele>
        <time>2012-01-22T14:33:56Z</time>
      </trkpt>
      <trkpt lat="48.59742" lon="-2.54615">
        <ele>40</ele>
        <time>2012-01-22T14:33:57Z</time>
      </trkpt>
      <trkpt lat="48.59742" lon="-2.54614">
        <ele>40</ele>
        <time>2012-01-22T14:33:58Z</time>
      </trkpt>
      <trkpt lat="48.59742" lon="-2.54612">
        <ele>40</ele>
        <time>2012-01-22T14:33:59Z</time>
      </trkpt>
      <trkpt lat="48.59742" lon="-2.5461">
        <ele>40</ele>
        <time>2012-01-22T14:34:00Z</time>
      </trkpt>
      <trkpt lat="48.59742" lon="-2.54607">
        <ele>41</ele>
        <time>2012-01-22T14:34:02Z</time>
      </trkpt>
      <trkpt lat="48.59741" lon="-2.54605">
        <ele>41</ele>
        <time>2012-01-22T14:34:04Z</time>
      </trkpt>
      <trkpt lat="48.59741" lon="-2.54602">
        <ele>42</ele>
        <time>2012-01-22T14:34:06Z</time>
      </trkpt>
      <trkpt lat="48.5974" lon="-2.54598">
        <ele>43</ele>
        <time>2012-01-22T14:34:08Z</time>
      </trkpt>
      <trkpt lat="48.5974" lon="-2.54597">
        <ele>43</ele>
        <time>2012-01-22T14:34:09Z</time>
      </trkpt>
      <trkpt lat="48.5974" lon="-2.54595">
        <ele>43</ele>
        <time>2012-01-22T14:34:10Z</time>
      </trkpt>
      <trkpt lat="48.5974" lon="-2.54593">
        <ele>43</ele>
        <time>2012-01-22T14:34:11Z</time>
      </trkpt>
      <trkpt lat="48.5974" lon="-2.54591">
        <ele>44</ele>
        <time>2012-01-22T14:34:13Z</time>
      </trkpt>
      <trkpt lat="48.5974" lon="-2.54589">
        <ele>44</ele>
        <time>2012-01-22T14:34:14Z</time>
      </trkpt>
      <trkpt lat="48.5974" lon="-2.54586">
        <ele>44</ele>
        <time>2012-01-22T14:34:16Z</time>
      </trkpt>
      <trkpt lat="48.59739" lon="-2.54583">
        <ele>44</ele>
        <time>2012-01-22T14:34:18Z</time>
      </trkpt>
      <trkpt lat="48.59737" lon="-2.5458">
        <ele>45</ele>
        <time>2012-01-22T14:34:20Z</time>
      </trkpt>
      <trkpt lat="48.59737" lon="-2.54577">
        <ele>45</ele>
        <time>2012-01-22T14:34:22Z</time>
      </trkpt>
      <trkpt lat="48.59737" lon="-2.54574">
        <ele>45</ele>
        <time>2012-01-22T14:34:24Z</time>
      </trkpt>
      <trkpt lat="48.59736" lon="-2.54572">
        <ele>45</ele>
        <time>2012-01-22T14:34:25Z</time>
      </trkpt>
      <trkpt lat="48.59736" lon="-2.54569">
        <ele>45</ele>
        <time>2012-01-22T14:34:27Z</time>
      </trkpt>
      <trkpt lat="48.59736" lon="-2.54567">
        <ele>45</ele>
        <time>2012-01-22T14:34:28Z</time>
      </trkpt>
      <trkpt lat="48.59736" lon="-2.54564">
        <ele>45</ele>
        <time>2012-01-22T14:34:30Z</time>
      </trkpt>
      <trkpt lat="48.59735" lon="-2.54562">
        <ele>45</ele>
        <time>2012-01-22T14:34:31Z</time>
      </trkpt>
      <trkpt lat="48.59735" lon="-2.5456">
        <ele>46</ele>
        <time>2012-01-22T14:34:33Z</time>
      </trkpt>
      <trkpt lat="48.59735" lon="-2.54557">
        <ele>46</ele>
        <time>2012-01-22T14:34:35Z</time>
      </trkpt>
      <trkpt lat="48.59735" lon="-2.54555">
        <ele>46</ele>
        <time>2012-01-22T14:34:36Z</time>
      </trkpt>
      <trkpt lat="48.59735" lon="-2.54553">
        <ele>46</ele>
        <time>2012-01-22T14:34:37Z</time>
      </trkpt>
      <trkpt lat="48.59735" lon="-2.54551">
        <ele>47</ele>
        <time>2012-01-22T14:34:39Z</time>
      </trkpt>
      <trkpt lat="48.59735" lon="-2.54548">
        <ele>48</ele>
        <time>2012-01-22T14:34:41Z</time>
      </trkpt>
      <trkpt lat="48.59734" lon="-2.54546">
        <ele>49</ele>
        <time>2012-01-22T14:34:43Z</time>
      </trkpt>
      <trkpt lat="48.59734" lon="-2.54543">
        <ele>49</ele>
        <time>2012-01-22T14:34:45Z</time>
      </trkpt>
      <trkpt lat="48.59733" lon="-2.5454">
        <ele>49</ele>
        <time>2012-01-22T14:34:47Z</time>
      </trkpt>
      <trkpt lat="48.59734" lon="-2.54538">
        <ele>50</ele>
        <time>2012-01-22T14:34:49Z</time>
      </trkpt>
      <trkpt lat="48.59734" lon="-2.54535">
        <ele>50</ele>
        <time>2012-01-22T14:34:51Z</time>
      </trkpt>
      <trkpt lat="48.59734" lon="-2.54532">
        <ele>51</ele>
        <time>2012-01-22T14:34:53Z</time>
      </trkpt>
      <trkpt lat="48.59733" lon="-2.54529">
        <ele>51</ele>
        <time>2012-01-22T14:34:55Z</time>
      </trkpt>
      <trkpt lat="48.59733" lon="-2.54526">
        <ele>51</ele>
        <time>2012-01-22T14:34:57Z</time>
      </trkpt>
      <trkpt lat="48.59732" lon="-2.54523">
        <ele>52</ele>
        <time>2012-01-22T14:34:59Z</time>
      </trkpt>
      <trkpt lat="48.59732" lon="-2.5452">
        <ele>52</ele>
        <time>2012-01-22T14:35:01Z</time>
      </trkpt>
      <trkpt lat="48.59731" lon="-2.54518">
        <ele>52</ele>
        <time>2012-01-22T14:35:02Z</time>
      </trkpt>
      <trkpt lat="48.59731" lon="-2.54517">
        <ele>52</ele>
        <time>2012-01-22T14:35:03Z</time>
      </trkpt>
      <trkpt lat="48.59731" lon="-2.54515">
        <ele>52</ele>
        <time>2012-01-22T14:35:04Z</time>
      </trkpt>
      <trkpt lat="48.59731" lon="-2.54512">
        <ele>53</ele>
        <time>2012-01-22T14:35:06Z</time>
      </trkpt>
      <trkpt lat="48.5973" lon="-2.54509">
        <ele>53</ele>
        <time>2012-01-22T14:35:08Z</time>
      </trkpt>
      <trkpt lat="48.5973" lon="-2.54506">
        <ele>53</ele>
        <time>2012-01-22T14:35:10Z</time>
      </trkpt>
      <trkpt lat="48.5973" lon="-2.54504">
        <ele>53</ele>
        <time>2012-01-22T14:35:11Z</time>
      </trkpt>
      <trkpt lat="48.5973" lon="-2.54503">
        <ele>53</ele>
        <time>2012-01-22T14:35:13Z</time>
      </trkpt>
      <trkpt lat="48.5973" lon="-2.54501">
        <ele>54</ele>
        <time>2012-01-22T14:35:14Z</time>
      </trkpt>
      <trkpt lat="48.5973" lon="-2.54498">
        <ele>54</ele>
        <time>2012-01-22T14:35:16Z</time>
      </trkpt>
      <trkpt lat="48.5973" lon="-2.54497">
        <ele>54</ele>
        <time>2012-01-22T14:35:17Z</time>
      </trkpt>
      <trkpt lat="48.5973" lon="-2.54494">
        <ele>55</ele>
        <time>2012-01-22T14:35:19Z</time>
      </trkpt>
      <trkpt lat="48.5973" lon="-2.54491">
        <ele>55</ele>
        <time>2012-01-22T14:35:21Z</time>
      </trkpt>
      <trkpt lat="48.59731" lon="-2.54489">
        <ele>56</ele>
        <time>2012-01-22T14:35:23Z</time>
      </trkpt>
      <trkpt lat="48.59731" lon="-2.54486">
        <ele>56</ele>
        <time>2012-01-22T14:35:25Z</time>
      </trkpt>
      <trkpt lat="48.5973" lon="-2.54484">
        <ele>56</ele>
        <time>2012-01-22T14:35:27Z</time>
      </trkpt>
      <trkpt lat="48.59729" lon="-2.54482">
        <ele>56</ele>
        <time>2012-01-22T14:35:29Z</time>
      </trkpt>
      <trkpt lat="48.59729" lon="-2.5448">
        <ele>57</ele>
        <time>2012-01-22T14:35:31Z</time>
      </trkpt>
      <trkpt lat="48.59729" lon="-2.54478">
        <ele>57</ele>
        <time>2012-01-22T14:35:33Z</time>
      </trkpt>
      <trkpt lat="48.59729" lon="-2.54476">
        <ele>58</ele>
        <time>2012-01-22T14:35:35Z</time>
      </trkpt>
      <trkpt lat="48.59729" lon="-2.54474">
        <ele>58</ele>
        <time>2012-01-22T14:35:37Z</time>
      </trkpt>
      <trkpt lat="48.59728" lon="-2.54472">
        <ele>59</ele>
        <time>2012-01-22T14:35:39Z</time>
      </trkpt>
      <trkpt lat="48.59727" lon="-2.5447">
        <ele>59</ele>
        <time>2012-01-22T14:35:41Z</time>
      </trkpt>
      <trkpt lat="48.59726" lon="-2.54467">
        <ele>59</ele>
        <time>2012-01-22T14:35:43Z</time>
      </trkpt>
      <trkpt lat="48.59726" lon="-2.54464">
        <ele>60</ele>
        <time>2012-01-22T14:35:45Z</time>
      </trkpt>
      <trkpt lat="48.59724" lon="-2.54461">
        <ele>60</ele>
        <time>2012-01-22T14:35:47Z</time>
      </trkpt>
      <trkpt lat="48.59723" lon="-2.54458">
        <ele>60</ele>
        <time>2012-01-22T14:35:49Z</time>
      </trkpt>
      <trkpt lat="48.59721" lon="-2.54455">
        <ele>61</ele>
        <time>2012-01-22T14:35:51Z</time>
      </trkpt>
      <trkpt lat="48.59721" lon="-2.54453">
        <ele>61</ele>
        <time>2012-01-22T14:35:52Z</time>
      </trkpt>
      <trkpt lat="48.5972" lon="-2.54452">
        <ele>61</ele>
        <time>2012-01-22T14:35:53Z</time>
      </trkpt>
      <trkpt lat="48.59719" lon="-2.5445">
        <ele>61</ele>
        <time>2012-01-22T14:35:54Z</time>
      </trkpt>
      <trkpt lat="48.59719" lon="-2.54448">
        <ele>61</ele>
        <time>2012-01-22T14:35:55Z</time>
      </trkpt>
      <trkpt lat="48.59718" lon="-2.54447">
        <ele>61</ele>
        <time>2012-01-22T14:35:56Z</time>
      </trkpt>
      <trkpt lat="48.59718" lon="-2.54445">
        <ele>61</ele>
        <time>2012-01-22T14:35:57Z</time>
      </trkpt>
      <trkpt lat="48.59718" lon="-2.54443">
        <ele>61</ele>
        <time>2012-01-22T14:35:58Z</time>
      </trkpt>
      <trkpt lat="48.59718" lon="-2.54441">
        <ele>61</ele>
        <time>2012-01-22T14:35:59Z</time>
      </trkpt>
      <trkpt lat="48.59718" lon="-2.54439">
        <ele>61</ele>
        <time>2012-01-22T14:36:00Z</time>
      </trkpt>
      <trkpt lat="48.59718" lon="-2.54437">
        <ele>61</ele>
        <time>2012-01-22T14:36:01Z</time>
      </trkpt>
      <trkpt lat="48.59718" lon="-2.54435">
        <ele>61</ele>
        <time>2012-01-22T14:36:02Z</time>
      </trkpt>
      <trkpt lat="48.59718" lon="-2.54433">
        <ele>61</ele>
        <time>2012-01-22T14:36:03Z</time>
      </trkpt>
      <trkpt lat="48.59717" lon="-2.54432">
        <ele>61</ele>
        <time>2012-01-22T14:36:04Z</time>
      </trkpt>
      <trkpt lat="48.59717" lon="-2.5443">
        <ele>61</ele>
        <time>2012-01-22T14:36:05Z</time>
      </trkpt>
      <trkpt lat="48.59717" lon="-2.54428">
        <ele>61</ele>
        <time>2012-01-22T14:36:06Z</time>
      </trkpt>
      <trkpt lat="48.59717" lon="-2.54426">
        <ele>61</ele>
        <time>2012-01-22T14:36:07Z</time>
      </trkpt>
      <trkpt lat="48.59717" lon="-2.54423">
        <ele>61</ele>
        <time>2012-01-22T14:36:09Z</time>
      </trkpt>
      <trkpt lat="48.59717" lon="-2.5442">
        <ele>61</ele>
        <time>2012-01-22T14:36:11Z</time>
      </trkpt>
      <trkpt lat="48.59716" lon="-2.54418">
        <ele>61</ele>
        <time>2012-01-22T14:36:12Z</time>
      </trkpt>
      <trkpt lat="48.59716" lon="-2.54415">
        <ele>61</ele>
        <time>2012-01-22T14:36:14Z</time>
      </trkpt>
      <trkpt lat="48.59716" lon="-2.54413">
        <ele>61</ele>
        <time>2012-01-22T14:36:15Z</time>
      </trkpt>
      <trkpt lat="48.59716" lon="-2.54411">
        <ele>61</ele>
        <time>2012-01-22T14:36:16Z</time>
      </trkpt>
      <trkpt lat="48.59716" lon="-2.54408">
        <ele>61</ele>
        <time>2012-01-22T14:36:18Z</time>
      </trkpt>
      <trkpt lat="48.59716" lon="-2.54406">
        <ele>61</ele>
        <time>2012-01-22T14:36:19Z</time>
      </trkpt>
      <trkpt lat="48.59715" lon="-2.54404">
        <ele>61</ele>
        <time>2012-01-22T14:36:21Z</time>
      </trkpt>
      <trkpt lat="48.59713" lon="-2.54401">
        <ele>61</ele>
        <time>2012-01-22T14:36:23Z</time>
      </trkpt>
      <trkpt lat="48.59712" lon="-2.54399">
        <ele>61</ele>
        <time>2012-01-22T14:36:25Z</time>
      </trkpt>
      <trkpt lat="48.59711" lon="-2.54396">
        <ele>61</ele>
        <time>2012-01-22T14:36:27Z</time>
      </trkpt>
      <trkpt lat="48.5971" lon="-2.54394">
        <ele>62</ele>
        <time>2012-01-22T14:36:28Z</time>
      </trkpt>
      <trkpt lat="48.59709" lon="-2.54391">
        <ele>62</ele>
        <time>2012-01-22T14:36:30Z</time>
      </trkpt>
      <trkpt lat="48.59708" lon="-2.54388">
        <ele>62</ele>
        <time>2012-01-22T14:36:32Z</time>
      </trkpt>
      <trkpt lat="48.59708" lon="-2.54385">
        <ele>62</ele>
        <time>2012-01-22T14:36:34Z</time>
      </trkpt>
      <trkpt lat="48.59707" lon="-2.54382">
        <ele>62</ele>
        <time>2012-01-22T14:36:36Z</time>
      </trkpt>
      <trkpt lat="48.59707" lon="-2.5438">
        <ele>62</ele>
        <time>2012-01-22T14:36:38Z</time>
      </trkpt>
      <trkpt lat="48.59706" lon="-2.54378">
        <ele>62</ele>
        <time>2012-01-22T14:36:40Z</time>
      </trkpt>
      <trkpt lat="48.59706" lon="-2.54375">
        <ele>62</ele>
        <time>2012-01-22T14:36:42Z</time>
      </trkpt>
      <trkpt lat="48.59705" lon="-2.54373">
        <ele>62</ele>
        <time>2012-01-22T14:36:44Z</time>
      </trkpt>
      <trkpt lat="48.59705" lon="-2.54371">
        <ele>62</ele>
        <time>2012-01-22T14:36:46Z</time>
      </trkpt>
      <trkpt lat="48.59705" lon="-2.54368">
        <ele>62</ele>
        <time>2012-01-22T14:36:48Z</time>
      </trkpt>
      <trkpt lat="48.59705" lon="-2.54365">
        <ele>62</ele>
        <time>2012-01-22T14:36:50Z</time>
      </trkpt>
      <trkpt lat="48.59705" lon="-2.54363">
        <ele>62</ele>
        <time>2012-01-22T14:36:52Z</time>
      </trkpt>
      <trkpt lat="48.59704" lon="-2.5436">
        <ele>62</ele>
        <time>2012-01-22T14:36:54Z</time>
      </trkpt>
      <trkpt lat="48.59704" lon="-2.54359">
        <ele>62</ele>
        <time>2012-01-22T14:36:55Z</time>
      </trkpt>
      <trkpt lat="48.59704" lon="-2.54356">
        <ele>62</ele>
        <time>2012-01-22T14:36:57Z</time>
      </trkpt>
      <trkpt lat="48.59704" lon="-2.54354">
        <ele>62</ele>
        <time>2012-01-22T14:36:58Z</time>
      </trkpt>
      <trkpt lat="48.59704" lon="-2.54352">
        <ele>62</ele>
        <time>2012-01-22T14:36:59Z</time>
      </trkpt>
      <trkpt lat="48.59704" lon="-2.5435">
        <ele>62</ele>
        <time>2012-01-22T14:37:00Z</time>
      </trkpt>
      <trkpt lat="48.59704" lon="-2.54348">
        <ele>62</ele>
        <time>2012-01-22T14:37:01Z</time>
      </trkpt>
      <trkpt lat="48.59705" lon="-2.54346">
        <ele>62</ele>
        <time>2012-01-22T14:37:02Z</time>
      </trkpt>
      <trkpt lat="48.59705" lon="-2.54345">
        <ele>62</ele>
        <time>2012-01-22T14:37:03Z</time>
      </trkpt>
      <trkpt lat="48.59705" lon="-2.54343">
        <ele>62</ele>
        <time>2012-01-22T14:37:04Z</time>
      </trkpt>
      <trkpt lat="48.59705" lon="-2.54341">
        <ele>62</ele>
        <time>2012-01-22T14:37:05Z</time>
      </trkpt>
      <trkpt lat="48.59705" lon="-2.54339">
        <ele>62</ele>
        <time>2012-01-22T14:37:06Z</time>
      </trkpt>
      <trkpt lat="48.59705" lon="-2.54337">
        <ele>62</ele>
        <time>2012-01-22T14:37:07Z</time>
      </trkpt>
      <trkpt lat="48.59705" lon="-2.54334">
        <ele>62</ele>
        <time>2012-01-22T14:37:08Z</time>
      </trkpt>
      <trkpt lat="48.59705" lon="-2.54332">
        <ele>62</ele>
        <time>2012-01-22T14:37:09Z</time>
      </trkpt>
      <trkpt lat="48.59705" lon="-2.5433">
        <ele>62</ele>
        <time>2012-01-22T14:37:11Z</time>
      </trkpt>
      <trkpt lat="48.59704" lon="-2.54328">
        <ele>62</ele>
        <time>2012-01-22T14:37:12Z</time>
      </trkpt>
      <trkpt lat="48.59704" lon="-2.54326">
        <ele>62</ele>
        <time>2012-01-22T14:37:13Z</time>
      </trkpt>
      <trkpt lat="48.59704" lon="-2.54324">
        <ele>62</ele>
        <time>2012-01-22T14:37:14Z</time>
      </trkpt>
      <trkpt lat="48.59704" lon="-2.54322">
        <ele>62</ele>
        <time>2012-01-22T14:37:15Z</time>
      </trkpt>
      <trkpt lat="48.59704" lon="-2.5432">
        <ele>62</ele>
        <time>2012-01-22T14:37:16Z</time>
      </trkpt>
      <trkpt lat="48.59704" lon="-2.54318">
        <ele>62</ele>
        <time>2012-01-22T14:37:17Z</time>
      </trkpt>
      <trkpt lat="48.59705" lon="-2.54316">
        <ele>62</ele>
        <time>2012-01-22T14:37:18Z</time>
      </trkpt>
      <trkpt lat="48.59704" lon="-2.54314">
        <ele>62</ele>
        <time>2012-01-22T14:37:19Z</time>
      </trkpt>
      <trkpt lat="48.59704" lon="-2.54312">
        <ele>62</ele>
        <time>2012-01-22T14:37:20Z</time>
      </trkpt>
      <trkpt lat="48.59704" lon="-2.5431">
        <ele>62</ele>
        <time>2012-01-22T14:37:21Z</time>
      </trkpt>
      <trkpt lat="48.59704" lon="-2.54309">
        <ele>62</ele>
        <time>2012-01-22T14:37:22Z</time>
      </trkpt>
      <trkpt lat="48.59704" lon="-2.54307">
        <ele>62</ele>
        <time>2012-01-22T14:37:23Z</time>
      </trkpt>
      <trkpt lat="48.59704" lon="-2.54305">
        <ele>62</ele>
        <time>2012-01-22T14:37:24Z</time>
      </trkpt>
      <trkpt lat="48.59703" lon="-2.54303">
        <ele>62</ele>
        <time>2012-01-22T14:37:25Z</time>
      </trkpt>
      <trkpt lat="48.59703" lon="-2.543">
        <ele>62</ele>
        <time>2012-01-22T14:37:26Z</time>
      </trkpt>
      <trkpt lat="48.59703" lon="-2.54298">
        <ele>62</ele>
        <time>2012-01-22T14:37:27Z</time>
      </trkpt>
      <trkpt lat="48.59703" lon="-2.54296">
        <ele>62</ele>
        <time>2012-01-22T14:37:28Z</time>
      </trkpt>
      <trkpt lat="48.59703" lon="-2.54294">
        <ele>62</ele>
        <time>2012-01-22T14:37:29Z</time>
      </trkpt>
      <trkpt lat="48.59702" lon="-2.54292">
        <ele>62</ele>
        <time>2012-01-22T14:37:30Z</time>
      </trkpt>
      <trkpt lat="48.59701" lon="-2.54291">
        <ele>62</ele>
        <time>2012-01-22T14:37:31Z</time>
      </trkpt>
      <trkpt lat="48.597" lon="-2.54289">
        <ele>62</ele>
        <time>2012-01-22T14:37:32Z</time>
      </trkpt>
      <trkpt lat="48.597" lon="-2.54287">
        <ele>62</ele>
        <time>2012-01-22T14:37:33Z</time>
      </trkpt>
      <trkpt lat="48.59699" lon="-2.54285">
        <ele>62</ele>
        <time>2012-01-22T14:37:34Z</time>
      </trkpt>
      <trkpt lat="48.59697" lon="-2.54282">
        <ele>62</ele>
        <time>2012-01-22T14:37:36Z</time>
      </trkpt>
      <trkpt lat="48.59695" lon="-2.5428">
        <ele>62</ele>
        <time>2012-01-22T14:37:38Z</time>
      </trkpt>
      <trkpt lat="48.59695" lon="-2.54278">
        <ele>62</ele>
        <time>2012-01-22T14:37:39Z</time>
      </trkpt>
      <trkpt lat="48.59693" lon="-2.54275">
        <ele>62</ele>
        <time>2012-01-22T14:37:41Z</time>
      </trkpt>
      <trkpt lat="48.59692" lon="-2.54272">
        <ele>62</ele>
        <time>2012-01-22T14:37:43Z</time>
      </trkpt>
      <trkpt lat="48.59692" lon="-2.5427">
        <ele>62</ele>
        <time>2012-01-22T14:37:44Z</time>
      </trkpt>
      <trkpt lat="48.59692" lon="-2.54268">
        <ele>62</ele>
        <time>2012-01-22T14:37:45Z</time>
      </trkpt>
      <trkpt lat="48.59691" lon="-2.54267">
        <ele>62</ele>
        <time>2012-01-22T14:37:46Z</time>
      </trkpt>
      <trkpt lat="48.5969" lon="-2.54264">
        <ele>62</ele>
        <time>2012-01-22T14:37:48Z</time>
      </trkpt>
      <trkpt lat="48.59689" lon="-2.54261">
        <ele>62</ele>
        <time>2012-01-22T14:37:50Z</time>
      </trkpt>
      <trkpt lat="48.59689" lon="-2.54258">
        <ele>62</ele>
        <time>2012-01-22T14:37:52Z</time>
      </trkpt>
      <trkpt lat="48.59689" lon="-2.54256">
        <ele>62</ele>
        <time>2012-01-22T14:37:54Z</time>
      </trkpt>
      <trkpt lat="48.59688" lon="-2.54254">
        <ele>62</ele>
        <time>2012-01-22T14:37:55Z</time>
      </trkpt>
      <trkpt lat="48.59687" lon="-2.54252">
        <ele>62</ele>
        <time>2012-01-22T14:37:56Z</time>
      </trkpt>
      <trkpt lat="48.59687" lon="-2.5425">
        <ele>62</ele>
        <time>2012-01-22T14:37:57Z</time>
      </trkpt>
      <trkpt lat="48.59686" lon="-2.54247">
        <ele>62</ele>
        <time>2012-01-22T14:37:59Z</time>
      </trkpt>
      <trkpt lat="48.59686" lon="-2.54245">
        <ele>62</ele>
        <time>2012-01-22T14:38:00Z</time>
      </trkpt>
      <trkpt lat="48.59686" lon="-2.54243">
        <ele>62</ele>
        <time>2012-01-22T14:38:01Z</time>
      </trkpt>
      <trkpt lat="48.59686" lon="-2.5424">
        <ele>62</ele>
        <time>2012-01-22T14:38:02Z</time>
      </trkpt>
      <trkpt lat="48.59686" lon="-2.54238">
        <ele>62</ele>
        <time>2012-01-22T14:38:03Z</time>
      </trkpt>
      <trkpt lat="48.59685" lon="-2.54237">
        <ele>62</ele>
        <time>2012-01-22T14:38:04Z</time>
      </trkpt>
      <trkpt lat="48.59684" lon="-2.54235">
        <ele>62</ele>
        <time>2012-01-22T14:38:05Z</time>
      </trkpt>
      <trkpt lat="48.59684" lon="-2.54233">
        <ele>62</ele>
        <time>2012-01-22T14:38:06Z</time>
      </trkpt>
      <trkpt lat="48.59684" lon="-2.54231">
        <ele>62</ele>
        <time>2012-01-22T14:38:07Z</time>
      </trkpt>
      <trkpt lat="48.59683" lon="-2.54229">
        <ele>62</ele>
        <time>2012-01-22T14:38:08Z</time>
      </trkpt>
      <trkpt lat="48.59683" lon="-2.54227">
        <ele>62</ele>
        <time>2012-01-22T14:38:09Z</time>
      </trkpt>
      <trkpt lat="48.59682" lon="-2.54225">
        <ele>62</ele>
        <time>2012-01-22T14:38:10Z</time>
      </trkpt>
      <trkpt lat="48.59682" lon="-2.54223">
        <ele>62</ele>
        <time>2012-01-22T14:38:11Z</time>
      </trkpt>
      <trkpt lat="48.59682" lon="-2.54222">
        <ele>62</ele>
        <time>2012-01-22T14:38:12Z</time>
      </trkpt>
      <trkpt lat="48.59681" lon="-2.5422">
        <ele>62</ele>
        <time>2012-01-22T14:38:13Z</time>
      </trkpt>
      <trkpt lat="48.59681" lon="-2.54218">
        <ele>61</ele>
        <time>2012-01-22T14:38:14Z</time>
      </trkpt>
      <trkpt lat="48.59681" lon="-2.54217">
        <ele>61</ele>
        <time>2012-01-22T14:38:15Z</time>
      </trkpt>
      <trkpt lat="48.59681" lon="-2.54215">
        <ele>61</ele>
        <time>2012-01-22T14:38:16Z</time>
      </trkpt>
      <trkpt lat="48.5968" lon="-2.54213">
        <ele>61</ele>
        <time>2012-01-22T14:38:17Z</time>
      </trkpt>
      <trkpt lat="48.5968" lon="-2.5421">
        <ele>60</ele>
        <time>2012-01-22T14:38:19Z</time>
      </trkpt>
      <trkpt lat="48.5968" lon="-2.54208">
        <ele>60</ele>
        <time>2012-01-22T14:38:20Z</time>
      </trkpt>
      <trkpt lat="48.5968" lon="-2.54206">
        <ele>60</ele>
        <time>2012-01-22T14:38:21Z</time>
      </trkpt>
      <trkpt lat="48.5968" lon="-2.54205">
        <ele>60</ele>
        <time>2012-01-22T14:38:22Z</time>
      </trkpt>
      <trkpt lat="48.59681" lon="-2.54202">
        <ele>60</ele>
        <time>2012-01-22T14:38:24Z</time>
      </trkpt>
      <trkpt lat="48.59682" lon="-2.54198">
        <ele>59</ele>
        <time>2012-01-22T14:38:26Z</time>
      </trkpt>
      <trkpt lat="48.59683" lon="-2.54195">
        <ele>59</ele>
        <time>2012-01-22T14:38:28Z</time>
      </trkpt>
      <trkpt lat="48.59683" lon="-2.54193">
        <ele>58</ele>
        <time>2012-01-22T14:38:30Z</time>
      </trkpt>
      <trkpt lat="48.59683" lon="-2.5419">
        <ele>58</ele>
        <time>2012-01-22T14:38:32Z</time>
      </trkpt>
      <trkpt lat="48.59682" lon="-2.54187">
        <ele>57</ele>
        <time>2012-01-22T14:38:34Z</time>
      </trkpt>
      <trkpt lat="48.59683" lon="-2.54185">
        <ele>56</ele>
        <time>2012-01-22T14:38:36Z</time>
      </trkpt>
      <trkpt lat="48.59683" lon="-2.54182">
        <ele>56</ele>
        <time>2012-01-22T14:38:38Z</time>
      </trkpt>
      <trkpt lat="48.59682" lon="-2.54181">
        <ele>55</ele>
        <time>2012-01-22T14:38:39Z</time>
      </trkpt>
      <trkpt lat="48.59681" lon="-2.54177">
        <ele>55</ele>
        <time>2012-01-22T14:38:41Z</time>
      </trkpt>
      <trkpt lat="48.59681" lon="-2.54176">
        <ele>55</ele>
        <time>2012-01-22T14:38:42Z</time>
      </trkpt>
      <trkpt lat="48.59681" lon="-2.54174">
        <ele>54</ele>
        <time>2012-01-22T14:38:43Z</time>
      </trkpt>
      <trkpt lat="48.59681" lon="-2.54172">
        <ele>54</ele>
        <time>2012-01-22T14:38:45Z</time>
      </trkpt>
      <trkpt lat="48.59682" lon="-2.54171">
        <ele>54</ele>
        <time>2012-01-22T14:38:47Z</time>
      </trkpt>
      <trkpt lat="48.59684" lon="-2.54172">
        <ele>53</ele>
        <time>2012-01-22T14:38:50Z</time>
      </trkpt>
      <trkpt lat="48.59685" lon="-2.54173">
        <ele>52</ele>
        <time>2012-01-22T14:38:53Z</time>
      </trkpt>
      <trkpt lat="48.59687" lon="-2.54174">
        <ele>51</ele>
        <time>2012-01-22T14:38:56Z</time>
      </trkpt>
      <trkpt lat="48.59688" lon="-2.54175">
        <ele>50</ele>
        <time>2012-01-22T14:38:59Z</time>
      </trkpt>
      <trkpt lat="48.59687" lon="-2.54173">
        <ele>49</ele>
        <time>2012-01-22T14:39:05Z</time>
      </trkpt>
      <trkpt lat="48.59685" lon="-2.54172">
        <ele>49</ele>
        <time>2012-01-22T14:39:09Z</time>
      </trkpt>
      <trkpt lat="48.59686" lon="-2.5417">
        <ele>49</ele>
        <time>2012-01-22T14:39:12Z</time>
      </trkpt>
      <trkpt lat="48.59687" lon="-2.54168">
        <ele>49</ele>
        <time>2012-01-22T14:39:15Z</time>
      </trkpt>
      <trkpt lat="48.59687" lon="-2.54166">
        <ele>48</ele>
        <time>2012-01-22T14:39:18Z</time>
      </trkpt>
      <trkpt lat="48.59687" lon="-2.54164">
        <ele>47</ele>
        <time>2012-01-22T14:39:20Z</time>
      </trkpt>
      <trkpt lat="48.59687" lon="-2.54163">
        <ele>46</ele>
        <time>2012-01-22T14:39:22Z</time>
      </trkpt>
      <trkpt lat="48.59687" lon="-2.54161">
        <ele>45</ele>
        <time>2012-01-22T14:39:24Z</time>
      </trkpt>
      <trkpt lat="48.59687" lon="-2.54159">
        <ele>44</ele>
        <time>2012-01-22T14:39:27Z</time>
      </trkpt>
      <trkpt lat="48.59688" lon="-2.54157">
        <ele>43</ele>
        <time>2012-01-22T14:39:30Z</time>
      </trkpt>
      <trkpt lat="48.59688" lon="-2.54155">
        <ele>42</ele>
        <time>2012-01-22T14:39:33Z</time>
      </trkpt>
      <trkpt lat="48.59688" lon="-2.54153">
        <ele>41</ele>
        <time>2012-01-22T14:39:35Z</time>
      </trkpt>
      <trkpt lat="48.59689" lon="-2.54151">
        <ele>41</ele>
        <time>2012-01-22T14:39:37Z</time>
      </trkpt>
      <trkpt lat="48.59689" lon="-2.54149">
        <ele>40</ele>
        <time>2012-01-22T14:39:39Z</time>
      </trkpt>
      <trkpt lat="48.5969" lon="-2.54147">
        <ele>40</ele>
        <time>2012-01-22T14:39:41Z</time>
      </trkpt>
      <trkpt lat="48.5969" lon="-2.54145">
        <ele>39</ele>
        <time>2012-01-22T14:39:43Z</time>
      </trkpt>
      <trkpt lat="48.59691" lon="-2.54143">
        <ele>38</ele>
        <time>2012-01-22T14:39:45Z</time>
      </trkpt>
      <trkpt lat="48.59691" lon="-2.54141">
        <ele>37</ele>
        <time>2012-01-22T14:39:47Z</time>
      </trkpt>
      <trkpt lat="48.59692" lon="-2.54138">
        <ele>36</ele>
        <time>2012-01-22T14:39:49Z</time>
      </trkpt>
      <trkpt lat="48.59693" lon="-2.54136">
        <ele>36</ele>
        <time>2012-01-22T14:39:51Z</time>
      </trkpt>
      <trkpt lat="48.59693" lon="-2.54134">
        <ele>35</ele>
        <time>2012-01-22T14:39:53Z</time>
      </trkpt>
      <trkpt lat="48.59693" lon="-2.54132">
        <ele>34</ele>
        <time>2012-01-22T14:39:55Z</time>
      </trkpt>
      <trkpt lat="48.59693" lon="-2.54129">
        <ele>34</ele>
        <time>2012-01-22T14:39:57Z</time>
      </trkpt>
      <trkpt lat="48.59693" lon="-2.54126">
        <ele>33</ele>
        <time>2012-01-22T14:39:59Z</time>
      </trkpt>
      <trkpt lat="48.59693" lon="-2.54123">
        <ele>33</ele>
        <time>2012-01-22T14:40:01Z</time>
      </trkpt>
      <trkpt lat="48.59694" lon="-2.5412">
        <ele>33</ele>
        <time>2012-01-22T14:40:03Z</time>
      </trkpt>
      <trkpt lat="48.59694" lon="-2.54118">
        <ele>32</ele>
        <time>2012-01-22T14:40:04Z</time>
      </trkpt>
      <trkpt lat="48.59694" lon="-2.54117">
        <ele>32</ele>
        <time>2012-01-22T14:40:05Z</time>
      </trkpt>
      <trkpt lat="48.59694" lon="-2.54115">
        <ele>32</ele>
        <time>2012-01-22T14:40:06Z</time>
      </trkpt>
      <trkpt lat="48.59694" lon="-2.54113">
        <ele>32</ele>
        <time>2012-01-22T14:40:07Z</time>
      </trkpt>
      <trkpt lat="48.59694" lon="-2.54111">
        <ele>32</ele>
        <time>2012-01-22T14:40:08Z</time>
      </trkpt>
      <trkpt lat="48.59694" lon="-2.54109">
        <ele>32</ele>
        <time>2012-01-22T14:40:09Z</time>
      </trkpt>
      <trkpt lat="48.59695" lon="-2.54106">
        <ele>32</ele>
        <time>2012-01-22T14:40:11Z</time>
      </trkpt>
      <trkpt lat="48.59695" lon="-2.54104">
        <ele>32</ele>
        <time>2012-01-22T14:40:12Z</time>
      </trkpt>
      <trkpt lat="48.59695" lon="-2.54102">
        <ele>31</ele>
        <time>2012-01-22T14:40:13Z</time>
      </trkpt>
      <trkpt lat="48.59695" lon="-2.541">
        <ele>31</ele>
        <time>2012-01-22T14:40:14Z</time>
      </trkpt>
      <trkpt lat="48.59695" lon="-2.54099">
        <ele>31</ele>
        <time>2012-01-22T14:40:15Z</time>
      </trkpt>
      <trkpt lat="48.59696" lon="-2.54097">
        <ele>31</ele>
        <time>2012-01-22T14:40:16Z</time>
      </trkpt>
      <trkpt lat="48.59696" lon="-2.54094">
        <ele>30</ele>
        <time>2012-01-22T14:40:18Z</time>
      </trkpt>
      <trkpt lat="48.59696" lon="-2.54092">
        <ele>30</ele>
        <time>2012-01-22T14:40:19Z</time>
      </trkpt>
      <trkpt lat="48.59696" lon="-2.5409">
        <ele>30</ele>
        <time>2012-01-22T14:40:20Z</time>
      </trkpt>
      <trkpt lat="48.59695" lon="-2.54088">
        <ele>30</ele>
        <time>2012-01-22T14:40:21Z</time>
      </trkpt>
      <trkpt lat="48.59695" lon="-2.54086">
        <ele>30</ele>
        <time>2012-01-22T14:40:22Z</time>
      </trkpt>
      <trkpt lat="48.59695" lon="-2.54084">
        <ele>30</ele>
        <time>2012-01-22T14:40:23Z</time>
      </trkpt>
      <trkpt lat="48.59695" lon="-2.54082">
        <ele>30</ele>
        <time>2012-01-22T14:40:25Z</time>
      </trkpt>
      <trkpt lat="48.59695" lon="-2.54079">
        <ele>29</ele>
        <time>2012-01-22T14:40:27Z</time>
      </trkpt>
      <trkpt lat="48.59695" lon="-2.54076">
        <ele>29</ele>
        <time>2012-01-22T14:40:29Z</time>
      </trkpt>
      <trkpt lat="48.59694" lon="-2.54073">
        <ele>29</ele>
        <time>2012-01-22T14:40:32Z</time>
      </trkpt>
      <trkpt lat="48.59693" lon="-2.54071">
        <ele>29</ele>
        <time>2012-01-22T14:40:33Z</time>
      </trkpt>
      <trkpt lat="48.59693" lon="-2.54069">
        <ele>29</ele>
        <time>2012-01-22T14:40:34Z</time>
      </trkpt>
      <trkpt lat="48.59692" lon="-2.54067">
        <ele>29</ele>
        <time>2012-01-22T14:40:35Z</time>
      </trkpt>
      <trkpt lat="48.59692" lon="-2.54065">
        <ele>28</ele>
        <time>2012-01-22T14:40:36Z</time>
      </trkpt>
      <trkpt lat="48.59691" lon="-2.54063">
        <ele>28</ele>
        <time>2012-01-22T14:40:37Z</time>
      </trkpt>
      <trkpt lat="48.5969" lon="-2.54061">
        <ele>28</ele>
        <time>2012-01-22T14:40:38Z</time>
      </trkpt>
      <trkpt lat="48.5969" lon="-2.54059">
        <ele>28</ele>
        <time>2012-01-22T14:40:39Z</time>
      </trkpt>
      <trkpt lat="48.5969" lon="-2.54057">
        <ele>28</ele>
        <time>2012-01-22T14:40:40Z</time>
      </trkpt>
      <trkpt lat="48.5969" lon="-2.54056">
        <ele>28</ele>
        <time>2012-01-22T14:40:41Z</time>
      </trkpt>
      <trkpt lat="48.59689" lon="-2.54054">
        <ele>28</ele>
        <time>2012-01-22T14:40:42Z</time>
      </trkpt>
      <trkpt lat="48.59689" lon="-2.54052">
        <ele>28</ele>
        <time>2012-01-22T14:40:43Z</time>
      </trkpt>
      <trkpt lat="48.59689" lon="-2.5405">
        <ele>28</ele>
        <time>2012-01-22T14:40:44Z</time>
      </trkpt>
      <trkpt lat="48.59688" lon="-2.54048">
        <ele>28</ele>
        <time>2012-01-22T14:40:45Z</time>
      </trkpt>
      <trkpt lat="48.59688" lon="-2.54046">
        <ele>28</ele>
        <time>2012-01-22T14:40:46Z</time>
      </trkpt>
      <trkpt lat="48.59687" lon="-2.54044">
        <ele>28</ele>
        <time>2012-01-22T14:40:47Z</time>
      </trkpt>
      <trkpt lat="48.59686" lon="-2.54041">
        <ele>28</ele>
        <time>2012-01-22T14:40:49Z</time>
      </trkpt>
      <trkpt lat="48.59686" lon="-2.54039">
        <ele>28</ele>
        <time>2012-01-22T14:40:50Z</time>
      </trkpt>
      <trkpt lat="48.59684" lon="-2.54038">
        <ele>28</ele>
        <time>2012-01-22T14:40:51Z</time>
      </trkpt>
      <trkpt lat="48.59684" lon="-2.54036">
        <ele>28</ele>
        <time>2012-01-22T14:40:52Z</time>
      </trkpt>
      <trkpt lat="48.59683" lon="-2.54034">
        <ele>28</ele>
        <time>2012-01-22T14:40:53Z</time>
      </trkpt>
      <trkpt lat="48.59682" lon="-2.54032">
        <ele>28</ele>
        <time>2012-01-22T14:40:54Z</time>
      </trkpt>
      <trkpt lat="48.59681" lon="-2.54031">
        <ele>28</ele>
        <time>2012-01-22T14:40:55Z</time>
      </trkpt>
      <trkpt lat="48.59681" lon="-2.54029">
        <ele>28</ele>
        <time>2012-01-22T14:40:56Z</time>
      </trkpt>
      <trkpt lat="48.5968" lon="-2.54027">
        <ele>28</ele>
        <time>2012-01-22T14:40:57Z</time>
      </trkpt>
      <trkpt lat="48.59679" lon="-2.54025">
        <ele>28</ele>
        <time>2012-01-22T14:40:58Z</time>
      </trkpt>
      <trkpt lat="48.59679" lon="-2.54023">
        <ele>28</ele>
        <time>2012-01-22T14:40:59Z</time>
      </trkpt>
      <trkpt lat="48.59678" lon="-2.54021">
        <ele>28</ele>
        <time>2012-01-22T14:41:00Z</time>
      </trkpt>
      <trkpt lat="48.59677" lon="-2.54019">
        <ele>28</ele>
        <time>2012-01-22T14:41:01Z</time>
      </trkpt>
      <trkpt lat="48.59676" lon="-2.54017">
        <ele>28</ele>
        <time>2012-01-22T14:41:02Z</time>
      </trkpt>
      <trkpt lat="48.59675" lon="-2.54015">
        <ele>28</ele>
        <time>2012-01-22T14:41:03Z</time>
      </trkpt>
      <trkpt lat="48.59675" lon="-2.54014">
        <ele>28</ele>
        <time>2012-01-22T14:41:04Z</time>
      </trkpt>
      <trkpt lat="48.59674" lon="-2.54012">
        <ele>28</ele>
        <time>2012-01-22T14:41:05Z</time>
      </trkpt>
      <trkpt lat="48.59674" lon="-2.5401">
        <ele>28</ele>
        <time>2012-01-22T14:41:06Z</time>
      </trkpt>
      <trkpt lat="48.59674" lon="-2.54008">
        <ele>28</ele>
        <time>2012-01-22T14:41:07Z</time>
      </trkpt>
      <trkpt lat="48.59673" lon="-2.54006">
        <ele>28</ele>
        <time>2012-01-22T14:41:08Z</time>
      </trkpt>
      <trkpt lat="48.59673" lon="-2.54004">
        <ele>28</ele>
        <time>2012-01-22T14:41:09Z</time>
      </trkpt>
      <trkpt lat="48.59672" lon="-2.54">
        <ele>28</ele>
        <time>2012-01-22T14:41:11Z</time>
      </trkpt>
      <trkpt lat="48.59671" lon="-2.53997">
        <ele>28</ele>
        <time>2012-01-22T14:41:13Z</time>
      </trkpt>
      <trkpt lat="48.5967" lon="-2.53996">
        <ele>28</ele>
        <time>2012-01-22T14:41:14Z</time>
      </trkpt>
      <trkpt lat="48.59669" lon="-2.53994">
        <ele>28</ele>
        <time>2012-01-22T14:41:15Z</time>
      </trkpt>
      <trkpt lat="48.59668" lon="-2.53992">
        <ele>27</ele>
        <time>2012-01-22T14:41:16Z</time>
      </trkpt>
      <trkpt lat="48.59668" lon="-2.5399">
        <ele>27</ele>
        <time>2012-01-22T14:41:17Z</time>
      </trkpt>
      <trkpt lat="48.59667" lon="-2.53988">
        <ele>27</ele>
        <time>2012-01-22T14:41:18Z</time>
      </trkpt>
      <trkpt lat="48.59667" lon="-2.53986">
        <ele>27</ele>
        <time>2012-01-22T14:41:19Z</time>
      </trkpt>
      <trkpt lat="48.59666" lon="-2.53984">
        <ele>26</ele>
        <time>2012-01-22T14:41:20Z</time>
      </trkpt>
      <trkpt lat="48.59666" lon="-2.53982">
        <ele>26</ele>
        <time>2012-01-22T14:41:21Z</time>
      </trkpt>
      <trkpt lat="48.59666" lon="-2.5398">
        <ele>26</ele>
        <time>2012-01-22T14:41:22Z</time>
      </trkpt>
      <trkpt lat="48.59665" lon="-2.53978">
        <ele>26</ele>
        <time>2012-01-22T14:41:23Z</time>
      </trkpt>
      <trkpt lat="48.59665" lon="-2.53976">
        <ele>26</ele>
        <time>2012-01-22T14:41:24Z</time>
      </trkpt>
      <trkpt lat="48.59664" lon="-2.53974">
        <ele>26</ele>
        <time>2012-01-22T14:41:25Z</time>
      </trkpt>
      <trkpt lat="48.59663" lon="-2.53972">
        <ele>26</ele>
        <time>2012-01-22T14:41:26Z</time>
      </trkpt>
      <trkpt lat="48.59663" lon="-2.5397">
        <ele>26</ele>
        <time>2012-01-22T14:41:27Z</time>
      </trkpt>
      <trkpt lat="48.59662" lon="-2.53969">
        <ele>26</ele>
        <time>2012-01-22T14:41:28Z</time>
      </trkpt>
      <trkpt lat="48.59661" lon="-2.53967">
        <ele>26</ele>
        <time>2012-01-22T14:41:29Z</time>
      </trkpt>
      <trkpt lat="48.5966" lon="-2.53965">
        <ele>26</ele>
        <time>2012-01-22T14:41:30Z</time>
      </trkpt>
      <trkpt lat="48.5966" lon="-2.53963">
        <ele>26</ele>
        <time>2012-01-22T14:41:31Z</time>
      </trkpt>
      <trkpt lat="48.59659" lon="-2.53961">
        <ele>26</ele>
        <time>2012-01-22T14:41:32Z</time>
      </trkpt>
      <trkpt lat="48.59659" lon="-2.5396">
        <ele>26</ele>
        <time>2012-01-22T14:41:33Z</time>
      </trkpt>
      <trkpt lat="48.59658" lon="-2.53958">
        <ele>26</ele>
        <time>2012-01-22T14:41:34Z</time>
      </trkpt>
      <trkpt lat="48.59658" lon="-2.53956">
        <ele>26</ele>
        <time>2012-01-22T14:41:35Z</time>
      </trkpt>
      <trkpt lat="48.59657" lon="-2.53953">
        <ele>26</ele>
        <time>2012-01-22T14:41:36Z</time>
      </trkpt>
      <trkpt lat="48.59657" lon="-2.53952">
        <ele>26</ele>
        <time>2012-01-22T14:41:37Z</time>
      </trkpt>
      <trkpt lat="48.59657" lon="-2.5395">
        <ele>26</ele>
        <time>2012-01-22T14:41:38Z</time>
      </trkpt>
      <trkpt lat="48.59656" lon="-2.53948">
        <ele>26</ele>
        <time>2012-01-22T14:41:39Z</time>
      </trkpt>
      <trkpt lat="48.59655" lon="-2.53946">
        <ele>26</ele>
        <time>2012-01-22T14:41:40Z</time>
      </trkpt>
      <trkpt lat="48.59655" lon="-2.53944">
        <ele>26</ele>
        <time>2012-01-22T14:41:41Z</time>
      </trkpt>
      <trkpt lat="48.59654" lon="-2.53942">
        <ele>26</ele>
        <time>2012-01-22T14:41:42Z</time>
      </trkpt>
      <trkpt lat="48.59654" lon="-2.5394">
        <ele>26</ele>
        <time>2012-01-22T14:41:43Z</time>
      </trkpt>
      <trkpt lat="48.59653" lon="-2.53938">
        <ele>26</ele>
        <time>2012-01-22T14:41:44Z</time>
      </trkpt>
      <trkpt lat="48.59653" lon="-2.53936">
        <ele>26</ele>
        <time>2012-01-22T14:41:45Z</time>
      </trkpt>
      <trkpt lat="48.59652" lon="-2.53934">
        <ele>26</ele>
        <time>2012-01-22T14:41:46Z</time>
      </trkpt>
      <trkpt lat="48.59652" lon="-2.53931">
        <ele>26</ele>
        <time>2012-01-22T14:41:48Z</time>
      </trkpt>
      <trkpt lat="48.59651" lon="-2.53928">
        <ele>26</ele>
        <time>2012-01-22T14:41:50Z</time>
      </trkpt>
      <trkpt lat="48.59651" lon="-2.53927">
        <ele>26</ele>
        <time>2012-01-22T14:41:51Z</time>
      </trkpt>
      <trkpt lat="48.5965" lon="-2.53925">
        <ele>26</ele>
        <time>2012-01-22T14:41:52Z</time>
      </trkpt>
      <trkpt lat="48.5965" lon="-2.53923">
        <ele>26</ele>
        <time>2012-01-22T14:41:53Z</time>
      </trkpt>
      <trkpt lat="48.5965" lon="-2.53921">
        <ele>26</ele>
        <time>2012-01-22T14:41:54Z</time>
      </trkpt>
      <trkpt lat="48.5965" lon="-2.53919">
        <ele>26</ele>
        <time>2012-01-22T14:41:55Z</time>
      </trkpt>
      <trkpt lat="48.5965" lon="-2.53917">
        <ele>26</ele>
        <time>2012-01-22T14:41:56Z</time>
      </trkpt>
      <trkpt lat="48.59651" lon="-2.53916">
        <ele>26</ele>
        <time>2012-01-22T14:41:57Z</time>
      </trkpt>
      <trkpt lat="48.59652" lon="-2.53914">
        <ele>26</ele>
        <time>2012-01-22T14:42:00Z</time>
      </trkpt>
      <trkpt lat="48.59652" lon="-2.53912">
        <ele>25</ele>
        <time>2012-01-22T14:42:02Z</time>
      </trkpt>
      <trkpt lat="48.59652" lon="-2.5391">
        <ele>25</ele>
        <time>2012-01-22T14:42:03Z</time>
      </trkpt>
      <trkpt lat="48.59652" lon="-2.53908">
        <ele>25</ele>
        <time>2012-01-22T14:42:04Z</time>
      </trkpt>
      <trkpt lat="48.59652" lon="-2.53906">
        <ele>25</ele>
        <time>2012-01-22T14:42:05Z</time>
      </trkpt>
      <trkpt lat="48.59652" lon="-2.53904">
        <ele>25</ele>
        <time>2012-01-22T14:42:06Z</time>
      </trkpt>
      <trkpt lat="48.59652" lon="-2.53903">
        <ele>24</ele>
        <time>2012-01-22T14:42:07Z</time>
      </trkpt>
      <trkpt lat="48.59652" lon="-2.53901">
        <ele>24</ele>
        <time>2012-01-22T14:42:08Z</time>
      </trkpt>
      <trkpt lat="48.59653" lon="-2.53898">
        <ele>24</ele>
        <time>2012-01-22T14:42:10Z</time>
      </trkpt>
      <trkpt lat="48.59654" lon="-2.53896">
        <ele>23</ele>
        <time>2012-01-22T14:42:11Z</time>
      </trkpt>
      <trkpt lat="48.59655" lon="-2.53893">
        <ele>23</ele>
        <time>2012-01-22T14:42:13Z</time>
      </trkpt>
      <trkpt lat="48.59655" lon="-2.53891">
        <ele>22</ele>
        <time>2012-01-22T14:42:14Z</time>
      </trkpt>
      <trkpt lat="48.59656" lon="-2.53889">
        <ele>22</ele>
        <time>2012-01-22T14:42:15Z</time>
      </trkpt>
      <trkpt lat="48.59656" lon="-2.53887">
        <ele>21</ele>
        <time>2012-01-22T14:42:16Z</time>
      </trkpt>
      <trkpt lat="48.59657" lon="-2.53886">
        <ele>21</ele>
        <time>2012-01-22T14:42:17Z</time>
      </trkpt>
      <trkpt lat="48.59657" lon="-2.53884">
        <ele>21</ele>
        <time>2012-01-22T14:42:18Z</time>
      </trkpt>
      <trkpt lat="48.59658" lon="-2.53882">
        <ele>21</ele>
        <time>2012-01-22T14:42:19Z</time>
      </trkpt>
      <trkpt lat="48.59658" lon="-2.5388">
        <ele>20</ele>
        <time>2012-01-22T14:42:20Z</time>
      </trkpt>
      <trkpt lat="48.59658" lon="-2.53878">
        <ele>20</ele>
        <time>2012-01-22T14:42:21Z</time>
      </trkpt>
      <trkpt lat="48.59658" lon="-2.53876">
        <ele>20</ele>
        <time>2012-01-22T14:42:22Z</time>
      </trkpt>
      <trkpt lat="48.59658" lon="-2.53874">
        <ele>20</ele>
        <time>2012-01-22T14:42:23Z</time>
      </trkpt>
      <trkpt lat="48.59658" lon="-2.53873">
        <ele>20</ele>
        <time>2012-01-22T14:42:24Z</time>
      </trkpt>
      <trkpt lat="48.59658" lon="-2.53871">
        <ele>20</ele>
        <time>2012-01-22T14:42:25Z</time>
      </trkpt>
      <trkpt lat="48.59658" lon="-2.53868">
        <ele>20</ele>
        <time>2012-01-22T14:42:26Z</time>
      </trkpt>
      <trkpt lat="48.59658" lon="-2.53866">
        <ele>20</ele>
        <time>2012-01-22T14:42:27Z</time>
      </trkpt>
      <trkpt lat="48.59657" lon="-2.53864">
        <ele>20</ele>
        <time>2012-01-22T14:42:28Z</time>
      </trkpt>
      <trkpt lat="48.59657" lon="-2.53861">
        <ele>20</ele>
        <time>2012-01-22T14:42:29Z</time>
      </trkpt>
      <trkpt lat="48.59657" lon="-2.53859">
        <ele>20</ele>
        <time>2012-01-22T14:42:30Z</time>
      </trkpt>
      <trkpt lat="48.59656" lon="-2.53857">
        <ele>20</ele>
        <time>2012-01-22T14:42:31Z</time>
      </trkpt>
      <trkpt lat="48.59656" lon="-2.53855">
        <ele>20</ele>
        <time>2012-01-22T14:42:32Z</time>
      </trkpt>
      <trkpt lat="48.59655" lon="-2.53853">
        <ele>20</ele>
        <time>2012-01-22T14:42:33Z</time>
      </trkpt>
      <trkpt lat="48.59655" lon="-2.53851">
        <ele>20</ele>
        <time>2012-01-22T14:42:34Z</time>
      </trkpt>
      <trkpt lat="48.59655" lon="-2.53849">
        <ele>20</ele>
        <time>2012-01-22T14:42:35Z</time>
      </trkpt>
      <trkpt lat="48.59655" lon="-2.53847">
        <ele>20</ele>
        <time>2012-01-22T14:42:36Z</time>
      </trkpt>
      <trkpt lat="48.59654" lon="-2.53844">
        <ele>20</ele>
        <time>2012-01-22T14:42:37Z</time>
      </trkpt>
      <trkpt lat="48.59654" lon="-2.53842">
        <ele>20</ele>
        <time>2012-01-22T14:42:38Z</time>
      </trkpt>
      <trkpt lat="48.59654" lon="-2.5384">
        <ele>20</ele>
        <time>2012-01-22T14:42:39Z</time>
      </trkpt>
      <trkpt lat="48.59654" lon="-2.53838">
        <ele>20</ele>
        <time>2012-01-22T14:42:40Z</time>
      </trkpt>
      <trkpt lat="48.59653" lon="-2.53836">
        <ele>20</ele>
        <time>2012-01-22T14:42:41Z</time>
      </trkpt>
      <trkpt lat="48.59653" lon="-2.53834">
        <ele>20</ele>
        <time>2012-01-22T14:42:42Z</time>
      </trkpt>
      <trkpt lat="48.59652" lon="-2.53833">
        <ele>20</ele>
        <time>2012-01-22T14:42:43Z</time>
      </trkpt>
      <trkpt lat="48.59652" lon="-2.53831">
        <ele>20</ele>
        <time>2012-01-22T14:42:44Z</time>
      </trkpt>
      <trkpt lat="48.59653" lon="-2.53829">
        <ele>20</ele>
        <time>2012-01-22T14:42:45Z</time>
      </trkpt>
      <trkpt lat="48.59653" lon="-2.53827">
        <ele>20</ele>
        <time>2012-01-22T14:42:46Z</time>
      </trkpt>
      <trkpt lat="48.59653" lon="-2.53824">
        <ele>20</ele>
        <time>2012-01-22T14:42:48Z</time>
      </trkpt>
      <trkpt lat="48.59652" lon="-2.53822">
        <ele>20</ele>
        <time>2012-01-22T14:42:49Z</time>
      </trkpt>
      <trkpt lat="48.59652" lon="-2.5382">
        <ele>20</ele>
        <time>2012-01-22T14:42:50Z</time>
      </trkpt>
      <trkpt lat="48.59652" lon="-2.53819">
        <ele>20</ele>
        <time>2012-01-22T14:42:51Z</time>
      </trkpt>
      <trkpt lat="48.59652" lon="-2.53817">
        <ele>20</ele>
        <time>2012-01-22T14:42:52Z</time>
      </trkpt>
      <trkpt lat="48.59652" lon="-2.53815">
        <ele>20</ele>
        <time>2012-01-22T14:42:53Z</time>
      </trkpt>
      <trkpt lat="48.59652" lon="-2.53813">
        <ele>20</ele>
        <time>2012-01-22T14:42:54Z</time>
      </trkpt>
      <trkpt lat="48.59652" lon="-2.53811">
        <ele>20</ele>
        <time>2012-01-22T14:42:56Z</time>
      </trkpt>
      <trkpt lat="48.59652" lon="-2.53808">
        <ele>20</ele>
        <time>2012-01-22T14:42:58Z</time>
      </trkpt>
      <trkpt lat="48.59653" lon="-2.53805">
        <ele>20</ele>
        <time>2012-01-22T14:43:00Z</time>
      </trkpt>
      <trkpt lat="48.59653" lon="-2.53802">
        <ele>20</ele>
        <time>2012-01-22T14:43:02Z</time>
      </trkpt>
      <trkpt lat="48.59654" lon="-2.53799">
        <ele>20</ele>
        <time>2012-01-22T14:43:04Z</time>
      </trkpt>
      <trkpt lat="48.59654" lon="-2.53796">
        <ele>20</ele>
        <time>2012-01-22T14:43:06Z</time>
      </trkpt>
      <trkpt lat="48.59654" lon="-2.53793">
        <ele>20</ele>
        <time>2012-01-22T14:43:08Z</time>
      </trkpt>
      <trkpt lat="48.59655" lon="-2.53791">
        <ele>19</ele>
        <time>2012-01-22T14:43:10Z</time>
      </trkpt>
      <trkpt lat="48.59657" lon="-2.53789">
        <ele>18</ele>
        <time>2012-01-22T14:43:12Z</time>
      </trkpt>
      <trkpt lat="48.59658" lon="-2.53789">
        <ele>18</ele>
        <time>2012-01-22T14:43:13Z</time>
      </trkpt>
      <trkpt lat="48.5966" lon="-2.53788">
        <ele>17</ele>
        <time>2012-01-22T14:43:14Z</time>
      </trkpt>
      <trkpt lat="48.59661" lon="-2.53786">
        <ele>16</ele>
        <time>2012-01-22T14:43:16Z</time>
      </trkpt>
      <trkpt lat="48.59661" lon="-2.53784">
        <ele>15</ele>
        <time>2012-01-22T14:43:18Z</time>
      </trkpt>
      <trkpt lat="48.59661" lon="-2.53783">
        <ele>15</ele>
        <time>2012-01-22T14:43:19Z</time>
      </trkpt>
      <trkpt lat="48.59661" lon="-2.53781">
        <ele>15</ele>
        <time>2012-01-22T14:43:21Z</time>
      </trkpt>
      <trkpt lat="48.59662" lon="-2.53779">
        <ele>15</ele>
        <time>2012-01-22T14:43:23Z</time>
      </trkpt>
      <trkpt lat="48.59661" lon="-2.53777">
        <ele>14</ele>
        <time>2012-01-22T14:43:25Z</time>
      </trkpt>
      <trkpt lat="48.59659" lon="-2.53776">
        <ele>13</ele>
        <time>2012-01-22T14:43:27Z</time>
      </trkpt>
      <trkpt lat="48.59658" lon="-2.53775">
        <ele>13</ele>
        <time>2012-01-22T14:43:30Z</time>
      </trkpt>
      <trkpt lat="48.59657" lon="-2.53774">
        <ele>13</ele>
        <time>2012-01-22T14:43:33Z</time>
      </trkpt>
      <trkpt lat="48.59658" lon="-2.53774">
        <ele>13</ele>
        <time>2012-01-22T14:44:54Z</time>
      </trkpt>
      <trkpt lat="48.59656" lon="-2.53776">
        <ele>13</ele>
        <time>2012-01-22T14:45:12Z</time>
      </trkpt>
      <trkpt lat="48.59657" lon="-2.53774">
        <ele>13</ele>
        <time>2012-01-22T14:45:29Z</time>
      </trkpt>
      <trkpt lat="48.59655" lon="-2.53773">
        <ele>13</ele>
        <time>2012-01-22T14:45:35Z</time>
      </trkpt>
      <trkpt lat="48.59654" lon="-2.53772">
        <ele>13</ele>
        <time>2012-01-22T14:45:37Z</time>
      </trkpt>
      <trkpt lat="48.59653" lon="-2.5377">
        <ele>13</ele>
        <time>2012-01-22T14:45:39Z</time>
      </trkpt>
      <trkpt lat="48.59651" lon="-2.5377">
        <ele>13</ele>
        <time>2012-01-22T14:45:41Z</time>
      </trkpt>
      <trkpt lat="48.59649" lon="-2.53772">
        <ele>13</ele>
        <time>2012-01-22T14:45:43Z</time>
      </trkpt>
      <trkpt lat="48.59647" lon="-2.53772">
        <ele>13</ele>
        <time>2012-01-22T14:45:45Z</time>
      </trkpt>
      <trkpt lat="48.59646" lon="-2.53773">
        <ele>13</ele>
        <time>2012-01-22T14:45:46Z</time>
      </trkpt>
      <trkpt lat="48.59645" lon="-2.53774">
        <ele>13</ele>
        <time>2012-01-22T14:45:47Z</time>
      </trkpt>
      <trkpt lat="48.59644" lon="-2.53774">
        <ele>13</ele>
        <time>2012-01-22T14:45:48Z</time>
      </trkpt>
      <trkpt lat="48.59642" lon="-2.53774">
        <ele>13</ele>
        <time>2012-01-22T14:45:50Z</time>
      </trkpt>
      <trkpt lat="48.59641" lon="-2.53774">
        <ele>13</ele>
        <time>2012-01-22T14:45:51Z</time>
      </trkpt>
      <trkpt lat="48.59639" lon="-2.53774">
        <ele>13</ele>
        <time>2012-01-22T14:45:52Z</time>
      </trkpt>
      <trkpt lat="48.59638" lon="-2.53775">
        <ele>13</ele>
        <time>2012-01-22T14:45:53Z</time>
      </trkpt>
      <trkpt lat="48.59637" lon="-2.53775">
        <ele>13</ele>
        <time>2012-01-22T14:45:54Z</time>
      </trkpt>
      <trkpt lat="48.59635" lon="-2.53775">
        <ele>13</ele>
        <time>2012-01-22T14:45:56Z</time>
      </trkpt>
      <trkpt lat="48.59634" lon="-2.53775">
        <ele>13</ele>
        <time>2012-01-22T14:45:57Z</time>
      </trkpt>
      <trkpt lat="48.59633" lon="-2.53776">
        <ele>13</ele>
        <time>2012-01-22T14:45:58Z</time>
      </trkpt>
      <trkpt lat="48.59631" lon="-2.53775">
        <ele>13</ele>
        <time>2012-01-22T14:46:00Z</time>
      </trkpt>
      <trkpt lat="48.59629" lon="-2.53775">
        <ele>13</ele>
        <time>2012-01-22T14:46:02Z</time>
      </trkpt>
      <trkpt lat="48.59627" lon="-2.53774">
        <ele>13</ele>
        <time>2012-01-22T14:46:04Z</time>
      </trkpt>
      <trkpt lat="48.59625" lon="-2.53774">
        <ele>13</ele>
        <time>2012-01-22T14:46:06Z</time>
      </trkpt>
      <trkpt lat="48.59623" lon="-2.53773">
        <ele>13</ele>
        <time>2012-01-22T14:46:08Z</time>
      </trkpt>
      <trkpt lat="48.59622" lon="-2.53774">
        <ele>13</ele>
        <time>2012-01-22T14:46:09Z</time>
      </trkpt>
      <trkpt lat="48.59621" lon="-2.53774">
        <ele>13</ele>
        <time>2012-01-22T14:46:10Z</time>
      </trkpt>
      <trkpt lat="48.59619" lon="-2.53774">
        <ele>13</ele>
        <time>2012-01-22T14:46:12Z</time>
      </trkpt>
      <trkpt lat="48.59617" lon="-2.53774">
        <ele>13</ele>
        <time>2012-01-22T14:46:14Z</time>
      </trkpt>
      <trkpt lat="48.59615" lon="-2.53774">
        <ele>13</ele>
        <time>2012-01-22T14:46:15Z</time>
      </trkpt>
      <trkpt lat="48.59614" lon="-2.53774">
        <ele>13</ele>
        <time>2012-01-22T14:46:16Z</time>
      </trkpt>
      <trkpt lat="48.59612" lon="-2.53775">
        <ele>13</ele>
        <time>2012-01-22T14:46:18Z</time>
      </trkpt>
      <trkpt lat="48.5961" lon="-2.53775">
        <ele>13</ele>
        <time>2012-01-22T14:46:20Z</time>
      </trkpt>
      <trkpt lat="48.59608" lon="-2.53775">
        <ele>14</ele>
        <time>2012-01-22T14:46:22Z</time>
      </trkpt>
      <trkpt lat="48.59607" lon="-2.53775">
        <ele>14</ele>
        <time>2012-01-22T14:46:24Z</time>
      </trkpt>
      <trkpt lat="48.59606" lon="-2.53774">
        <ele>14</ele>
        <time>2012-01-22T14:46:25Z</time>
      </trkpt>
      <trkpt lat="48.59605" lon="-2.53775">
        <ele>14</ele>
        <time>2012-01-22T14:46:26Z</time>
      </trkpt>
      <trkpt lat="48.59602" lon="-2.53775">
        <ele>15</ele>
        <time>2012-01-22T14:46:28Z</time>
      </trkpt>
      <trkpt lat="48.596" lon="-2.53775">
        <ele>15</ele>
        <time>2012-01-22T14:46:30Z</time>
      </trkpt>
      <trkpt lat="48.59599" lon="-2.53775">
        <ele>15</ele>
        <time>2012-01-22T14:46:32Z</time>
      </trkpt>
      <trkpt lat="48.59598" lon="-2.53774">
        <ele>15</ele>
        <time>2012-01-22T14:46:34Z</time>
      </trkpt>
      <trkpt lat="48.59596" lon="-2.53774">
        <ele>15</ele>
        <time>2012-01-22T14:46:36Z</time>
      </trkpt>
      <trkpt lat="48.59594" lon="-2.53774">
        <ele>15</ele>
        <time>2012-01-22T14:46:38Z</time>
      </trkpt>
      <trkpt lat="48.59592" lon="-2.53775">
        <ele>15</ele>
        <time>2012-01-22T14:46:40Z</time>
      </trkpt>
      <trkpt lat="48.59591" lon="-2.53775">
        <ele>15</ele>
        <time>2012-01-22T14:46:42Z</time>
      </trkpt>
      <trkpt lat="48.59589" lon="-2.53776">
        <ele>15</ele>
        <time>2012-01-22T14:46:43Z</time>
      </trkpt>
      <trkpt lat="48.59587" lon="-2.53777">
        <ele>15</ele>
        <time>2012-01-22T14:46:45Z</time>
      </trkpt>
      <trkpt lat="48.59586" lon="-2.53777">
        <ele>15</ele>
        <time>2012-01-22T14:46:47Z</time>
      </trkpt>
      <trkpt lat="48.59584" lon="-2.53776">
        <ele>15</ele>
        <time>2012-01-22T14:46:49Z</time>
      </trkpt>
      <trkpt lat="48.59582" lon="-2.53776">
        <ele>15</ele>
        <time>2012-01-22T14:46:51Z</time>
      </trkpt>
      <trkpt lat="48.5958" lon="-2.53776">
        <ele>15</ele>
        <time>2012-01-22T14:46:53Z</time>
      </trkpt>
      <trkpt lat="48.59578" lon="-2.53776">
        <ele>16</ele>
        <time>2012-01-22T14:46:55Z</time>
      </trkpt>
      <trkpt lat="48.59576" lon="-2.53776">
        <ele>16</ele>
        <time>2012-01-22T14:46:56Z</time>
      </trkpt>
      <trkpt lat="48.59575" lon="-2.53776">
        <ele>16</ele>
        <time>2012-01-22T14:46:58Z</time>
      </trkpt>
      <trkpt lat="48.59573" lon="-2.53776">
        <ele>16</ele>
        <time>2012-01-22T14:47:00Z</time>
      </trkpt>
      <trkpt lat="48.59572" lon="-2.53775">
        <ele>16</ele>
        <time>2012-01-22T14:47:01Z</time>
      </trkpt>
      <trkpt lat="48.5957" lon="-2.53774">
        <ele>16</ele>
        <time>2012-01-22T14:47:03Z</time>
      </trkpt>
      <trkpt lat="48.59568" lon="-2.53774">
        <ele>16</ele>
        <time>2012-01-22T14:47:05Z</time>
      </trkpt>
      <trkpt lat="48.59566" lon="-2.53775">
        <ele>17</ele>
        <time>2012-01-22T14:47:07Z</time>
      </trkpt>
      <trkpt lat="48.59565" lon="-2.53776">
        <ele>17</ele>
        <time>2012-01-22T14:47:08Z</time>
      </trkpt>
      <trkpt lat="48.59563" lon="-2.53777">
        <ele>17</ele>
        <time>2012-01-22T14:47:09Z</time>
      </trkpt>
      <trkpt lat="48.59561" lon="-2.53778">
        <ele>17</ele>
        <time>2012-01-22T14:47:11Z</time>
      </trkpt>
      <trkpt lat="48.5956" lon="-2.53779">
        <ele>17</ele>
        <time>2012-01-22T14:47:12Z</time>
      </trkpt>
      <trkpt lat="48.59559" lon="-2.5378">
        <ele>17</ele>
        <time>2012-01-22T14:47:13Z</time>
      </trkpt>
      <trkpt lat="48.59557" lon="-2.53782">
        <ele>17</ele>
        <time>2012-01-22T14:47:15Z</time>
      </trkpt>
      <trkpt lat="48.59555" lon="-2.53783">
        <ele>17</ele>
        <time>2012-01-22T14:47:17Z</time>
      </trkpt>
      <trkpt lat="48.59554" lon="-2.53783">
        <ele>17</ele>
        <time>2012-01-22T14:47:19Z</time>
      </trkpt>
      <trkpt lat="48.59552" lon="-2.53781">
        <ele>17</ele>
        <time>2012-01-22T14:47:21Z</time>
      </trkpt>
      <trkpt lat="48.5955" lon="-2.53781">
        <ele>17</ele>
        <time>2012-01-22T14:47:23Z</time>
      </trkpt>
      <trkpt lat="48.59548" lon="-2.5378">
        <ele>17</ele>
        <time>2012-01-22T14:47:25Z</time>
      </trkpt>
      <trkpt lat="48.59546" lon="-2.53779">
        <ele>17</ele>
        <time>2012-01-22T14:47:27Z</time>
      </trkpt>
      <trkpt lat="48.59545" lon="-2.53779">
        <ele>17</ele>
        <time>2012-01-22T14:47:28Z</time>
      </trkpt>
      <trkpt lat="48.59544" lon="-2.53779">
        <ele>17</ele>
        <time>2012-01-22T14:47:29Z</time>
      </trkpt>
      <trkpt lat="48.59542" lon="-2.53777">
        <ele>17</ele>
        <time>2012-01-22T14:47:31Z</time>
      </trkpt>
      <trkpt lat="48.59541" lon="-2.53777">
        <ele>17</ele>
        <time>2012-01-22T14:47:32Z</time>
      </trkpt>
      <trkpt lat="48.59539" lon="-2.53776">
        <ele>18</ele>
        <time>2012-01-22T14:47:34Z</time>
      </trkpt>
      <trkpt lat="48.59537" lon="-2.53775">
        <ele>18</ele>
        <time>2012-01-22T14:47:36Z</time>
      </trkpt>
      <trkpt lat="48.59536" lon="-2.53775">
        <ele>19</ele>
        <time>2012-01-22T14:47:37Z</time>
      </trkpt>
      <trkpt lat="48.59534" lon="-2.53774">
        <ele>19</ele>
        <time>2012-01-22T14:47:38Z</time>
      </trkpt>
      <trkpt lat="48.59533" lon="-2.53774">
        <ele>19</ele>
        <time>2012-01-22T14:47:39Z</time>
      </trkpt>
      <trkpt lat="48.59532" lon="-2.53773">
        <ele>19</ele>
        <time>2012-01-22T14:47:40Z</time>
      </trkpt>
      <trkpt lat="48.5953" lon="-2.53772">
        <ele>20</ele>
        <time>2012-01-22T14:47:42Z</time>
      </trkpt>
      <trkpt lat="48.59528" lon="-2.53771">
        <ele>20</ele>
        <time>2012-01-22T14:47:44Z</time>
      </trkpt>
      <trkpt lat="48.59526" lon="-2.53769">
        <ele>21</ele>
        <time>2012-01-22T14:47:46Z</time>
      </trkpt>
      <trkpt lat="48.59524" lon="-2.53768">
        <ele>21</ele>
        <time>2012-01-22T14:47:48Z</time>
      </trkpt>
      <trkpt lat="48.59522" lon="-2.53767">
        <ele>21</ele>
        <time>2012-01-22T14:47:50Z</time>
      </trkpt>
      <trkpt lat="48.5952" lon="-2.53766">
        <ele>22</ele>
        <time>2012-01-22T14:47:52Z</time>
      </trkpt>
      <trkpt lat="48.59518" lon="-2.53765">
        <ele>22</ele>
        <time>2012-01-22T14:47:54Z</time>
      </trkpt>
      <trkpt lat="48.59517" lon="-2.53764">
        <ele>22</ele>
        <time>2012-01-22T14:47:56Z</time>
      </trkpt>
      <trkpt lat="48.59515" lon="-2.53763">
        <ele>23</ele>
        <time>2012-01-22T14:47:58Z</time>
      </trkpt>
      <trkpt lat="48.59513" lon="-2.53763">
        <ele>23</ele>
        <time>2012-01-22T14:48:00Z</time>
      </trkpt>
      <trkpt lat="48.59511" lon="-2.53762">
        <ele>23</ele>
        <time>2012-01-22T14:48:02Z</time>
      </trkpt>
      <trkpt lat="48.5951" lon="-2.53761">
        <ele>23</ele>
        <time>2012-01-22T14:48:03Z</time>
      </trkpt>
      <trkpt lat="48.59509" lon="-2.53761">
        <ele>23</ele>
        <time>2012-01-22T14:48:04Z</time>
      </trkpt>
      <trkpt lat="48.59507" lon="-2.5376">
        <ele>24</ele>
        <time>2012-01-22T14:48:06Z</time>
      </trkpt>
      <trkpt lat="48.59505" lon="-2.5376">
        <ele>24</ele>
        <time>2012-01-22T14:48:08Z</time>
      </trkpt>
      <trkpt lat="48.59503" lon="-2.5376">
        <ele>25</ele>
        <time>2012-01-22T14:48:10Z</time>
      </trkpt>
      <trkpt lat="48.59502" lon="-2.5376">
        <ele>25</ele>
        <time>2012-01-22T14:48:11Z</time>
      </trkpt>
      <trkpt lat="48.595" lon="-2.5376">
        <ele>25</ele>
        <time>2012-01-22T14:48:12Z</time>
      </trkpt>
      <trkpt lat="48.59499" lon="-2.53759">
        <ele>25</ele>
        <time>2012-01-22T14:48:14Z</time>
      </trkpt>
      <trkpt lat="48.59498" lon="-2.53759">
        <ele>25</ele>
        <time>2012-01-22T14:48:15Z</time>
      </trkpt>
      <trkpt lat="48.59496" lon="-2.53758">
        <ele>25</ele>
        <time>2012-01-22T14:48:17Z</time>
      </trkpt>
      <trkpt lat="48.59495" lon="-2.53757">
        <ele>25</ele>
        <time>2012-01-22T14:48:18Z</time>
      </trkpt>
      <trkpt lat="48.59494" lon="-2.53757">
        <ele>25</ele>
        <time>2012-01-22T14:48:19Z</time>
      </trkpt>
      <trkpt lat="48.59492" lon="-2.53757">
        <ele>25</ele>
        <time>2012-01-22T14:48:21Z</time>
      </trkpt>
      <trkpt lat="48.59489" lon="-2.53757">
        <ele>25</ele>
        <time>2012-01-22T14:48:23Z</time>
      </trkpt>
      <trkpt lat="48.59488" lon="-2.53756">
        <ele>25</ele>
        <time>2012-01-22T14:48:25Z</time>
      </trkpt>
      <trkpt lat="48.59486" lon="-2.53755">
        <ele>25</ele>
        <time>2012-01-22T14:48:26Z</time>
      </trkpt>
      <trkpt lat="48.59484" lon="-2.53754">
        <ele>26</ele>
        <time>2012-01-22T14:48:28Z</time>
      </trkpt>
      <trkpt lat="48.59483" lon="-2.53753">
        <ele>26</ele>
        <time>2012-01-22T14:48:30Z</time>
      </trkpt>
      <trkpt lat="48.59481" lon="-2.53752">
        <ele>26</ele>
        <time>2012-01-22T14:48:31Z</time>
      </trkpt>
      <trkpt lat="48.5948" lon="-2.53751">
        <ele>26</ele>
        <time>2012-01-22T14:48:33Z</time>
      </trkpt>
      <trkpt lat="48.59478" lon="-2.53749">
        <ele>26</ele>
        <time>2012-01-22T14:48:35Z</time>
      </trkpt>
      <trkpt lat="48.59476" lon="-2.53748">
        <ele>26</ele>
        <time>2012-01-22T14:48:37Z</time>
      </trkpt>
      <trkpt lat="48.59475" lon="-2.53748">
        <ele>26</ele>
        <time>2012-01-22T14:48:38Z</time>
      </trkpt>
      <trkpt lat="48.59473" lon="-2.53748">
        <ele>26</ele>
        <time>2012-01-22T14:48:40Z</time>
      </trkpt>
      <trkpt lat="48.59471" lon="-2.53749">
        <ele>26</ele>
        <time>2012-01-22T14:48:42Z</time>
      </trkpt>
      <trkpt lat="48.5947" lon="-2.53749">
        <ele>26</ele>
        <time>2012-01-22T14:48:43Z</time>
      </trkpt>
      <trkpt lat="48.59468" lon="-2.53749">
        <ele>26</ele>
        <time>2012-01-22T14:48:44Z</time>
      </trkpt>
      <trkpt lat="48.59466" lon="-2.5375">
        <ele>26</ele>
        <time>2012-01-22T14:48:46Z</time>
      </trkpt>
      <trkpt lat="48.59464" lon="-2.5375">
        <ele>26</ele>
        <time>2012-01-22T14:48:48Z</time>
      </trkpt>
      <trkpt lat="48.59462" lon="-2.5375">
        <ele>26</ele>
        <time>2012-01-22T14:48:50Z</time>
      </trkpt>
      <trkpt lat="48.59461" lon="-2.5375">
        <ele>26</ele>
        <time>2012-01-22T14:48:52Z</time>
      </trkpt>
      <trkpt lat="48.5946" lon="-2.53751">
        <ele>26</ele>
        <time>2012-01-22T14:48:53Z</time>
      </trkpt>
      <trkpt lat="48.59458" lon="-2.53752">
        <ele>26</ele>
        <time>2012-01-22T14:48:55Z</time>
      </trkpt>
      <trkpt lat="48.59456" lon="-2.53752">
        <ele>26</ele>
        <time>2012-01-22T14:48:57Z</time>
      </trkpt>
      <trkpt lat="48.59454" lon="-2.53753">
        <ele>26</ele>
        <time>2012-01-22T14:48:59Z</time>
      </trkpt>
      <trkpt lat="48.59453" lon="-2.53753">
        <ele>26</ele>
        <time>2012-01-22T14:49:01Z</time>
      </trkpt>
      <trkpt lat="48.59451" lon="-2.53754">
        <ele>26</ele>
        <time>2012-01-22T14:49:03Z</time>
      </trkpt>
      <trkpt lat="48.59449" lon="-2.53754">
        <ele>26</ele>
        <time>2012-01-22T14:49:05Z</time>
      </trkpt>
      <trkpt lat="48.59448" lon="-2.53755">
        <ele>26</ele>
        <time>2012-01-22T14:49:06Z</time>
      </trkpt>
      <trkpt lat="48.59447" lon="-2.53755">
        <ele>26</ele>
        <time>2012-01-22T14:49:07Z</time>
      </trkpt>
      <trkpt lat="48.59446" lon="-2.53756">
        <ele>26</ele>
        <time>2012-01-22T14:49:08Z</time>
      </trkpt>
      <trkpt lat="48.59444" lon="-2.53758">
        <ele>26</ele>
        <time>2012-01-22T14:49:10Z</time>
      </trkpt>
      <trkpt lat="48.59442" lon="-2.53758">
        <ele>26</ele>
        <time>2012-01-22T14:49:12Z</time>
      </trkpt>
      <trkpt lat="48.5944" lon="-2.5376">
        <ele>26</ele>
        <time>2012-01-22T14:49:14Z</time>
      </trkpt>
      <trkpt lat="48.59439" lon="-2.5376">
        <ele>26</ele>
        <time>2012-01-22T14:49:15Z</time>
      </trkpt>
      <trkpt lat="48.59438" lon="-2.53761">
        <ele>26</ele>
        <time>2012-01-22T14:49:16Z</time>
      </trkpt>
      <trkpt lat="48.59436" lon="-2.53762">
        <ele>26</ele>
        <time>2012-01-22T14:49:18Z</time>
      </trkpt>
      <trkpt lat="48.59434" lon="-2.53763">
        <ele>26</ele>
        <time>2012-01-22T14:49:20Z</time>
      </trkpt>
      <trkpt lat="48.59433" lon="-2.53764">
        <ele>26</ele>
        <time>2012-01-22T14:49:21Z</time>
      </trkpt>
      <trkpt lat="48.59431" lon="-2.53764">
        <ele>26</ele>
        <time>2012-01-22T14:49:23Z</time>
      </trkpt>
      <trkpt lat="48.59429" lon="-2.53765">
        <ele>26</ele>
        <time>2012-01-22T14:49:25Z</time>
      </trkpt>
      <trkpt lat="48.59427" lon="-2.53766">
        <ele>26</ele>
        <time>2012-01-22T14:49:27Z</time>
      </trkpt>
      <trkpt lat="48.59425" lon="-2.53767">
        <ele>26</ele>
        <time>2012-01-22T14:49:29Z</time>
      </trkpt>
      <trkpt lat="48.59423" lon="-2.53768">
        <ele>26</ele>
        <time>2012-01-22T14:49:31Z</time>
      </trkpt>
      <trkpt lat="48.59421" lon="-2.53769">
        <ele>26</ele>
        <time>2012-01-22T14:49:32Z</time>
      </trkpt>
      <trkpt lat="48.5942" lon="-2.53769">
        <ele>26</ele>
        <time>2012-01-22T14:49:33Z</time>
      </trkpt>
      <trkpt lat="48.59419" lon="-2.5377">
        <ele>26</ele>
        <time>2012-01-22T14:49:34Z</time>
      </trkpt>
      <trkpt lat="48.59418" lon="-2.5377">
        <ele>27</ele>
        <time>2012-01-22T14:49:35Z</time>
      </trkpt>
      <trkpt lat="48.59417" lon="-2.5377">
        <ele>27</ele>
        <time>2012-01-22T14:49:36Z</time>
      </trkpt>
      <trkpt lat="48.59415" lon="-2.53771">
        <ele>27</ele>
        <time>2012-01-22T14:49:37Z</time>
      </trkpt>
      <trkpt lat="48.59414" lon="-2.53771">
        <ele>27</ele>
        <time>2012-01-22T14:49:39Z</time>
      </trkpt>
      <trkpt lat="48.59412" lon="-2.53771">
        <ele>27</ele>
        <time>2012-01-22T14:49:41Z</time>
      </trkpt>
      <trkpt lat="48.5941" lon="-2.53773">
        <ele>27</ele>
        <time>2012-01-22T14:49:42Z</time>
      </trkpt>
      <trkpt lat="48.59409" lon="-2.53773">
        <ele>27</ele>
        <time>2012-01-22T14:49:44Z</time>
      </trkpt>
      <trkpt lat="48.59407" lon="-2.53774">
        <ele>28</ele>
        <time>2012-01-22T14:49:46Z</time>
      </trkpt>
      <trkpt lat="48.59406" lon="-2.53776">
        <ele>28</ele>
        <time>2012-01-22T14:49:48Z</time>
      </trkpt>
      <trkpt lat="48.59404" lon="-2.53776">
        <ele>28</ele>
        <time>2012-01-22T14:49:50Z</time>
      </trkpt>
      <trkpt lat="48.59403" lon="-2.53776">
        <ele>28</ele>
        <time>2012-01-22T14:49:51Z</time>
      </trkpt>
      <trkpt lat="48.59401" lon="-2.53775">
        <ele>29</ele>
        <time>2012-01-22T14:49:52Z</time>
      </trkpt>
      <trkpt lat="48.594" lon="-2.53775">
        <ele>29</ele>
        <time>2012-01-22T14:49:53Z</time>
      </trkpt>
      <trkpt lat="48.59399" lon="-2.53774">
        <ele>29</ele>
        <time>2012-01-22T14:49:54Z</time>
      </trkpt>
      <trkpt lat="48.59398" lon="-2.53774">
        <ele>29</ele>
        <time>2012-01-22T14:49:55Z</time>
      </trkpt>
      <trkpt lat="48.59396" lon="-2.53774">
        <ele>29</ele>
        <time>2012-01-22T14:49:56Z</time>
      </trkpt>
      <trkpt lat="48.59395" lon="-2.53774">
        <ele>29</ele>
        <time>2012-01-22T14:49:57Z</time>
      </trkpt>
      <trkpt lat="48.59394" lon="-2.53774">
        <ele>29</ele>
        <time>2012-01-22T14:49:58Z</time>
      </trkpt>
      <trkpt lat="48.59393" lon="-2.53773">
        <ele>29</ele>
        <time>2012-01-22T14:49:59Z</time>
      </trkpt>
      <trkpt lat="48.59391" lon="-2.53773">
        <ele>29</ele>
        <time>2012-01-22T14:50:00Z</time>
      </trkpt>
      <trkpt lat="48.5939" lon="-2.53774">
        <ele>29</ele>
        <time>2012-01-22T14:50:01Z</time>
      </trkpt>
      <trkpt lat="48.59389" lon="-2.53772">
        <ele>30</ele>
        <time>2012-01-22T14:50:04Z</time>
      </trkpt>
      <trkpt lat="48.59389" lon="-2.5377">
        <ele>30</ele>
        <time>2012-01-22T14:50:08Z</time>
      </trkpt>
      <trkpt lat="48.59388" lon="-2.5377">
        <ele>30</ele>
        <time>2012-01-22T14:50:10Z</time>
      </trkpt>
      <trkpt lat="48.59386" lon="-2.53769">
        <ele>30</ele>
        <time>2012-01-22T14:50:12Z</time>
      </trkpt>
      <trkpt lat="48.59385" lon="-2.53768">
        <ele>30</ele>
        <time>2012-01-22T14:50:14Z</time>
      </trkpt>
      <trkpt lat="48.59383" lon="-2.53767">
        <ele>30</ele>
        <time>2012-01-22T14:50:16Z</time>
      </trkpt>
      <trkpt lat="48.59381" lon="-2.53766">
        <ele>30</ele>
        <time>2012-01-22T14:50:18Z</time>
      </trkpt>
      <trkpt lat="48.59379" lon="-2.53765">
        <ele>30</ele>
        <time>2012-01-22T14:50:20Z</time>
      </trkpt>
      <trkpt lat="48.59378" lon="-2.53765">
        <ele>30</ele>
        <time>2012-01-22T14:50:21Z</time>
      </trkpt>
      <trkpt lat="48.59376" lon="-2.53765">
        <ele>30</ele>
        <time>2012-01-22T14:50:22Z</time>
      </trkpt>
      <trkpt lat="48.59375" lon="-2.53765">
        <ele>30</ele>
        <time>2012-01-22T14:50:24Z</time>
      </trkpt>
      <trkpt lat="48.59373" lon="-2.53764">
        <ele>30</ele>
        <time>2012-01-22T14:50:26Z</time>
      </trkpt>
      <trkpt lat="48.59372" lon="-2.53764">
        <ele>30</ele>
        <time>2012-01-22T14:50:27Z</time>
      </trkpt>
      <trkpt lat="48.5937" lon="-2.53764">
        <ele>30</ele>
        <time>2012-01-22T14:50:28Z</time>
      </trkpt>
      <trkpt lat="48.59368" lon="-2.53764">
        <ele>30</ele>
        <time>2012-01-22T14:50:30Z</time>
      </trkpt>
      <trkpt lat="48.59367" lon="-2.53763">
        <ele>30</ele>
        <time>2012-01-22T14:50:31Z</time>
      </trkpt>
      <trkpt lat="48.59365" lon="-2.53763">
        <ele>30</ele>
        <time>2012-01-22T14:50:32Z</time>
      </trkpt>
      <trkpt lat="48.59364" lon="-2.53763">
        <ele>30</ele>
        <time>2012-01-22T14:50:33Z</time>
      </trkpt>
      <trkpt lat="48.59363" lon="-2.53763">
        <ele>30</ele>
        <time>2012-01-22T14:50:34Z</time>
      </trkpt>
      <trkpt lat="48.5936" lon="-2.53763">
        <ele>30</ele>
        <time>2012-01-22T14:50:36Z</time>
      </trkpt>
      <trkpt lat="48.59359" lon="-2.53763">
        <ele>30</ele>
        <time>2012-01-22T14:50:37Z</time>
      </trkpt>
      <trkpt lat="48.59358" lon="-2.53763">
        <ele>30</ele>
        <time>2012-01-22T14:50:38Z</time>
      </trkpt>
      <trkpt lat="48.59356" lon="-2.53763">
        <ele>30</ele>
        <time>2012-01-22T14:50:40Z</time>
      </trkpt>
      <trkpt lat="48.59354" lon="-2.53762">
        <ele>30</ele>
        <time>2012-01-22T14:50:41Z</time>
      </trkpt>
      <trkpt lat="48.59352" lon="-2.53762">
        <ele>30</ele>
        <time>2012-01-22T14:50:43Z</time>
      </trkpt>
      <trkpt lat="48.59351" lon="-2.53761">
        <ele>31</ele>
        <time>2012-01-22T14:50:44Z</time>
      </trkpt>
      <trkpt lat="48.59349" lon="-2.53761">
        <ele>31</ele>
        <time>2012-01-22T14:50:45Z</time>
      </trkpt>
      <trkpt lat="48.59348" lon="-2.53761">
        <ele>31</ele>
        <time>2012-01-22T14:50:46Z</time>
      </trkpt>
      <trkpt lat="48.59346" lon="-2.53761">
        <ele>32</ele>
        <time>2012-01-22T14:50:48Z</time>
      </trkpt>
      <trkpt lat="48.59344" lon="-2.53759">
        <ele>32</ele>
        <time>2012-01-22T14:50:50Z</time>
      </trkpt>
      <trkpt lat="48.59342" lon="-2.53758">
        <ele>32</ele>
        <time>2012-01-22T14:50:52Z</time>
      </trkpt>
      <trkpt lat="48.59341" lon="-2.53758">
        <ele>32</ele>
        <time>2012-01-22T14:50:53Z</time>
      </trkpt>
      <trkpt lat="48.59339" lon="-2.53757">
        <ele>32</ele>
        <time>2012-01-22T14:50:55Z</time>
      </trkpt>
      <trkpt lat="48.59337" lon="-2.53758">
        <ele>32</ele>
        <time>2012-01-22T14:50:56Z</time>
      </trkpt>
      <trkpt lat="48.59336" lon="-2.53757">
        <ele>32</ele>
        <time>2012-01-22T14:50:57Z</time>
      </trkpt>
      <trkpt lat="48.59334" lon="-2.53756">
        <ele>32</ele>
        <time>2012-01-22T14:50:59Z</time>
      </trkpt>
      <trkpt lat="48.59332" lon="-2.53754">
        <ele>32</ele>
        <time>2012-01-22T14:51:01Z</time>
      </trkpt>
      <trkpt lat="48.5933" lon="-2.53753">
        <ele>32</ele>
        <time>2012-01-22T14:51:03Z</time>
      </trkpt>
      <trkpt lat="48.59328" lon="-2.53753">
        <ele>32</ele>
        <time>2012-01-22T14:51:04Z</time>
      </trkpt>
      <trkpt lat="48.59327" lon="-2.53753">
        <ele>32</ele>
        <time>2012-01-22T14:51:05Z</time>
      </trkpt>
      <trkpt lat="48.59326" lon="-2.53753">
        <ele>32</ele>
        <time>2012-01-22T14:51:06Z</time>
      </trkpt>
      <trkpt lat="48.59324" lon="-2.53753">
        <ele>32</ele>
        <time>2012-01-22T14:51:07Z</time>
      </trkpt>
      <trkpt lat="48.59323" lon="-2.53753">
        <ele>32</ele>
        <time>2012-01-22T14:51:08Z</time>
      </trkpt>
      <trkpt lat="48.59322" lon="-2.53752">
        <ele>32</ele>
        <time>2012-01-22T14:51:09Z</time>
      </trkpt>
      <trkpt lat="48.59319" lon="-2.53751">
        <ele>32</ele>
        <time>2012-01-22T14:51:11Z</time>
      </trkpt>
      <trkpt lat="48.59318" lon="-2.53751">
        <ele>33</ele>
        <time>2012-01-22T14:51:12Z</time>
      </trkpt>
      <trkpt lat="48.59316" lon="-2.5375">
        <ele>33</ele>
        <time>2012-01-22T14:51:13Z</time>
      </trkpt>
      <trkpt lat="48.59315" lon="-2.5375">
        <ele>34</ele>
        <time>2012-01-22T14:51:14Z</time>
      </trkpt>
      <trkpt lat="48.59314" lon="-2.53749">
        <ele>34</ele>
        <time>2012-01-22T14:51:16Z</time>
      </trkpt>
      <trkpt lat="48.59312" lon="-2.53747">
        <ele>34</ele>
        <time>2012-01-22T14:51:18Z</time>
      </trkpt>
      <trkpt lat="48.59311" lon="-2.53747">
        <ele>34</ele>
        <time>2012-01-22T14:51:19Z</time>
      </trkpt>
      <trkpt lat="48.59309" lon="-2.53746">
        <ele>35</ele>
        <time>2012-01-22T14:51:21Z</time>
      </trkpt>
      <trkpt lat="48.59307" lon="-2.53746">
        <ele>35</ele>
        <time>2012-01-22T14:51:23Z</time>
      </trkpt>
      <trkpt lat="48.59306" lon="-2.53746">
        <ele>35</ele>
        <time>2012-01-22T14:51:24Z</time>
      </trkpt>
      <trkpt lat="48.59304" lon="-2.53745">
        <ele>35</ele>
        <time>2012-01-22T14:51:26Z</time>
      </trkpt>
      <trkpt lat="48.59302" lon="-2.53743">
        <ele>35</ele>
        <time>2012-01-22T14:51:28Z</time>
      </trkpt>
      <trkpt lat="48.59301" lon="-2.53743">
        <ele>35</ele>
        <time>2012-01-22T14:51:29Z</time>
      </trkpt>
      <trkpt lat="48.59299" lon="-2.53743">
        <ele>35</ele>
        <time>2012-01-22T14:51:30Z</time>
      </trkpt>
      <trkpt lat="48.59298" lon="-2.53742">
        <ele>35</ele>
        <time>2012-01-22T14:51:31Z</time>
      </trkpt>
      <trkpt lat="48.59296" lon="-2.53741">
        <ele>35</ele>
        <time>2012-01-22T14:51:33Z</time>
      </trkpt>
      <trkpt lat="48.59295" lon="-2.5374">
        <ele>35</ele>
        <time>2012-01-22T14:51:34Z</time>
      </trkpt>
      <trkpt lat="48.59294" lon="-2.5374">
        <ele>35</ele>
        <time>2012-01-22T14:51:35Z</time>
      </trkpt>
      <trkpt lat="48.59292" lon="-2.53739">
        <ele>35</ele>
        <time>2012-01-22T14:51:36Z</time>
      </trkpt>
      <trkpt lat="48.59291" lon="-2.53739">
        <ele>35</ele>
        <time>2012-01-22T14:51:37Z</time>
      </trkpt>
      <trkpt lat="48.59289" lon="-2.53737">
        <ele>35</ele>
        <time>2012-01-22T14:51:39Z</time>
      </trkpt>
      <trkpt lat="48.59287" lon="-2.53736">
        <ele>35</ele>
        <time>2012-01-22T14:51:41Z</time>
      </trkpt>
      <trkpt lat="48.59286" lon="-2.53735">
        <ele>35</ele>
        <time>2012-01-22T14:51:42Z</time>
      </trkpt>
      <trkpt lat="48.59284" lon="-2.53735">
        <ele>35</ele>
        <time>2012-01-22T14:51:43Z</time>
      </trkpt>
      <trkpt lat="48.59283" lon="-2.53734">
        <ele>35</ele>
        <time>2012-01-22T14:51:45Z</time>
      </trkpt>
      <trkpt lat="48.59281" lon="-2.53733">
        <ele>35</ele>
        <time>2012-01-22T14:51:46Z</time>
      </trkpt>
      <trkpt lat="48.5928" lon="-2.53733">
        <ele>35</ele>
        <time>2012-01-22T14:51:47Z</time>
      </trkpt>
      <trkpt lat="48.59279" lon="-2.53733">
        <ele>35</ele>
        <time>2012-01-22T14:51:48Z</time>
      </trkpt>
      <trkpt lat="48.59278" lon="-2.53732">
        <ele>35</ele>
        <time>2012-01-22T14:51:49Z</time>
      </trkpt>
      <trkpt lat="48.59276" lon="-2.53731">
        <ele>35</ele>
        <time>2012-01-22T14:51:51Z</time>
      </trkpt>
      <trkpt lat="48.59275" lon="-2.5373">
        <ele>35</ele>
        <time>2012-01-22T14:51:52Z</time>
      </trkpt>
      <trkpt lat="48.59274" lon="-2.5373">
        <ele>35</ele>
        <time>2012-01-22T14:51:53Z</time>
      </trkpt>
      <trkpt lat="48.59272" lon="-2.5373">
        <ele>35</ele>
        <time>2012-01-22T14:51:54Z</time>
      </trkpt>
      <trkpt lat="48.59271" lon="-2.5373">
        <ele>35</ele>
        <time>2012-01-22T14:51:55Z</time>
      </trkpt>
      <trkpt lat="48.59269" lon="-2.5373">
        <ele>35</ele>
        <time>2012-01-22T14:51:56Z</time>
      </trkpt>
      <trkpt lat="48.59268" lon="-2.5373">
        <ele>35</ele>
        <time>2012-01-22T14:51:57Z</time>
      </trkpt>
      <trkpt lat="48.59267" lon="-2.53729">
        <ele>35</ele>
        <time>2012-01-22T14:51:58Z</time>
      </trkpt>
      <trkpt lat="48.59266" lon="-2.53728">
        <ele>35</ele>
        <time>2012-01-22T14:51:59Z</time>
      </trkpt>
      <trkpt lat="48.59264" lon="-2.53728">
        <ele>35</ele>
        <time>2012-01-22T14:52:00Z</time>
      </trkpt>
      <trkpt lat="48.59263" lon="-2.53728">
        <ele>35</ele>
        <time>2012-01-22T14:52:01Z</time>
      </trkpt>
      <trkpt lat="48.59262" lon="-2.53726">
        <ele>35</ele>
        <time>2012-01-22T14:52:03Z</time>
      </trkpt>
      <trkpt lat="48.5926" lon="-2.53726">
        <ele>35</ele>
        <time>2012-01-22T14:52:04Z</time>
      </trkpt>
      <trkpt lat="48.59259" lon="-2.53726">
        <ele>35</ele>
        <time>2012-01-22T14:52:05Z</time>
      </trkpt>
      <trkpt lat="48.59258" lon="-2.53726">
        <ele>35</ele>
        <time>2012-01-22T14:52:06Z</time>
      </trkpt>
      <trkpt lat="48.59256" lon="-2.53725">
        <ele>35</ele>
        <time>2012-01-22T14:52:08Z</time>
      </trkpt>
      <trkpt lat="48.59255" lon="-2.53725">
        <ele>35</ele>
        <time>2012-01-22T14:52:09Z</time>
      </trkpt>
      <trkpt lat="48.59254" lon="-2.53725">
        <ele>35</ele>
        <time>2012-01-22T14:52:10Z</time>
      </trkpt>
      <trkpt lat="48.59252" lon="-2.53723">
        <ele>35</ele>
        <time>2012-01-22T14:52:11Z</time>
      </trkpt>
      <trkpt lat="48.5925" lon="-2.53723">
        <ele>35</ele>
        <time>2012-01-22T14:52:12Z</time>
      </trkpt>
      <trkpt lat="48.59248" lon="-2.53723">
        <ele>36</ele>
        <time>2012-01-22T14:52:13Z</time>
      </trkpt>
      <trkpt lat="48.59247" lon="-2.53722">
        <ele>36</ele>
        <time>2012-01-22T14:52:14Z</time>
      </trkpt>
      <trkpt lat="48.59246" lon="-2.53721">
        <ele>37</ele>
        <time>2012-01-22T14:52:15Z</time>
      </trkpt>
      <trkpt lat="48.59244" lon="-2.53721">
        <ele>37</ele>
        <time>2012-01-22T14:52:16Z</time>
      </trkpt>
      <trkpt lat="48.59243" lon="-2.5372">
        <ele>37</ele>
        <time>2012-01-22T14:52:17Z</time>
      </trkpt>
      <trkpt lat="48.59242" lon="-2.5372">
        <ele>37</ele>
        <time>2012-01-22T14:52:18Z</time>
      </trkpt>
      <trkpt lat="48.59239" lon="-2.5372">
        <ele>37</ele>
        <time>2012-01-22T14:52:20Z</time>
      </trkpt>
      <trkpt lat="48.59237" lon="-2.53719">
        <ele>37</ele>
        <time>2012-01-22T14:52:22Z</time>
      </trkpt>
      <trkpt lat="48.59236" lon="-2.53718">
        <ele>37</ele>
        <time>2012-01-22T14:52:23Z</time>
      </trkpt>
      <trkpt lat="48.59234" lon="-2.53717">
        <ele>37</ele>
        <time>2012-01-22T14:52:25Z</time>
      </trkpt>
      <trkpt lat="48.59233" lon="-2.53717">
        <ele>37</ele>
        <time>2012-01-22T14:52:26Z</time>
      </trkpt>
      <trkpt lat="48.5923" lon="-2.53715">
        <ele>37</ele>
        <time>2012-01-22T14:52:28Z</time>
      </trkpt>
      <trkpt lat="48.59229" lon="-2.53714">
        <ele>37</ele>
        <time>2012-01-22T14:52:30Z</time>
      </trkpt>
      <trkpt lat="48.59227" lon="-2.53713">
        <ele>37</ele>
        <time>2012-01-22T14:52:32Z</time>
      </trkpt>
      <trkpt lat="48.59224" lon="-2.53713">
        <ele>37</ele>
        <time>2012-01-22T14:52:34Z</time>
      </trkpt>
      <trkpt lat="48.59222" lon="-2.53711">
        <ele>37</ele>
        <time>2012-01-22T14:52:36Z</time>
      </trkpt>
      <trkpt lat="48.5922" lon="-2.53709">
        <ele>37</ele>
        <time>2012-01-22T14:52:38Z</time>
      </trkpt>
      <trkpt lat="48.59219" lon="-2.53709">
        <ele>37</ele>
        <time>2012-01-22T14:52:39Z</time>
      </trkpt>
      <trkpt lat="48.59217" lon="-2.53708">
        <ele>37</ele>
        <time>2012-01-22T14:52:40Z</time>
      </trkpt>
      <trkpt lat="48.59216" lon="-2.53708">
        <ele>37</ele>
        <time>2012-01-22T14:52:41Z</time>
      </trkpt>
      <trkpt lat="48.59215" lon="-2.53707">
        <ele>37</ele>
        <time>2012-01-22T14:52:42Z</time>
      </trkpt>
      <trkpt lat="48.59214" lon="-2.53705">
        <ele>37</ele>
        <time>2012-01-22T14:52:43Z</time>
      </trkpt>
      <trkpt lat="48.59213" lon="-2.53704">
        <ele>37</ele>
        <time>2012-01-22T14:52:44Z</time>
      </trkpt>
      <trkpt lat="48.59211" lon="-2.53702">
        <ele>37</ele>
        <time>2012-01-22T14:52:46Z</time>
      </trkpt>
      <trkpt lat="48.59209" lon="-2.53699">
        <ele>37</ele>
        <time>2012-01-22T14:52:48Z</time>
      </trkpt>
      <trkpt lat="48.59207" lon="-2.53697">
        <ele>37</ele>
        <time>2012-01-22T14:52:50Z</time>
      </trkpt>
      <trkpt lat="48.59206" lon="-2.53694">
        <ele>37</ele>
        <time>2012-01-22T14:52:52Z</time>
      </trkpt>
      <trkpt lat="48.59205" lon="-2.53691">
        <ele>37</ele>
        <time>2012-01-22T14:52:54Z</time>
      </trkpt>
      <trkpt lat="48.59204" lon="-2.53688">
        <ele>37</ele>
        <time>2012-01-22T14:52:56Z</time>
      </trkpt>
      <trkpt lat="48.59203" lon="-2.53686">
        <ele>37</ele>
        <time>2012-01-22T14:52:57Z</time>
      </trkpt>
      <trkpt lat="48.59202" lon="-2.53684">
        <ele>37</ele>
        <time>2012-01-22T14:52:58Z</time>
      </trkpt>
      <trkpt lat="48.59201" lon="-2.53682">
        <ele>37</ele>
        <time>2012-01-22T14:52:59Z</time>
      </trkpt>
      <trkpt lat="48.592" lon="-2.53679">
        <ele>37</ele>
        <time>2012-01-22T14:53:01Z</time>
      </trkpt>
      <trkpt lat="48.592" lon="-2.53677">
        <ele>37</ele>
        <time>2012-01-22T14:53:02Z</time>
      </trkpt>
      <trkpt lat="48.592" lon="-2.53675">
        <ele>37</ele>
        <time>2012-01-22T14:53:03Z</time>
      </trkpt>
      <trkpt lat="48.59198" lon="-2.53672">
        <ele>37</ele>
        <time>2012-01-22T14:53:05Z</time>
      </trkpt>
      <trkpt lat="48.59197" lon="-2.5367">
        <ele>37</ele>
        <time>2012-01-22T14:53:07Z</time>
      </trkpt>
      <trkpt lat="48.59196" lon="-2.53668">
        <ele>37</ele>
        <time>2012-01-22T14:53:08Z</time>
      </trkpt>
      <trkpt lat="48.59195" lon="-2.53664">
        <ele>37</ele>
        <time>2012-01-22T14:53:10Z</time>
      </trkpt>
      <trkpt lat="48.59194" lon="-2.53662">
        <ele>37</ele>
        <time>2012-01-22T14:53:12Z</time>
      </trkpt>
      <trkpt lat="48.59192" lon="-2.53659">
        <ele>37</ele>
        <time>2012-01-22T14:53:14Z</time>
      </trkpt>
      <trkpt lat="48.59191" lon="-2.53656">
        <ele>37</ele>
        <time>2012-01-22T14:53:16Z</time>
      </trkpt>
      <trkpt lat="48.5919" lon="-2.53653">
        <ele>37</ele>
        <time>2012-01-22T14:53:18Z</time>
      </trkpt>
      <trkpt lat="48.59188" lon="-2.5365">
        <ele>37</ele>
        <time>2012-01-22T14:53:20Z</time>
      </trkpt>
      <trkpt lat="48.59186" lon="-2.53647">
        <ele>37</ele>
        <time>2012-01-22T14:53:22Z</time>
      </trkpt>
      <trkpt lat="48.59185" lon="-2.53645">
        <ele>37</ele>
        <time>2012-01-22T14:53:23Z</time>
      </trkpt>
      <trkpt lat="48.59184" lon="-2.53643">
        <ele>37</ele>
        <time>2012-01-22T14:53:24Z</time>
      </trkpt>
      <trkpt lat="48.59183" lon="-2.5364">
        <ele>37</ele>
        <time>2012-01-22T14:53:26Z</time>
      </trkpt>
      <trkpt lat="48.59181" lon="-2.53638">
        <ele>37</ele>
        <time>2012-01-22T14:53:28Z</time>
      </trkpt>
      <trkpt lat="48.59179" lon="-2.53636">
        <ele>37</ele>
        <time>2012-01-22T14:53:30Z</time>
      </trkpt>
      <trkpt lat="48.59178" lon="-2.53635">
        <ele>37</ele>
        <time>2012-01-22T14:53:31Z</time>
      </trkpt>
      <trkpt lat="48.59177" lon="-2.53634">
        <ele>37</ele>
        <time>2012-01-22T14:53:32Z</time>
      </trkpt>
      <trkpt lat="48.59174" lon="-2.53632">
        <ele>37</ele>
        <time>2012-01-22T14:53:34Z</time>
      </trkpt>
      <trkpt lat="48.59172" lon="-2.5363">
        <ele>37</ele>
        <time>2012-01-22T14:53:36Z</time>
      </trkpt>
      <trkpt lat="48.59171" lon="-2.5363">
        <ele>37</ele>
        <time>2012-01-22T14:53:37Z</time>
      </trkpt>
      <trkpt lat="48.5917" lon="-2.5363">
        <ele>37</ele>
        <time>2012-01-22T14:53:38Z</time>
      </trkpt>
      <trkpt lat="48.59169" lon="-2.53629">
        <ele>37</ele>
        <time>2012-01-22T14:53:39Z</time>
      </trkpt>
      <trkpt lat="48.59167" lon="-2.53628">
        <ele>37</ele>
        <time>2012-01-22T14:53:40Z</time>
      </trkpt>
      <trkpt lat="48.59166" lon="-2.53628">
        <ele>37</ele>
        <time>2012-01-22T14:53:41Z</time>
      </trkpt>
      <trkpt lat="48.59164" lon="-2.53626">
        <ele>37</ele>
        <time>2012-01-22T14:53:43Z</time>
      </trkpt>
      <trkpt lat="48.59163" lon="-2.53624">
        <ele>37</ele>
        <time>2012-01-22T14:53:45Z</time>
      </trkpt>
      <trkpt lat="48.59161" lon="-2.53623">
        <ele>37</ele>
        <time>2012-01-22T14:53:46Z</time>
      </trkpt>
      <trkpt lat="48.5916" lon="-2.53623">
        <ele>37</ele>
        <time>2012-01-22T14:53:47Z</time>
      </trkpt>
      <trkpt lat="48.59158" lon="-2.53622">
        <ele>37</ele>
        <time>2012-01-22T14:53:49Z</time>
      </trkpt>
      <trkpt lat="48.59157" lon="-2.53621">
        <ele>37</ele>
        <time>2012-01-22T14:53:50Z</time>
      </trkpt>
      <trkpt lat="48.59156" lon="-2.53621">
        <ele>37</ele>
        <time>2012-01-22T14:53:51Z</time>
      </trkpt>
      <trkpt lat="48.59154" lon="-2.5362">
        <ele>37</ele>
        <time>2012-01-22T14:53:53Z</time>
      </trkpt>
      <trkpt lat="48.59152" lon="-2.5362">
        <ele>37</ele>
        <time>2012-01-22T14:53:55Z</time>
      </trkpt>
      <trkpt lat="48.5915" lon="-2.5362">
        <ele>37</ele>
        <time>2012-01-22T14:53:56Z</time>
      </trkpt>
      <trkpt lat="48.59149" lon="-2.53619">
        <ele>37</ele>
        <time>2012-01-22T14:53:57Z</time>
      </trkpt>
      <trkpt lat="48.59148" lon="-2.53619">
        <ele>36</ele>
        <time>2012-01-22T14:53:58Z</time>
      </trkpt>
      <trkpt lat="48.59147" lon="-2.53618">
        <ele>36</ele>
        <time>2012-01-22T14:53:59Z</time>
      </trkpt>
      <trkpt lat="48.59145" lon="-2.53617">
        <ele>36</ele>
        <time>2012-01-22T14:54:01Z</time>
      </trkpt>
      <trkpt lat="48.59143" lon="-2.53615">
        <ele>35</ele>
        <time>2012-01-22T14:54:03Z</time>
      </trkpt>
      <trkpt lat="48.5914" lon="-2.53613">
        <ele>35</ele>
        <time>2012-01-22T14:54:05Z</time>
      </trkpt>
      <trkpt lat="48.59139" lon="-2.53613">
        <ele>35</ele>
        <time>2012-01-22T14:54:06Z</time>
      </trkpt>
      <trkpt lat="48.59138" lon="-2.53612">
        <ele>35</ele>
        <time>2012-01-22T14:54:07Z</time>
      </trkpt>
      <trkpt lat="48.59137" lon="-2.53611">
        <ele>35</ele>
        <time>2012-01-22T14:54:08Z</time>
      </trkpt>
      <trkpt lat="48.59135" lon="-2.5361">
        <ele>35</ele>
        <time>2012-01-22T14:54:09Z</time>
      </trkpt>
      <trkpt lat="48.59134" lon="-2.53609">
        <ele>35</ele>
        <time>2012-01-22T14:54:10Z</time>
      </trkpt>
      <trkpt lat="48.59133" lon="-2.53608">
        <ele>35</ele>
        <time>2012-01-22T14:54:11Z</time>
      </trkpt>
      <trkpt lat="48.59132" lon="-2.53606">
        <ele>35</ele>
        <time>2012-01-22T14:54:13Z</time>
      </trkpt>
      <trkpt lat="48.5913" lon="-2.53605">
        <ele>35</ele>
        <time>2012-01-22T14:54:14Z</time>
      </trkpt>
      <trkpt lat="48.59129" lon="-2.53605">
        <ele>35</ele>
        <time>2012-01-22T14:54:15Z</time>
      </trkpt>
      <trkpt lat="48.59127" lon="-2.53604">
        <ele>35</ele>
        <time>2012-01-22T14:54:16Z</time>
      </trkpt>
      <trkpt lat="48.59126" lon="-2.53604">
        <ele>35</ele>
        <time>2012-01-22T14:54:17Z</time>
      </trkpt>
      <trkpt lat="48.59125" lon="-2.53603">
        <ele>35</ele>
        <time>2012-01-22T14:54:18Z</time>
      </trkpt>
      <trkpt lat="48.59124" lon="-2.53602">
        <ele>35</ele>
        <time>2012-01-22T14:54:19Z</time>
      </trkpt>
      <trkpt lat="48.59122" lon="-2.536">
        <ele>35</ele>
        <time>2012-01-22T14:54:21Z</time>
      </trkpt>
      <trkpt lat="48.59121" lon="-2.53599">
        <ele>35</ele>
        <time>2012-01-22T14:54:22Z</time>
      </trkpt>
      <trkpt lat="48.59118" lon="-2.53597">
        <ele>36</ele>
        <time>2012-01-22T14:54:24Z</time>
      </trkpt>
      <trkpt lat="48.59116" lon="-2.53597">
        <ele>36</ele>
        <time>2012-01-22T14:54:25Z</time>
      </trkpt>
      <trkpt lat="48.59115" lon="-2.53596">
        <ele>36</ele>
        <time>2012-01-22T14:54:26Z</time>
      </trkpt>
      <trkpt lat="48.59113" lon="-2.53596">
        <ele>36</ele>
        <time>2012-01-22T14:54:28Z</time>
      </trkpt>
      <trkpt lat="48.59111" lon="-2.53595">
        <ele>36</ele>
        <time>2012-01-22T14:54:29Z</time>
      </trkpt>
      <trkpt lat="48.5911" lon="-2.53595">
        <ele>36</ele>
        <time>2012-01-22T14:54:30Z</time>
      </trkpt>
      <trkpt lat="48.59109" lon="-2.53595">
        <ele>36</ele>
        <time>2012-01-22T14:54:31Z</time>
      </trkpt>
      <trkpt lat="48.59107" lon="-2.53594">
        <ele>36</ele>
        <time>2012-01-22T14:54:33Z</time>
      </trkpt>
      <trkpt lat="48.59106" lon="-2.53593">
        <ele>36</ele>
        <time>2012-01-22T14:54:35Z</time>
      </trkpt>
      <trkpt lat="48.59104" lon="-2.53592">
        <ele>36</ele>
        <time>2012-01-22T14:54:37Z</time>
      </trkpt>
      <trkpt lat="48.59102" lon="-2.53592">
        <ele>36</ele>
        <time>2012-01-22T14:54:39Z</time>
      </trkpt>
      <trkpt lat="48.591" lon="-2.5359">
        <ele>36</ele>
        <time>2012-01-22T14:54:41Z</time>
      </trkpt>
      <trkpt lat="48.59099" lon="-2.5359">
        <ele>36</ele>
        <time>2012-01-22T14:54:42Z</time>
      </trkpt>
      <trkpt lat="48.59097" lon="-2.53587">
        <ele>36</ele>
        <time>2012-01-22T14:54:44Z</time>
      </trkpt>
      <trkpt lat="48.59095" lon="-2.53586">
        <ele>36</ele>
        <time>2012-01-22T14:54:45Z</time>
      </trkpt>
      <trkpt lat="48.59094" lon="-2.53584">
        <ele>36</ele>
        <time>2012-01-22T14:54:47Z</time>
      </trkpt>
      <trkpt lat="48.59092" lon="-2.53583">
        <ele>36</ele>
        <time>2012-01-22T14:54:49Z</time>
      </trkpt>
      <trkpt lat="48.5909" lon="-2.53581">
        <ele>36</ele>
        <time>2012-01-22T14:54:51Z</time>
      </trkpt>
      <trkpt lat="48.59089" lon="-2.5358">
        <ele>36</ele>
        <time>2012-01-22T14:54:52Z</time>
      </trkpt>
      <trkpt lat="48.59088" lon="-2.53579">
        <ele>36</ele>
        <time>2012-01-22T14:54:53Z</time>
      </trkpt>
      <trkpt lat="48.59086" lon="-2.53578">
        <ele>36</ele>
        <time>2012-01-22T14:54:55Z</time>
      </trkpt>
      <trkpt lat="48.59084" lon="-2.53577">
        <ele>36</ele>
        <time>2012-01-22T14:54:57Z</time>
      </trkpt>
      <trkpt lat="48.59082" lon="-2.53575">
        <ele>36</ele>
        <time>2012-01-22T14:54:59Z</time>
      </trkpt>
      <trkpt lat="48.59081" lon="-2.53574">
        <ele>36</ele>
        <time>2012-01-22T14:55:00Z</time>
      </trkpt>
      <trkpt lat="48.59079" lon="-2.53574">
        <ele>37</ele>
        <time>2012-01-22T14:55:01Z</time>
      </trkpt>
      <trkpt lat="48.59077" lon="-2.53573">
        <ele>39</ele>
        <time>2012-01-22T14:55:03Z</time>
      </trkpt>
      <trkpt lat="48.59075" lon="-2.53571">
        <ele>40</ele>
        <time>2012-01-22T14:55:05Z</time>
      </trkpt>
      <trkpt lat="48.59074" lon="-2.5357">
        <ele>41</ele>
        <time>2012-01-22T14:55:06Z</time>
      </trkpt>
      <trkpt lat="48.59072" lon="-2.53567">
        <ele>43</ele>
        <time>2012-01-22T14:55:08Z</time>
      </trkpt>
      <trkpt lat="48.59071" lon="-2.53565">
        <ele>44</ele>
        <time>2012-01-22T14:55:09Z</time>
      </trkpt>
      <trkpt lat="48.59069" lon="-2.53562">
        <ele>45</ele>
        <time>2012-01-22T14:55:11Z</time>
      </trkpt>
      <trkpt lat="48.59069" lon="-2.5356">
        <ele>46</ele>
        <time>2012-01-22T14:55:12Z</time>
      </trkpt>
      <trkpt lat="48.59069" lon="-2.53558">
        <ele>46</ele>
        <time>2012-01-22T14:55:13Z</time>
      </trkpt>
      <trkpt lat="48.59068" lon="-2.53556">
        <ele>46</ele>
        <time>2012-01-22T14:55:15Z</time>
      </trkpt>
      <trkpt lat="48.59068" lon="-2.53554">
        <ele>46</ele>
        <time>2012-01-22T14:55:16Z</time>
      </trkpt>
      <trkpt lat="48.59068" lon="-2.53552">
        <ele>46</ele>
        <time>2012-01-22T14:55:17Z</time>
      </trkpt>
      <trkpt lat="48.59068" lon="-2.5355">
        <ele>46</ele>
        <time>2012-01-22T14:55:19Z</time>
      </trkpt>
      <trkpt lat="48.59067" lon="-2.53548">
        <ele>46</ele>
        <time>2012-01-22T14:55:20Z</time>
      </trkpt>
      <trkpt lat="48.59067" lon="-2.53546">
        <ele>46</ele>
        <time>2012-01-22T14:55:21Z</time>
      </trkpt>
      <trkpt lat="48.59067" lon="-2.53544">
        <ele>46</ele>
        <time>2012-01-22T14:55:23Z</time>
      </trkpt>
      <trkpt lat="48.59067" lon="-2.53541">
        <ele>47</ele>
        <time>2012-01-22T14:55:25Z</time>
      </trkpt>
      <trkpt lat="48.59067" lon="-2.53539">
        <ele>47</ele>
        <time>2012-01-22T14:55:26Z</time>
      </trkpt>
      <trkpt lat="48.59067" lon="-2.53535">
        <ele>47</ele>
        <time>2012-01-22T14:55:28Z</time>
      </trkpt>
      <trkpt lat="48.59067" lon="-2.53533">
        <ele>47</ele>
        <time>2012-01-22T14:55:29Z</time>
      </trkpt>
      <trkpt lat="48.59068" lon="-2.5353">
        <ele>47</ele>
        <time>2012-01-22T14:55:31Z</time>
      </trkpt>
      <trkpt lat="48.59068" lon="-2.53526">
        <ele>47</ele>
        <time>2012-01-22T14:55:33Z</time>
      </trkpt>
      <trkpt lat="48.59068" lon="-2.53525">
        <ele>47</ele>
        <time>2012-01-22T14:55:34Z</time>
      </trkpt>
      <trkpt lat="48.59068" lon="-2.53523">
        <ele>47</ele>
        <time>2012-01-22T14:55:35Z</time>
      </trkpt>
      <trkpt lat="48.59068" lon="-2.53521">
        <ele>47</ele>
        <time>2012-01-22T14:55:36Z</time>
      </trkpt>
      <trkpt lat="48.59068" lon="-2.5352">
        <ele>47</ele>
        <time>2012-01-22T14:55:37Z</time>
      </trkpt>
      <trkpt lat="48.59068" lon="-2.53517">
        <ele>47</ele>
        <time>2012-01-22T14:55:39Z</time>
      </trkpt>
      <trkpt lat="48.59066" lon="-2.53514">
        <ele>47</ele>
        <time>2012-01-22T14:55:41Z</time>
      </trkpt>
      <trkpt lat="48.59066" lon="-2.53512">
        <ele>47</ele>
        <time>2012-01-22T14:55:42Z</time>
      </trkpt>
      <trkpt lat="48.59065" lon="-2.5351">
        <ele>47</ele>
        <time>2012-01-22T14:55:44Z</time>
      </trkpt>
      <trkpt lat="48.59064" lon="-2.53508">
        <ele>47</ele>
        <time>2012-01-22T14:55:46Z</time>
      </trkpt>
      <trkpt lat="48.59062" lon="-2.53505">
        <ele>47</ele>
        <time>2012-01-22T14:55:48Z</time>
      </trkpt>
      <trkpt lat="48.59061" lon="-2.53503">
        <ele>47</ele>
        <time>2012-01-22T14:55:50Z</time>
      </trkpt>
      <trkpt lat="48.59059" lon="-2.53502">
        <ele>47</ele>
        <time>2012-01-22T14:55:52Z</time>
      </trkpt>
      <trkpt lat="48.59058" lon="-2.535">
        <ele>47</ele>
        <time>2012-01-22T14:55:54Z</time>
      </trkpt>
      <trkpt lat="48.59056" lon="-2.53498">
        <ele>47</ele>
        <time>2012-01-22T14:55:56Z</time>
      </trkpt>
      <trkpt lat="48.59055" lon="-2.53498">
        <ele>47</ele>
        <time>2012-01-22T14:55:58Z</time>
      </trkpt>
      <trkpt lat="48.59053" lon="-2.53497">
        <ele>47</ele>
        <time>2012-01-22T14:56:00Z</time>
      </trkpt>
      <trkpt lat="48.59051" lon="-2.53497">
        <ele>47</ele>
        <time>2012-01-22T14:56:01Z</time>
      </trkpt>
      <trkpt lat="48.5905" lon="-2.53497">
        <ele>47</ele>
        <time>2012-01-22T14:56:02Z</time>
      </trkpt>
      <trkpt lat="48.59049" lon="-2.53497">
        <ele>47</ele>
        <time>2012-01-22T14:56:03Z</time>
      </trkpt>
      <trkpt lat="48.59048" lon="-2.53497">
        <ele>47</ele>
        <time>2012-01-22T14:56:04Z</time>
      </trkpt>
      <trkpt lat="48.59047" lon="-2.53496">
        <ele>47</ele>
        <time>2012-01-22T14:56:05Z</time>
      </trkpt>
      <trkpt lat="48.59045" lon="-2.53495">
        <ele>47</ele>
        <time>2012-01-22T14:56:07Z</time>
      </trkpt>
      <trkpt lat="48.59042" lon="-2.53494">
        <ele>47</ele>
        <time>2012-01-22T14:56:09Z</time>
      </trkpt>
      <trkpt lat="48.5904" lon="-2.53492">
        <ele>47</ele>
        <time>2012-01-22T14:56:11Z</time>
      </trkpt>
      <trkpt lat="48.59039" lon="-2.53492">
        <ele>47</ele>
        <time>2012-01-22T14:56:13Z</time>
      </trkpt>
      <trkpt lat="48.59037" lon="-2.53493">
        <ele>47</ele>
        <time>2012-01-22T14:56:14Z</time>
      </trkpt>
      <trkpt lat="48.59036" lon="-2.53493">
        <ele>47</ele>
        <time>2012-01-22T14:56:15Z</time>
      </trkpt>
      <trkpt lat="48.59035" lon="-2.53493">
        <ele>47</ele>
        <time>2012-01-22T14:56:16Z</time>
      </trkpt>
      <trkpt lat="48.59034" lon="-2.53493">
        <ele>47</ele>
        <time>2012-01-22T14:56:17Z</time>
      </trkpt>
      <trkpt lat="48.59032" lon="-2.53493">
        <ele>47</ele>
        <time>2012-01-22T14:56:19Z</time>
      </trkpt>
      <trkpt lat="48.5903" lon="-2.53493">
        <ele>47</ele>
        <time>2012-01-22T14:56:20Z</time>
      </trkpt>
      <trkpt lat="48.59029" lon="-2.53492">
        <ele>47</ele>
        <time>2012-01-22T14:56:21Z</time>
      </trkpt>
      <trkpt lat="48.59028" lon="-2.53492">
        <ele>47</ele>
        <time>2012-01-22T14:56:22Z</time>
      </trkpt>
      <trkpt lat="48.59026" lon="-2.53492">
        <ele>47</ele>
        <time>2012-01-22T14:56:23Z</time>
      </trkpt>
      <trkpt lat="48.59025" lon="-2.53492">
        <ele>47</ele>
        <time>2012-01-22T14:56:24Z</time>
      </trkpt>
      <trkpt lat="48.59023" lon="-2.53491">
        <ele>47</ele>
        <time>2012-01-22T14:56:26Z</time>
      </trkpt>
      <trkpt lat="48.59022" lon="-2.5349">
        <ele>47</ele>
        <time>2012-01-22T14:56:27Z</time>
      </trkpt>
      <trkpt lat="48.5902" lon="-2.53489">
        <ele>47</ele>
        <time>2012-01-22T14:56:29Z</time>
      </trkpt>
      <trkpt lat="48.59019" lon="-2.53488">
        <ele>47</ele>
        <time>2012-01-22T14:56:30Z</time>
      </trkpt>
      <trkpt lat="48.59017" lon="-2.53487">
        <ele>47</ele>
        <time>2012-01-22T14:56:31Z</time>
      </trkpt>
      <trkpt lat="48.59016" lon="-2.53487">
        <ele>47</ele>
        <time>2012-01-22T14:56:32Z</time>
      </trkpt>
      <trkpt lat="48.59015" lon="-2.53486">
        <ele>47</ele>
        <time>2012-01-22T14:56:33Z</time>
      </trkpt>
      <trkpt lat="48.59014" lon="-2.53486">
        <ele>47</ele>
        <time>2012-01-22T14:56:34Z</time>
      </trkpt>
      <trkpt lat="48.59013" lon="-2.53485">
        <ele>47</ele>
        <time>2012-01-22T14:56:35Z</time>
      </trkpt>
      <trkpt lat="48.59011" lon="-2.53485">
        <ele>47</ele>
        <time>2012-01-22T14:56:36Z</time>
      </trkpt>
      <trkpt lat="48.5901" lon="-2.53484">
        <ele>47</ele>
        <time>2012-01-22T14:56:37Z</time>
      </trkpt>
      <trkpt lat="48.59009" lon="-2.53484">
        <ele>47</ele>
        <time>2012-01-22T14:56:38Z</time>
      </trkpt>
      <trkpt lat="48.59008" lon="-2.53483">
        <ele>47</ele>
        <time>2012-01-22T14:56:39Z</time>
      </trkpt>
      <trkpt lat="48.59007" lon="-2.53483">
        <ele>47</ele>
        <time>2012-01-22T14:56:40Z</time>
      </trkpt>
      <trkpt lat="48.59005" lon="-2.53482">
        <ele>47</ele>
        <time>2012-01-22T14:56:41Z</time>
      </trkpt>
      <trkpt lat="48.59004" lon="-2.53482">
        <ele>47</ele>
        <time>2012-01-22T14:56:42Z</time>
      </trkpt>
      <trkpt lat="48.59003" lon="-2.53481">
        <ele>47</ele>
        <time>2012-01-22T14:56:43Z</time>
      </trkpt>
      <trkpt lat="48.59002" lon="-2.53481">
        <ele>47</ele>
        <time>2012-01-22T14:56:44Z</time>
      </trkpt>
      <trkpt lat="48.59" lon="-2.5348">
        <ele>47</ele>
        <time>2012-01-22T14:56:45Z</time>
      </trkpt>
      <trkpt lat="48.58999" lon="-2.5348">
        <ele>47</ele>
        <time>2012-01-22T14:56:46Z</time>
      </trkpt>
      <trkpt lat="48.58998" lon="-2.53479">
        <ele>47</ele>
        <time>2012-01-22T14:56:47Z</time>
      </trkpt>
      <trkpt lat="48.58997" lon="-2.53479">
        <ele>47</ele>
        <time>2012-01-22T14:56:48Z</time>
      </trkpt>
      <trkpt lat="48.58995" lon="-2.53479">
        <ele>47</ele>
        <time>2012-01-22T14:56:49Z</time>
      </trkpt>
      <trkpt lat="48.58994" lon="-2.53479">
        <ele>47</ele>
        <time>2012-01-22T14:56:50Z</time>
      </trkpt>
      <trkpt lat="48.58992" lon="-2.53477">
        <ele>47</ele>
        <time>2012-01-22T14:56:52Z</time>
      </trkpt>
      <trkpt lat="48.58991" lon="-2.53477">
        <ele>47</ele>
        <time>2012-01-22T14:56:53Z</time>
      </trkpt>
      <trkpt lat="48.5899" lon="-2.53476">
        <ele>47</ele>
        <time>2012-01-22T14:56:54Z</time>
      </trkpt>
      <trkpt lat="48.58988" lon="-2.53475">
        <ele>47</ele>
        <time>2012-01-22T14:56:56Z</time>
      </trkpt>
      <trkpt lat="48.58987" lon="-2.53475">
        <ele>47</ele>
        <time>2012-01-22T14:56:58Z</time>
      </trkpt>
      <trkpt lat="48.58985" lon="-2.53474">
        <ele>48</ele>
        <time>2012-01-22T14:57:00Z</time>
      </trkpt>
      <trkpt lat="48.58983" lon="-2.53475">
        <ele>49</ele>
        <time>2012-01-22T14:57:08Z</time>
      </trkpt>
      <trkpt lat="48.58982" lon="-2.53475">
        <ele>49</ele>
        <time>2012-01-22T14:57:10Z</time>
      </trkpt>
      <trkpt lat="48.58981" lon="-2.53474">
        <ele>50</ele>
        <time>2012-01-22T14:57:12Z</time>
      </trkpt>
      <trkpt lat="48.58979" lon="-2.53474">
        <ele>50</ele>
        <time>2012-01-22T14:57:14Z</time>
      </trkpt>
      <trkpt lat="48.58977" lon="-2.53473">
        <ele>50</ele>
        <time>2012-01-22T14:57:16Z</time>
      </trkpt>
      <trkpt lat="48.58976" lon="-2.53473">
        <ele>50</ele>
        <time>2012-01-22T14:57:18Z</time>
      </trkpt>
      <trkpt lat="48.58974" lon="-2.53472">
        <ele>50</ele>
        <time>2012-01-22T14:57:20Z</time>
      </trkpt>
      <trkpt lat="48.58972" lon="-2.53471">
        <ele>50</ele>
        <time>2012-01-22T14:57:22Z</time>
      </trkpt>
      <trkpt lat="48.58971" lon="-2.53471">
        <ele>51</ele>
        <time>2012-01-22T14:57:23Z</time>
      </trkpt>
      <trkpt lat="48.58969" lon="-2.5347">
        <ele>51</ele>
        <time>2012-01-22T14:57:25Z</time>
      </trkpt>
      <trkpt lat="48.58967" lon="-2.53469">
        <ele>51</ele>
        <time>2012-01-22T14:57:27Z</time>
      </trkpt>
      <trkpt lat="48.58965" lon="-2.53469">
        <ele>51</ele>
        <time>2012-01-22T14:57:29Z</time>
      </trkpt>
      <trkpt lat="48.58963" lon="-2.53468">
        <ele>51</ele>
        <time>2012-01-22T14:57:31Z</time>
      </trkpt>
      <trkpt lat="48.58962" lon="-2.53467">
        <ele>51</ele>
        <time>2012-01-22T14:57:32Z</time>
      </trkpt>
      <trkpt lat="48.58961" lon="-2.53467">
        <ele>51</ele>
        <time>2012-01-22T14:57:33Z</time>
      </trkpt>
      <trkpt lat="48.58959" lon="-2.53466">
        <ele>51</ele>
        <time>2012-01-22T14:57:35Z</time>
      </trkpt>
      <trkpt lat="48.58957" lon="-2.53465">
        <ele>51</ele>
        <time>2012-01-22T14:57:37Z</time>
      </trkpt>
      <trkpt lat="48.58956" lon="-2.53465">
        <ele>51</ele>
        <time>2012-01-22T14:57:38Z</time>
      </trkpt>
      <trkpt lat="48.58955" lon="-2.53464">
        <ele>51</ele>
        <time>2012-01-22T14:57:39Z</time>
      </trkpt>
      <trkpt lat="48.58952" lon="-2.53463">
        <ele>51</ele>
        <time>2012-01-22T14:57:41Z</time>
      </trkpt>
      <trkpt lat="48.58951" lon="-2.53463">
        <ele>51</ele>
        <time>2012-01-22T14:57:42Z</time>
      </trkpt>
      <trkpt lat="48.58949" lon="-2.53462">
        <ele>51</ele>
        <time>2012-01-22T14:57:44Z</time>
      </trkpt>
      <trkpt lat="48.58947" lon="-2.5346">
        <ele>51</ele>
        <time>2012-01-22T14:57:46Z</time>
      </trkpt>
      <trkpt lat="48.58945" lon="-2.53459">
        <ele>51</ele>
        <time>2012-01-22T14:57:48Z</time>
      </trkpt>
      <trkpt lat="48.58944" lon="-2.53459">
        <ele>51</ele>
        <time>2012-01-22T14:57:49Z</time>
      </trkpt>
      <trkpt lat="48.58942" lon="-2.53458">
        <ele>51</ele>
        <time>2012-01-22T14:57:50Z</time>
      </trkpt>
      <trkpt lat="48.58941" lon="-2.53458">
        <ele>51</ele>
        <time>2012-01-22T14:57:51Z</time>
      </trkpt>
      <trkpt lat="48.5894" lon="-2.53458">
        <ele>51</ele>
        <time>2012-01-22T14:57:52Z</time>
      </trkpt>
      <trkpt lat="48.58939" lon="-2.53458">
        <ele>51</ele>
        <time>2012-01-22T14:57:53Z</time>
      </trkpt>
      <trkpt lat="48.58937" lon="-2.53457">
        <ele>51</ele>
        <time>2012-01-22T14:57:54Z</time>
      </trkpt>
      <trkpt lat="48.58936" lon="-2.53457">
        <ele>51</ele>
        <time>2012-01-22T14:57:55Z</time>
      </trkpt>
      <trkpt lat="48.58935" lon="-2.53457">
        <ele>51</ele>
        <time>2012-01-22T14:57:56Z</time>
      </trkpt>
      <trkpt lat="48.58933" lon="-2.53457">
        <ele>51</ele>
        <time>2012-01-22T14:57:57Z</time>
      </trkpt>
      <trkpt lat="48.58932" lon="-2.53458">
        <ele>51</ele>
        <time>2012-01-22T14:57:58Z</time>
      </trkpt>
      <trkpt lat="48.58931" lon="-2.53458">
        <ele>51</ele>
        <time>2012-01-22T14:57:59Z</time>
      </trkpt>
      <trkpt lat="48.58929" lon="-2.5346">
        <ele>51</ele>
        <time>2012-01-22T14:58:01Z</time>
      </trkpt>
      <trkpt lat="48.58928" lon="-2.5346">
        <ele>51</ele>
        <time>2012-01-22T14:58:02Z</time>
      </trkpt>
      <trkpt lat="48.58926" lon="-2.53461">
        <ele>51</ele>
        <time>2012-01-22T14:58:04Z</time>
      </trkpt>
      <trkpt lat="48.58924" lon="-2.53463">
        <ele>51</ele>
        <time>2012-01-22T14:58:05Z</time>
      </trkpt>
      <trkpt lat="48.58923" lon="-2.53464">
        <ele>51</ele>
        <time>2012-01-22T14:58:06Z</time>
      </trkpt>
      <trkpt lat="48.58921" lon="-2.53466">
        <ele>51</ele>
        <time>2012-01-22T14:58:08Z</time>
      </trkpt>
      <trkpt lat="48.58919" lon="-2.53467">
        <ele>50</ele>
        <time>2012-01-22T14:58:10Z</time>
      </trkpt>
      <trkpt lat="48.58918" lon="-2.53467">
        <ele>50</ele>
        <time>2012-01-22T14:58:11Z</time>
      </trkpt>
      <trkpt lat="48.58916" lon="-2.53468">
        <ele>50</ele>
        <time>2012-01-22T14:58:12Z</time>
      </trkpt>
      <trkpt lat="48.58915" lon="-2.53469">
        <ele>49</ele>
        <time>2012-01-22T14:58:13Z</time>
      </trkpt>
      <trkpt lat="48.58914" lon="-2.5347">
        <ele>49</ele>
        <time>2012-01-22T14:58:14Z</time>
      </trkpt>
      <trkpt lat="48.58913" lon="-2.53471">
        <ele>48</ele>
        <time>2012-01-22T14:58:16Z</time>
      </trkpt>
      <trkpt lat="48.58911" lon="-2.53471">
        <ele>47</ele>
        <time>2012-01-22T14:58:18Z</time>
      </trkpt>
      <trkpt lat="48.5891" lon="-2.53472">
        <ele>47</ele>
        <time>2012-01-22T14:58:19Z</time>
      </trkpt>
      <trkpt lat="48.58907" lon="-2.53473">
        <ele>47</ele>
        <time>2012-01-22T14:58:21Z</time>
      </trkpt>
      <trkpt lat="48.58906" lon="-2.53474">
        <ele>47</ele>
        <time>2012-01-22T14:58:22Z</time>
      </trkpt>
      <trkpt lat="48.58905" lon="-2.53475">
        <ele>47</ele>
        <time>2012-01-22T14:58:23Z</time>
      </trkpt>
      <trkpt lat="48.58904" lon="-2.53476">
        <ele>46</ele>
        <time>2012-01-22T14:58:24Z</time>
      </trkpt>
      <trkpt lat="48.58902" lon="-2.53477">
        <ele>46</ele>
        <time>2012-01-22T14:58:25Z</time>
      </trkpt>
      <trkpt lat="48.58901" lon="-2.53478">
        <ele>46</ele>
        <time>2012-01-22T14:58:26Z</time>
      </trkpt>
      <trkpt lat="48.589" lon="-2.53478">
        <ele>46</ele>
        <time>2012-01-22T14:58:27Z</time>
      </trkpt>
      <trkpt lat="48.58898" lon="-2.53479">
        <ele>46</ele>
        <time>2012-01-22T14:58:28Z</time>
      </trkpt>
      <trkpt lat="48.58897" lon="-2.5348">
        <ele>46</ele>
        <time>2012-01-22T14:58:29Z</time>
      </trkpt>
      <trkpt lat="48.58896" lon="-2.53481">
        <ele>45</ele>
        <time>2012-01-22T14:58:30Z</time>
      </trkpt>
      <trkpt lat="48.58894" lon="-2.53482">
        <ele>45</ele>
        <time>2012-01-22T14:58:31Z</time>
      </trkpt>
      <trkpt lat="48.58893" lon="-2.53483">
        <ele>45</ele>
        <time>2012-01-22T14:58:32Z</time>
      </trkpt>
      <trkpt lat="48.58892" lon="-2.53483">
        <ele>45</ele>
        <time>2012-01-22T14:58:33Z</time>
      </trkpt>
      <trkpt lat="48.5889" lon="-2.53484">
        <ele>45</ele>
        <time>2012-01-22T14:58:34Z</time>
      </trkpt>
      <trkpt lat="48.58889" lon="-2.53486">
        <ele>45</ele>
        <time>2012-01-22T14:58:35Z</time>
      </trkpt>
      <trkpt lat="48.58888" lon="-2.53487">
        <ele>45</ele>
        <time>2012-01-22T14:58:36Z</time>
      </trkpt>
      <trkpt lat="48.58886" lon="-2.53488">
        <ele>45</ele>
        <time>2012-01-22T14:58:38Z</time>
      </trkpt>
      <trkpt lat="48.58884" lon="-2.53488">
        <ele>45</ele>
        <time>2012-01-22T14:58:39Z</time>
      </trkpt>
      <trkpt lat="48.58883" lon="-2.53489">
        <ele>45</ele>
        <time>2012-01-22T14:58:40Z</time>
      </trkpt>
      <trkpt lat="48.58881" lon="-2.5349">
        <ele>45</ele>
        <time>2012-01-22T14:58:41Z</time>
      </trkpt>
      <trkpt lat="48.5888" lon="-2.5349">
        <ele>45</ele>
        <time>2012-01-22T14:58:42Z</time>
      </trkpt>
      <trkpt lat="48.58878" lon="-2.53491">
        <ele>45</ele>
        <time>2012-01-22T14:58:43Z</time>
      </trkpt>
      <trkpt lat="48.58877" lon="-2.53492">
        <ele>45</ele>
        <time>2012-01-22T14:58:44Z</time>
      </trkpt>
      <trkpt lat="48.58876" lon="-2.53492">
        <ele>45</ele>
        <time>2012-01-22T14:58:45Z</time>
      </trkpt>
      <trkpt lat="48.58873" lon="-2.53495">
        <ele>45</ele>
        <time>2012-01-22T14:58:47Z</time>
      </trkpt>
      <trkpt lat="48.58872" lon="-2.53496">
        <ele>45</ele>
        <time>2012-01-22T14:58:48Z</time>
      </trkpt>
      <trkpt lat="48.58871" lon="-2.53496">
        <ele>45</ele>
        <time>2012-01-22T14:58:49Z</time>
      </trkpt>
      <trkpt lat="48.5887" lon="-2.53497">
        <ele>45</ele>
        <time>2012-01-22T14:58:50Z</time>
      </trkpt>
      <trkpt lat="48.58868" lon="-2.53497">
        <ele>45</ele>
        <time>2012-01-22T14:58:51Z</time>
      </trkpt>
      <trkpt lat="48.58867" lon="-2.53498">
        <ele>45</ele>
        <time>2012-01-22T14:58:52Z</time>
      </trkpt>
      <trkpt lat="48.58865" lon="-2.535">
        <ele>45</ele>
        <time>2012-01-22T14:58:54Z</time>
      </trkpt>
      <trkpt lat="48.58863" lon="-2.53502">
        <ele>45</ele>
        <time>2012-01-22T14:58:55Z</time>
      </trkpt>
      <trkpt lat="48.58862" lon="-2.53503">
        <ele>45</ele>
        <time>2012-01-22T14:58:56Z</time>
      </trkpt>
      <trkpt lat="48.58861" lon="-2.53504">
        <ele>45</ele>
        <time>2012-01-22T14:58:57Z</time>
      </trkpt>
      <trkpt lat="48.5886" lon="-2.53504">
        <ele>45</ele>
        <time>2012-01-22T14:58:58Z</time>
      </trkpt>
      <trkpt lat="48.58857" lon="-2.53506">
        <ele>45</ele>
        <time>2012-01-22T14:59:00Z</time>
      </trkpt>
      <trkpt lat="48.58856" lon="-2.53507">
        <ele>45</ele>
        <time>2012-01-22T14:59:01Z</time>
      </trkpt>
      <trkpt lat="48.58855" lon="-2.53508">
        <ele>45</ele>
        <time>2012-01-22T14:59:02Z</time>
      </trkpt>
      <trkpt lat="48.58853" lon="-2.5351">
        <ele>45</ele>
        <time>2012-01-22T14:59:04Z</time>
      </trkpt>
      <trkpt lat="48.5885" lon="-2.53512">
        <ele>45</ele>
        <time>2012-01-22T14:59:06Z</time>
      </trkpt>
      <trkpt lat="48.58848" lon="-2.53513">
        <ele>45</ele>
        <time>2012-01-22T14:59:08Z</time>
      </trkpt>
      <trkpt lat="48.58847" lon="-2.53514">
        <ele>45</ele>
        <time>2012-01-22T14:59:09Z</time>
      </trkpt>
      <trkpt lat="48.58845" lon="-2.53515">
        <ele>45</ele>
        <time>2012-01-22T14:59:10Z</time>
      </trkpt>
      <trkpt lat="48.58844" lon="-2.53516">
        <ele>45</ele>
        <time>2012-01-22T14:59:12Z</time>
      </trkpt>
      <trkpt lat="48.58842" lon="-2.53516">
        <ele>45</ele>
        <time>2012-01-22T14:59:13Z</time>
      </trkpt>
      <trkpt lat="48.58841" lon="-2.53517">
        <ele>45</ele>
        <time>2012-01-22T14:59:15Z</time>
      </trkpt>
      <trkpt lat="48.58839" lon="-2.53518">
        <ele>45</ele>
        <time>2012-01-22T14:59:17Z</time>
      </trkpt>
      <trkpt lat="48.58837" lon="-2.53519">
        <ele>45</ele>
        <time>2012-01-22T14:59:18Z</time>
      </trkpt>
      <trkpt lat="48.58835" lon="-2.53519">
        <ele>45</ele>
        <time>2012-01-22T14:59:20Z</time>
      </trkpt>
      <trkpt lat="48.58833" lon="-2.53519">
        <ele>45</ele>
        <time>2012-01-22T14:59:22Z</time>
      </trkpt>
      <trkpt lat="48.58832" lon="-2.5352">
        <ele>45</ele>
        <time>2012-01-22T14:59:24Z</time>
      </trkpt>
      <trkpt lat="48.5883" lon="-2.53521">
        <ele>45</ele>
        <time>2012-01-22T14:59:26Z</time>
      </trkpt>
      <trkpt lat="48.58829" lon="-2.53521">
        <ele>45</ele>
        <time>2012-01-22T14:59:27Z</time>
      </trkpt>
      <trkpt lat="48.58827" lon="-2.53521">
        <ele>45</ele>
        <time>2012-01-22T14:59:29Z</time>
      </trkpt>
      <trkpt lat="48.58826" lon="-2.53521">
        <ele>45</ele>
        <time>2012-01-22T14:59:30Z</time>
      </trkpt>
      <trkpt lat="48.58824" lon="-2.53521">
        <ele>45</ele>
        <time>2012-01-22T14:59:31Z</time>
      </trkpt>
      <trkpt lat="48.58823" lon="-2.53521">
        <ele>45</ele>
        <time>2012-01-22T14:59:32Z</time>
      </trkpt>
      <trkpt lat="48.58822" lon="-2.53521">
        <ele>45</ele>
        <time>2012-01-22T14:59:33Z</time>
      </trkpt>
      <trkpt lat="48.58821" lon="-2.53521">
        <ele>45</ele>
        <time>2012-01-22T14:59:34Z</time>
      </trkpt>
      <trkpt lat="48.5882" lon="-2.53521">
        <ele>45</ele>
        <time>2012-01-22T14:59:35Z</time>
      </trkpt>
      <trkpt lat="48.58818" lon="-2.53521">
        <ele>45</ele>
        <time>2012-01-22T14:59:37Z</time>
      </trkpt>
      <trkpt lat="48.58816" lon="-2.53521">
        <ele>45</ele>
        <time>2012-01-22T14:59:39Z</time>
      </trkpt>
      <trkpt lat="48.58815" lon="-2.53521">
        <ele>45</ele>
        <time>2012-01-22T14:59:40Z</time>
      </trkpt>
      <trkpt lat="48.58813" lon="-2.53521">
        <ele>45</ele>
        <time>2012-01-22T14:59:41Z</time>
      </trkpt>
      <trkpt lat="48.58812" lon="-2.53522">
        <ele>45</ele>
        <time>2012-01-22T14:59:42Z</time>
      </trkpt>
      <trkpt lat="48.5881" lon="-2.53522">
        <ele>45</ele>
        <time>2012-01-22T14:59:43Z</time>
      </trkpt>
      <trkpt lat="48.58809" lon="-2.53522">
        <ele>45</ele>
        <time>2012-01-22T14:59:44Z</time>
      </trkpt>
      <trkpt lat="48.58808" lon="-2.53522">
        <ele>45</ele>
        <time>2012-01-22T14:59:45Z</time>
      </trkpt>
      <trkpt lat="48.58806" lon="-2.53522">
        <ele>46</ele>
        <time>2012-01-22T14:59:46Z</time>
      </trkpt>
      <trkpt lat="48.58805" lon="-2.53522">
        <ele>46</ele>
        <time>2012-01-22T14:59:47Z</time>
      </trkpt>
      <trkpt lat="48.58804" lon="-2.53521">
        <ele>46</ele>
        <time>2012-01-22T14:59:48Z</time>
      </trkpt>
      <trkpt lat="48.58803" lon="-2.53521">
        <ele>47</ele>
        <time>2012-01-22T14:59:49Z</time>
      </trkpt>
      <trkpt lat="48.58802" lon="-2.53521">
        <ele>47</ele>
        <time>2012-01-22T14:59:50Z</time>
      </trkpt>
      <trkpt lat="48.58799" lon="-2.5352">
        <ele>48</ele>
        <time>2012-01-22T14:59:52Z</time>
      </trkpt>
      <trkpt lat="48.58797" lon="-2.5352">
        <ele>49</ele>
        <time>2012-01-22T14:59:54Z</time>
      </trkpt>
      <trkpt lat="48.58796" lon="-2.5352">
        <ele>49</ele>
        <time>2012-01-22T14:59:56Z</time>
      </trkpt>
      <trkpt lat="48.58794" lon="-2.5352">
        <ele>50</ele>
        <time>2012-01-22T14:59:58Z</time>
      </trkpt>
      <trkpt lat="48.58791" lon="-2.5352">
        <ele>50</ele>
        <time>2012-01-22T15:00:00Z</time>
      </trkpt>
      <trkpt lat="48.5879" lon="-2.53521">
        <ele>50</ele>
        <time>2012-01-22T15:00:02Z</time>
      </trkpt>
      <trkpt lat="48.58788" lon="-2.53521">
        <ele>51</ele>
        <time>2012-01-22T15:00:04Z</time>
      </trkpt>
      <trkpt lat="48.58786" lon="-2.53521">
        <ele>51</ele>
        <time>2012-01-22T15:00:06Z</time>
      </trkpt>
      <trkpt lat="48.58784" lon="-2.53521">
        <ele>51</ele>
        <time>2012-01-22T15:00:08Z</time>
      </trkpt>
      <trkpt lat="48.58782" lon="-2.53521">
        <ele>51</ele>
        <time>2012-01-22T15:00:10Z</time>
      </trkpt>
      <trkpt lat="48.5878" lon="-2.53521">
        <ele>51</ele>
        <time>2012-01-22T15:00:12Z</time>
      </trkpt>
      <trkpt lat="48.58779" lon="-2.5352">
        <ele>51</ele>
        <time>2012-01-22T15:00:14Z</time>
      </trkpt>
      <trkpt lat="48.58778" lon="-2.53519">
        <ele>52</ele>
        <time>2012-01-22T15:00:16Z</time>
      </trkpt>
      <trkpt lat="48.58776" lon="-2.5352">
        <ele>52</ele>
        <time>2012-01-22T15:00:18Z</time>
      </trkpt>
      <trkpt lat="48.58775" lon="-2.5352">
        <ele>52</ele>
        <time>2012-01-22T15:00:19Z</time>
      </trkpt>
      <trkpt lat="48.58773" lon="-2.53519">
        <ele>52</ele>
        <time>2012-01-22T15:00:21Z</time>
      </trkpt>
      <trkpt lat="48.5877" lon="-2.5352">
        <ele>52</ele>
        <time>2012-01-22T15:00:23Z</time>
      </trkpt>
      <trkpt lat="48.58769" lon="-2.5352">
        <ele>52</ele>
        <time>2012-01-22T15:00:24Z</time>
      </trkpt>
      <trkpt lat="48.58768" lon="-2.53521">
        <ele>52</ele>
        <time>2012-01-22T15:00:25Z</time>
      </trkpt>
      <trkpt lat="48.58767" lon="-2.53521">
        <ele>52</ele>
        <time>2012-01-22T15:00:26Z</time>
      </trkpt>
      <trkpt lat="48.58765" lon="-2.53521">
        <ele>52</ele>
        <time>2012-01-22T15:00:27Z</time>
      </trkpt>
      <trkpt lat="48.58764" lon="-2.53522">
        <ele>52</ele>
        <time>2012-01-22T15:00:28Z</time>
      </trkpt>
      <trkpt lat="48.58763" lon="-2.53522">
        <ele>52</ele>
        <time>2012-01-22T15:00:29Z</time>
      </trkpt>
      <trkpt lat="48.58762" lon="-2.53522">
        <ele>52</ele>
        <time>2012-01-22T15:00:30Z</time>
      </trkpt>
      <trkpt lat="48.58761" lon="-2.53522">
        <ele>52</ele>
        <time>2012-01-22T15:00:31Z</time>
      </trkpt>
      <trkpt lat="48.5876" lon="-2.53522">
        <ele>52</ele>
        <time>2012-01-22T15:00:32Z</time>
      </trkpt>
      <trkpt lat="48.58759" lon="-2.53523">
        <ele>52</ele>
        <time>2012-01-22T15:00:33Z</time>
      </trkpt>
      <trkpt lat="48.58757" lon="-2.53523">
        <ele>52</ele>
        <time>2012-01-22T15:00:35Z</time>
      </trkpt>
      <trkpt lat="48.58755" lon="-2.53524">
        <ele>52</ele>
        <time>2012-01-22T15:00:36Z</time>
      </trkpt>
      <trkpt lat="48.58753" lon="-2.53524">
        <ele>52</ele>
        <time>2012-01-22T15:00:38Z</time>
      </trkpt>
      <trkpt lat="48.58752" lon="-2.53525">
        <ele>52</ele>
        <time>2012-01-22T15:00:40Z</time>
      </trkpt>
      <trkpt lat="48.58749" lon="-2.53526">
        <ele>52</ele>
        <time>2012-01-22T15:00:42Z</time>
      </trkpt>
      <trkpt lat="48.58748" lon="-2.53526">
        <ele>52</ele>
        <time>2012-01-22T15:00:43Z</time>
      </trkpt>
      <trkpt lat="48.58747" lon="-2.53526">
        <ele>52</ele>
        <time>2012-01-22T15:00:44Z</time>
      </trkpt>
      <trkpt lat="48.58745" lon="-2.53526">
        <ele>52</ele>
        <time>2012-01-22T15:00:46Z</time>
      </trkpt>
      <trkpt lat="48.58744" lon="-2.53526">
        <ele>53</ele>
        <time>2012-01-22T15:00:47Z</time>
      </trkpt>
      <trkpt lat="48.58743" lon="-2.53526">
        <ele>53</ele>
        <time>2012-01-22T15:00:48Z</time>
      </trkpt>
      <trkpt lat="48.58741" lon="-2.53526">
        <ele>53</ele>
        <time>2012-01-22T15:00:49Z</time>
      </trkpt>
      <trkpt lat="48.5874" lon="-2.53526">
        <ele>53</ele>
        <time>2012-01-22T15:00:50Z</time>
      </trkpt>
      <trkpt lat="48.58739" lon="-2.53526">
        <ele>53</ele>
        <time>2012-01-22T15:00:51Z</time>
      </trkpt>
      <trkpt lat="48.58737" lon="-2.53526">
        <ele>53</ele>
        <time>2012-01-22T15:00:52Z</time>
      </trkpt>
      <trkpt lat="48.58736" lon="-2.53526">
        <ele>53</ele>
        <time>2012-01-22T15:00:53Z</time>
      </trkpt>
      <trkpt lat="48.58735" lon="-2.53526">
        <ele>53</ele>
        <time>2012-01-22T15:00:54Z</time>
      </trkpt>
      <trkpt lat="48.58733" lon="-2.53526">
        <ele>53</ele>
        <time>2012-01-22T15:00:55Z</time>
      </trkpt>
      <trkpt lat="48.58731" lon="-2.53526">
        <ele>53</ele>
        <time>2012-01-22T15:00:57Z</time>
      </trkpt>
      <trkpt lat="48.5873" lon="-2.53526">
        <ele>53</ele>
        <time>2012-01-22T15:00:58Z</time>
      </trkpt>
      <trkpt lat="48.58728" lon="-2.53526">
        <ele>53</ele>
        <time>2012-01-22T15:00:59Z</time>
      </trkpt>
      <trkpt lat="48.58727" lon="-2.53526">
        <ele>53</ele>
        <time>2012-01-22T15:01:00Z</time>
      </trkpt>
      <trkpt lat="48.58726" lon="-2.53526">
        <ele>53</ele>
        <time>2012-01-22T15:01:01Z</time>
      </trkpt>
      <trkpt lat="48.58725" lon="-2.53526">
        <ele>53</ele>
        <time>2012-01-22T15:01:02Z</time>
      </trkpt>
      <trkpt lat="48.58723" lon="-2.53526">
        <ele>53</ele>
        <time>2012-01-22T15:01:03Z</time>
      </trkpt>
      <trkpt lat="48.58722" lon="-2.53526">
        <ele>53</ele>
        <time>2012-01-22T15:01:04Z</time>
      </trkpt>
      <trkpt lat="48.5872" lon="-2.53526">
        <ele>54</ele>
        <time>2012-01-22T15:01:05Z</time>
      </trkpt>
      <trkpt lat="48.58719" lon="-2.53526">
        <ele>54</ele>
        <time>2012-01-22T15:01:06Z</time>
      </trkpt>
      <trkpt lat="48.58717" lon="-2.53525">
        <ele>54</ele>
        <time>2012-01-22T15:01:08Z</time>
      </trkpt>
      <trkpt lat="48.58715" lon="-2.53525">
        <ele>54</ele>
        <time>2012-01-22T15:01:09Z</time>
      </trkpt>
      <trkpt lat="48.58714" lon="-2.53525">
        <ele>55</ele>
        <time>2012-01-22T15:01:10Z</time>
      </trkpt>
      <trkpt lat="48.58713" lon="-2.53525">
        <ele>55</ele>
        <time>2012-01-22T15:01:11Z</time>
      </trkpt>
      <trkpt lat="48.58712" lon="-2.53525">
        <ele>55</ele>
        <time>2012-01-22T15:01:12Z</time>
      </trkpt>
      <trkpt lat="48.58709" lon="-2.53525">
        <ele>55</ele>
        <time>2012-01-22T15:01:14Z</time>
      </trkpt>
      <trkpt lat="48.58708" lon="-2.53525">
        <ele>55</ele>
        <time>2012-01-22T15:01:15Z</time>
      </trkpt>
      <trkpt lat="48.58707" lon="-2.53525">
        <ele>56</ele>
        <time>2012-01-22T15:01:16Z</time>
      </trkpt>
      <trkpt lat="48.58706" lon="-2.53525">
        <ele>56</ele>
        <time>2012-01-22T15:01:17Z</time>
      </trkpt>
      <trkpt lat="48.58704" lon="-2.53526">
        <ele>56</ele>
        <time>2012-01-22T15:01:18Z</time>
      </trkpt>
      <trkpt lat="48.58703" lon="-2.53526">
        <ele>56</ele>
        <time>2012-01-22T15:01:19Z</time>
      </trkpt>
      <trkpt lat="48.58701" lon="-2.53527">
        <ele>57</ele>
        <time>2012-01-22T15:01:21Z</time>
      </trkpt>
      <trkpt lat="48.587" lon="-2.53527">
        <ele>57</ele>
        <time>2012-01-22T15:01:22Z</time>
      </trkpt>
      <trkpt lat="48.58699" lon="-2.53528">
        <ele>57</ele>
        <time>2012-01-22T15:01:23Z</time>
      </trkpt>
      <trkpt lat="48.58697" lon="-2.5353">
        <ele>57</ele>
        <time>2012-01-22T15:01:25Z</time>
      </trkpt>
      <trkpt lat="48.58695" lon="-2.53533">
        <ele>57</ele>
        <time>2012-01-22T15:01:27Z</time>
      </trkpt>
      <trkpt lat="48.58694" lon="-2.53535">
        <ele>57</ele>
        <time>2012-01-22T15:01:29Z</time>
      </trkpt>
      <trkpt lat="48.58693" lon="-2.53536">
        <ele>57</ele>
        <time>2012-01-22T15:01:30Z</time>
      </trkpt>
      <trkpt lat="48.58692" lon="-2.53538">
        <ele>57</ele>
        <time>2012-01-22T15:01:31Z</time>
      </trkpt>
      <trkpt lat="48.5869" lon="-2.53541">
        <ele>57</ele>
        <time>2012-01-22T15:01:33Z</time>
      </trkpt>
      <trkpt lat="48.58688" lon="-2.53544">
        <ele>57</ele>
        <time>2012-01-22T15:01:35Z</time>
      </trkpt>
      <trkpt lat="48.58687" lon="-2.53545">
        <ele>57</ele>
        <time>2012-01-22T15:01:36Z</time>
      </trkpt>
      <trkpt lat="48.58686" lon="-2.53547">
        <ele>57</ele>
        <time>2012-01-22T15:01:38Z</time>
      </trkpt>
      <trkpt lat="48.58684" lon="-2.53548">
        <ele>57</ele>
        <time>2012-01-22T15:01:41Z</time>
      </trkpt>
      <trkpt lat="48.58683" lon="-2.53549">
        <ele>58</ele>
        <time>2012-01-22T15:01:46Z</time>
      </trkpt>
      <trkpt lat="48.58681" lon="-2.5355">
        <ele>58</ele>
        <time>2012-01-22T15:01:48Z</time>
      </trkpt>
      <trkpt lat="48.5868" lon="-2.5355">
        <ele>58</ele>
        <time>2012-01-22T15:01:49Z</time>
      </trkpt>
      <trkpt lat="48.58679" lon="-2.53551">
        <ele>58</ele>
        <time>2012-01-22T15:01:50Z</time>
      </trkpt>
      <trkpt lat="48.58678" lon="-2.53553">
        <ele>58</ele>
        <time>2012-01-22T15:01:51Z</time>
      </trkpt>
      <trkpt lat="48.58675" lon="-2.53555">
        <ele>58</ele>
        <time>2012-01-22T15:01:53Z</time>
      </trkpt>
      <trkpt lat="48.58673" lon="-2.53556">
        <ele>58</ele>
        <time>2012-01-22T15:01:55Z</time>
      </trkpt>
      <trkpt lat="48.58671" lon="-2.53557">
        <ele>58</ele>
        <time>2012-01-22T15:01:57Z</time>
      </trkpt>
      <trkpt lat="48.5867" lon="-2.53558">
        <ele>58</ele>
        <time>2012-01-22T15:01:58Z</time>
      </trkpt>
      <trkpt lat="48.58669" lon="-2.53559">
        <ele>58</ele>
        <time>2012-01-22T15:01:59Z</time>
      </trkpt>
      <trkpt lat="48.58667" lon="-2.5356">
        <ele>58</ele>
        <time>2012-01-22T15:02:00Z</time>
      </trkpt>
      <trkpt lat="48.58665" lon="-2.5356">
        <ele>58</ele>
        <time>2012-01-22T15:02:01Z</time>
      </trkpt>
      <trkpt lat="48.58664" lon="-2.53561">
        <ele>58</ele>
        <time>2012-01-22T15:02:02Z</time>
      </trkpt>
      <trkpt lat="48.58663" lon="-2.53561">
        <ele>58</ele>
        <time>2012-01-22T15:02:03Z</time>
      </trkpt>
      <trkpt lat="48.58662" lon="-2.53562">
        <ele>58</ele>
        <time>2012-01-22T15:02:04Z</time>
      </trkpt>
      <trkpt lat="48.5866" lon="-2.53563">
        <ele>58</ele>
        <time>2012-01-22T15:02:06Z</time>
      </trkpt>
      <trkpt lat="48.58658" lon="-2.53565">
        <ele>58</ele>
        <time>2012-01-22T15:02:08Z</time>
      </trkpt>
      <trkpt lat="48.58656" lon="-2.53566">
        <ele>58</ele>
        <time>2012-01-22T15:02:10Z</time>
      </trkpt>
      <trkpt lat="48.58654" lon="-2.53566">
        <ele>58</ele>
        <time>2012-01-22T15:02:11Z</time>
      </trkpt>
      <trkpt lat="48.58653" lon="-2.53567">
        <ele>58</ele>
        <time>2012-01-22T15:02:12Z</time>
      </trkpt>
      <trkpt lat="48.58651" lon="-2.53568">
        <ele>58</ele>
        <time>2012-01-22T15:02:14Z</time>
      </trkpt>
      <trkpt lat="48.5865" lon="-2.53569">
        <ele>58</ele>
        <time>2012-01-22T15:02:16Z</time>
      </trkpt>
      <trkpt lat="48.58648" lon="-2.53571">
        <ele>58</ele>
        <time>2012-01-22T15:02:18Z</time>
      </trkpt>
      <trkpt lat="48.58646" lon="-2.53572">
        <ele>58</ele>
        <time>2012-01-22T15:02:21Z</time>
      </trkpt>
      <trkpt lat="48.58645" lon="-2.53573">
        <ele>58</ele>
        <time>2012-01-22T15:02:22Z</time>
      </trkpt>
      <trkpt lat="48.58643" lon="-2.53574">
        <ele>58</ele>
        <time>2012-01-22T15:02:23Z</time>
      </trkpt>
      <trkpt lat="48.58642" lon="-2.53575">
        <ele>58</ele>
        <time>2012-01-22T15:02:24Z</time>
      </trkpt>
      <trkpt lat="48.58641" lon="-2.53576">
        <ele>58</ele>
        <time>2012-01-22T15:02:25Z</time>
      </trkpt>
      <trkpt lat="48.5864" lon="-2.53577">
        <ele>58</ele>
        <time>2012-01-22T15:02:26Z</time>
      </trkpt>
      <trkpt lat="48.58638" lon="-2.53579">
        <ele>58</ele>
        <time>2012-01-22T15:02:28Z</time>
      </trkpt>
      <trkpt lat="48.58636" lon="-2.53581">
        <ele>58</ele>
        <time>2012-01-22T15:02:30Z</time>
      </trkpt>
      <trkpt lat="48.58634" lon="-2.53582">
        <ele>58</ele>
        <time>2012-01-22T15:02:31Z</time>
      </trkpt>
      <trkpt lat="48.58633" lon="-2.53582">
        <ele>58</ele>
        <time>2012-01-22T15:02:32Z</time>
      </trkpt>
      <trkpt lat="48.58631" lon="-2.53583">
        <ele>58</ele>
        <time>2012-01-22T15:02:33Z</time>
      </trkpt>
      <trkpt lat="48.5863" lon="-2.53583">
        <ele>58</ele>
        <time>2012-01-22T15:02:34Z</time>
      </trkpt>
      <trkpt lat="48.58628" lon="-2.53583">
        <ele>58</ele>
        <time>2012-01-22T15:02:35Z</time>
      </trkpt>
      <trkpt lat="48.58626" lon="-2.53583">
        <ele>58</ele>
        <time>2012-01-22T15:02:37Z</time>
      </trkpt>
      <trkpt lat="48.58625" lon="-2.53584">
        <ele>58</ele>
        <time>2012-01-22T15:02:39Z</time>
      </trkpt>
      <trkpt lat="48.58623" lon="-2.53585">
        <ele>58</ele>
        <time>2012-01-22T15:02:41Z</time>
      </trkpt>
      <trkpt lat="48.58622" lon="-2.53587">
        <ele>58</ele>
        <time>2012-01-22T15:02:44Z</time>
      </trkpt>
      <trkpt lat="48.58621" lon="-2.53588">
        <ele>58</ele>
        <time>2012-01-22T15:02:45Z</time>
      </trkpt>
      <trkpt lat="48.58619" lon="-2.53589">
        <ele>58</ele>
        <time>2012-01-22T15:02:46Z</time>
      </trkpt>
      <trkpt lat="48.58617" lon="-2.5359">
        <ele>58</ele>
        <time>2012-01-22T15:02:48Z</time>
      </trkpt>
      <trkpt lat="48.58616" lon="-2.53591">
        <ele>58</ele>
        <time>2012-01-22T15:02:49Z</time>
      </trkpt>
      <trkpt lat="48.58614" lon="-2.53592">
        <ele>58</ele>
        <time>2012-01-22T15:02:51Z</time>
      </trkpt>
      <trkpt lat="48.58612" lon="-2.53592">
        <ele>58</ele>
        <time>2012-01-22T15:02:52Z</time>
      </trkpt>
      <trkpt lat="48.58611" lon="-2.53593">
        <ele>58</ele>
        <time>2012-01-22T15:02:53Z</time>
      </trkpt>
      <trkpt lat="48.5861" lon="-2.53594">
        <ele>58</ele>
        <time>2012-01-22T15:02:54Z</time>
      </trkpt>
      <trkpt lat="48.58609" lon="-2.53595">
        <ele>58</ele>
        <time>2012-01-22T15:02:55Z</time>
      </trkpt>
      <trkpt lat="48.58606" lon="-2.53596">
        <ele>58</ele>
        <time>2012-01-22T15:02:57Z</time>
      </trkpt>
      <trkpt lat="48.58605" lon="-2.53597">
        <ele>58</ele>
        <time>2012-01-22T15:02:58Z</time>
      </trkpt>
      <trkpt lat="48.58604" lon="-2.53598">
        <ele>58</ele>
        <time>2012-01-22T15:02:59Z</time>
      </trkpt>
      <trkpt lat="48.58602" lon="-2.53599">
        <ele>58</ele>
        <time>2012-01-22T15:03:01Z</time>
      </trkpt>
      <trkpt lat="48.586" lon="-2.53599">
        <ele>58</ele>
        <time>2012-01-22T15:03:03Z</time>
      </trkpt>
      <trkpt lat="48.58598" lon="-2.536">
        <ele>58</ele>
        <time>2012-01-22T15:03:05Z</time>
      </trkpt>
      <trkpt lat="48.58597" lon="-2.53601">
        <ele>58</ele>
        <time>2012-01-22T15:03:06Z</time>
      </trkpt>
      <trkpt lat="48.58595" lon="-2.53602">
        <ele>58</ele>
        <time>2012-01-22T15:03:08Z</time>
      </trkpt>
      <trkpt lat="48.58593" lon="-2.53602">
        <ele>58</ele>
        <time>2012-01-22T15:03:10Z</time>
      </trkpt>
      <trkpt lat="48.58592" lon="-2.53603">
        <ele>58</ele>
        <time>2012-01-22T15:03:12Z</time>
      </trkpt>
      <trkpt lat="48.58591" lon="-2.53604">
        <ele>58</ele>
        <time>2012-01-22T15:03:13Z</time>
      </trkpt>
      <trkpt lat="48.58589" lon="-2.53604">
        <ele>58</ele>
        <time>2012-01-22T15:03:15Z</time>
      </trkpt>
      <trkpt lat="48.58588" lon="-2.53604">
        <ele>58</ele>
        <time>2012-01-22T15:03:16Z</time>
      </trkpt>
      <trkpt lat="48.58587" lon="-2.53604">
        <ele>58</ele>
        <time>2012-01-22T15:03:17Z</time>
      </trkpt>
      <trkpt lat="48.58585" lon="-2.53604">
        <ele>58</ele>
        <time>2012-01-22T15:03:18Z</time>
      </trkpt>
      <trkpt lat="48.58584" lon="-2.53605">
        <ele>58</ele>
        <time>2012-01-22T15:03:19Z</time>
      </trkpt>
      <trkpt lat="48.58583" lon="-2.53605">
        <ele>58</ele>
        <time>2012-01-22T15:03:20Z</time>
      </trkpt>
      <trkpt lat="48.58582" lon="-2.53605">
        <ele>58</ele>
        <time>2012-01-22T15:03:21Z</time>
      </trkpt>
      <trkpt lat="48.58581" lon="-2.53605">
        <ele>58</ele>
        <time>2012-01-22T15:03:22Z</time>
      </trkpt>
      <trkpt lat="48.5858" lon="-2.53605">
        <ele>58</ele>
        <time>2012-01-22T15:03:23Z</time>
      </trkpt>
      <trkpt lat="48.58578" lon="-2.53606">
        <ele>58</ele>
        <time>2012-01-22T15:03:24Z</time>
      </trkpt>
      <trkpt lat="48.58577" lon="-2.53606">
        <ele>58</ele>
        <time>2012-01-22T15:03:26Z</time>
      </trkpt>
      <trkpt lat="48.58575" lon="-2.53606">
        <ele>58</ele>
        <time>2012-01-22T15:03:28Z</time>
      </trkpt>
      <trkpt lat="48.58573" lon="-2.53605">
        <ele>58</ele>
        <time>2012-01-22T15:03:30Z</time>
      </trkpt>
      <trkpt lat="48.58571" lon="-2.53605">
        <ele>58</ele>
        <time>2012-01-22T15:03:32Z</time>
      </trkpt>
      <trkpt lat="48.58569" lon="-2.53605">
        <ele>58</ele>
        <time>2012-01-22T15:03:34Z</time>
      </trkpt>
      <trkpt lat="48.58568" lon="-2.53605">
        <ele>58</ele>
        <time>2012-01-22T15:03:35Z</time>
      </trkpt>
      <trkpt lat="48.58567" lon="-2.53605">
        <ele>58</ele>
        <time>2012-01-22T15:03:36Z</time>
      </trkpt>
      <trkpt lat="48.58565" lon="-2.53604">
        <ele>58</ele>
        <time>2012-01-22T15:03:38Z</time>
      </trkpt>
      <trkpt lat="48.58562" lon="-2.53604">
        <ele>58</ele>
        <time>2012-01-22T15:03:40Z</time>
      </trkpt>
      <trkpt lat="48.58561" lon="-2.53604">
        <ele>58</ele>
        <time>2012-01-22T15:03:41Z</time>
      </trkpt>
      <trkpt lat="48.5856" lon="-2.53603">
        <ele>58</ele>
        <time>2012-01-22T15:03:42Z</time>
      </trkpt>
      <trkpt lat="48.58559" lon="-2.53603">
        <ele>58</ele>
        <time>2012-01-22T15:03:43Z</time>
      </trkpt>
      <trkpt lat="48.58557" lon="-2.53603">
        <ele>58</ele>
        <time>2012-01-22T15:03:44Z</time>
      </trkpt>
      <trkpt lat="48.58556" lon="-2.53603">
        <ele>58</ele>
        <time>2012-01-22T15:03:45Z</time>
      </trkpt>
      <trkpt lat="48.58554" lon="-2.53603">
        <ele>58</ele>
        <time>2012-01-22T15:03:46Z</time>
      </trkpt>
      <trkpt lat="48.58553" lon="-2.53603">
        <ele>58</ele>
        <time>2012-01-22T15:03:47Z</time>
      </trkpt>
      <trkpt lat="48.58551" lon="-2.53603">
        <ele>58</ele>
        <time>2012-01-22T15:03:48Z</time>
      </trkpt>
      <trkpt lat="48.5855" lon="-2.53603">
        <ele>58</ele>
        <time>2012-01-22T15:03:49Z</time>
      </trkpt>
      <trkpt lat="48.58548" lon="-2.53603">
        <ele>58</ele>
        <time>2012-01-22T15:03:50Z</time>
      </trkpt>
      <trkpt lat="48.58547" lon="-2.53603">
        <ele>58</ele>
        <time>2012-01-22T15:03:51Z</time>
      </trkpt>
      <trkpt lat="48.58546" lon="-2.53603">
        <ele>58</ele>
        <time>2012-01-22T15:03:52Z</time>
      </trkpt>
      <trkpt lat="48.58545" lon="-2.53602">
        <ele>58</ele>
        <time>2012-01-22T15:03:53Z</time>
      </trkpt>
      <trkpt lat="48.58543" lon="-2.53602">
        <ele>58</ele>
        <time>2012-01-22T15:03:54Z</time>
      </trkpt>
      <trkpt lat="48.58542" lon="-2.53602">
        <ele>58</ele>
        <time>2012-01-22T15:03:55Z</time>
      </trkpt>
      <trkpt lat="48.58541" lon="-2.53602">
        <ele>59</ele>
        <time>2012-01-22T15:03:56Z</time>
      </trkpt>
      <trkpt lat="48.58538" lon="-2.53601">
        <ele>59</ele>
        <time>2012-01-22T15:03:58Z</time>
      </trkpt>
      <trkpt lat="48.58536" lon="-2.53601">
        <ele>59</ele>
        <time>2012-01-22T15:04:00Z</time>
      </trkpt>
      <trkpt lat="48.58535" lon="-2.53601">
        <ele>59</ele>
        <time>2012-01-22T15:04:01Z</time>
      </trkpt>
      <trkpt lat="48.58534" lon="-2.53601">
        <ele>59</ele>
        <time>2012-01-22T15:04:02Z</time>
      </trkpt>
      <trkpt lat="48.58532" lon="-2.53601">
        <ele>59</ele>
        <time>2012-01-22T15:04:03Z</time>
      </trkpt>
      <trkpt lat="48.58531" lon="-2.536">
        <ele>59</ele>
        <time>2012-01-22T15:04:04Z</time>
      </trkpt>
      <trkpt lat="48.5853" lon="-2.536">
        <ele>59</ele>
        <time>2012-01-22T15:04:05Z</time>
      </trkpt>
      <trkpt lat="48.58529" lon="-2.536">
        <ele>59</ele>
        <time>2012-01-22T15:04:06Z</time>
      </trkpt>
      <trkpt lat="48.58528" lon="-2.536">
        <ele>59</ele>
        <time>2012-01-22T15:04:07Z</time>
      </trkpt>
      <trkpt lat="48.58527" lon="-2.536">
        <ele>60</ele>
        <time>2012-01-22T15:04:08Z</time>
      </trkpt>
      <trkpt lat="48.58525" lon="-2.536">
        <ele>60</ele>
        <time>2012-01-22T15:04:09Z</time>
      </trkpt>
      <trkpt lat="48.58524" lon="-2.53599">
        <ele>60</ele>
        <time>2012-01-22T15:04:10Z</time>
      </trkpt>
      <trkpt lat="48.58523" lon="-2.53599">
        <ele>60</ele>
        <time>2012-01-22T15:04:11Z</time>
      </trkpt>
      <trkpt lat="48.58522" lon="-2.53598">
        <ele>60</ele>
        <time>2012-01-22T15:04:12Z</time>
      </trkpt>
      <trkpt lat="48.5852" lon="-2.53598">
        <ele>60</ele>
        <time>2012-01-22T15:04:13Z</time>
      </trkpt>
      <trkpt lat="48.58519" lon="-2.53597">
        <ele>60</ele>
        <time>2012-01-22T15:04:14Z</time>
      </trkpt>
      <trkpt lat="48.58517" lon="-2.53597">
        <ele>60</ele>
        <time>2012-01-22T15:04:15Z</time>
      </trkpt>
      <trkpt lat="48.58515" lon="-2.53597">
        <ele>60</ele>
        <time>2012-01-22T15:04:16Z</time>
      </trkpt>
      <trkpt lat="48.58514" lon="-2.53597">
        <ele>60</ele>
        <time>2012-01-22T15:04:17Z</time>
      </trkpt>
      <trkpt lat="48.58512" lon="-2.53597">
        <ele>60</ele>
        <time>2012-01-22T15:04:18Z</time>
      </trkpt>
      <trkpt lat="48.58511" lon="-2.53597">
        <ele>60</ele>
        <time>2012-01-22T15:04:19Z</time>
      </trkpt>
      <trkpt lat="48.58509" lon="-2.53596">
        <ele>60</ele>
        <time>2012-01-22T15:04:21Z</time>
      </trkpt>
      <trkpt lat="48.58507" lon="-2.53596">
        <ele>60</ele>
        <time>2012-01-22T15:04:23Z</time>
      </trkpt>
      <trkpt lat="48.58506" lon="-2.53595">
        <ele>60</ele>
        <time>2012-01-22T15:04:24Z</time>
      </trkpt>
      <trkpt lat="48.58504" lon="-2.53596">
        <ele>60</ele>
        <time>2012-01-22T15:04:25Z</time>
      </trkpt>
      <trkpt lat="48.58502" lon="-2.53596">
        <ele>60</ele>
        <time>2012-01-22T15:04:27Z</time>
      </trkpt>
      <trkpt lat="48.58501" lon="-2.53597">
        <ele>60</ele>
        <time>2012-01-22T15:04:28Z</time>
      </trkpt>
      <trkpt lat="48.58499" lon="-2.53598">
        <ele>60</ele>
        <time>2012-01-22T15:04:30Z</time>
      </trkpt>
      <trkpt lat="48.58498" lon="-2.53599">
        <ele>60</ele>
        <time>2012-01-22T15:04:32Z</time>
      </trkpt>
      <trkpt lat="48.58497" lon="-2.536">
        <ele>60</ele>
        <time>2012-01-22T15:04:36Z</time>
      </trkpt>
      <trkpt lat="48.58497" lon="-2.53602">
        <ele>60</ele>
        <time>2012-01-22T15:04:40Z</time>
      </trkpt>
      <trkpt lat="48.58499" lon="-2.53605">
        <ele>60</ele>
        <time>2012-01-22T15:04:42Z</time>
      </trkpt>
      <trkpt lat="48.585" lon="-2.53607">
        <ele>60</ele>
        <time>2012-01-22T15:04:43Z</time>
      </trkpt>
      <trkpt lat="48.585" lon="-2.53608">
        <ele>61</ele>
        <time>2012-01-22T15:04:44Z</time>
      </trkpt>
      <trkpt lat="48.585" lon="-2.5361">
        <ele>61</ele>
        <time>2012-01-22T15:04:45Z</time>
      </trkpt>
      <trkpt lat="48.585" lon="-2.53612">
        <ele>62</ele>
        <time>2012-01-22T15:04:46Z</time>
      </trkpt>
      <trkpt lat="48.585" lon="-2.53613">
        <ele>62</ele>
        <time>2012-01-22T15:04:47Z</time>
      </trkpt>
      <trkpt lat="48.58498" lon="-2.53616">
        <ele>63</ele>
        <time>2012-01-22T15:04:49Z</time>
      </trkpt>
      <trkpt lat="48.58497" lon="-2.53617">
        <ele>63</ele>
        <time>2012-01-22T15:04:50Z</time>
      </trkpt>
      <trkpt lat="48.58495" lon="-2.53618">
        <ele>63</ele>
        <time>2012-01-22T15:04:51Z</time>
      </trkpt>
      <trkpt lat="48.58494" lon="-2.53621">
        <ele>63</ele>
        <time>2012-01-22T15:04:53Z</time>
      </trkpt>
      <trkpt lat="48.58494" lon="-2.53623">
        <ele>63</ele>
        <time>2012-01-22T15:04:54Z</time>
      </trkpt>
      <trkpt lat="48.58493" lon="-2.53625">
        <ele>64</ele>
        <time>2012-01-22T15:04:55Z</time>
      </trkpt>
      <trkpt lat="48.58493" lon="-2.53626">
        <ele>65</ele>
        <time>2012-01-22T15:04:56Z</time>
      </trkpt>
      <trkpt lat="48.58493" lon="-2.53628">
        <ele>65</ele>
        <time>2012-01-22T15:04:57Z</time>
      </trkpt>
      <trkpt lat="48.58493" lon="-2.53629">
        <ele>66</ele>
        <time>2012-01-22T15:04:58Z</time>
      </trkpt>
      <trkpt lat="48.58493" lon="-2.53631">
        <ele>67</ele>
        <time>2012-01-22T15:04:59Z</time>
      </trkpt>
      <trkpt lat="48.58493" lon="-2.53633">
        <ele>68</ele>
        <time>2012-01-22T15:05:00Z</time>
      </trkpt>
      <trkpt lat="48.58493" lon="-2.53635">
        <ele>69</ele>
        <time>2012-01-22T15:05:01Z</time>
      </trkpt>
      <trkpt lat="48.58493" lon="-2.53638">
        <ele>71</ele>
        <time>2012-01-22T15:05:03Z</time>
      </trkpt>
      <trkpt lat="48.58494" lon="-2.5364">
        <ele>72</ele>
        <time>2012-01-22T15:05:04Z</time>
      </trkpt>
      <trkpt lat="48.58494" lon="-2.53642">
        <ele>73</ele>
        <time>2012-01-22T15:05:05Z</time>
      </trkpt>
      <trkpt lat="48.58494" lon="-2.53645">
        <ele>74</ele>
        <time>2012-01-22T15:05:07Z</time>
      </trkpt>
      <trkpt lat="48.58494" lon="-2.53647">
        <ele>74</ele>
        <time>2012-01-22T15:05:08Z</time>
      </trkpt>
      <trkpt lat="48.58493" lon="-2.53649">
        <ele>75</ele>
        <time>2012-01-22T15:05:09Z</time>
      </trkpt>
      <trkpt lat="48.5849" lon="-2.53651">
        <ele>75</ele>
        <time>2012-01-22T15:05:11Z</time>
      </trkpt>
      <trkpt lat="48.58489" lon="-2.53651">
        <ele>75</ele>
        <time>2012-01-22T15:05:12Z</time>
      </trkpt>
      <trkpt lat="48.58488" lon="-2.53652">
        <ele>75</ele>
        <time>2012-01-22T15:05:13Z</time>
      </trkpt>
      <trkpt lat="48.58486" lon="-2.53652">
        <ele>75</ele>
        <time>2012-01-22T15:05:14Z</time>
      </trkpt>
      <trkpt lat="48.58484" lon="-2.53652">
        <ele>75</ele>
        <time>2012-01-22T15:05:15Z</time>
      </trkpt>
      <trkpt lat="48.58483" lon="-2.53652">
        <ele>75</ele>
        <time>2012-01-22T15:05:16Z</time>
      </trkpt>
      <trkpt lat="48.58481" lon="-2.53652">
        <ele>75</ele>
        <time>2012-01-22T15:05:17Z</time>
      </trkpt>
      <trkpt lat="48.58479" lon="-2.53653">
        <ele>75</ele>
        <time>2012-01-22T15:05:18Z</time>
      </trkpt>
      <trkpt lat="48.58477" lon="-2.53654">
        <ele>75</ele>
        <time>2012-01-22T15:05:19Z</time>
      </trkpt>
      <trkpt lat="48.58476" lon="-2.53654">
        <ele>75</ele>
        <time>2012-01-22T15:05:20Z</time>
      </trkpt>
      <trkpt lat="48.58474" lon="-2.53654">
        <ele>75</ele>
        <time>2012-01-22T15:05:21Z</time>
      </trkpt>
      <trkpt lat="48.58473" lon="-2.53654">
        <ele>74</ele>
        <time>2012-01-22T15:05:22Z</time>
      </trkpt>
      <trkpt lat="48.58472" lon="-2.53654">
        <ele>74</ele>
        <time>2012-01-22T15:05:23Z</time>
      </trkpt>
      <trkpt lat="48.58471" lon="-2.53655">
        <ele>74</ele>
        <time>2012-01-22T15:05:24Z</time>
      </trkpt>
      <trkpt lat="48.58469" lon="-2.53655">
        <ele>74</ele>
        <time>2012-01-22T15:05:25Z</time>
      </trkpt>
      <trkpt lat="48.58468" lon="-2.53655">
        <ele>73</ele>
        <time>2012-01-22T15:05:26Z</time>
      </trkpt>
      <trkpt lat="48.58466" lon="-2.53655">
        <ele>73</ele>
        <time>2012-01-22T15:05:27Z</time>
      </trkpt>
      <trkpt lat="48.58465" lon="-2.53655">
        <ele>73</ele>
        <time>2012-01-22T15:05:28Z</time>
      </trkpt>
      <trkpt lat="48.58464" lon="-2.53656">
        <ele>73</ele>
        <time>2012-01-22T15:05:29Z</time>
      </trkpt>
      <trkpt lat="48.58462" lon="-2.53655">
        <ele>73</ele>
        <time>2012-01-22T15:05:30Z</time>
      </trkpt>
      <trkpt lat="48.58461" lon="-2.53655">
        <ele>73</ele>
        <time>2012-01-22T15:05:31Z</time>
      </trkpt>
      <trkpt lat="48.5846" lon="-2.53655">
        <ele>72</ele>
        <time>2012-01-22T15:05:32Z</time>
      </trkpt>
      <trkpt lat="48.58458" lon="-2.53654">
        <ele>72</ele>
        <time>2012-01-22T15:05:34Z</time>
      </trkpt>
      <trkpt lat="48.58456" lon="-2.53654">
        <ele>72</ele>
        <time>2012-01-22T15:05:36Z</time>
      </trkpt>
      <trkpt lat="48.58454" lon="-2.53655">
        <ele>72</ele>
        <time>2012-01-22T15:05:38Z</time>
      </trkpt>
      <trkpt lat="48.58453" lon="-2.53655">
        <ele>72</ele>
        <time>2012-01-22T15:05:39Z</time>
      </trkpt>
      <trkpt lat="48.5845" lon="-2.53655">
        <ele>71</ele>
        <time>2012-01-22T15:05:40Z</time>
      </trkpt>
      <trkpt lat="48.58448" lon="-2.53655">
        <ele>71</ele>
        <time>2012-01-22T15:05:41Z</time>
      </trkpt>
      <trkpt lat="48.58447" lon="-2.53655">
        <ele>71</ele>
        <time>2012-01-22T15:05:42Z</time>
      </trkpt>
      <trkpt lat="48.58445" lon="-2.53655">
        <ele>71</ele>
        <time>2012-01-22T15:05:43Z</time>
      </trkpt>
      <trkpt lat="48.58444" lon="-2.53655">
        <ele>70</ele>
        <time>2012-01-22T15:05:44Z</time>
      </trkpt>
      <trkpt lat="48.58443" lon="-2.53655">
        <ele>70</ele>
        <time>2012-01-22T15:05:45Z</time>
      </trkpt>
      <trkpt lat="48.58441" lon="-2.53655">
        <ele>70</ele>
        <time>2012-01-22T15:05:46Z</time>
      </trkpt>
      <trkpt lat="48.5844" lon="-2.53655">
        <ele>69</ele>
        <time>2012-01-22T15:05:47Z</time>
      </trkpt>
      <trkpt lat="48.58439" lon="-2.53656">
        <ele>69</ele>
        <time>2012-01-22T15:05:48Z</time>
      </trkpt>
      <trkpt lat="48.58436" lon="-2.53656">
        <ele>69</ele>
        <time>2012-01-22T15:05:50Z</time>
      </trkpt>
      <trkpt lat="48.58435" lon="-2.53656">
        <ele>69</ele>
        <time>2012-01-22T15:05:51Z</time>
      </trkpt>
      <trkpt lat="48.58433" lon="-2.53655">
        <ele>69</ele>
        <time>2012-01-22T15:05:53Z</time>
      </trkpt>
      <trkpt lat="48.58431" lon="-2.53654">
        <ele>68</ele>
        <time>2012-01-22T15:05:55Z</time>
      </trkpt>
      <trkpt lat="48.5843" lon="-2.53654">
        <ele>68</ele>
        <time>2012-01-22T15:05:56Z</time>
      </trkpt>
      <trkpt lat="48.58429" lon="-2.53655">
        <ele>68</ele>
        <time>2012-01-22T15:05:57Z</time>
      </trkpt>
      <trkpt lat="48.58428" lon="-2.53655">
        <ele>68</ele>
        <time>2012-01-22T15:05:58Z</time>
      </trkpt>
      <trkpt lat="48.58425" lon="-2.53654">
        <ele>68</ele>
        <time>2012-01-22T15:06:00Z</time>
      </trkpt>
      <trkpt lat="48.58424" lon="-2.53654">
        <ele>68</ele>
        <time>2012-01-22T15:06:01Z</time>
      </trkpt>
      <trkpt lat="48.58423" lon="-2.53654">
        <ele>68</ele>
        <time>2012-01-22T15:06:02Z</time>
      </trkpt>
      <trkpt lat="48.58421" lon="-2.53654">
        <ele>68</ele>
        <time>2012-01-22T15:06:04Z</time>
      </trkpt>
      <trkpt lat="48.58419" lon="-2.53655">
        <ele>68</ele>
        <time>2012-01-22T15:06:05Z</time>
      </trkpt>
      <trkpt lat="48.58418" lon="-2.53655">
        <ele>68</ele>
        <time>2012-01-22T15:06:06Z</time>
      </trkpt>
      <trkpt lat="48.58417" lon="-2.53654">
        <ele>68</ele>
        <time>2012-01-22T15:06:08Z</time>
      </trkpt>
      <trkpt lat="48.58415" lon="-2.53654">
        <ele>68</ele>
        <time>2012-01-22T15:06:10Z</time>
      </trkpt>
      <trkpt lat="48.58413" lon="-2.53654">
        <ele>68</ele>
        <time>2012-01-22T15:06:12Z</time>
      </trkpt>
      <trkpt lat="48.58411" lon="-2.53653">
        <ele>68</ele>
        <time>2012-01-22T15:06:14Z</time>
      </trkpt>
      <trkpt lat="48.58409" lon="-2.53653">
        <ele>68</ele>
        <time>2012-01-22T15:06:16Z</time>
      </trkpt>
      <trkpt lat="48.58407" lon="-2.53653">
        <ele>68</ele>
        <time>2012-01-22T15:06:18Z</time>
      </trkpt>
      <trkpt lat="48.58406" lon="-2.53653">
        <ele>68</ele>
        <time>2012-01-22T15:06:19Z</time>
      </trkpt>
      <trkpt lat="48.58405" lon="-2.53653">
        <ele>67</ele>
        <time>2012-01-22T15:06:20Z</time>
      </trkpt>
      <trkpt lat="48.58403" lon="-2.53654">
        <ele>67</ele>
        <time>2012-01-22T15:06:21Z</time>
      </trkpt>
      <trkpt lat="48.58401" lon="-2.53653">
        <ele>67</ele>
        <time>2012-01-22T15:06:23Z</time>
      </trkpt>
      <trkpt lat="48.58399" lon="-2.53653">
        <ele>67</ele>
        <time>2012-01-22T15:06:25Z</time>
      </trkpt>
      <trkpt lat="48.58398" lon="-2.53653">
        <ele>67</ele>
        <time>2012-01-22T15:06:26Z</time>
      </trkpt>
      <trkpt lat="48.58397" lon="-2.53654">
        <ele>67</ele>
        <time>2012-01-22T15:06:27Z</time>
      </trkpt>
      <trkpt lat="48.58395" lon="-2.53654">
        <ele>66</ele>
        <time>2012-01-22T15:06:28Z</time>
      </trkpt>
      <trkpt lat="48.58394" lon="-2.53655">
        <ele>66</ele>
        <time>2012-01-22T15:06:29Z</time>
      </trkpt>
      <trkpt lat="48.58392" lon="-2.53655">
        <ele>66</ele>
        <time>2012-01-22T15:06:30Z</time>
      </trkpt>
      <trkpt lat="48.58391" lon="-2.53655">
        <ele>66</ele>
        <time>2012-01-22T15:06:31Z</time>
      </trkpt>
      <trkpt lat="48.5839" lon="-2.53655">
        <ele>65</ele>
        <time>2012-01-22T15:06:32Z</time>
      </trkpt>
      <trkpt lat="48.58388" lon="-2.53655">
        <ele>65</ele>
        <time>2012-01-22T15:06:33Z</time>
      </trkpt>
      <trkpt lat="48.58387" lon="-2.53655">
        <ele>65</ele>
        <time>2012-01-22T15:06:34Z</time>
      </trkpt>
      <trkpt lat="48.58386" lon="-2.53654">
        <ele>65</ele>
        <time>2012-01-22T15:06:35Z</time>
      </trkpt>
      <trkpt lat="48.58384" lon="-2.53654">
        <ele>65</ele>
        <time>2012-01-22T15:06:37Z</time>
      </trkpt>
      <trkpt lat="48.58382" lon="-2.53654">
        <ele>65</ele>
        <time>2012-01-22T15:06:38Z</time>
      </trkpt>
      <trkpt lat="48.5838" lon="-2.53655">
        <ele>65</ele>
        <time>2012-01-22T15:06:39Z</time>
      </trkpt>
      <trkpt lat="48.58379" lon="-2.53655">
        <ele>65</ele>
        <time>2012-01-22T15:06:40Z</time>
      </trkpt>
      <trkpt lat="48.58378" lon="-2.53655">
        <ele>65</ele>
        <time>2012-01-22T15:06:41Z</time>
      </trkpt>
      <trkpt lat="48.58377" lon="-2.53654">
        <ele>65</ele>
        <time>2012-01-22T15:06:42Z</time>
      </trkpt>
      <trkpt lat="48.58376" lon="-2.53654">
        <ele>65</ele>
        <time>2012-01-22T15:06:43Z</time>
      </trkpt>
      <trkpt lat="48.58374" lon="-2.53653">
        <ele>65</ele>
        <time>2012-01-22T15:06:45Z</time>
      </trkpt>
      <trkpt lat="48.58372" lon="-2.53652">
        <ele>65</ele>
        <time>2012-01-22T15:06:47Z</time>
      </trkpt>
      <trkpt lat="48.58371" lon="-2.53652">
        <ele>65</ele>
        <time>2012-01-22T15:06:49Z</time>
      </trkpt>
      <trkpt lat="48.58369" lon="-2.53653">
        <ele>65</ele>
        <time>2012-01-22T15:06:51Z</time>
      </trkpt>
      <trkpt lat="48.58366" lon="-2.53654">
        <ele>65</ele>
        <time>2012-01-22T15:06:53Z</time>
      </trkpt>
      <trkpt lat="48.58365" lon="-2.53655">
        <ele>65</ele>
        <time>2012-01-22T15:06:55Z</time>
      </trkpt>
      <trkpt lat="48.58364" lon="-2.53657">
        <ele>65</ele>
        <time>2012-01-22T15:06:59Z</time>
      </trkpt>
      <trkpt lat="48.58363" lon="-2.53658">
        <ele>65</ele>
        <time>2012-01-22T15:07:01Z</time>
      </trkpt>
      <trkpt lat="48.58362" lon="-2.5366">
        <ele>65</ele>
        <time>2012-01-22T15:07:03Z</time>
      </trkpt>
      <trkpt lat="48.58362" lon="-2.53663">
        <ele>65</ele>
        <time>2012-01-22T15:07:05Z</time>
      </trkpt>
      <trkpt lat="48.58362" lon="-2.53665">
        <ele>65</ele>
        <time>2012-01-22T15:07:07Z</time>
      </trkpt>
      <trkpt lat="48.58362" lon="-2.53668">
        <ele>65</ele>
        <time>2012-01-22T15:07:09Z</time>
      </trkpt>
      <trkpt lat="48.58362" lon="-2.5367">
        <ele>65</ele>
        <time>2012-01-22T15:07:10Z</time>
      </trkpt>
      <trkpt lat="48.58362" lon="-2.53672">
        <ele>65</ele>
        <time>2012-01-22T15:07:11Z</time>
      </trkpt>
      <trkpt lat="48.58362" lon="-2.53675">
        <ele>65</ele>
        <time>2012-01-22T15:07:13Z</time>
      </trkpt>
      <trkpt lat="48.58361" lon="-2.53676">
        <ele>65</ele>
        <time>2012-01-22T15:07:14Z</time>
      </trkpt>
      <trkpt lat="48.58361" lon="-2.53678">
        <ele>65</ele>
        <time>2012-01-22T15:07:15Z</time>
      </trkpt>
      <trkpt lat="48.5836" lon="-2.5368">
        <ele>65</ele>
        <time>2012-01-22T15:07:16Z</time>
      </trkpt>
      <trkpt lat="48.5836" lon="-2.53681">
        <ele>66</ele>
        <time>2012-01-22T15:07:17Z</time>
      </trkpt>
      <trkpt lat="48.58359" lon="-2.53683">
        <ele>66</ele>
        <time>2012-01-22T15:07:18Z</time>
      </trkpt>
      <trkpt lat="48.58358" lon="-2.53685">
        <ele>66</ele>
        <time>2012-01-22T15:07:19Z</time>
      </trkpt>
      <trkpt lat="48.58358" lon="-2.53687">
        <ele>66</ele>
        <time>2012-01-22T15:07:20Z</time>
      </trkpt>
      <trkpt lat="48.58357" lon="-2.53689">
        <ele>66</ele>
        <time>2012-01-22T15:07:21Z</time>
      </trkpt>
      <trkpt lat="48.58357" lon="-2.53691">
        <ele>66</ele>
        <time>2012-01-22T15:07:22Z</time>
      </trkpt>
      <trkpt lat="48.58355" lon="-2.53693">
        <ele>66</ele>
        <time>2012-01-22T15:07:23Z</time>
      </trkpt>
      <trkpt lat="48.58355" lon="-2.53694">
        <ele>66</ele>
        <time>2012-01-22T15:07:24Z</time>
      </trkpt>
      <trkpt lat="48.58355" lon="-2.53696">
        <ele>66</ele>
        <time>2012-01-22T15:07:25Z</time>
      </trkpt>
      <trkpt lat="48.58354" lon="-2.53698">
        <ele>66</ele>
        <time>2012-01-22T15:07:26Z</time>
      </trkpt>
      <trkpt lat="48.58353" lon="-2.53701">
        <ele>66</ele>
        <time>2012-01-22T15:07:28Z</time>
      </trkpt>
      <trkpt lat="48.58353" lon="-2.53703">
        <ele>66</ele>
        <time>2012-01-22T15:07:29Z</time>
      </trkpt>
      <trkpt lat="48.58352" lon="-2.53705">
        <ele>66</ele>
        <time>2012-01-22T15:07:30Z</time>
      </trkpt>
      <trkpt lat="48.58352" lon="-2.53706">
        <ele>66</ele>
        <time>2012-01-22T15:07:31Z</time>
      </trkpt>
      <trkpt lat="48.58351" lon="-2.53708">
        <ele>66</ele>
        <time>2012-01-22T15:07:32Z</time>
      </trkpt>
      <trkpt lat="48.58351" lon="-2.5371">
        <ele>66</ele>
        <time>2012-01-22T15:07:33Z</time>
      </trkpt>
      <trkpt lat="48.5835" lon="-2.53712">
        <ele>66</ele>
        <time>2012-01-22T15:07:34Z</time>
      </trkpt>
      <trkpt lat="48.58349" lon="-2.53714">
        <ele>66</ele>
        <time>2012-01-22T15:07:36Z</time>
      </trkpt>
      <trkpt lat="48.58347" lon="-2.53717">
        <ele>66</ele>
        <time>2012-01-22T15:07:38Z</time>
      </trkpt>
      <trkpt lat="48.58345" lon="-2.53719">
        <ele>66</ele>
        <time>2012-01-22T15:07:40Z</time>
      </trkpt>
      <trkpt lat="48.58344" lon="-2.53721">
        <ele>66</ele>
        <time>2012-01-22T15:07:41Z</time>
      </trkpt>
      <trkpt lat="48.58344" lon="-2.53723">
        <ele>66</ele>
        <time>2012-01-22T15:07:42Z</time>
      </trkpt>
      <trkpt lat="48.58343" lon="-2.53725">
        <ele>66</ele>
        <time>2012-01-22T15:07:43Z</time>
      </trkpt>
      <trkpt lat="48.58342" lon="-2.53726">
        <ele>66</ele>
        <time>2012-01-22T15:07:44Z</time>
      </trkpt>
      <trkpt lat="48.5834" lon="-2.53729">
        <ele>66</ele>
        <time>2012-01-22T15:07:46Z</time>
      </trkpt>
      <trkpt lat="48.58339" lon="-2.53731">
        <ele>66</ele>
        <time>2012-01-22T15:07:47Z</time>
      </trkpt>
      <trkpt lat="48.58339" lon="-2.53732">
        <ele>66</ele>
        <time>2012-01-22T15:07:48Z</time>
      </trkpt>
      <trkpt lat="48.58338" lon="-2.53734">
        <ele>66</ele>
        <time>2012-01-22T15:07:49Z</time>
      </trkpt>
      <trkpt lat="48.58337" lon="-2.53736">
        <ele>66</ele>
        <time>2012-01-22T15:07:51Z</time>
      </trkpt>
      <trkpt lat="48.58336" lon="-2.53738">
        <ele>66</ele>
        <time>2012-01-22T15:07:55Z</time>
      </trkpt>
      <trkpt lat="48.58335" lon="-2.5374">
        <ele>66</ele>
        <time>2012-01-22T15:07:57Z</time>
      </trkpt>
      <trkpt lat="48.58333" lon="-2.53741">
        <ele>66</ele>
        <time>2012-01-22T15:07:59Z</time>
      </trkpt>
      <trkpt lat="48.58332" lon="-2.53742">
        <ele>65</ele>
        <time>2012-01-22T15:08:01Z</time>
      </trkpt>
      <trkpt lat="48.58331" lon="-2.53744">
        <ele>64</ele>
        <time>2012-01-22T15:08:03Z</time>
      </trkpt>
      <trkpt lat="48.58329" lon="-2.53746">
        <ele>63</ele>
        <time>2012-01-22T15:08:05Z</time>
      </trkpt>
      <trkpt lat="48.58328" lon="-2.53749">
        <ele>62</ele>
        <time>2012-01-22T15:08:07Z</time>
      </trkpt>
      <trkpt lat="48.58328" lon="-2.53752">
        <ele>62</ele>
        <time>2012-01-22T15:08:09Z</time>
      </trkpt>
      <trkpt lat="48.58326" lon="-2.53755">
        <ele>62</ele>
        <time>2012-01-22T15:08:11Z</time>
      </trkpt>
      <trkpt lat="48.58326" lon="-2.53756">
        <ele>62</ele>
        <time>2012-01-22T15:08:12Z</time>
      </trkpt>
      <trkpt lat="48.58324" lon="-2.53758">
        <ele>62</ele>
        <time>2012-01-22T15:08:13Z</time>
      </trkpt>
      <trkpt lat="48.58324" lon="-2.5376">
        <ele>62</ele>
        <time>2012-01-22T15:08:14Z</time>
      </trkpt>
      <trkpt lat="48.58323" lon="-2.53762">
        <ele>62</ele>
        <time>2012-01-22T15:08:15Z</time>
      </trkpt>
      <trkpt lat="48.58324" lon="-2.53765">
        <ele>62</ele>
        <time>2012-01-22T15:08:17Z</time>
      </trkpt>
      <trkpt lat="48.58323" lon="-2.53768">
        <ele>62</ele>
        <time>2012-01-22T15:08:19Z</time>
      </trkpt>
      <trkpt lat="48.58323" lon="-2.5377">
        <ele>62</ele>
        <time>2012-01-22T15:08:20Z</time>
      </trkpt>
      <trkpt lat="48.58323" lon="-2.53772">
        <ele>62</ele>
        <time>2012-01-22T15:08:21Z</time>
      </trkpt>
      <trkpt lat="48.58322" lon="-2.53775">
        <ele>62</ele>
        <time>2012-01-22T15:08:23Z</time>
      </trkpt>
      <trkpt lat="48.58321" lon="-2.53777">
        <ele>62</ele>
        <time>2012-01-22T15:08:24Z</time>
      </trkpt>
      <trkpt lat="48.58321" lon="-2.53778">
        <ele>62</ele>
        <time>2012-01-22T15:08:25Z</time>
      </trkpt>
      <trkpt lat="48.5832" lon="-2.5378">
        <ele>62</ele>
        <time>2012-01-22T15:08:26Z</time>
      </trkpt>
      <trkpt lat="48.58319" lon="-2.53782">
        <ele>62</ele>
        <time>2012-01-22T15:08:27Z</time>
      </trkpt>
      <trkpt lat="48.58318" lon="-2.53784">
        <ele>62</ele>
        <time>2012-01-22T15:08:28Z</time>
      </trkpt>
      <trkpt lat="48.58318" lon="-2.53786">
        <ele>62</ele>
        <time>2012-01-22T15:08:29Z</time>
      </trkpt>
      <trkpt lat="48.58318" lon="-2.53788">
        <ele>62</ele>
        <time>2012-01-22T15:08:30Z</time>
      </trkpt>
      <trkpt lat="48.58316" lon="-2.5379">
        <ele>62</ele>
        <time>2012-01-22T15:08:31Z</time>
      </trkpt>
      <trkpt lat="48.58316" lon="-2.53792">
        <ele>62</ele>
        <time>2012-01-22T15:08:32Z</time>
      </trkpt>
      <trkpt lat="48.58314" lon="-2.53795">
        <ele>62</ele>
        <time>2012-01-22T15:08:34Z</time>
      </trkpt>
      <trkpt lat="48.58314" lon="-2.53797">
        <ele>62</ele>
        <time>2012-01-22T15:08:35Z</time>
      </trkpt>
      <trkpt lat="48.58314" lon="-2.53799">
        <ele>62</ele>
        <time>2012-01-22T15:08:36Z</time>
      </trkpt>
      <trkpt lat="48.58313" lon="-2.538">
        <ele>62</ele>
        <time>2012-01-22T15:08:37Z</time>
      </trkpt>
      <trkpt lat="48.58313" lon="-2.53803">
        <ele>62</ele>
        <time>2012-01-22T15:08:39Z</time>
      </trkpt>
      <trkpt lat="48.58313" lon="-2.53805">
        <ele>62</ele>
        <time>2012-01-22T15:08:40Z</time>
      </trkpt>
      <trkpt lat="48.58313" lon="-2.53807">
        <ele>63</ele>
        <time>2012-01-22T15:08:41Z</time>
      </trkpt>
      <trkpt lat="48.58313" lon="-2.53809">
        <ele>63</ele>
        <time>2012-01-22T15:08:42Z</time>
      </trkpt>
      <trkpt lat="48.58312" lon="-2.53811">
        <ele>64</ele>
        <time>2012-01-22T15:08:43Z</time>
      </trkpt>
      <trkpt lat="48.58311" lon="-2.53813">
        <ele>64</ele>
        <time>2012-01-22T15:08:44Z</time>
      </trkpt>
      <trkpt lat="48.5831" lon="-2.53815">
        <ele>64</ele>
        <time>2012-01-22T15:08:45Z</time>
      </trkpt>
      <trkpt lat="48.5831" lon="-2.53816">
        <ele>64</ele>
        <time>2012-01-22T15:08:46Z</time>
      </trkpt>
      <trkpt lat="48.58309" lon="-2.53818">
        <ele>64</ele>
        <time>2012-01-22T15:08:47Z</time>
      </trkpt>
      <trkpt lat="48.58309" lon="-2.5382">
        <ele>64</ele>
        <time>2012-01-22T15:08:48Z</time>
      </trkpt>
      <trkpt lat="48.58307" lon="-2.53823">
        <ele>64</ele>
        <time>2012-01-22T15:08:50Z</time>
      </trkpt>
      <trkpt lat="48.58306" lon="-2.53824">
        <ele>64</ele>
        <time>2012-01-22T15:08:51Z</time>
      </trkpt>
      <trkpt lat="48.58305" lon="-2.53826">
        <ele>64</ele>
        <time>2012-01-22T15:08:52Z</time>
      </trkpt>
      <trkpt lat="48.58304" lon="-2.53828">
        <ele>64</ele>
        <time>2012-01-22T15:08:53Z</time>
      </trkpt>
      <trkpt lat="48.58303" lon="-2.5383">
        <ele>64</ele>
        <time>2012-01-22T15:08:54Z</time>
      </trkpt>
      <trkpt lat="48.58303" lon="-2.53831">
        <ele>64</ele>
        <time>2012-01-22T15:08:55Z</time>
      </trkpt>
      <trkpt lat="48.58303" lon="-2.53833">
        <ele>64</ele>
        <time>2012-01-22T15:08:56Z</time>
      </trkpt>
      <trkpt lat="48.58302" lon="-2.53835">
        <ele>64</ele>
        <time>2012-01-22T15:08:57Z</time>
      </trkpt>
      <trkpt lat="48.58302" lon="-2.53837">
        <ele>64</ele>
        <time>2012-01-22T15:08:58Z</time>
      </trkpt>
      <trkpt lat="48.583" lon="-2.5384">
        <ele>64</ele>
        <time>2012-01-22T15:09:00Z</time>
      </trkpt>
      <trkpt lat="48.583" lon="-2.53842">
        <ele>64</ele>
        <time>2012-01-22T15:09:01Z</time>
      </trkpt>
      <trkpt lat="48.58299" lon="-2.53845">
        <ele>64</ele>
        <time>2012-01-22T15:09:03Z</time>
      </trkpt>
      <trkpt lat="48.58298" lon="-2.53847">
        <ele>64</ele>
        <time>2012-01-22T15:09:04Z</time>
      </trkpt>
      <trkpt lat="48.58297" lon="-2.53849">
        <ele>64</ele>
        <time>2012-01-22T15:09:05Z</time>
      </trkpt>
      <trkpt lat="48.58297" lon="-2.53852">
        <ele>64</ele>
        <time>2012-01-22T15:09:07Z</time>
      </trkpt>
      <trkpt lat="48.58295" lon="-2.53854">
        <ele>64</ele>
        <time>2012-01-22T15:09:08Z</time>
      </trkpt>
      <trkpt lat="48.58294" lon="-2.53855">
        <ele>64</ele>
        <time>2012-01-22T15:09:09Z</time>
      </trkpt>
      <trkpt lat="48.58292" lon="-2.53857">
        <ele>64</ele>
        <time>2012-01-22T15:09:10Z</time>
      </trkpt>
      <trkpt lat="48.58291" lon="-2.53858">
        <ele>64</ele>
        <time>2012-01-22T15:09:11Z</time>
      </trkpt>
      <trkpt lat="48.58291" lon="-2.5386">
        <ele>64</ele>
        <time>2012-01-22T15:09:12Z</time>
      </trkpt>
      <trkpt lat="48.5829" lon="-2.53862">
        <ele>64</ele>
        <time>2012-01-22T15:09:13Z</time>
      </trkpt>
      <trkpt lat="48.58289" lon="-2.53864">
        <ele>63</ele>
        <time>2012-01-22T15:09:14Z</time>
      </trkpt>
      <trkpt lat="48.58289" lon="-2.53865">
        <ele>63</ele>
        <time>2012-01-22T15:09:15Z</time>
      </trkpt>
      <trkpt lat="48.58288" lon="-2.53868">
        <ele>63</ele>
        <time>2012-01-22T15:09:17Z</time>
      </trkpt>
      <trkpt lat="48.58287" lon="-2.5387">
        <ele>62</ele>
        <time>2012-01-22T15:09:21Z</time>
      </trkpt>
      <trkpt lat="48.58286" lon="-2.53872">
        <ele>61</ele>
        <time>2012-01-22T15:09:23Z</time>
      </trkpt>
      <trkpt lat="48.58285" lon="-2.53874">
        <ele>61</ele>
        <time>2012-01-22T15:09:24Z</time>
      </trkpt>
      <trkpt lat="48.58284" lon="-2.53877">
        <ele>61</ele>
        <time>2012-01-22T15:09:26Z</time>
      </trkpt>
      <trkpt lat="48.58284" lon="-2.53874">
        <ele>61</ele>
        <time>2012-01-22T15:09:39Z</time>
      </trkpt>
      <trkpt lat="48.58285" lon="-2.53872">
        <ele>61</ele>
        <time>2012-01-22T15:09:41Z</time>
      </trkpt>
      <trkpt lat="48.58285" lon="-2.5387">
        <ele>61</ele>
        <time>2012-01-22T15:09:43Z</time>
      </trkpt>
      <trkpt lat="48.58284" lon="-2.53869">
        <ele>61</ele>
        <time>2012-01-22T15:10:01Z</time>
      </trkpt>
      <trkpt lat="48.58284" lon="-2.53867">
        <ele>61</ele>
        <time>2012-01-22T15:10:16Z</time>
      </trkpt>
      <trkpt lat="48.58284" lon="-2.53865">
        <ele>61</ele>
        <time>2012-01-22T15:10:21Z</time>
      </trkpt>
      <trkpt lat="48.58283" lon="-2.53863">
        <ele>61</ele>
        <time>2012-01-22T15:10:23Z</time>
      </trkpt>
      <trkpt lat="48.58282" lon="-2.5386">
        <ele>61</ele>
        <time>2012-01-22T15:10:25Z</time>
      </trkpt>
      <trkpt lat="48.5828" lon="-2.53859">
        <ele>61</ele>
        <time>2012-01-22T15:10:27Z</time>
      </trkpt>
      <trkpt lat="48.58278" lon="-2.53858">
        <ele>61</ele>
        <time>2012-01-22T15:10:29Z</time>
      </trkpt>
      <trkpt lat="48.58276" lon="-2.53856">
        <ele>61</ele>
        <time>2012-01-22T15:10:31Z</time>
      </trkpt>
      <trkpt lat="48.58275" lon="-2.53855">
        <ele>61</ele>
        <time>2012-01-22T15:10:33Z</time>
      </trkpt>
      <trkpt lat="48.58274" lon="-2.53854">
        <ele>61</ele>
        <time>2012-01-22T15:10:35Z</time>
      </trkpt>
      <trkpt lat="48.58273" lon="-2.53854">
        <ele>61</ele>
        <time>2012-01-22T15:10:55Z</time>
      </trkpt>
      <trkpt lat="48.58271" lon="-2.53853">
        <ele>61</ele>
        <time>2012-01-22T15:10:57Z</time>
      </trkpt>
      <trkpt lat="48.5827" lon="-2.53852">
        <ele>61</ele>
        <time>2012-01-22T15:10:59Z</time>
      </trkpt>
      <trkpt lat="48.58268" lon="-2.53851">
        <ele>61</ele>
        <time>2012-01-22T15:11:01Z</time>
      </trkpt>
      <trkpt lat="48.58265" lon="-2.5385">
        <ele>61</ele>
        <time>2012-01-22T15:11:03Z</time>
      </trkpt>
      <trkpt lat="48.58264" lon="-2.5385">
        <ele>61</ele>
        <time>2012-01-22T15:11:04Z</time>
      </trkpt>
      <trkpt lat="48.58263" lon="-2.53849">
        <ele>61</ele>
        <time>2012-01-22T15:11:05Z</time>
      </trkpt>
      <trkpt lat="48.58261" lon="-2.53848">
        <ele>61</ele>
        <time>2012-01-22T15:11:07Z</time>
      </trkpt>
      <trkpt lat="48.58259" lon="-2.53847">
        <ele>61</ele>
        <time>2012-01-22T15:11:09Z</time>
      </trkpt>
      <trkpt lat="48.58257" lon="-2.53846">
        <ele>61</ele>
        <time>2012-01-22T15:11:11Z</time>
      </trkpt>
      <trkpt lat="48.58255" lon="-2.53845">
        <ele>61</ele>
        <time>2012-01-22T15:11:13Z</time>
      </trkpt>
      <trkpt lat="48.58254" lon="-2.53845">
        <ele>63</ele>
        <time>2012-01-22T15:11:39Z</time>
      </trkpt>
      <trkpt lat="48.58253" lon="-2.53847">
        <ele>63</ele>
        <time>2012-01-22T15:11:51Z</time>
      </trkpt>
      <trkpt lat="48.58252" lon="-2.53845">
        <ele>65</ele>
        <time>2012-01-22T15:12:12Z</time>
      </trkpt>
      <trkpt lat="48.58254" lon="-2.53844">
        <ele>66</ele>
        <time>2012-01-22T15:12:19Z</time>
      </trkpt>
      <trkpt lat="48.58256" lon="-2.53844">
        <ele>66</ele>
        <time>2012-01-22T15:12:21Z</time>
      </trkpt>
      <trkpt lat="48.58258" lon="-2.53846">
        <ele>66</ele>
        <time>2012-01-22T15:12:23Z</time>
      </trkpt>
      <trkpt lat="48.5826" lon="-2.53847">
        <ele>66</ele>
        <time>2012-01-22T15:12:25Z</time>
      </trkpt>
      <trkpt lat="48.58262" lon="-2.53847">
        <ele>66</ele>
        <time>2012-01-22T15:12:27Z</time>
      </trkpt>
      <trkpt lat="48.58264" lon="-2.53848">
        <ele>66</ele>
        <time>2012-01-22T15:12:29Z</time>
      </trkpt>
      <trkpt lat="48.58266" lon="-2.53849">
        <ele>66</ele>
        <time>2012-01-22T15:12:31Z</time>
      </trkpt>
      <trkpt lat="48.58267" lon="-2.5385">
        <ele>66</ele>
        <time>2012-01-22T15:12:32Z</time>
      </trkpt>
      <trkpt lat="48.58268" lon="-2.53851">
        <ele>66</ele>
        <time>2012-01-22T15:12:33Z</time>
      </trkpt>
      <trkpt lat="48.5827" lon="-2.53852">
        <ele>66</ele>
        <time>2012-01-22T15:12:35Z</time>
      </trkpt>
      <trkpt lat="48.58271" lon="-2.53852">
        <ele>66</ele>
        <time>2012-01-22T15:12:36Z</time>
      </trkpt>
      <trkpt lat="48.58273" lon="-2.53853">
        <ele>66</ele>
        <time>2012-01-22T15:12:37Z</time>
      </trkpt>
      <trkpt lat="48.58274" lon="-2.53854">
        <ele>66</ele>
        <time>2012-01-22T15:12:38Z</time>
      </trkpt>
      <trkpt lat="48.58276" lon="-2.53854">
        <ele>66</ele>
        <time>2012-01-22T15:12:39Z</time>
      </trkpt>
      <trkpt lat="48.58277" lon="-2.53855">
        <ele>66</ele>
        <time>2012-01-22T15:12:40Z</time>
      </trkpt>
      <trkpt lat="48.58279" lon="-2.53857">
        <ele>66</ele>
        <time>2012-01-22T15:12:42Z</time>
      </trkpt>
      <trkpt lat="48.58281" lon="-2.5386">
        <ele>65</ele>
        <time>2012-01-22T15:12:44Z</time>
      </trkpt>
      <trkpt lat="48.58282" lon="-2.53863">
        <ele>65</ele>
        <time>2012-01-22T15:12:46Z</time>
      </trkpt>
      <trkpt lat="48.58284" lon="-2.53866">
        <ele>65</ele>
        <time>2012-01-22T15:12:48Z</time>
      </trkpt>
      <trkpt lat="48.58284" lon="-2.53868">
        <ele>65</ele>
        <time>2012-01-22T15:12:49Z</time>
      </trkpt>
      <trkpt lat="48.58284" lon="-2.5387">
        <ele>65</ele>
        <time>2012-01-22T15:12:50Z</time>
      </trkpt>
      <trkpt lat="48.58284" lon="-2.53871">
        <ele>65</ele>
        <time>2012-01-22T15:12:51Z</time>
      </trkpt>
      <trkpt lat="48.58284" lon="-2.53873">
        <ele>65</ele>
        <time>2012-01-22T15:12:52Z</time>
      </trkpt>
      <trkpt lat="48.58284" lon="-2.53875">
        <ele>65</ele>
        <time>2012-01-22T15:12:53Z</time>
      </trkpt>
      <trkpt lat="48.58283" lon="-2.53877">
        <ele>65</ele>
        <time>2012-01-22T15:12:54Z</time>
      </trkpt>
      <trkpt lat="48.58283" lon="-2.53878">
        <ele>65</ele>
        <time>2012-01-22T15:12:55Z</time>
      </trkpt>
      <trkpt lat="48.58282" lon="-2.5388">
        <ele>65</ele>
        <time>2012-01-22T15:12:56Z</time>
      </trkpt>
      <trkpt lat="48.58282" lon="-2.53882">
        <ele>65</ele>
        <time>2012-01-22T15:12:57Z</time>
      </trkpt>
      <trkpt lat="48.58281" lon="-2.53884">
        <ele>65</ele>
        <time>2012-01-22T15:12:58Z</time>
      </trkpt>
      <trkpt lat="48.58281" lon="-2.53885">
        <ele>65</ele>
        <time>2012-01-22T15:12:59Z</time>
      </trkpt>
      <trkpt lat="48.5828" lon="-2.53887">
        <ele>65</ele>
        <time>2012-01-22T15:13:00Z</time>
      </trkpt>
      <trkpt lat="48.58279" lon="-2.53889">
        <ele>65</ele>
        <time>2012-01-22T15:13:01Z</time>
      </trkpt>
      <trkpt lat="48.58278" lon="-2.53892">
        <ele>65</ele>
        <time>2012-01-22T15:13:03Z</time>
      </trkpt>
      <trkpt lat="48.58278" lon="-2.53893">
        <ele>65</ele>
        <time>2012-01-22T15:13:04Z</time>
      </trkpt>
      <trkpt lat="48.58277" lon="-2.53895">
        <ele>65</ele>
        <time>2012-01-22T15:13:05Z</time>
      </trkpt>
      <trkpt lat="48.58276" lon="-2.53899">
        <ele>65</ele>
        <time>2012-01-22T15:13:07Z</time>
      </trkpt>
      <trkpt lat="48.58275" lon="-2.539">
        <ele>64</ele>
        <time>2012-01-22T15:13:08Z</time>
      </trkpt>
      <trkpt lat="48.58274" lon="-2.53902">
        <ele>64</ele>
        <time>2012-01-22T15:13:09Z</time>
      </trkpt>
      <trkpt lat="48.58273" lon="-2.53905">
        <ele>64</ele>
        <time>2012-01-22T15:13:11Z</time>
      </trkpt>
      <trkpt lat="48.58273" lon="-2.53906">
        <ele>64</ele>
        <time>2012-01-22T15:13:12Z</time>
      </trkpt>
      <trkpt lat="48.58272" lon="-2.53908">
        <ele>64</ele>
        <time>2012-01-22T15:13:13Z</time>
      </trkpt>
      <trkpt lat="48.58271" lon="-2.5391">
        <ele>64</ele>
        <time>2012-01-22T15:13:14Z</time>
      </trkpt>
      <trkpt lat="48.58271" lon="-2.53911">
        <ele>64</ele>
        <time>2012-01-22T15:13:15Z</time>
      </trkpt>
      <trkpt lat="48.5827" lon="-2.53913">
        <ele>64</ele>
        <time>2012-01-22T15:13:16Z</time>
      </trkpt>
      <trkpt lat="48.58268" lon="-2.53916">
        <ele>64</ele>
        <time>2012-01-22T15:13:18Z</time>
      </trkpt>
      <trkpt lat="48.58267" lon="-2.53919">
        <ele>64</ele>
        <time>2012-01-22T15:13:20Z</time>
      </trkpt>
      <trkpt lat="48.58266" lon="-2.53922">
        <ele>64</ele>
        <time>2012-01-22T15:13:22Z</time>
      </trkpt>
      <trkpt lat="48.58264" lon="-2.53924">
        <ele>64</ele>
        <time>2012-01-22T15:13:24Z</time>
      </trkpt>
      <trkpt lat="48.58262" lon="-2.53927">
        <ele>64</ele>
        <time>2012-01-22T15:13:26Z</time>
      </trkpt>
      <trkpt lat="48.58261" lon="-2.53928">
        <ele>64</ele>
        <time>2012-01-22T15:13:27Z</time>
      </trkpt>
      <trkpt lat="48.5826" lon="-2.53931">
        <ele>64</ele>
        <time>2012-01-22T15:13:29Z</time>
      </trkpt>
      <trkpt lat="48.5826" lon="-2.53933">
        <ele>64</ele>
        <time>2012-01-22T15:13:30Z</time>
      </trkpt>
      <trkpt lat="48.5826" lon="-2.53935">
        <ele>64</ele>
        <time>2012-01-22T15:13:31Z</time>
      </trkpt>
      <trkpt lat="48.58259" lon="-2.53937">
        <ele>64</ele>
        <time>2012-01-22T15:13:32Z</time>
      </trkpt>
      <trkpt lat="48.58258" lon="-2.53939">
        <ele>63</ele>
        <time>2012-01-22T15:13:34Z</time>
      </trkpt>
      <trkpt lat="48.58256" lon="-2.53942">
        <ele>63</ele>
        <time>2012-01-22T15:13:36Z</time>
      </trkpt>
      <trkpt lat="48.58255" lon="-2.53945">
        <ele>63</ele>
        <time>2012-01-22T15:13:38Z</time>
      </trkpt>
      <trkpt lat="48.58254" lon="-2.53947">
        <ele>63</ele>
        <time>2012-01-22T15:13:39Z</time>
      </trkpt>
      <trkpt lat="48.58252" lon="-2.53949">
        <ele>63</ele>
        <time>2012-01-22T15:13:41Z</time>
      </trkpt>
      <trkpt lat="48.5825" lon="-2.53952">
        <ele>63</ele>
        <time>2012-01-22T15:13:43Z</time>
      </trkpt>
      <trkpt lat="48.58248" lon="-2.53955">
        <ele>63</ele>
        <time>2012-01-22T15:13:45Z</time>
      </trkpt>
      <trkpt lat="48.58246" lon="-2.53958">
        <ele>63</ele>
        <time>2012-01-22T15:13:47Z</time>
      </trkpt>
      <trkpt lat="48.58244" lon="-2.53961">
        <ele>63</ele>
        <time>2012-01-22T15:13:49Z</time>
      </trkpt>
      <trkpt lat="48.58243" lon="-2.53964">
        <ele>63</ele>
        <time>2012-01-22T15:13:51Z</time>
      </trkpt>
      <trkpt lat="48.58242" lon="-2.53965">
        <ele>63</ele>
        <time>2012-01-22T15:13:52Z</time>
      </trkpt>
      <trkpt lat="48.5824" lon="-2.53967">
        <ele>63</ele>
        <time>2012-01-22T15:13:54Z</time>
      </trkpt>
      <trkpt lat="48.58238" lon="-2.5397">
        <ele>63</ele>
        <time>2012-01-22T15:13:56Z</time>
      </trkpt>
      <trkpt lat="48.58236" lon="-2.53972">
        <ele>62</ele>
        <time>2012-01-22T15:13:58Z</time>
      </trkpt>
      <trkpt lat="48.58235" lon="-2.53974">
        <ele>62</ele>
        <time>2012-01-22T15:14:00Z</time>
      </trkpt>
      <trkpt lat="48.58233" lon="-2.53977">
        <ele>62</ele>
        <time>2012-01-22T15:14:02Z</time>
      </trkpt>
      <trkpt lat="48.58231" lon="-2.5398">
        <ele>62</ele>
        <time>2012-01-22T15:14:04Z</time>
      </trkpt>
      <trkpt lat="48.58229" lon="-2.53982">
        <ele>62</ele>
        <time>2012-01-22T15:14:06Z</time>
      </trkpt>
      <trkpt lat="48.58228" lon="-2.53983">
        <ele>62</ele>
        <time>2012-01-22T15:14:07Z</time>
      </trkpt>
      <trkpt lat="48.58225" lon="-2.53986">
        <ele>61</ele>
        <time>2012-01-22T15:14:09Z</time>
      </trkpt>
      <trkpt lat="48.58223" lon="-2.53989">
        <ele>61</ele>
        <time>2012-01-22T15:14:11Z</time>
      </trkpt>
      <trkpt lat="48.58221" lon="-2.53991">
        <ele>61</ele>
        <time>2012-01-22T15:14:13Z</time>
      </trkpt>
      <trkpt lat="48.58219" lon="-2.53993">
        <ele>60</ele>
        <time>2012-01-22T15:14:15Z</time>
      </trkpt>
      <trkpt lat="48.58217" lon="-2.53996">
        <ele>60</ele>
        <time>2012-01-22T15:14:17Z</time>
      </trkpt>
      <trkpt lat="48.58215" lon="-2.53997">
        <ele>60</ele>
        <time>2012-01-22T15:14:18Z</time>
      </trkpt>
      <trkpt lat="48.58214" lon="-2.53998">
        <ele>59</ele>
        <time>2012-01-22T15:14:20Z</time>
      </trkpt>
      <trkpt lat="48.58213" lon="-2.54">
        <ele>59</ele>
        <time>2012-01-22T15:14:21Z</time>
      </trkpt>
      <trkpt lat="48.58211" lon="-2.54001">
        <ele>59</ele>
        <time>2012-01-22T15:14:22Z</time>
      </trkpt>
      <trkpt lat="48.5821" lon="-2.54002">
        <ele>59</ele>
        <time>2012-01-22T15:14:23Z</time>
      </trkpt>
      <trkpt lat="48.58209" lon="-2.54003">
        <ele>59</ele>
        <time>2012-01-22T15:14:24Z</time>
      </trkpt>
      <trkpt lat="48.58207" lon="-2.54004">
        <ele>59</ele>
        <time>2012-01-22T15:14:26Z</time>
      </trkpt>
      <trkpt lat="48.58206" lon="-2.54006">
        <ele>59</ele>
        <time>2012-01-22T15:14:27Z</time>
      </trkpt>
      <trkpt lat="48.58204" lon="-2.54007">
        <ele>59</ele>
        <time>2012-01-22T15:14:29Z</time>
      </trkpt>
      <trkpt lat="48.58202" lon="-2.54009">
        <ele>59</ele>
        <time>2012-01-22T15:14:30Z</time>
      </trkpt>
      <trkpt lat="48.582" lon="-2.5401">
        <ele>59</ele>
        <time>2012-01-22T15:14:32Z</time>
      </trkpt>
      <trkpt lat="48.58199" lon="-2.54011">
        <ele>59</ele>
        <time>2012-01-22T15:14:33Z</time>
      </trkpt>
      <trkpt lat="48.58198" lon="-2.54012">
        <ele>59</ele>
        <time>2012-01-22T15:14:34Z</time>
      </trkpt>
      <trkpt lat="48.58196" lon="-2.54013">
        <ele>59</ele>
        <time>2012-01-22T15:14:36Z</time>
      </trkpt>
      <trkpt lat="48.58194" lon="-2.54014">
        <ele>59</ele>
        <time>2012-01-22T15:14:37Z</time>
      </trkpt>
      <trkpt lat="48.58193" lon="-2.54014">
        <ele>59</ele>
        <time>2012-01-22T15:14:38Z</time>
      </trkpt>
      <trkpt lat="48.58192" lon="-2.54015">
        <ele>59</ele>
        <time>2012-01-22T15:14:39Z</time>
      </trkpt>
      <trkpt lat="48.5819" lon="-2.54017">
        <ele>59</ele>
        <time>2012-01-22T15:14:40Z</time>
      </trkpt>
      <trkpt lat="48.58189" lon="-2.54018">
        <ele>59</ele>
        <time>2012-01-22T15:14:41Z</time>
      </trkpt>
      <trkpt lat="48.58188" lon="-2.54021">
        <ele>59</ele>
        <time>2012-01-22T15:14:42Z</time>
      </trkpt>
      <trkpt lat="48.58186" lon="-2.54023">
        <ele>59</ele>
        <time>2012-01-22T15:14:44Z</time>
      </trkpt>
      <trkpt lat="48.58184" lon="-2.54024">
        <ele>59</ele>
        <time>2012-01-22T15:14:45Z</time>
      </trkpt>
      <trkpt lat="48.58182" lon="-2.54026">
        <ele>59</ele>
        <time>2012-01-22T15:14:47Z</time>
      </trkpt>
      <trkpt lat="48.58181" lon="-2.54027">
        <ele>59</ele>
        <time>2012-01-22T15:14:48Z</time>
      </trkpt>
      <trkpt lat="48.5818" lon="-2.54028">
        <ele>59</ele>
        <time>2012-01-22T15:14:49Z</time>
      </trkpt>
      <trkpt lat="48.58178" lon="-2.54029">
        <ele>59</ele>
        <time>2012-01-22T15:14:50Z</time>
      </trkpt>
      <trkpt lat="48.58177" lon="-2.5403">
        <ele>59</ele>
        <time>2012-01-22T15:14:51Z</time>
      </trkpt>
      <trkpt lat="48.58175" lon="-2.54032">
        <ele>59</ele>
        <time>2012-01-22T15:14:53Z</time>
      </trkpt>
      <trkpt lat="48.58174" lon="-2.54033">
        <ele>59</ele>
        <time>2012-01-22T15:14:54Z</time>
      </trkpt>
      <trkpt lat="48.58173" lon="-2.54034">
        <ele>59</ele>
        <time>2012-01-22T15:14:55Z</time>
      </trkpt>
      <trkpt lat="48.58171" lon="-2.54035">
        <ele>59</ele>
        <time>2012-01-22T15:14:56Z</time>
      </trkpt>
      <trkpt lat="48.5817" lon="-2.54035">
        <ele>59</ele>
        <time>2012-01-22T15:14:57Z</time>
      </trkpt>
      <trkpt lat="48.58169" lon="-2.54036">
        <ele>59</ele>
        <time>2012-01-22T15:14:58Z</time>
      </trkpt>
      <trkpt lat="48.58168" lon="-2.54037">
        <ele>59</ele>
        <time>2012-01-22T15:14:59Z</time>
      </trkpt>
      <trkpt lat="48.58166" lon="-2.54038">
        <ele>59</ele>
        <time>2012-01-22T15:15:01Z</time>
      </trkpt>
      <trkpt lat="48.58164" lon="-2.54039">
        <ele>59</ele>
        <time>2012-01-22T15:15:03Z</time>
      </trkpt>
      <trkpt lat="48.58163" lon="-2.5404">
        <ele>59</ele>
        <time>2012-01-22T15:15:05Z</time>
      </trkpt>
      <trkpt lat="48.5816" lon="-2.54041">
        <ele>59</ele>
        <time>2012-01-22T15:15:07Z</time>
      </trkpt>
      <trkpt lat="48.58159" lon="-2.54042">
        <ele>59</ele>
        <time>2012-01-22T15:15:09Z</time>
      </trkpt>
      <trkpt lat="48.58157" lon="-2.54042">
        <ele>59</ele>
        <time>2012-01-22T15:15:10Z</time>
      </trkpt>
      <trkpt lat="48.58156" lon="-2.54042">
        <ele>59</ele>
        <time>2012-01-22T15:15:11Z</time>
      </trkpt>
      <trkpt lat="48.58155" lon="-2.54043">
        <ele>59</ele>
        <time>2012-01-22T15:15:12Z</time>
      </trkpt>
      <trkpt lat="48.58154" lon="-2.54043">
        <ele>59</ele>
        <time>2012-01-22T15:15:13Z</time>
      </trkpt>
      <trkpt lat="48.58152" lon="-2.54043">
        <ele>59</ele>
        <time>2012-01-22T15:15:14Z</time>
      </trkpt>
      <trkpt lat="48.58151" lon="-2.54044">
        <ele>59</ele>
        <time>2012-01-22T15:15:15Z</time>
      </trkpt>
      <trkpt lat="48.5815" lon="-2.54044">
        <ele>59</ele>
        <time>2012-01-22T15:15:16Z</time>
      </trkpt>
      <trkpt lat="48.58149" lon="-2.54045">
        <ele>59</ele>
        <time>2012-01-22T15:15:17Z</time>
      </trkpt>
      <trkpt lat="48.58147" lon="-2.54045">
        <ele>59</ele>
        <time>2012-01-22T15:15:18Z</time>
      </trkpt>
      <trkpt lat="48.58145" lon="-2.54046">
        <ele>59</ele>
        <time>2012-01-22T15:15:20Z</time>
      </trkpt>
      <trkpt lat="48.58143" lon="-2.54048">
        <ele>59</ele>
        <time>2012-01-22T15:15:22Z</time>
      </trkpt>
      <trkpt lat="48.58141" lon="-2.54048">
        <ele>59</ele>
        <time>2012-01-22T15:15:23Z</time>
      </trkpt>
      <trkpt lat="48.5814" lon="-2.54049">
        <ele>59</ele>
        <time>2012-01-22T15:15:24Z</time>
      </trkpt>
      <trkpt lat="48.58139" lon="-2.54049">
        <ele>59</ele>
        <time>2012-01-22T15:15:25Z</time>
      </trkpt>
      <trkpt lat="48.58137" lon="-2.5405">
        <ele>59</ele>
        <time>2012-01-22T15:15:27Z</time>
      </trkpt>
      <trkpt lat="48.58136" lon="-2.5405">
        <ele>59</ele>
        <time>2012-01-22T15:15:28Z</time>
      </trkpt>
      <trkpt lat="48.58134" lon="-2.5405">
        <ele>59</ele>
        <time>2012-01-22T15:15:29Z</time>
      </trkpt>
      <trkpt lat="48.58132" lon="-2.54051">
        <ele>59</ele>
        <time>2012-01-22T15:15:31Z</time>
      </trkpt>
      <trkpt lat="48.5813" lon="-2.54053">
        <ele>59</ele>
        <time>2012-01-22T15:15:33Z</time>
      </trkpt>
      <trkpt lat="48.58128" lon="-2.54053">
        <ele>59</ele>
        <time>2012-01-22T15:15:35Z</time>
      </trkpt>
      <trkpt lat="48.58126" lon="-2.54054">
        <ele>59</ele>
        <time>2012-01-22T15:15:36Z</time>
      </trkpt>
      <trkpt lat="48.58125" lon="-2.54055">
        <ele>59</ele>
        <time>2012-01-22T15:15:37Z</time>
      </trkpt>
      <trkpt lat="48.58124" lon="-2.54055">
        <ele>60</ele>
        <time>2012-01-22T15:15:38Z</time>
      </trkpt>
      <trkpt lat="48.58123" lon="-2.54056">
        <ele>60</ele>
        <time>2012-01-22T15:15:39Z</time>
      </trkpt>
      <trkpt lat="48.58122" lon="-2.54056">
        <ele>60</ele>
        <time>2012-01-22T15:15:40Z</time>
      </trkpt>
      <trkpt lat="48.58121" lon="-2.54057">
        <ele>60</ele>
        <time>2012-01-22T15:15:41Z</time>
      </trkpt>
      <trkpt lat="48.5812" lon="-2.54057">
        <ele>60</ele>
        <time>2012-01-22T15:15:42Z</time>
      </trkpt>
      <trkpt lat="48.58117" lon="-2.54058">
        <ele>60</ele>
        <time>2012-01-22T15:15:44Z</time>
      </trkpt>
      <trkpt lat="48.58116" lon="-2.54058">
        <ele>60</ele>
        <time>2012-01-22T15:15:45Z</time>
      </trkpt>
      <trkpt lat="48.58114" lon="-2.54059">
        <ele>60</ele>
        <time>2012-01-22T15:15:47Z</time>
      </trkpt>
      <trkpt lat="48.58112" lon="-2.5406">
        <ele>60</ele>
        <time>2012-01-22T15:15:49Z</time>
      </trkpt>
      <trkpt lat="48.5811" lon="-2.54061">
        <ele>60</ele>
        <time>2012-01-22T15:15:50Z</time>
      </trkpt>
      <trkpt lat="48.58109" lon="-2.54061">
        <ele>60</ele>
        <time>2012-01-22T15:15:51Z</time>
      </trkpt>
      <trkpt lat="48.58108" lon="-2.54062">
        <ele>60</ele>
        <time>2012-01-22T15:15:52Z</time>
      </trkpt>
      <trkpt lat="48.58107" lon="-2.54062">
        <ele>60</ele>
        <time>2012-01-22T15:15:53Z</time>
      </trkpt>
      <trkpt lat="48.58106" lon="-2.54063">
        <ele>60</ele>
        <time>2012-01-22T15:15:54Z</time>
      </trkpt>
      <trkpt lat="48.58104" lon="-2.54063">
        <ele>60</ele>
        <time>2012-01-22T15:15:55Z</time>
      </trkpt>
      <trkpt lat="48.58103" lon="-2.54064">
        <ele>60</ele>
        <time>2012-01-22T15:15:56Z</time>
      </trkpt>
      <trkpt lat="48.58101" lon="-2.54065">
        <ele>60</ele>
        <time>2012-01-22T15:15:58Z</time>
      </trkpt>
      <trkpt lat="48.581" lon="-2.54065">
        <ele>60</ele>
        <time>2012-01-22T15:15:59Z</time>
      </trkpt>
      <trkpt lat="48.58099" lon="-2.54066">
        <ele>60</ele>
        <time>2012-01-22T15:16:00Z</time>
      </trkpt>
      <trkpt lat="48.58097" lon="-2.54066">
        <ele>60</ele>
        <time>2012-01-22T15:16:01Z</time>
      </trkpt>
      <trkpt lat="48.58095" lon="-2.54067">
        <ele>60</ele>
        <time>2012-01-22T15:16:03Z</time>
      </trkpt>
      <trkpt lat="48.58093" lon="-2.54067">
        <ele>60</ele>
        <time>2012-01-22T15:16:05Z</time>
      </trkpt>
      <trkpt lat="48.58091" lon="-2.54068">
        <ele>60</ele>
        <time>2012-01-22T15:16:07Z</time>
      </trkpt>
      <trkpt lat="48.58089" lon="-2.54069">
        <ele>60</ele>
        <time>2012-01-22T15:16:09Z</time>
      </trkpt>
      <trkpt lat="48.58087" lon="-2.5407">
        <ele>60</ele>
        <time>2012-01-22T15:16:11Z</time>
      </trkpt>
      <trkpt lat="48.58085" lon="-2.54071">
        <ele>61</ele>
        <time>2012-01-22T15:16:13Z</time>
      </trkpt>
      <trkpt lat="48.58083" lon="-2.54071">
        <ele>61</ele>
        <time>2012-01-22T15:16:15Z</time>
      </trkpt>
      <trkpt lat="48.58082" lon="-2.54072">
        <ele>61</ele>
        <time>2012-01-22T15:16:16Z</time>
      </trkpt>
      <trkpt lat="48.58081" lon="-2.54072">
        <ele>61</ele>
        <time>2012-01-22T15:16:17Z</time>
      </trkpt>
      <trkpt lat="48.5808" lon="-2.54072">
        <ele>61</ele>
        <time>2012-01-22T15:16:18Z</time>
      </trkpt>
      <trkpt lat="48.58078" lon="-2.54072">
        <ele>61</ele>
        <time>2012-01-22T15:16:19Z</time>
      </trkpt>
      <trkpt lat="48.58077" lon="-2.54072">
        <ele>61</ele>
        <time>2012-01-22T15:16:20Z</time>
      </trkpt>
      <trkpt lat="48.58076" lon="-2.54073">
        <ele>61</ele>
        <time>2012-01-22T15:16:21Z</time>
      </trkpt>
      <trkpt lat="48.58075" lon="-2.54073">
        <ele>61</ele>
        <time>2012-01-22T15:16:22Z</time>
      </trkpt>
      <trkpt lat="48.58074" lon="-2.54073">
        <ele>61</ele>
        <time>2012-01-22T15:16:23Z</time>
      </trkpt>
      <trkpt lat="48.58073" lon="-2.54074">
        <ele>61</ele>
        <time>2012-01-22T15:16:24Z</time>
      </trkpt>
      <trkpt lat="48.58072" lon="-2.54074">
        <ele>61</ele>
        <time>2012-01-22T15:16:25Z</time>
      </trkpt>
      <trkpt lat="48.5807" lon="-2.54075">
        <ele>61</ele>
        <time>2012-01-22T15:16:26Z</time>
      </trkpt>
      <trkpt lat="48.58069" lon="-2.54075">
        <ele>61</ele>
        <time>2012-01-22T15:16:27Z</time>
      </trkpt>
      <trkpt lat="48.58068" lon="-2.54075">
        <ele>61</ele>
        <time>2012-01-22T15:16:28Z</time>
      </trkpt>
      <trkpt lat="48.58067" lon="-2.54076">
        <ele>61</ele>
        <time>2012-01-22T15:16:29Z</time>
      </trkpt>
      <trkpt lat="48.58065" lon="-2.54076">
        <ele>61</ele>
        <time>2012-01-22T15:16:30Z</time>
      </trkpt>
      <trkpt lat="48.58064" lon="-2.54076">
        <ele>61</ele>
        <time>2012-01-22T15:16:31Z</time>
      </trkpt>
      <trkpt lat="48.58063" lon="-2.54077">
        <ele>61</ele>
        <time>2012-01-22T15:16:32Z</time>
      </trkpt>
      <trkpt lat="48.58062" lon="-2.54077">
        <ele>61</ele>
        <time>2012-01-22T15:16:33Z</time>
      </trkpt>
      <trkpt lat="48.5806" lon="-2.54077">
        <ele>61</ele>
        <time>2012-01-22T15:16:34Z</time>
      </trkpt>
      <trkpt lat="48.58059" lon="-2.54078">
        <ele>61</ele>
        <time>2012-01-22T15:16:35Z</time>
      </trkpt>
      <trkpt lat="48.58058" lon="-2.54078">
        <ele>61</ele>
        <time>2012-01-22T15:16:36Z</time>
      </trkpt>
      <trkpt lat="48.58057" lon="-2.54078">
        <ele>61</ele>
        <time>2012-01-22T15:16:37Z</time>
      </trkpt>
      <trkpt lat="48.58055" lon="-2.54079">
        <ele>61</ele>
        <time>2012-01-22T15:16:38Z</time>
      </trkpt>
      <trkpt lat="48.58054" lon="-2.54079">
        <ele>61</ele>
        <time>2012-01-22T15:16:39Z</time>
      </trkpt>
      <trkpt lat="48.58053" lon="-2.5408">
        <ele>61</ele>
        <time>2012-01-22T15:16:40Z</time>
      </trkpt>
      <trkpt lat="48.58052" lon="-2.5408">
        <ele>61</ele>
        <time>2012-01-22T15:16:41Z</time>
      </trkpt>
      <trkpt lat="48.5805" lon="-2.54081">
        <ele>61</ele>
        <time>2012-01-22T15:16:42Z</time>
      </trkpt>
      <trkpt lat="48.58049" lon="-2.54081">
        <ele>61</ele>
        <time>2012-01-22T15:16:43Z</time>
      </trkpt>
      <trkpt lat="48.58048" lon="-2.54082">
        <ele>61</ele>
        <time>2012-01-22T15:16:44Z</time>
      </trkpt>
      <trkpt lat="48.58047" lon="-2.54082">
        <ele>61</ele>
        <time>2012-01-22T15:16:45Z</time>
      </trkpt>
      <trkpt lat="48.58045" lon="-2.54082">
        <ele>61</ele>
        <time>2012-01-22T15:16:46Z</time>
      </trkpt>
      <trkpt lat="48.58044" lon="-2.54083">
        <ele>61</ele>
        <time>2012-01-22T15:16:47Z</time>
      </trkpt>
      <trkpt lat="48.58043" lon="-2.54083">
        <ele>61</ele>
        <time>2012-01-22T15:16:48Z</time>
      </trkpt>
      <trkpt lat="48.58042" lon="-2.54084">
        <ele>62</ele>
        <time>2012-01-22T15:16:49Z</time>
      </trkpt>
      <trkpt lat="48.58041" lon="-2.54084">
        <ele>62</ele>
        <time>2012-01-22T15:16:50Z</time>
      </trkpt>
      <trkpt lat="48.58039" lon="-2.54084">
        <ele>62</ele>
        <time>2012-01-22T15:16:51Z</time>
      </trkpt>
      <trkpt lat="48.58038" lon="-2.54084">
        <ele>62</ele>
        <time>2012-01-22T15:16:52Z</time>
      </trkpt>
      <trkpt lat="48.58037" lon="-2.54085">
        <ele>62</ele>
        <time>2012-01-22T15:16:53Z</time>
      </trkpt>
      <trkpt lat="48.58036" lon="-2.54085">
        <ele>62</ele>
        <time>2012-01-22T15:16:54Z</time>
      </trkpt>
      <trkpt lat="48.58035" lon="-2.54086">
        <ele>62</ele>
        <time>2012-01-22T15:16:55Z</time>
      </trkpt>
      <trkpt lat="48.58034" lon="-2.54087">
        <ele>62</ele>
        <time>2012-01-22T15:16:56Z</time>
      </trkpt>
      <trkpt lat="48.58033" lon="-2.54088">
        <ele>62</ele>
        <time>2012-01-22T15:16:57Z</time>
      </trkpt>
      <trkpt lat="48.58031" lon="-2.54089">
        <ele>62</ele>
        <time>2012-01-22T15:16:58Z</time>
      </trkpt>
      <trkpt lat="48.5803" lon="-2.54089">
        <ele>62</ele>
        <time>2012-01-22T15:16:59Z</time>
      </trkpt>
      <trkpt lat="48.58028" lon="-2.5409">
        <ele>62</ele>
        <time>2012-01-22T15:17:00Z</time>
      </trkpt>
      <trkpt lat="48.58027" lon="-2.5409">
        <ele>62</ele>
        <time>2012-01-22T15:17:01Z</time>
      </trkpt>
      <trkpt lat="48.58026" lon="-2.54091">
        <ele>62</ele>
        <time>2012-01-22T15:17:02Z</time>
      </trkpt>
      <trkpt lat="48.58025" lon="-2.54091">
        <ele>62</ele>
        <time>2012-01-22T15:17:04Z</time>
      </trkpt>
      <trkpt lat="48.58023" lon="-2.54092">
        <ele>62</ele>
        <time>2012-01-22T15:17:06Z</time>
      </trkpt>
      <trkpt lat="48.58022" lon="-2.54093">
        <ele>62</ele>
        <time>2012-01-22T15:17:08Z</time>
      </trkpt>
      <trkpt lat="48.58021" lon="-2.54094">
        <ele>62</ele>
        <time>2012-01-22T15:17:09Z</time>
      </trkpt>
      <trkpt lat="48.5802" lon="-2.54095">
        <ele>62</ele>
        <time>2012-01-22T15:17:10Z</time>
      </trkpt>
      <trkpt lat="48.58017" lon="-2.54096">
        <ele>62</ele>
        <time>2012-01-22T15:17:12Z</time>
      </trkpt>
      <trkpt lat="48.58016" lon="-2.54097">
        <ele>62</ele>
        <time>2012-01-22T15:17:13Z</time>
      </trkpt>
      <trkpt lat="48.58015" lon="-2.54098">
        <ele>62</ele>
        <time>2012-01-22T15:17:14Z</time>
      </trkpt>
      <trkpt lat="48.58013" lon="-2.54099">
        <ele>62</ele>
        <time>2012-01-22T15:17:16Z</time>
      </trkpt>
      <trkpt lat="48.58011" lon="-2.541">
        <ele>62</ele>
        <time>2012-01-22T15:17:18Z</time>
      </trkpt>
      <trkpt lat="48.58009" lon="-2.54101">
        <ele>62</ele>
        <time>2012-01-22T15:17:19Z</time>
      </trkpt>
      <trkpt lat="48.58008" lon="-2.54102">
        <ele>62</ele>
        <time>2012-01-22T15:17:20Z</time>
      </trkpt>
      <trkpt lat="48.58007" lon="-2.54103">
        <ele>62</ele>
        <time>2012-01-22T15:17:21Z</time>
      </trkpt>
      <trkpt lat="48.58006" lon="-2.54104">
        <ele>62</ele>
        <time>2012-01-22T15:17:22Z</time>
      </trkpt>
      <trkpt lat="48.58004" lon="-2.54105">
        <ele>62</ele>
        <time>2012-01-22T15:17:23Z</time>
      </trkpt>
      <trkpt lat="48.58003" lon="-2.54105">
        <ele>62</ele>
        <time>2012-01-22T15:17:24Z</time>
      </trkpt>
      <trkpt lat="48.58001" lon="-2.54106">
        <ele>62</ele>
        <time>2012-01-22T15:17:26Z</time>
      </trkpt>
      <trkpt lat="48.58" lon="-2.54107">
        <ele>62</ele>
        <time>2012-01-22T15:17:27Z</time>
      </trkpt>
      <trkpt lat="48.57998" lon="-2.54107">
        <ele>62</ele>
        <time>2012-01-22T15:17:29Z</time>
      </trkpt>
      <trkpt lat="48.57997" lon="-2.54107">
        <ele>62</ele>
        <time>2012-01-22T15:17:30Z</time>
      </trkpt>
      <trkpt lat="48.57995" lon="-2.54108">
        <ele>63</ele>
        <time>2012-01-22T15:17:32Z</time>
      </trkpt>
      <trkpt lat="48.57993" lon="-2.54109">
        <ele>63</ele>
        <time>2012-01-22T15:17:34Z</time>
      </trkpt>
      <trkpt lat="48.57991" lon="-2.5411">
        <ele>63</ele>
        <time>2012-01-22T15:17:35Z</time>
      </trkpt>
      <trkpt lat="48.5799" lon="-2.54111">
        <ele>63</ele>
        <time>2012-01-22T15:17:37Z</time>
      </trkpt>
      <trkpt lat="48.57988" lon="-2.54111">
        <ele>63</ele>
        <time>2012-01-22T15:17:38Z</time>
      </trkpt>
      <trkpt lat="48.57987" lon="-2.54112">
        <ele>63</ele>
        <time>2012-01-22T15:17:39Z</time>
      </trkpt>
      <trkpt lat="48.57986" lon="-2.54112">
        <ele>63</ele>
        <time>2012-01-22T15:17:40Z</time>
      </trkpt>
      <trkpt lat="48.57985" lon="-2.54113">
        <ele>63</ele>
        <time>2012-01-22T15:17:41Z</time>
      </trkpt>
      <trkpt lat="48.57983" lon="-2.54114">
        <ele>63</ele>
        <time>2012-01-22T15:17:42Z</time>
      </trkpt>
      <trkpt lat="48.57982" lon="-2.54114">
        <ele>63</ele>
        <time>2012-01-22T15:17:43Z</time>
      </trkpt>
      <trkpt lat="48.5798" lon="-2.54115">
        <ele>63</ele>
        <time>2012-01-22T15:17:45Z</time>
      </trkpt>
      <trkpt lat="48.57979" lon="-2.54116">
        <ele>63</ele>
        <time>2012-01-22T15:17:46Z</time>
      </trkpt>
      <trkpt lat="48.57977" lon="-2.54117">
        <ele>63</ele>
        <time>2012-01-22T15:17:48Z</time>
      </trkpt>
      <trkpt lat="48.57975" lon="-2.54118">
        <ele>63</ele>
        <time>2012-01-22T15:17:49Z</time>
      </trkpt>
      <trkpt lat="48.57974" lon="-2.54118">
        <ele>63</ele>
        <time>2012-01-22T15:17:50Z</time>
      </trkpt>
      <trkpt lat="48.57973" lon="-2.54119">
        <ele>63</ele>
        <time>2012-01-22T15:17:51Z</time>
      </trkpt>
      <trkpt lat="48.57972" lon="-2.5412">
        <ele>63</ele>
        <time>2012-01-22T15:17:52Z</time>
      </trkpt>
      <trkpt lat="48.57971" lon="-2.5412">
        <ele>63</ele>
        <time>2012-01-22T15:17:53Z</time>
      </trkpt>
      <trkpt lat="48.5797" lon="-2.54121">
        <ele>63</ele>
        <time>2012-01-22T15:17:54Z</time>
      </trkpt>
      <trkpt lat="48.57968" lon="-2.54121">
        <ele>63</ele>
        <time>2012-01-22T15:17:55Z</time>
      </trkpt>
      <trkpt lat="48.57967" lon="-2.54121">
        <ele>63</ele>
        <time>2012-01-22T15:17:56Z</time>
      </trkpt>
      <trkpt lat="48.57965" lon="-2.54122">
        <ele>63</ele>
        <time>2012-01-22T15:17:58Z</time>
      </trkpt>
      <trkpt lat="48.57964" lon="-2.54123">
        <ele>63</ele>
        <time>2012-01-22T15:17:59Z</time>
      </trkpt>
      <trkpt lat="48.57962" lon="-2.54123">
        <ele>63</ele>
        <time>2012-01-22T15:18:00Z</time>
      </trkpt>
      <trkpt lat="48.57961" lon="-2.54124">
        <ele>63</ele>
        <time>2012-01-22T15:18:01Z</time>
      </trkpt>
      <trkpt lat="48.57959" lon="-2.54124">
        <ele>63</ele>
        <time>2012-01-22T15:18:02Z</time>
      </trkpt>
      <trkpt lat="48.57958" lon="-2.54125">
        <ele>63</ele>
        <time>2012-01-22T15:18:03Z</time>
      </trkpt>
      <trkpt lat="48.57956" lon="-2.54126">
        <ele>63</ele>
        <time>2012-01-22T15:18:04Z</time>
      </trkpt>
      <trkpt lat="48.57955" lon="-2.54127">
        <ele>63</ele>
        <time>2012-01-22T15:18:05Z</time>
      </trkpt>
      <trkpt lat="48.57954" lon="-2.54128">
        <ele>63</ele>
        <time>2012-01-22T15:18:06Z</time>
      </trkpt>
      <trkpt lat="48.57952" lon="-2.54129">
        <ele>63</ele>
        <time>2012-01-22T15:18:07Z</time>
      </trkpt>
      <trkpt lat="48.57951" lon="-2.54129">
        <ele>63</ele>
        <time>2012-01-22T15:18:08Z</time>
      </trkpt>
      <trkpt lat="48.5795" lon="-2.5413">
        <ele>63</ele>
        <time>2012-01-22T15:18:09Z</time>
      </trkpt>
      <trkpt lat="48.57949" lon="-2.54131">
        <ele>63</ele>
        <time>2012-01-22T15:18:10Z</time>
      </trkpt>
      <trkpt lat="48.57948" lon="-2.54132">
        <ele>63</ele>
        <time>2012-01-22T15:18:11Z</time>
      </trkpt>
      <trkpt lat="48.57946" lon="-2.54133">
        <ele>63</ele>
        <time>2012-01-22T15:18:12Z</time>
      </trkpt>
      <trkpt lat="48.57944" lon="-2.54134">
        <ele>63</ele>
        <time>2012-01-22T15:18:13Z</time>
      </trkpt>
      <trkpt lat="48.57943" lon="-2.54135">
        <ele>63</ele>
        <time>2012-01-22T15:18:14Z</time>
      </trkpt>
      <trkpt lat="48.57942" lon="-2.54135">
        <ele>63</ele>
        <time>2012-01-22T15:18:15Z</time>
      </trkpt>
      <trkpt lat="48.57941" lon="-2.54136">
        <ele>63</ele>
        <time>2012-01-22T15:18:16Z</time>
      </trkpt>
      <trkpt lat="48.57939" lon="-2.54137">
        <ele>63</ele>
        <time>2012-01-22T15:18:18Z</time>
      </trkpt>
      <trkpt lat="48.57938" lon="-2.54138">
        <ele>63</ele>
        <time>2012-01-22T15:18:19Z</time>
      </trkpt>
      <trkpt lat="48.57936" lon="-2.54139">
        <ele>63</ele>
        <time>2012-01-22T15:18:20Z</time>
      </trkpt>
      <trkpt lat="48.57935" lon="-2.54139">
        <ele>63</ele>
        <time>2012-01-22T15:18:21Z</time>
      </trkpt>
      <trkpt lat="48.57934" lon="-2.5414">
        <ele>63</ele>
        <time>2012-01-22T15:18:22Z</time>
      </trkpt>
      <trkpt lat="48.57933" lon="-2.5414">
        <ele>63</ele>
        <time>2012-01-22T15:18:23Z</time>
      </trkpt>
      <trkpt lat="48.57932" lon="-2.54141">
        <ele>63</ele>
        <time>2012-01-22T15:18:24Z</time>
      </trkpt>
      <trkpt lat="48.5793" lon="-2.54141">
        <ele>63</ele>
        <time>2012-01-22T15:18:25Z</time>
      </trkpt>
      <trkpt lat="48.57929" lon="-2.54142">
        <ele>63</ele>
        <time>2012-01-22T15:18:26Z</time>
      </trkpt>
      <trkpt lat="48.57928" lon="-2.54143">
        <ele>63</ele>
        <time>2012-01-22T15:18:27Z</time>
      </trkpt>
      <trkpt lat="48.57926" lon="-2.54143">
        <ele>63</ele>
        <time>2012-01-22T15:18:29Z</time>
      </trkpt>
      <trkpt lat="48.57925" lon="-2.54144">
        <ele>63</ele>
        <time>2012-01-22T15:18:30Z</time>
      </trkpt>
      <trkpt lat="48.57922" lon="-2.54145">
        <ele>63</ele>
        <time>2012-01-22T15:18:32Z</time>
      </trkpt>
      <trkpt lat="48.57921" lon="-2.54145">
        <ele>63</ele>
        <time>2012-01-22T15:18:33Z</time>
      </trkpt>
      <trkpt lat="48.57919" lon="-2.54146">
        <ele>63</ele>
        <time>2012-01-22T15:18:35Z</time>
      </trkpt>
      <trkpt lat="48.57917" lon="-2.54147">
        <ele>63</ele>
        <time>2012-01-22T15:18:37Z</time>
      </trkpt>
      <trkpt lat="48.57915" lon="-2.54148">
        <ele>63</ele>
        <time>2012-01-22T15:18:39Z</time>
      </trkpt>
      <trkpt lat="48.57914" lon="-2.54148">
        <ele>63</ele>
        <time>2012-01-22T15:18:40Z</time>
      </trkpt>
      <trkpt lat="48.57913" lon="-2.54148">
        <ele>63</ele>
        <time>2012-01-22T15:18:41Z</time>
      </trkpt>
      <trkpt lat="48.57911" lon="-2.54148">
        <ele>63</ele>
        <time>2012-01-22T15:18:43Z</time>
      </trkpt>
      <trkpt lat="48.57909" lon="-2.54149">
        <ele>63</ele>
        <time>2012-01-22T15:18:45Z</time>
      </trkpt>
      <trkpt lat="48.57906" lon="-2.54149">
        <ele>63</ele>
        <time>2012-01-22T15:18:47Z</time>
      </trkpt>
      <trkpt lat="48.57905" lon="-2.54149">
        <ele>63</ele>
        <time>2012-01-22T15:18:48Z</time>
      </trkpt>
      <trkpt lat="48.57903" lon="-2.5415">
        <ele>63</ele>
        <time>2012-01-22T15:18:50Z</time>
      </trkpt>
      <trkpt lat="48.57901" lon="-2.5415">
        <ele>63</ele>
        <time>2012-01-22T15:18:52Z</time>
      </trkpt>
      <trkpt lat="48.57899" lon="-2.5415">
        <ele>63</ele>
        <time>2012-01-22T15:18:54Z</time>
      </trkpt>
      <trkpt lat="48.57897" lon="-2.54151">
        <ele>63</ele>
        <time>2012-01-22T15:18:56Z</time>
      </trkpt>
      <trkpt lat="48.57896" lon="-2.54151">
        <ele>63</ele>
        <time>2012-01-22T15:18:57Z</time>
      </trkpt>
      <trkpt lat="48.57894" lon="-2.54152">
        <ele>63</ele>
        <time>2012-01-22T15:18:58Z</time>
      </trkpt>
      <trkpt lat="48.57893" lon="-2.54152">
        <ele>63</ele>
        <time>2012-01-22T15:18:59Z</time>
      </trkpt>
      <trkpt lat="48.57891" lon="-2.54153">
        <ele>63</ele>
        <time>2012-01-22T15:19:01Z</time>
      </trkpt>
      <trkpt lat="48.57889" lon="-2.54153">
        <ele>63</ele>
        <time>2012-01-22T15:19:03Z</time>
      </trkpt>
      <trkpt lat="48.57887" lon="-2.54154">
        <ele>63</ele>
        <time>2012-01-22T15:19:05Z</time>
      </trkpt>
      <trkpt lat="48.57885" lon="-2.54154">
        <ele>63</ele>
        <time>2012-01-22T15:19:07Z</time>
      </trkpt>
      <trkpt lat="48.57884" lon="-2.54154">
        <ele>63</ele>
        <time>2012-01-22T15:19:09Z</time>
      </trkpt>
      <trkpt lat="48.57882" lon="-2.54154">
        <ele>63</ele>
        <time>2012-01-22T15:19:11Z</time>
      </trkpt>
      <trkpt lat="48.57881" lon="-2.54155">
        <ele>63</ele>
        <time>2012-01-22T15:19:13Z</time>
      </trkpt>
      <trkpt lat="48.57879" lon="-2.54155">
        <ele>63</ele>
        <time>2012-01-22T15:19:15Z</time>
      </trkpt>
      <trkpt lat="48.57877" lon="-2.54156">
        <ele>63</ele>
        <time>2012-01-22T15:19:17Z</time>
      </trkpt>
      <trkpt lat="48.57876" lon="-2.54157">
        <ele>63</ele>
        <time>2012-01-22T15:19:19Z</time>
      </trkpt>
      <trkpt lat="48.57875" lon="-2.54159">
        <ele>63</ele>
        <time>2012-01-22T15:19:22Z</time>
      </trkpt>
      <trkpt lat="48.57874" lon="-2.5416">
        <ele>63</ele>
        <time>2012-01-22T15:19:31Z</time>
      </trkpt>
      <trkpt lat="48.57874" lon="-2.54162">
        <ele>63</ele>
        <time>2012-01-22T15:19:33Z</time>
      </trkpt>
      <trkpt lat="48.57873" lon="-2.54164">
        <ele>63</ele>
        <time>2012-01-22T15:19:35Z</time>
      </trkpt>
      <trkpt lat="48.57872" lon="-2.54166">
        <ele>63</ele>
        <time>2012-01-22T15:19:37Z</time>
      </trkpt>
      <trkpt lat="48.57871" lon="-2.54168">
        <ele>63</ele>
        <time>2012-01-22T15:19:45Z</time>
      </trkpt>
      <trkpt lat="48.57871" lon="-2.54171">
        <ele>63</ele>
        <time>2012-01-22T15:19:47Z</time>
      </trkpt>
      <trkpt lat="48.57872" lon="-2.54174">
        <ele>63</ele>
        <time>2012-01-22T15:19:49Z</time>
      </trkpt>
      <trkpt lat="48.57871" lon="-2.54176">
        <ele>63</ele>
        <time>2012-01-22T15:19:51Z</time>
      </trkpt>
      <trkpt lat="48.5787" lon="-2.54179">
        <ele>63</ele>
        <time>2012-01-22T15:19:53Z</time>
      </trkpt>
      <trkpt lat="48.57871" lon="-2.54181">
        <ele>63</ele>
        <time>2012-01-22T15:19:55Z</time>
      </trkpt>
      <trkpt lat="48.57872" lon="-2.54183">
        <ele>63</ele>
        <time>2012-01-22T15:19:56Z</time>
      </trkpt>
      <trkpt lat="48.57873" lon="-2.54186">
        <ele>63</ele>
        <time>2012-01-22T15:19:58Z</time>
      </trkpt>
      <trkpt lat="48.57872" lon="-2.54188">
        <ele>63</ele>
        <time>2012-01-22T15:19:59Z</time>
      </trkpt>
      <trkpt lat="48.57872" lon="-2.5419">
        <ele>63</ele>
        <time>2012-01-22T15:20:00Z</time>
      </trkpt>
      <trkpt lat="48.57871" lon="-2.54192">
        <ele>63</ele>
        <time>2012-01-22T15:20:01Z</time>
      </trkpt>
      <trkpt lat="48.57869" lon="-2.54193">
        <ele>63</ele>
        <time>2012-01-22T15:20:02Z</time>
      </trkpt>
      <trkpt lat="48.57869" lon="-2.54195">
        <ele>63</ele>
        <time>2012-01-22T15:20:03Z</time>
      </trkpt>
      <trkpt lat="48.57868" lon="-2.54197">
        <ele>63</ele>
        <time>2012-01-22T15:20:04Z</time>
      </trkpt>
      <trkpt lat="48.57868" lon="-2.54199">
        <ele>63</ele>
        <time>2012-01-22T15:20:05Z</time>
      </trkpt>
      <trkpt lat="48.57868" lon="-2.54201">
        <ele>63</ele>
        <time>2012-01-22T15:20:06Z</time>
      </trkpt>
      <trkpt lat="48.57869" lon="-2.54203">
        <ele>63</ele>
        <time>2012-01-22T15:20:07Z</time>
      </trkpt>
      <trkpt lat="48.57869" lon="-2.54205">
        <ele>63</ele>
        <time>2012-01-22T15:20:08Z</time>
      </trkpt>
      <trkpt lat="48.57869" lon="-2.54208">
        <ele>62</ele>
        <time>2012-01-22T15:20:09Z</time>
      </trkpt>
      <trkpt lat="48.5787" lon="-2.5421">
        <ele>62</ele>
        <time>2012-01-22T15:20:10Z</time>
      </trkpt>
      <trkpt lat="48.5787" lon="-2.54212">
        <ele>62</ele>
        <time>2012-01-22T15:20:11Z</time>
      </trkpt>
      <trkpt lat="48.5787" lon="-2.54214">
        <ele>62</ele>
        <time>2012-01-22T15:20:12Z</time>
      </trkpt>
      <trkpt lat="48.5787" lon="-2.54216">
        <ele>62</ele>
        <time>2012-01-22T15:20:13Z</time>
      </trkpt>
      <trkpt lat="48.5787" lon="-2.54218">
        <ele>61</ele>
        <time>2012-01-22T15:20:14Z</time>
      </trkpt>
      <trkpt lat="48.5787" lon="-2.54219">
        <ele>61</ele>
        <time>2012-01-22T15:20:15Z</time>
      </trkpt>
      <trkpt lat="48.5787" lon="-2.54221">
        <ele>61</ele>
        <time>2012-01-22T15:20:16Z</time>
      </trkpt>
      <trkpt lat="48.5787" lon="-2.54223">
        <ele>61</ele>
        <time>2012-01-22T15:20:17Z</time>
      </trkpt>
      <trkpt lat="48.5787" lon="-2.54225">
        <ele>61</ele>
        <time>2012-01-22T15:20:18Z</time>
      </trkpt>
      <trkpt lat="48.5787" lon="-2.54227">
        <ele>61</ele>
        <time>2012-01-22T15:20:19Z</time>
      </trkpt>
      <trkpt lat="48.5787" lon="-2.54229">
        <ele>61</ele>
        <time>2012-01-22T15:20:20Z</time>
      </trkpt>
      <trkpt lat="48.5787" lon="-2.54231">
        <ele>60</ele>
        <time>2012-01-22T15:20:21Z</time>
      </trkpt>
      <trkpt lat="48.5787" lon="-2.54233">
        <ele>60</ele>
        <time>2012-01-22T15:20:22Z</time>
      </trkpt>
      <trkpt lat="48.57871" lon="-2.54235">
        <ele>60</ele>
        <time>2012-01-22T15:20:23Z</time>
      </trkpt>
      <trkpt lat="48.57871" lon="-2.54237">
        <ele>60</ele>
        <time>2012-01-22T15:20:24Z</time>
      </trkpt>
      <trkpt lat="48.57871" lon="-2.54239">
        <ele>59</ele>
        <time>2012-01-22T15:20:25Z</time>
      </trkpt>
      <trkpt lat="48.57871" lon="-2.54241">
        <ele>59</ele>
        <time>2012-01-22T15:20:26Z</time>
      </trkpt>
      <trkpt lat="48.57871" lon="-2.54242">
        <ele>59</ele>
        <time>2012-01-22T15:20:27Z</time>
      </trkpt>
      <trkpt lat="48.57871" lon="-2.54244">
        <ele>59</ele>
        <time>2012-01-22T15:20:28Z</time>
      </trkpt>
      <trkpt lat="48.57871" lon="-2.54246">
        <ele>58</ele>
        <time>2012-01-22T15:20:29Z</time>
      </trkpt>
      <trkpt lat="48.57871" lon="-2.54247">
        <ele>58</ele>
        <time>2012-01-22T15:20:30Z</time>
      </trkpt>
      <trkpt lat="48.57871" lon="-2.54249">
        <ele>58</ele>
        <time>2012-01-22T15:20:31Z</time>
      </trkpt>
      <trkpt lat="48.57871" lon="-2.54251">
        <ele>58</ele>
        <time>2012-01-22T15:20:32Z</time>
      </trkpt>
      <trkpt lat="48.57871" lon="-2.54253">
        <ele>58</ele>
        <time>2012-01-22T15:20:33Z</time>
      </trkpt>
      <trkpt lat="48.57871" lon="-2.54256">
        <ele>58</ele>
        <time>2012-01-22T15:20:34Z</time>
      </trkpt>
      <trkpt lat="48.57871" lon="-2.54257">
        <ele>58</ele>
        <time>2012-01-22T15:20:35Z</time>
      </trkpt>
      <trkpt lat="48.57871" lon="-2.54259">
        <ele>58</ele>
        <time>2012-01-22T15:20:36Z</time>
      </trkpt>
      <trkpt lat="48.57871" lon="-2.54262">
        <ele>58</ele>
        <time>2012-01-22T15:20:37Z</time>
      </trkpt>
      <trkpt lat="48.57871" lon="-2.54263">
        <ele>57</ele>
        <time>2012-01-22T15:20:38Z</time>
      </trkpt>
      <trkpt lat="48.57871" lon="-2.54265">
        <ele>57</ele>
        <time>2012-01-22T15:20:39Z</time>
      </trkpt>
      <trkpt lat="48.57871" lon="-2.54268">
        <ele>57</ele>
        <time>2012-01-22T15:20:40Z</time>
      </trkpt>
      <trkpt lat="48.57871" lon="-2.5427">
        <ele>57</ele>
        <time>2012-01-22T15:20:41Z</time>
      </trkpt>
      <trkpt lat="48.57871" lon="-2.54271">
        <ele>57</ele>
        <time>2012-01-22T15:20:42Z</time>
      </trkpt>
      <trkpt lat="48.57871" lon="-2.54273">
        <ele>56</ele>
        <time>2012-01-22T15:20:43Z</time>
      </trkpt>
      <trkpt lat="48.5787" lon="-2.54275">
        <ele>56</ele>
        <time>2012-01-22T15:20:44Z</time>
      </trkpt>
      <trkpt lat="48.5787" lon="-2.54277">
        <ele>56</ele>
        <time>2012-01-22T15:20:45Z</time>
      </trkpt>
      <trkpt lat="48.5787" lon="-2.54279">
        <ele>56</ele>
        <time>2012-01-22T15:20:46Z</time>
      </trkpt>
      <trkpt lat="48.5787" lon="-2.54281">
        <ele>55</ele>
        <time>2012-01-22T15:20:47Z</time>
      </trkpt>
      <trkpt lat="48.5787" lon="-2.54283">
        <ele>55</ele>
        <time>2012-01-22T15:20:48Z</time>
      </trkpt>
      <trkpt lat="48.5787" lon="-2.54285">
        <ele>55</ele>
        <time>2012-01-22T15:20:49Z</time>
      </trkpt>
      <trkpt lat="48.5787" lon="-2.54287">
        <ele>55</ele>
        <time>2012-01-22T15:20:50Z</time>
      </trkpt>
      <trkpt lat="48.5787" lon="-2.54289">
        <ele>55</ele>
        <time>2012-01-22T15:20:51Z</time>
      </trkpt>
      <trkpt lat="48.5787" lon="-2.54291">
        <ele>55</ele>
        <time>2012-01-22T15:20:52Z</time>
      </trkpt>
      <trkpt lat="48.5787" lon="-2.54293">
        <ele>55</ele>
        <time>2012-01-22T15:20:53Z</time>
      </trkpt>
      <trkpt lat="48.5787" lon="-2.54294">
        <ele>55</ele>
        <time>2012-01-22T15:20:54Z</time>
      </trkpt>
      <trkpt lat="48.5787" lon="-2.54296">
        <ele>55</ele>
        <time>2012-01-22T15:20:55Z</time>
      </trkpt>
      <trkpt lat="48.5787" lon="-2.54298">
        <ele>55</ele>
        <time>2012-01-22T15:20:56Z</time>
      </trkpt>
      <trkpt lat="48.5787" lon="-2.543">
        <ele>55</ele>
        <time>2012-01-22T15:20:57Z</time>
      </trkpt>
      <trkpt lat="48.5787" lon="-2.54303">
        <ele>55</ele>
        <time>2012-01-22T15:20:58Z</time>
      </trkpt>
      <trkpt lat="48.5787" lon="-2.54305">
        <ele>55</ele>
        <time>2012-01-22T15:20:59Z</time>
      </trkpt>
      <trkpt lat="48.5787" lon="-2.54307">
        <ele>55</ele>
        <time>2012-01-22T15:21:00Z</time>
      </trkpt>
      <trkpt lat="48.5787" lon="-2.54309">
        <ele>55</ele>
        <time>2012-01-22T15:21:01Z</time>
      </trkpt>
      <trkpt lat="48.57869" lon="-2.5431">
        <ele>55</ele>
        <time>2012-01-22T15:21:02Z</time>
      </trkpt>
      <trkpt lat="48.5787" lon="-2.54312">
        <ele>55</ele>
        <time>2012-01-22T15:21:03Z</time>
      </trkpt>
      <trkpt lat="48.57869" lon="-2.54314">
        <ele>54</ele>
        <time>2012-01-22T15:21:04Z</time>
      </trkpt>
      <trkpt lat="48.57869" lon="-2.54316">
        <ele>54</ele>
        <time>2012-01-22T15:21:05Z</time>
      </trkpt>
      <trkpt lat="48.5787" lon="-2.54318">
        <ele>54</ele>
        <time>2012-01-22T15:21:06Z</time>
      </trkpt>
      <trkpt lat="48.5787" lon="-2.54321">
        <ele>54</ele>
        <time>2012-01-22T15:21:07Z</time>
      </trkpt>
      <trkpt lat="48.5787" lon="-2.54323">
        <ele>54</ele>
        <time>2012-01-22T15:21:08Z</time>
      </trkpt>
      <trkpt lat="48.5787" lon="-2.54325">
        <ele>54</ele>
        <time>2012-01-22T15:21:09Z</time>
      </trkpt>
      <trkpt lat="48.57869" lon="-2.54327">
        <ele>54</ele>
        <time>2012-01-22T15:21:10Z</time>
      </trkpt>
      <trkpt lat="48.57869" lon="-2.54328">
        <ele>54</ele>
        <time>2012-01-22T15:21:11Z</time>
      </trkpt>
      <trkpt lat="48.5787" lon="-2.5433">
        <ele>54</ele>
        <time>2012-01-22T15:21:12Z</time>
      </trkpt>
      <trkpt lat="48.5787" lon="-2.54332">
        <ele>54</ele>
        <time>2012-01-22T15:21:13Z</time>
      </trkpt>
      <trkpt lat="48.5787" lon="-2.54334">
        <ele>54</ele>
        <time>2012-01-22T15:21:14Z</time>
      </trkpt>
      <trkpt lat="48.5787" lon="-2.54336">
        <ele>54</ele>
        <time>2012-01-22T15:21:15Z</time>
      </trkpt>
      <trkpt lat="48.5787" lon="-2.54338">
        <ele>54</ele>
        <time>2012-01-22T15:21:16Z</time>
      </trkpt>
      <trkpt lat="48.5787" lon="-2.5434">
        <ele>54</ele>
        <time>2012-01-22T15:21:17Z</time>
      </trkpt>
      <trkpt lat="48.5787" lon="-2.54342">
        <ele>54</ele>
        <time>2012-01-22T15:21:18Z</time>
      </trkpt>
      <trkpt lat="48.5787" lon="-2.54344">
        <ele>54</ele>
        <time>2012-01-22T15:21:19Z</time>
      </trkpt>
      <trkpt lat="48.5787" lon="-2.54346">
        <ele>54</ele>
        <time>2012-01-22T15:21:20Z</time>
      </trkpt>
      <trkpt lat="48.5787" lon="-2.54348">
        <ele>54</ele>
        <time>2012-01-22T15:21:21Z</time>
      </trkpt>
      <trkpt lat="48.5787" lon="-2.5435">
        <ele>54</ele>
        <time>2012-01-22T15:21:22Z</time>
      </trkpt>
      <trkpt lat="48.5787" lon="-2.54352">
        <ele>54</ele>
        <time>2012-01-22T15:21:23Z</time>
      </trkpt>
      <trkpt lat="48.57869" lon="-2.54354">
        <ele>54</ele>
        <time>2012-01-22T15:21:24Z</time>
      </trkpt>
      <trkpt lat="48.57869" lon="-2.54356">
        <ele>54</ele>
        <time>2012-01-22T15:21:25Z</time>
      </trkpt>
      <trkpt lat="48.57869" lon="-2.54358">
        <ele>54</ele>
        <time>2012-01-22T15:21:26Z</time>
      </trkpt>
      <trkpt lat="48.57869" lon="-2.5436">
        <ele>54</ele>
        <time>2012-01-22T15:21:27Z</time>
      </trkpt>
      <trkpt lat="48.57869" lon="-2.54362">
        <ele>54</ele>
        <time>2012-01-22T15:21:28Z</time>
      </trkpt>
      <trkpt lat="48.57869" lon="-2.54364">
        <ele>54</ele>
        <time>2012-01-22T15:21:29Z</time>
      </trkpt>
      <trkpt lat="48.57869" lon="-2.54366">
        <ele>54</ele>
        <time>2012-01-22T15:21:30Z</time>
      </trkpt>
      <trkpt lat="48.57869" lon="-2.54368">
        <ele>54</ele>
        <time>2012-01-22T15:21:31Z</time>
      </trkpt>
      <trkpt lat="48.57869" lon="-2.5437">
        <ele>54</ele>
        <time>2012-01-22T15:21:32Z</time>
      </trkpt>
      <trkpt lat="48.57869" lon="-2.54372">
        <ele>54</ele>
        <time>2012-01-22T15:21:33Z</time>
      </trkpt>
      <trkpt lat="48.57869" lon="-2.54373">
        <ele>54</ele>
        <time>2012-01-22T15:21:34Z</time>
      </trkpt>
      <trkpt lat="48.57869" lon="-2.54375">
        <ele>54</ele>
        <time>2012-01-22T15:21:35Z</time>
      </trkpt>
      <trkpt lat="48.57869" lon="-2.54377">
        <ele>54</ele>
        <time>2012-01-22T15:21:36Z</time>
      </trkpt>
      <trkpt lat="48.57869" lon="-2.54379">
        <ele>54</ele>
        <time>2012-01-22T15:21:37Z</time>
      </trkpt>
      <trkpt lat="48.57869" lon="-2.54381">
        <ele>54</ele>
        <time>2012-01-22T15:21:38Z</time>
      </trkpt>
      <trkpt lat="48.57869" lon="-2.54383">
        <ele>54</ele>
        <time>2012-01-22T15:21:39Z</time>
      </trkpt>
      <trkpt lat="48.57869" lon="-2.54385">
        <ele>54</ele>
        <time>2012-01-22T15:21:40Z</time>
      </trkpt>
      <trkpt lat="48.57868" lon="-2.54387">
        <ele>54</ele>
        <time>2012-01-22T15:21:41Z</time>
      </trkpt>
      <trkpt lat="48.57869" lon="-2.54388">
        <ele>54</ele>
        <time>2012-01-22T15:21:42Z</time>
      </trkpt>
      <trkpt lat="48.57869" lon="-2.5439">
        <ele>54</ele>
        <time>2012-01-22T15:21:43Z</time>
      </trkpt>
      <trkpt lat="48.57868" lon="-2.54392">
        <ele>54</ele>
        <time>2012-01-22T15:21:44Z</time>
      </trkpt>
      <trkpt lat="48.57869" lon="-2.54395">
        <ele>54</ele>
        <time>2012-01-22T15:21:45Z</time>
      </trkpt>
      <trkpt lat="48.57868" lon="-2.54397">
        <ele>54</ele>
        <time>2012-01-22T15:21:46Z</time>
      </trkpt>
      <trkpt lat="48.57868" lon="-2.54398">
        <ele>54</ele>
        <time>2012-01-22T15:21:47Z</time>
      </trkpt>
      <trkpt lat="48.57868" lon="-2.544">
        <ele>53</ele>
        <time>2012-01-22T15:21:48Z</time>
      </trkpt>
      <trkpt lat="48.57867" lon="-2.54402">
        <ele>53</ele>
        <time>2012-01-22T15:21:49Z</time>
      </trkpt>
      <trkpt lat="48.57867" lon="-2.54404">
        <ele>53</ele>
        <time>2012-01-22T15:21:50Z</time>
      </trkpt>
      <trkpt lat="48.57867" lon="-2.54406">
        <ele>52</ele>
        <time>2012-01-22T15:21:51Z</time>
      </trkpt>
      <trkpt lat="48.57867" lon="-2.54409">
        <ele>52</ele>
        <time>2012-01-22T15:21:52Z</time>
      </trkpt>
      <trkpt lat="48.57867" lon="-2.54411">
        <ele>52</ele>
        <time>2012-01-22T15:21:53Z</time>
      </trkpt>
      <trkpt lat="48.57867" lon="-2.54413">
        <ele>52</ele>
        <time>2012-01-22T15:21:54Z</time>
      </trkpt>
      <trkpt lat="48.57867" lon="-2.54415">
        <ele>52</ele>
        <time>2012-01-22T15:21:55Z</time>
      </trkpt>
      <trkpt lat="48.57866" lon="-2.54417">
        <ele>52</ele>
        <time>2012-01-22T15:21:56Z</time>
      </trkpt>
      <trkpt lat="48.57866" lon="-2.54419">
        <ele>51</ele>
        <time>2012-01-22T15:21:57Z</time>
      </trkpt>
      <trkpt lat="48.57866" lon="-2.54421">
        <ele>51</ele>
        <time>2012-01-22T15:21:58Z</time>
      </trkpt>
      <trkpt lat="48.57866" lon="-2.54423">
        <ele>51</ele>
        <time>2012-01-22T15:21:59Z</time>
      </trkpt>
      <trkpt lat="48.57865" lon="-2.54426">
        <ele>51</ele>
        <time>2012-01-22T15:22:00Z</time>
      </trkpt>
      <trkpt lat="48.57865" lon="-2.54428">
        <ele>51</ele>
        <time>2012-01-22T15:22:01Z</time>
      </trkpt>
      <trkpt lat="48.57864" lon="-2.5443">
        <ele>51</ele>
        <time>2012-01-22T15:22:02Z</time>
      </trkpt>
      <trkpt lat="48.57864" lon="-2.54432">
        <ele>51</ele>
        <time>2012-01-22T15:22:03Z</time>
      </trkpt>
      <trkpt lat="48.57864" lon="-2.54434">
        <ele>51</ele>
        <time>2012-01-22T15:22:04Z</time>
      </trkpt>
      <trkpt lat="48.57864" lon="-2.54436">
        <ele>51</ele>
        <time>2012-01-22T15:22:05Z</time>
      </trkpt>
      <trkpt lat="48.57863" lon="-2.54438">
        <ele>51</ele>
        <time>2012-01-22T15:22:06Z</time>
      </trkpt>
      <trkpt lat="48.57863" lon="-2.5444">
        <ele>51</ele>
        <time>2012-01-22T15:22:07Z</time>
      </trkpt>
      <trkpt lat="48.57863" lon="-2.54442">
        <ele>51</ele>
        <time>2012-01-22T15:22:08Z</time>
      </trkpt>
      <trkpt lat="48.57862" lon="-2.54444">
        <ele>51</ele>
        <time>2012-01-22T15:22:09Z</time>
      </trkpt>
      <trkpt lat="48.57862" lon="-2.54446">
        <ele>51</ele>
        <time>2012-01-22T15:22:10Z</time>
      </trkpt>
      <trkpt lat="48.57862" lon="-2.54448">
        <ele>51</ele>
        <time>2012-01-22T15:22:11Z</time>
      </trkpt>
      <trkpt lat="48.57861" lon="-2.5445">
        <ele>51</ele>
        <time>2012-01-22T15:22:12Z</time>
      </trkpt>
      <trkpt lat="48.57861" lon="-2.54452">
        <ele>51</ele>
        <time>2012-01-22T15:22:13Z</time>
      </trkpt>
      <trkpt lat="48.57861" lon="-2.54454">
        <ele>51</ele>
        <time>2012-01-22T15:22:14Z</time>
      </trkpt>
      <trkpt lat="48.57861" lon="-2.54456">
        <ele>51</ele>
        <time>2012-01-22T15:22:15Z</time>
      </trkpt>
      <trkpt lat="48.5786" lon="-2.54458">
        <ele>51</ele>
        <time>2012-01-22T15:22:16Z</time>
      </trkpt>
      <trkpt lat="48.5786" lon="-2.5446">
        <ele>51</ele>
        <time>2012-01-22T15:22:17Z</time>
      </trkpt>
      <trkpt lat="48.57859" lon="-2.54462">
        <ele>51</ele>
        <time>2012-01-22T15:22:18Z</time>
      </trkpt>
      <trkpt lat="48.57859" lon="-2.54464">
        <ele>51</ele>
        <time>2012-01-22T15:22:19Z</time>
      </trkpt>
      <trkpt lat="48.57859" lon="-2.54466">
        <ele>51</ele>
        <time>2012-01-22T15:22:20Z</time>
      </trkpt>
      <trkpt lat="48.57858" lon="-2.54468">
        <ele>51</ele>
        <time>2012-01-22T15:22:22Z</time>
      </trkpt>
      <trkpt lat="48.57858" lon="-2.5447">
        <ele>51</ele>
        <time>2012-01-22T15:22:23Z</time>
      </trkpt>
      <trkpt lat="48.57857" lon="-2.54473">
        <ele>51</ele>
        <time>2012-01-22T15:22:25Z</time>
      </trkpt>
      <trkpt lat="48.57857" lon="-2.54475">
        <ele>51</ele>
        <time>2012-01-22T15:22:26Z</time>
      </trkpt>
      <trkpt lat="48.57856" lon="-2.54478">
        <ele>51</ele>
        <time>2012-01-22T15:22:27Z</time>
      </trkpt>
      <trkpt lat="48.57856" lon="-2.5448">
        <ele>51</ele>
        <time>2012-01-22T15:22:28Z</time>
      </trkpt>
      <trkpt lat="48.57855" lon="-2.54482">
        <ele>51</ele>
        <time>2012-01-22T15:22:29Z</time>
      </trkpt>
      <trkpt lat="48.57855" lon="-2.54484">
        <ele>51</ele>
        <time>2012-01-22T15:22:30Z</time>
      </trkpt>
      <trkpt lat="48.57854" lon="-2.54486">
        <ele>51</ele>
        <time>2012-01-22T15:22:31Z</time>
      </trkpt>
      <trkpt lat="48.57854" lon="-2.54488">
        <ele>51</ele>
        <time>2012-01-22T15:22:32Z</time>
      </trkpt>
      <trkpt lat="48.57853" lon="-2.5449">
        <ele>51</ele>
        <time>2012-01-22T15:22:33Z</time>
      </trkpt>
      <trkpt lat="48.57853" lon="-2.54492">
        <ele>51</ele>
        <time>2012-01-22T15:22:34Z</time>
      </trkpt>
      <trkpt lat="48.57852" lon="-2.54494">
        <ele>50</ele>
        <time>2012-01-22T15:22:35Z</time>
      </trkpt>
      <trkpt lat="48.57852" lon="-2.54496">
        <ele>50</ele>
        <time>2012-01-22T15:22:36Z</time>
      </trkpt>
      <trkpt lat="48.57851" lon="-2.54498">
        <ele>50</ele>
        <time>2012-01-22T15:22:37Z</time>
      </trkpt>
      <trkpt lat="48.57851" lon="-2.545">
        <ele>50</ele>
        <time>2012-01-22T15:22:38Z</time>
      </trkpt>
      <trkpt lat="48.5785" lon="-2.54502">
        <ele>49</ele>
        <time>2012-01-22T15:22:39Z</time>
      </trkpt>
      <trkpt lat="48.5785" lon="-2.54504">
        <ele>49</ele>
        <time>2012-01-22T15:22:40Z</time>
      </trkpt>
      <trkpt lat="48.5785" lon="-2.54505">
        <ele>49</ele>
        <time>2012-01-22T15:22:41Z</time>
      </trkpt>
      <trkpt lat="48.57849" lon="-2.54507">
        <ele>49</ele>
        <time>2012-01-22T15:22:42Z</time>
      </trkpt>
      <trkpt lat="48.57848" lon="-2.54509">
        <ele>49</ele>
        <time>2012-01-22T15:22:43Z</time>
      </trkpt>
      <trkpt lat="48.57848" lon="-2.54511">
        <ele>49</ele>
        <time>2012-01-22T15:22:44Z</time>
      </trkpt>
      <trkpt lat="48.57848" lon="-2.54513">
        <ele>49</ele>
        <time>2012-01-22T15:22:45Z</time>
      </trkpt>
      <trkpt lat="48.57847" lon="-2.54515">
        <ele>48</ele>
        <time>2012-01-22T15:22:46Z</time>
      </trkpt>
      <trkpt lat="48.57846" lon="-2.54517">
        <ele>48</ele>
        <time>2012-01-22T15:22:47Z</time>
      </trkpt>
      <trkpt lat="48.57846" lon="-2.54519">
        <ele>48</ele>
        <time>2012-01-22T15:22:48Z</time>
      </trkpt>
      <trkpt lat="48.57845" lon="-2.54521">
        <ele>48</ele>
        <time>2012-01-22T15:22:49Z</time>
      </trkpt>
      <trkpt lat="48.57845" lon="-2.54522">
        <ele>48</ele>
        <time>2012-01-22T15:22:50Z</time>
      </trkpt>
      <trkpt lat="48.57845" lon="-2.54524">
        <ele>48</ele>
        <time>2012-01-22T15:22:51Z</time>
      </trkpt>
      <trkpt lat="48.57845" lon="-2.54526">
        <ele>48</ele>
        <time>2012-01-22T15:22:52Z</time>
      </trkpt>
      <trkpt lat="48.57844" lon="-2.54528">
        <ele>48</ele>
        <time>2012-01-22T15:22:53Z</time>
      </trkpt>
      <trkpt lat="48.57843" lon="-2.5453">
        <ele>48</ele>
        <time>2012-01-22T15:22:54Z</time>
      </trkpt>
      <trkpt lat="48.57843" lon="-2.54532">
        <ele>48</ele>
        <time>2012-01-22T15:22:55Z</time>
      </trkpt>
      <trkpt lat="48.57842" lon="-2.54534">
        <ele>48</ele>
        <time>2012-01-22T15:22:56Z</time>
      </trkpt>
      <trkpt lat="48.57841" lon="-2.54536">
        <ele>48</ele>
        <time>2012-01-22T15:22:58Z</time>
      </trkpt>
      <trkpt lat="48.5784" lon="-2.54539">
        <ele>48</ele>
        <time>2012-01-22T15:23:00Z</time>
      </trkpt>
      <trkpt lat="48.57838" lon="-2.54542">
        <ele>48</ele>
        <time>2012-01-22T15:23:02Z</time>
      </trkpt>
      <trkpt lat="48.57837" lon="-2.54544">
        <ele>48</ele>
        <time>2012-01-22T15:23:03Z</time>
      </trkpt>
      <trkpt lat="48.57837" lon="-2.54545">
        <ele>47</ele>
        <time>2012-01-22T15:23:04Z</time>
      </trkpt>
      <trkpt lat="48.57836" lon="-2.54547">
        <ele>47</ele>
        <time>2012-01-22T15:23:05Z</time>
      </trkpt>
      <trkpt lat="48.57835" lon="-2.54549">
        <ele>47</ele>
        <time>2012-01-22T15:23:06Z</time>
      </trkpt>
      <trkpt lat="48.57835" lon="-2.54551">
        <ele>47</ele>
        <time>2012-01-22T15:23:07Z</time>
      </trkpt>
      <trkpt lat="48.57834" lon="-2.54553">
        <ele>47</ele>
        <time>2012-01-22T15:23:08Z</time>
      </trkpt>
      <trkpt lat="48.57833" lon="-2.54555">
        <ele>47</ele>
        <time>2012-01-22T15:23:09Z</time>
      </trkpt>
      <trkpt lat="48.57832" lon="-2.54556">
        <ele>47</ele>
        <time>2012-01-22T15:23:10Z</time>
      </trkpt>
      <trkpt lat="48.57832" lon="-2.54558">
        <ele>47</ele>
        <time>2012-01-22T15:23:11Z</time>
      </trkpt>
      <trkpt lat="48.57831" lon="-2.5456">
        <ele>47</ele>
        <time>2012-01-22T15:23:12Z</time>
      </trkpt>
      <trkpt lat="48.5783" lon="-2.54561">
        <ele>47</ele>
        <time>2012-01-22T15:23:13Z</time>
      </trkpt>
      <trkpt lat="48.57829" lon="-2.54563">
        <ele>47</ele>
        <time>2012-01-22T15:23:14Z</time>
      </trkpt>
      <trkpt lat="48.57829" lon="-2.54565">
        <ele>47</ele>
        <time>2012-01-22T15:23:15Z</time>
      </trkpt>
      <trkpt lat="48.57828" lon="-2.54567">
        <ele>47</ele>
        <time>2012-01-22T15:23:16Z</time>
      </trkpt>
      <trkpt lat="48.57828" lon="-2.54569">
        <ele>47</ele>
        <time>2012-01-22T15:23:17Z</time>
      </trkpt>
      <trkpt lat="48.57827" lon="-2.54571">
        <ele>47</ele>
        <time>2012-01-22T15:23:18Z</time>
      </trkpt>
      <trkpt lat="48.57827" lon="-2.54573">
        <ele>47</ele>
        <time>2012-01-22T15:23:19Z</time>
      </trkpt>
      <trkpt lat="48.57826" lon="-2.54574">
        <ele>47</ele>
        <time>2012-01-22T15:23:20Z</time>
      </trkpt>
      <trkpt lat="48.57825" lon="-2.54576">
        <ele>47</ele>
        <time>2012-01-22T15:23:21Z</time>
      </trkpt>
      <trkpt lat="48.57825" lon="-2.54578">
        <ele>47</ele>
        <time>2012-01-22T15:23:22Z</time>
      </trkpt>
      <trkpt lat="48.57824" lon="-2.5458">
        <ele>47</ele>
        <time>2012-01-22T15:23:23Z</time>
      </trkpt>
      <trkpt lat="48.57823" lon="-2.54583">
        <ele>47</ele>
        <time>2012-01-22T15:23:25Z</time>
      </trkpt>
      <trkpt lat="48.57823" lon="-2.54585">
        <ele>47</ele>
        <time>2012-01-22T15:23:26Z</time>
      </trkpt>
      <trkpt lat="48.57822" lon="-2.54587">
        <ele>47</ele>
        <time>2012-01-22T15:23:27Z</time>
      </trkpt>
      <trkpt lat="48.57822" lon="-2.54589">
        <ele>47</ele>
        <time>2012-01-22T15:23:28Z</time>
      </trkpt>
      <trkpt lat="48.57821" lon="-2.54591">
        <ele>47</ele>
        <time>2012-01-22T15:23:29Z</time>
      </trkpt>
      <trkpt lat="48.5782" lon="-2.54592">
        <ele>47</ele>
        <time>2012-01-22T15:23:30Z</time>
      </trkpt>
      <trkpt lat="48.57819" lon="-2.54594">
        <ele>46</ele>
        <time>2012-01-22T15:23:31Z</time>
      </trkpt>
      <trkpt lat="48.57819" lon="-2.54596">
        <ele>46</ele>
        <time>2012-01-22T15:23:32Z</time>
      </trkpt>
      <trkpt lat="48.57818" lon="-2.54597">
        <ele>46</ele>
        <time>2012-01-22T15:23:33Z</time>
      </trkpt>
      <trkpt lat="48.57818" lon="-2.54599">
        <ele>46</ele>
        <time>2012-01-22T15:23:34Z</time>
      </trkpt>
      <trkpt lat="48.57817" lon="-2.54601">
        <ele>46</ele>
        <time>2012-01-22T15:23:35Z</time>
      </trkpt>
      <trkpt lat="48.57816" lon="-2.54603">
        <ele>46</ele>
        <time>2012-01-22T15:23:36Z</time>
      </trkpt>
      <trkpt lat="48.57816" lon="-2.54605">
        <ele>46</ele>
        <time>2012-01-22T15:23:37Z</time>
      </trkpt>
      <trkpt lat="48.57816" lon="-2.54606">
        <ele>46</ele>
        <time>2012-01-22T15:23:38Z</time>
      </trkpt>
      <trkpt lat="48.57815" lon="-2.54608">
        <ele>46</ele>
        <time>2012-01-22T15:23:39Z</time>
      </trkpt>
      <trkpt lat="48.57815" lon="-2.5461">
        <ele>46</ele>
        <time>2012-01-22T15:23:40Z</time>
      </trkpt>
      <trkpt lat="48.57814" lon="-2.54612">
        <ele>46</ele>
        <time>2012-01-22T15:23:41Z</time>
      </trkpt>
      <trkpt lat="48.57814" lon="-2.54614">
        <ele>46</ele>
        <time>2012-01-22T15:23:42Z</time>
      </trkpt>
      <trkpt lat="48.57814" lon="-2.54616">
        <ele>46</ele>
        <time>2012-01-22T15:23:43Z</time>
      </trkpt>
      <trkpt lat="48.57813" lon="-2.54618">
        <ele>46</ele>
        <time>2012-01-22T15:23:44Z</time>
      </trkpt>
      <trkpt lat="48.57813" lon="-2.5462">
        <ele>46</ele>
        <time>2012-01-22T15:23:45Z</time>
      </trkpt>
      <trkpt lat="48.57812" lon="-2.54622">
        <ele>45</ele>
        <time>2012-01-22T15:23:46Z</time>
      </trkpt>
      <trkpt lat="48.57812" lon="-2.54623">
        <ele>45</ele>
        <time>2012-01-22T15:23:47Z</time>
      </trkpt>
      <trkpt lat="48.57812" lon="-2.54625">
        <ele>45</ele>
        <time>2012-01-22T15:23:48Z</time>
      </trkpt>
      <trkpt lat="48.57811" lon="-2.54627">
        <ele>45</ele>
        <time>2012-01-22T15:23:49Z</time>
      </trkpt>
      <trkpt lat="48.57811" lon="-2.54629">
        <ele>45</ele>
        <time>2012-01-22T15:23:50Z</time>
      </trkpt>
      <trkpt lat="48.5781" lon="-2.54631">
        <ele>45</ele>
        <time>2012-01-22T15:23:51Z</time>
      </trkpt>
      <trkpt lat="48.5781" lon="-2.54633">
        <ele>45</ele>
        <time>2012-01-22T15:23:52Z</time>
      </trkpt>
      <trkpt lat="48.57809" lon="-2.54635">
        <ele>45</ele>
        <time>2012-01-22T15:23:53Z</time>
      </trkpt>
      <trkpt lat="48.57809" lon="-2.54637">
        <ele>45</ele>
        <time>2012-01-22T15:23:54Z</time>
      </trkpt>
      <trkpt lat="48.57809" lon="-2.54639">
        <ele>45</ele>
        <time>2012-01-22T15:23:55Z</time>
      </trkpt>
      <trkpt lat="48.57808" lon="-2.54641">
        <ele>45</ele>
        <time>2012-01-22T15:23:56Z</time>
      </trkpt>
      <trkpt lat="48.57808" lon="-2.54643">
        <ele>45</ele>
        <time>2012-01-22T15:23:57Z</time>
      </trkpt>
      <trkpt lat="48.57808" lon="-2.54644">
        <ele>45</ele>
        <time>2012-01-22T15:23:58Z</time>
      </trkpt>
      <trkpt lat="48.57808" lon="-2.54646">
        <ele>45</ele>
        <time>2012-01-22T15:23:59Z</time>
      </trkpt>
      <trkpt lat="48.57808" lon="-2.54648">
        <ele>45</ele>
        <time>2012-01-22T15:24:00Z</time>
      </trkpt>
      <trkpt lat="48.57808" lon="-2.5465">
        <ele>45</ele>
        <time>2012-01-22T15:24:01Z</time>
      </trkpt>
      <trkpt lat="48.57808" lon="-2.54651">
        <ele>45</ele>
        <time>2012-01-22T15:24:02Z</time>
      </trkpt>
      <trkpt lat="48.57808" lon="-2.54653">
        <ele>45</ele>
        <time>2012-01-22T15:24:03Z</time>
      </trkpt>
      <trkpt lat="48.57808" lon="-2.54656">
        <ele>45</ele>
        <time>2012-01-22T15:24:05Z</time>
      </trkpt>
      <trkpt lat="48.57808" lon="-2.54659">
        <ele>45</ele>
        <time>2012-01-22T15:24:07Z</time>
      </trkpt>
      <trkpt lat="48.57809" lon="-2.54661">
        <ele>45</ele>
        <time>2012-01-22T15:24:14Z</time>
      </trkpt>
      <trkpt lat="48.57809" lon="-2.54664">
        <ele>45</ele>
        <time>2012-01-22T15:24:16Z</time>
      </trkpt>
      <trkpt lat="48.57809" lon="-2.54666">
        <ele>45</ele>
        <time>2012-01-22T15:24:17Z</time>
      </trkpt>
      <trkpt lat="48.57809" lon="-2.54669">
        <ele>45</ele>
        <time>2012-01-22T15:24:18Z</time>
      </trkpt>
      <trkpt lat="48.57809" lon="-2.54671">
        <ele>45</ele>
        <time>2012-01-22T15:24:19Z</time>
      </trkpt>
      <trkpt lat="48.57809" lon="-2.54673">
        <ele>45</ele>
        <time>2012-01-22T15:24:20Z</time>
      </trkpt>
      <trkpt lat="48.57809" lon="-2.54675">
        <ele>45</ele>
        <time>2012-01-22T15:24:21Z</time>
      </trkpt>
      <trkpt lat="48.57809" lon="-2.54677">
        <ele>45</ele>
        <time>2012-01-22T15:24:22Z</time>
      </trkpt>
      <trkpt lat="48.57808" lon="-2.54679">
        <ele>45</ele>
        <time>2012-01-22T15:24:23Z</time>
      </trkpt>
      <trkpt lat="48.57808" lon="-2.54681">
        <ele>45</ele>
        <time>2012-01-22T15:24:24Z</time>
      </trkpt>
      <trkpt lat="48.57808" lon="-2.54683">
        <ele>45</ele>
        <time>2012-01-22T15:24:25Z</time>
      </trkpt>
      <trkpt lat="48.57808" lon="-2.54685">
        <ele>45</ele>
        <time>2012-01-22T15:24:26Z</time>
      </trkpt>
      <trkpt lat="48.57808" lon="-2.54687">
        <ele>45</ele>
        <time>2012-01-22T15:24:27Z</time>
      </trkpt>
      <trkpt lat="48.57808" lon="-2.54689">
        <ele>45</ele>
        <time>2012-01-22T15:24:28Z</time>
      </trkpt>
      <trkpt lat="48.57808" lon="-2.5469">
        <ele>45</ele>
        <time>2012-01-22T15:24:29Z</time>
      </trkpt>
      <trkpt lat="48.57808" lon="-2.54692">
        <ele>45</ele>
        <time>2012-01-22T15:24:30Z</time>
      </trkpt>
      <trkpt lat="48.57808" lon="-2.54694">
        <ele>45</ele>
        <time>2012-01-22T15:24:31Z</time>
      </trkpt>
      <trkpt lat="48.57808" lon="-2.54696">
        <ele>45</ele>
        <time>2012-01-22T15:24:32Z</time>
      </trkpt>
      <trkpt lat="48.57807" lon="-2.54697">
        <ele>45</ele>
        <time>2012-01-22T15:24:33Z</time>
      </trkpt>
      <trkpt lat="48.57807" lon="-2.54699">
        <ele>45</ele>
        <time>2012-01-22T15:24:34Z</time>
      </trkpt>
      <trkpt lat="48.57807" lon="-2.54701">
        <ele>45</ele>
        <time>2012-01-22T15:24:35Z</time>
      </trkpt>
      <trkpt lat="48.57807" lon="-2.54704">
        <ele>44</ele>
        <time>2012-01-22T15:24:37Z</time>
      </trkpt>
      <trkpt lat="48.57807" lon="-2.54706">
        <ele>44</ele>
        <time>2012-01-22T15:24:38Z</time>
      </trkpt>
      <trkpt lat="48.57807" lon="-2.54707">
        <ele>44</ele>
        <time>2012-01-22T15:24:39Z</time>
      </trkpt>
      <trkpt lat="48.57807" lon="-2.54709">
        <ele>44</ele>
        <time>2012-01-22T15:24:40Z</time>
      </trkpt>
      <trkpt lat="48.57808" lon="-2.54712">
        <ele>44</ele>
        <time>2012-01-22T15:24:42Z</time>
      </trkpt>
      <trkpt lat="48.57808" lon="-2.54715">
        <ele>44</ele>
        <time>2012-01-22T15:24:44Z</time>
      </trkpt>
      <trkpt lat="48.57808" lon="-2.54717">
        <ele>43</ele>
        <time>2012-01-22T15:24:46Z</time>
      </trkpt>
      <trkpt lat="48.57808" lon="-2.5472">
        <ele>43</ele>
        <time>2012-01-22T15:24:48Z</time>
      </trkpt>
      <trkpt lat="48.57809" lon="-2.54723">
        <ele>43</ele>
        <time>2012-01-22T15:24:50Z</time>
      </trkpt>
      <trkpt lat="48.57809" lon="-2.54726">
        <ele>43</ele>
        <time>2012-01-22T15:24:52Z</time>
      </trkpt>
      <trkpt lat="48.5781" lon="-2.54728">
        <ele>43</ele>
        <time>2012-01-22T15:24:53Z</time>
      </trkpt>
      <trkpt lat="48.5781" lon="-2.5473">
        <ele>43</ele>
        <time>2012-01-22T15:24:54Z</time>
      </trkpt>
      <trkpt lat="48.5781" lon="-2.54731">
        <ele>43</ele>
        <time>2012-01-22T15:24:55Z</time>
      </trkpt>
      <trkpt lat="48.5781" lon="-2.54733">
        <ele>43</ele>
        <time>2012-01-22T15:24:56Z</time>
      </trkpt>
      <trkpt lat="48.5781" lon="-2.54735">
        <ele>43</ele>
        <time>2012-01-22T15:24:57Z</time>
      </trkpt>
      <trkpt lat="48.5781" lon="-2.54737">
        <ele>43</ele>
        <time>2012-01-22T15:24:58Z</time>
      </trkpt>
      <trkpt lat="48.5781" lon="-2.54739">
        <ele>43</ele>
        <time>2012-01-22T15:24:59Z</time>
      </trkpt>
      <trkpt lat="48.57811" lon="-2.54741">
        <ele>42</ele>
        <time>2012-01-22T15:25:00Z</time>
      </trkpt>
      <trkpt lat="48.57811" lon="-2.54743">
        <ele>42</ele>
        <time>2012-01-22T15:25:01Z</time>
      </trkpt>
      <trkpt lat="48.57811" lon="-2.54745">
        <ele>42</ele>
        <time>2012-01-22T15:25:02Z</time>
      </trkpt>
      <trkpt lat="48.57811" lon="-2.54747">
        <ele>42</ele>
        <time>2012-01-22T15:25:03Z</time>
      </trkpt>
      <trkpt lat="48.57811" lon="-2.54749">
        <ele>42</ele>
        <time>2012-01-22T15:25:04Z</time>
      </trkpt>
      <trkpt lat="48.57811" lon="-2.54751">
        <ele>41</ele>
        <time>2012-01-22T15:25:05Z</time>
      </trkpt>
      <trkpt lat="48.57811" lon="-2.54753">
        <ele>41</ele>
        <time>2012-01-22T15:25:06Z</time>
      </trkpt>
      <trkpt lat="48.57812" lon="-2.54755">
        <ele>41</ele>
        <time>2012-01-22T15:25:07Z</time>
      </trkpt>
      <trkpt lat="48.57812" lon="-2.54757">
        <ele>41</ele>
        <time>2012-01-22T15:25:08Z</time>
      </trkpt>
      <trkpt lat="48.57812" lon="-2.5476">
        <ele>41</ele>
        <time>2012-01-22T15:25:09Z</time>
      </trkpt>
      <trkpt lat="48.57812" lon="-2.54762">
        <ele>40</ele>
        <time>2012-01-22T15:25:10Z</time>
      </trkpt>
      <trkpt lat="48.57812" lon="-2.54764">
        <ele>40</ele>
        <time>2012-01-22T15:25:11Z</time>
      </trkpt>
      <trkpt lat="48.57812" lon="-2.54766">
        <ele>40</ele>
        <time>2012-01-22T15:25:12Z</time>
      </trkpt>
      <trkpt lat="48.57812" lon="-2.54768">
        <ele>40</ele>
        <time>2012-01-22T15:25:13Z</time>
      </trkpt>
      <trkpt lat="48.57812" lon="-2.5477">
        <ele>39</ele>
        <time>2012-01-22T15:25:14Z</time>
      </trkpt>
      <trkpt lat="48.57812" lon="-2.54772">
        <ele>39</ele>
        <time>2012-01-22T15:25:15Z</time>
      </trkpt>
      <trkpt lat="48.57813" lon="-2.54775">
        <ele>39</ele>
        <time>2012-01-22T15:25:16Z</time>
      </trkpt>
      <trkpt lat="48.57813" lon="-2.54777">
        <ele>39</ele>
        <time>2012-01-22T15:25:17Z</time>
      </trkpt>
      <trkpt lat="48.57813" lon="-2.54779">
        <ele>39</ele>
        <time>2012-01-22T15:25:18Z</time>
      </trkpt>
      <trkpt lat="48.57812" lon="-2.54782">
        <ele>39</ele>
        <time>2012-01-22T15:25:19Z</time>
      </trkpt>
      <trkpt lat="48.57812" lon="-2.54784">
        <ele>39</ele>
        <time>2012-01-22T15:25:20Z</time>
      </trkpt>
      <trkpt lat="48.57812" lon="-2.54786">
        <ele>38</ele>
        <time>2012-01-22T15:25:21Z</time>
      </trkpt>
      <trkpt lat="48.57813" lon="-2.54788">
        <ele>38</ele>
        <time>2012-01-22T15:25:22Z</time>
      </trkpt>
      <trkpt lat="48.57813" lon="-2.5479">
        <ele>38</ele>
        <time>2012-01-22T15:25:23Z</time>
      </trkpt>
      <trkpt lat="48.57813" lon="-2.54792">
        <ele>38</ele>
        <time>2012-01-22T15:25:24Z</time>
      </trkpt>
      <trkpt lat="48.57813" lon="-2.54795">
        <ele>38</ele>
        <time>2012-01-22T15:25:25Z</time>
      </trkpt>
      <trkpt lat="48.57813" lon="-2.54797">
        <ele>38</ele>
        <time>2012-01-22T15:25:26Z</time>
      </trkpt>
      <trkpt lat="48.57813" lon="-2.54799">
        <ele>38</ele>
        <time>2012-01-22T15:25:27Z</time>
      </trkpt>
      <trkpt lat="48.57813" lon="-2.54801">
        <ele>38</ele>
        <time>2012-01-22T15:25:28Z</time>
      </trkpt>
      <trkpt lat="48.57814" lon="-2.54802">
        <ele>38</ele>
        <time>2012-01-22T15:25:29Z</time>
      </trkpt>
      <trkpt lat="48.57814" lon="-2.54804">
        <ele>38</ele>
        <time>2012-01-22T15:25:31Z</time>
      </trkpt>
      <trkpt lat="48.57814" lon="-2.54806">
        <ele>38</ele>
        <time>2012-01-22T15:25:48Z</time>
      </trkpt>
      <trkpt lat="48.57814" lon="-2.54808">
        <ele>38</ele>
        <time>2012-01-22T15:25:55Z</time>
      </trkpt>
      <trkpt lat="48.57816" lon="-2.54807">
        <ele>38</ele>
        <time>2012-01-22T15:26:07Z</time>
      </trkpt>
      <trkpt lat="48.57814" lon="-2.54808">
        <ele>38</ele>
        <time>2012-01-22T15:26:30Z</time>
      </trkpt>
      <trkpt lat="48.57816" lon="-2.54809">
        <ele>38</ele>
        <time>2012-01-22T15:26:50Z</time>
      </trkpt>
      <trkpt lat="48.57816" lon="-2.54811">
        <ele>38</ele>
        <time>2012-01-22T15:26:57Z</time>
      </trkpt>
      <trkpt lat="48.57816" lon="-2.54813">
        <ele>38</ele>
        <time>2012-01-22T15:26:58Z</time>
      </trkpt>
      <trkpt lat="48.57816" lon="-2.54816">
        <ele>38</ele>
        <time>2012-01-22T15:27:00Z</time>
      </trkpt>
      <trkpt lat="48.57816" lon="-2.54817">
        <ele>38</ele>
        <time>2012-01-22T15:27:01Z</time>
      </trkpt>
      <trkpt lat="48.57816" lon="-2.54819">
        <ele>38</ele>
        <time>2012-01-22T15:27:02Z</time>
      </trkpt>
      <trkpt lat="48.57816" lon="-2.54821">
        <ele>38</ele>
        <time>2012-01-22T15:27:03Z</time>
      </trkpt>
      <trkpt lat="48.57816" lon="-2.54822">
        <ele>38</ele>
        <time>2012-01-22T15:27:04Z</time>
      </trkpt>
      <trkpt lat="48.57817" lon="-2.54824">
        <ele>38</ele>
        <time>2012-01-22T15:27:05Z</time>
      </trkpt>
      <trkpt lat="48.57817" lon="-2.54826">
        <ele>38</ele>
        <time>2012-01-22T15:27:06Z</time>
      </trkpt>
      <trkpt lat="48.57817" lon="-2.54828">
        <ele>38</ele>
        <time>2012-01-22T15:27:07Z</time>
      </trkpt>
      <trkpt lat="48.57817" lon="-2.5483">
        <ele>38</ele>
        <time>2012-01-22T15:27:08Z</time>
      </trkpt>
      <trkpt lat="48.57817" lon="-2.54833">
        <ele>38</ele>
        <time>2012-01-22T15:27:10Z</time>
      </trkpt>
      <trkpt lat="48.57817" lon="-2.54836">
        <ele>38</ele>
        <time>2012-01-22T15:27:12Z</time>
      </trkpt>
      <trkpt lat="48.57817" lon="-2.54837">
        <ele>38</ele>
        <time>2012-01-22T15:27:13Z</time>
      </trkpt>
      <trkpt lat="48.57817" lon="-2.54839">
        <ele>38</ele>
        <time>2012-01-22T15:27:14Z</time>
      </trkpt>
      <trkpt lat="48.57817" lon="-2.54841">
        <ele>38</ele>
        <time>2012-01-22T15:27:15Z</time>
      </trkpt>
      <trkpt lat="48.57817" lon="-2.54843">
        <ele>37</ele>
        <time>2012-01-22T15:27:17Z</time>
      </trkpt>
      <trkpt lat="48.57817" lon="-2.54845">
        <ele>37</ele>
        <time>2012-01-22T15:27:19Z</time>
      </trkpt>
      <trkpt lat="48.57818" lon="-2.54847">
        <ele>36</ele>
        <time>2012-01-22T15:27:34Z</time>
      </trkpt>
      <trkpt lat="48.57818" lon="-2.54849">
        <ele>36</ele>
        <time>2012-01-22T15:27:35Z</time>
      </trkpt>
      <trkpt lat="48.57818" lon="-2.54851">
        <ele>36</ele>
        <time>2012-01-22T15:27:36Z</time>
      </trkpt>
      <trkpt lat="48.57818" lon="-2.54853">
        <ele>36</ele>
        <time>2012-01-22T15:27:37Z</time>
      </trkpt>
      <trkpt lat="48.57818" lon="-2.54855">
        <ele>36</ele>
        <time>2012-01-22T15:27:38Z</time>
      </trkpt>
      <trkpt lat="48.57818" lon="-2.54857">
        <ele>36</ele>
        <time>2012-01-22T15:27:39Z</time>
      </trkpt>
      <trkpt lat="48.57818" lon="-2.54859">
        <ele>36</ele>
        <time>2012-01-22T15:27:40Z</time>
      </trkpt>
      <trkpt lat="48.57819" lon="-2.54861">
        <ele>35</ele>
        <time>2012-01-22T15:27:41Z</time>
      </trkpt>
      <trkpt lat="48.57819" lon="-2.54863">
        <ele>35</ele>
        <time>2012-01-22T15:27:42Z</time>
      </trkpt>
      <trkpt lat="48.57819" lon="-2.54865">
        <ele>35</ele>
        <time>2012-01-22T15:27:43Z</time>
      </trkpt>
      <trkpt lat="48.57819" lon="-2.54867">
        <ele>35</ele>
        <time>2012-01-22T15:27:44Z</time>
      </trkpt>
      <trkpt lat="48.57819" lon="-2.5487">
        <ele>35</ele>
        <time>2012-01-22T15:27:45Z</time>
      </trkpt>
      <trkpt lat="48.57819" lon="-2.54872">
        <ele>35</ele>
        <time>2012-01-22T15:27:46Z</time>
      </trkpt>
      <trkpt lat="48.57819" lon="-2.54874">
        <ele>34</ele>
        <time>2012-01-22T15:27:47Z</time>
      </trkpt>
      <trkpt lat="48.57819" lon="-2.54876">
        <ele>34</ele>
        <time>2012-01-22T15:27:48Z</time>
      </trkpt>
      <trkpt lat="48.57819" lon="-2.54878">
        <ele>34</ele>
        <time>2012-01-22T15:27:49Z</time>
      </trkpt>
      <trkpt lat="48.57819" lon="-2.5488">
        <ele>34</ele>
        <time>2012-01-22T15:27:50Z</time>
      </trkpt>
      <trkpt lat="48.57819" lon="-2.54882">
        <ele>34</ele>
        <time>2012-01-22T15:27:51Z</time>
      </trkpt>
      <trkpt lat="48.57819" lon="-2.54885">
        <ele>34</ele>
        <time>2012-01-22T15:27:52Z</time>
      </trkpt>
      <trkpt lat="48.57819" lon="-2.54887">
        <ele>34</ele>
        <time>2012-01-22T15:27:53Z</time>
      </trkpt>
      <trkpt lat="48.5782" lon="-2.54889">
        <ele>34</ele>
        <time>2012-01-22T15:27:54Z</time>
      </trkpt>
      <trkpt lat="48.5782" lon="-2.54891">
        <ele>34</ele>
        <time>2012-01-22T15:27:55Z</time>
      </trkpt>
      <trkpt lat="48.5782" lon="-2.54893">
        <ele>33</ele>
        <time>2012-01-22T15:27:56Z</time>
      </trkpt>
      <trkpt lat="48.5782" lon="-2.54895">
        <ele>33</ele>
        <time>2012-01-22T15:27:57Z</time>
      </trkpt>
      <trkpt lat="48.57821" lon="-2.54897">
        <ele>33</ele>
        <time>2012-01-22T15:27:58Z</time>
      </trkpt>
      <trkpt lat="48.57821" lon="-2.54899">
        <ele>33</ele>
        <time>2012-01-22T15:27:59Z</time>
      </trkpt>
      <trkpt lat="48.57821" lon="-2.54902">
        <ele>33</ele>
        <time>2012-01-22T15:28:00Z</time>
      </trkpt>
      <trkpt lat="48.57821" lon="-2.54904">
        <ele>33</ele>
        <time>2012-01-22T15:28:01Z</time>
      </trkpt>
      <trkpt lat="48.57822" lon="-2.54906">
        <ele>33</ele>
        <time>2012-01-22T15:28:02Z</time>
      </trkpt>
      <trkpt lat="48.57822" lon="-2.54908">
        <ele>33</ele>
        <time>2012-01-22T15:28:03Z</time>
      </trkpt>
      <trkpt lat="48.57822" lon="-2.54909">
        <ele>33</ele>
        <time>2012-01-22T15:28:04Z</time>
      </trkpt>
      <trkpt lat="48.57822" lon="-2.54911">
        <ele>32</ele>
        <time>2012-01-22T15:28:05Z</time>
      </trkpt>
      <trkpt lat="48.57822" lon="-2.54913">
        <ele>32</ele>
        <time>2012-01-22T15:28:06Z</time>
      </trkpt>
      <trkpt lat="48.57823" lon="-2.54915">
        <ele>32</ele>
        <time>2012-01-22T15:28:07Z</time>
      </trkpt>
      <trkpt lat="48.57823" lon="-2.54918">
        <ele>32</ele>
        <time>2012-01-22T15:28:09Z</time>
      </trkpt>
      <trkpt lat="48.57824" lon="-2.5492">
        <ele>32</ele>
        <time>2012-01-22T15:28:11Z</time>
      </trkpt>
      <trkpt lat="48.57825" lon="-2.54921">
        <ele>32</ele>
        <time>2012-01-22T15:28:20Z</time>
      </trkpt>
      <trkpt lat="48.57826" lon="-2.54923">
        <ele>32</ele>
        <time>2012-01-22T15:28:38Z</time>
      </trkpt>
      <trkpt lat="48.57827" lon="-2.54925">
        <ele>32</ele>
        <time>2012-01-22T15:28:39Z</time>
      </trkpt>
      <trkpt lat="48.57827" lon="-2.54927">
        <ele>32</ele>
        <time>2012-01-22T15:28:40Z</time>
      </trkpt>
      <trkpt lat="48.57827" lon="-2.54928">
        <ele>32</ele>
        <time>2012-01-22T15:28:41Z</time>
      </trkpt>
      <trkpt lat="48.57828" lon="-2.54931">
        <ele>32</ele>
        <time>2012-01-22T15:28:43Z</time>
      </trkpt>
      <trkpt lat="48.57829" lon="-2.54933">
        <ele>32</ele>
        <time>2012-01-22T15:28:45Z</time>
      </trkpt>
      <trkpt lat="48.57829" lon="-2.54935">
        <ele>32</ele>
        <time>2012-01-22T15:28:47Z</time>
      </trkpt>
      <trkpt lat="48.57829" lon="-2.54936">
        <ele>32</ele>
        <time>2012-01-22T15:28:58Z</time>
      </trkpt>
      <trkpt lat="48.57829" lon="-2.54939">
        <ele>32</ele>
        <time>2012-01-22T15:29:00Z</time>
      </trkpt>
      <trkpt lat="48.57829" lon="-2.5494">
        <ele>32</ele>
        <time>2012-01-22T15:29:02Z</time>
      </trkpt>
      <trkpt lat="48.5783" lon="-2.54942">
        <ele>32</ele>
        <time>2012-01-22T15:29:06Z</time>
      </trkpt>
      <trkpt lat="48.57828" lon="-2.54943">
        <ele>32</ele>
        <time>2012-01-22T15:29:08Z</time>
      </trkpt>
      <trkpt lat="48.57827" lon="-2.54945">
        <ele>32</ele>
        <time>2012-01-22T15:29:10Z</time>
      </trkpt>
      <trkpt lat="48.57826" lon="-2.54946">
        <ele>32</ele>
        <time>2012-01-22T15:29:15Z</time>
      </trkpt>
      <trkpt lat="48.57825" lon="-2.54948">
        <ele>32</ele>
        <time>2012-01-22T15:29:16Z</time>
      </trkpt>
      <trkpt lat="48.57823" lon="-2.5495">
        <ele>32</ele>
        <time>2012-01-22T15:29:18Z</time>
      </trkpt>
      <trkpt lat="48.57822" lon="-2.5495">
        <ele>32</ele>
        <time>2012-01-22T15:29:21Z</time>
      </trkpt>
      <trkpt lat="48.57821" lon="-2.5495">
        <ele>32</ele>
        <time>2012-01-22T15:29:27Z</time>
      </trkpt>
      <trkpt lat="48.57819" lon="-2.54953">
        <ele>32</ele>
        <time>2012-01-22T15:29:36Z</time>
      </trkpt>
      <trkpt lat="48.57817" lon="-2.54956">
        <ele>32</ele>
        <time>2012-01-22T15:29:38Z</time>
      </trkpt>
      <trkpt lat="48.57815" lon="-2.5496">
        <ele>32</ele>
        <time>2012-01-22T15:29:40Z</time>
      </trkpt>
      <trkpt lat="48.57814" lon="-2.54961">
        <ele>32</ele>
        <time>2012-01-22T15:29:41Z</time>
      </trkpt>
      <trkpt lat="48.57813" lon="-2.54963">
        <ele>32</ele>
        <time>2012-01-22T15:29:42Z</time>
      </trkpt>
      <trkpt lat="48.57811" lon="-2.54966">
        <ele>32</ele>
        <time>2012-01-22T15:29:44Z</time>
      </trkpt>
      <trkpt lat="48.5781" lon="-2.54968">
        <ele>32</ele>
        <time>2012-01-22T15:29:45Z</time>
      </trkpt>
      <trkpt lat="48.57809" lon="-2.54969">
        <ele>32</ele>
        <time>2012-01-22T15:29:46Z</time>
      </trkpt>
      <trkpt lat="48.57809" lon="-2.54971">
        <ele>32</ele>
        <time>2012-01-22T15:29:47Z</time>
      </trkpt>
      <trkpt lat="48.57807" lon="-2.54974">
        <ele>32</ele>
        <time>2012-01-22T15:29:49Z</time>
      </trkpt>
      <trkpt lat="48.57806" lon="-2.54976">
        <ele>32</ele>
        <time>2012-01-22T15:29:50Z</time>
      </trkpt>
      <trkpt lat="48.57806" lon="-2.54978">
        <ele>32</ele>
        <time>2012-01-22T15:29:51Z</time>
      </trkpt>
      <trkpt lat="48.57805" lon="-2.54979">
        <ele>32</ele>
        <time>2012-01-22T15:29:52Z</time>
      </trkpt>
      <trkpt lat="48.57805" lon="-2.54982">
        <ele>32</ele>
        <time>2012-01-22T15:29:53Z</time>
      </trkpt>
      <trkpt lat="48.57804" lon="-2.54983">
        <ele>32</ele>
        <time>2012-01-22T15:29:54Z</time>
      </trkpt>
      <trkpt lat="48.57803" lon="-2.54985">
        <ele>32</ele>
        <time>2012-01-22T15:29:55Z</time>
      </trkpt>
      <trkpt lat="48.57803" lon="-2.54987">
        <ele>32</ele>
        <time>2012-01-22T15:29:56Z</time>
      </trkpt>
      <trkpt lat="48.57803" lon="-2.54989">
        <ele>32</ele>
        <time>2012-01-22T15:29:57Z</time>
      </trkpt>
      <trkpt lat="48.57802" lon="-2.54991">
        <ele>32</ele>
        <time>2012-01-22T15:29:58Z</time>
      </trkpt>
      <trkpt lat="48.57801" lon="-2.54993">
        <ele>32</ele>
        <time>2012-01-22T15:29:59Z</time>
      </trkpt>
      <trkpt lat="48.57801" lon="-2.54995">
        <ele>32</ele>
        <time>2012-01-22T15:30:00Z</time>
      </trkpt>
      <trkpt lat="48.578" lon="-2.54997">
        <ele>32</ele>
        <time>2012-01-22T15:30:01Z</time>
      </trkpt>
      <trkpt lat="48.578" lon="-2.54999">
        <ele>32</ele>
        <time>2012-01-22T15:30:02Z</time>
      </trkpt>
      <trkpt lat="48.578" lon="-2.55001">
        <ele>32</ele>
        <time>2012-01-22T15:30:03Z</time>
      </trkpt>
      <trkpt lat="48.57799" lon="-2.55003">
        <ele>32</ele>
        <time>2012-01-22T15:30:04Z</time>
      </trkpt>
      <trkpt lat="48.57799" lon="-2.55005">
        <ele>32</ele>
        <time>2012-01-22T15:30:05Z</time>
      </trkpt>
      <trkpt lat="48.57798" lon="-2.55006">
        <ele>32</ele>
        <time>2012-01-22T15:30:06Z</time>
      </trkpt>
      <trkpt lat="48.57798" lon="-2.55008">
        <ele>32</ele>
        <time>2012-01-22T15:30:07Z</time>
      </trkpt>
      <trkpt lat="48.57797" lon="-2.5501">
        <ele>32</ele>
        <time>2012-01-22T15:30:08Z</time>
      </trkpt>
      <trkpt lat="48.57797" lon="-2.55012">
        <ele>32</ele>
        <time>2012-01-22T15:30:09Z</time>
      </trkpt>
      <trkpt lat="48.57796" lon="-2.55014">
        <ele>32</ele>
        <time>2012-01-22T15:30:10Z</time>
      </trkpt>
      <trkpt lat="48.57796" lon="-2.55015">
        <ele>32</ele>
        <time>2012-01-22T15:30:11Z</time>
      </trkpt>
      <trkpt lat="48.57795" lon="-2.55017">
        <ele>32</ele>
        <time>2012-01-22T15:30:12Z</time>
      </trkpt>
      <trkpt lat="48.57795" lon="-2.55019">
        <ele>32</ele>
        <time>2012-01-22T15:30:13Z</time>
      </trkpt>
      <trkpt lat="48.57795" lon="-2.55021">
        <ele>32</ele>
        <time>2012-01-22T15:30:14Z</time>
      </trkpt>
      <trkpt lat="48.57794" lon="-2.55023">
        <ele>32</ele>
        <time>2012-01-22T15:30:15Z</time>
      </trkpt>
      <trkpt lat="48.57794" lon="-2.55025">
        <ele>32</ele>
        <time>2012-01-22T15:30:16Z</time>
      </trkpt>
      <trkpt lat="48.57794" lon="-2.55027">
        <ele>32</ele>
        <time>2012-01-22T15:30:17Z</time>
      </trkpt>
      <trkpt lat="48.57793" lon="-2.55029">
        <ele>32</ele>
        <time>2012-01-22T15:30:18Z</time>
      </trkpt>
      <trkpt lat="48.57793" lon="-2.55031">
        <ele>32</ele>
        <time>2012-01-22T15:30:19Z</time>
      </trkpt>
      <trkpt lat="48.57793" lon="-2.55032">
        <ele>32</ele>
        <time>2012-01-22T15:30:20Z</time>
      </trkpt>
      <trkpt lat="48.57792" lon="-2.55034">
        <ele>32</ele>
        <time>2012-01-22T15:30:21Z</time>
      </trkpt>
      <trkpt lat="48.57792" lon="-2.55036">
        <ele>32</ele>
        <time>2012-01-22T15:30:22Z</time>
      </trkpt>
      <trkpt lat="48.57792" lon="-2.55038">
        <ele>32</ele>
        <time>2012-01-22T15:30:23Z</time>
      </trkpt>
      <trkpt lat="48.57791" lon="-2.55041">
        <ele>32</ele>
        <time>2012-01-22T15:30:25Z</time>
      </trkpt>
      <trkpt lat="48.5779" lon="-2.55042">
        <ele>32</ele>
        <time>2012-01-22T15:30:30Z</time>
      </trkpt>
      <trkpt lat="48.5779" lon="-2.55045">
        <ele>32</ele>
        <time>2012-01-22T15:30:31Z</time>
      </trkpt>
      <trkpt lat="48.5779" lon="-2.55047">
        <ele>32</ele>
        <time>2012-01-22T15:30:32Z</time>
      </trkpt>
      <trkpt lat="48.5779" lon="-2.55049">
        <ele>32</ele>
        <time>2012-01-22T15:30:33Z</time>
      </trkpt>
      <trkpt lat="48.5779" lon="-2.55052">
        <ele>32</ele>
        <time>2012-01-22T15:30:34Z</time>
      </trkpt>
      <trkpt lat="48.5779" lon="-2.55054">
        <ele>32</ele>
        <time>2012-01-22T15:30:35Z</time>
      </trkpt>
      <trkpt lat="48.5779" lon="-2.55056">
        <ele>32</ele>
        <time>2012-01-22T15:30:36Z</time>
      </trkpt>
      <trkpt lat="48.5779" lon="-2.55058">
        <ele>32</ele>
        <time>2012-01-22T15:30:37Z</time>
      </trkpt>
      <trkpt lat="48.5779" lon="-2.5506">
        <ele>32</ele>
        <time>2012-01-22T15:30:38Z</time>
      </trkpt>
      <trkpt lat="48.5779" lon="-2.55062">
        <ele>32</ele>
        <time>2012-01-22T15:30:39Z</time>
      </trkpt>
      <trkpt lat="48.5779" lon="-2.55064">
        <ele>32</ele>
        <time>2012-01-22T15:30:40Z</time>
      </trkpt>
      <trkpt lat="48.5779" lon="-2.55066">
        <ele>32</ele>
        <time>2012-01-22T15:30:42Z</time>
      </trkpt>
      <trkpt lat="48.57791" lon="-2.5507">
        <ele>32</ele>
        <time>2012-01-22T15:30:44Z</time>
      </trkpt>
      <trkpt lat="48.57791" lon="-2.55072">
        <ele>32</ele>
        <time>2012-01-22T15:30:45Z</time>
      </trkpt>
      <trkpt lat="48.57791" lon="-2.55074">
        <ele>32</ele>
        <time>2012-01-22T15:30:46Z</time>
      </trkpt>
      <trkpt lat="48.5779" lon="-2.55076">
        <ele>32</ele>
        <time>2012-01-22T15:30:47Z</time>
      </trkpt>
      <trkpt lat="48.5779" lon="-2.55078">
        <ele>32</ele>
        <time>2012-01-22T15:30:48Z</time>
      </trkpt>
      <trkpt lat="48.5779" lon="-2.55081">
        <ele>32</ele>
        <time>2012-01-22T15:30:49Z</time>
      </trkpt>
      <trkpt lat="48.57791" lon="-2.55082">
        <ele>32</ele>
        <time>2012-01-22T15:30:50Z</time>
      </trkpt>
      <trkpt lat="48.57791" lon="-2.55084">
        <ele>32</ele>
        <time>2012-01-22T15:30:51Z</time>
      </trkpt>
      <trkpt lat="48.57791" lon="-2.55086">
        <ele>32</ele>
        <time>2012-01-22T15:30:52Z</time>
      </trkpt>
      <trkpt lat="48.57791" lon="-2.55088">
        <ele>32</ele>
        <time>2012-01-22T15:30:53Z</time>
      </trkpt>
      <trkpt lat="48.5779" lon="-2.5509">
        <ele>32</ele>
        <time>2012-01-22T15:30:54Z</time>
      </trkpt>
      <trkpt lat="48.5779" lon="-2.55092">
        <ele>32</ele>
        <time>2012-01-22T15:30:55Z</time>
      </trkpt>
      <trkpt lat="48.5779" lon="-2.55094">
        <ele>32</ele>
        <time>2012-01-22T15:30:56Z</time>
      </trkpt>
      <trkpt lat="48.5779" lon="-2.55096">
        <ele>32</ele>
        <time>2012-01-22T15:30:57Z</time>
      </trkpt>
      <trkpt lat="48.5779" lon="-2.55098">
        <ele>32</ele>
        <time>2012-01-22T15:30:58Z</time>
      </trkpt>
      <trkpt lat="48.5779" lon="-2.551">
        <ele>32</ele>
        <time>2012-01-22T15:30:59Z</time>
      </trkpt>
      <trkpt lat="48.5779" lon="-2.55102">
        <ele>32</ele>
        <time>2012-01-22T15:31:00Z</time>
      </trkpt>
      <trkpt lat="48.5779" lon="-2.55104">
        <ele>32</ele>
        <time>2012-01-22T15:31:01Z</time>
      </trkpt>
      <trkpt lat="48.5779" lon="-2.55106">
        <ele>32</ele>
        <time>2012-01-22T15:31:02Z</time>
      </trkpt>
      <trkpt lat="48.5779" lon="-2.55108">
        <ele>32</ele>
        <time>2012-01-22T15:31:03Z</time>
      </trkpt>
      <trkpt lat="48.57791" lon="-2.5511">
        <ele>32</ele>
        <time>2012-01-22T15:31:04Z</time>
      </trkpt>
      <trkpt lat="48.57791" lon="-2.55112">
        <ele>32</ele>
        <time>2012-01-22T15:31:05Z</time>
      </trkpt>
      <trkpt lat="48.57791" lon="-2.55114">
        <ele>32</ele>
        <time>2012-01-22T15:31:06Z</time>
      </trkpt>
      <trkpt lat="48.57791" lon="-2.55116">
        <ele>32</ele>
        <time>2012-01-22T15:31:07Z</time>
      </trkpt>
      <trkpt lat="48.57791" lon="-2.55118">
        <ele>32</ele>
        <time>2012-01-22T15:31:08Z</time>
      </trkpt>
      <trkpt lat="48.57791" lon="-2.5512">
        <ele>32</ele>
        <time>2012-01-22T15:31:09Z</time>
      </trkpt>
      <trkpt lat="48.57792" lon="-2.55122">
        <ele>32</ele>
        <time>2012-01-22T15:31:10Z</time>
      </trkpt>
      <trkpt lat="48.57791" lon="-2.55124">
        <ele>32</ele>
        <time>2012-01-22T15:31:11Z</time>
      </trkpt>
      <trkpt lat="48.57791" lon="-2.55126">
        <ele>32</ele>
        <time>2012-01-22T15:31:12Z</time>
      </trkpt>
      <trkpt lat="48.57791" lon="-2.55128">
        <ele>32</ele>
        <time>2012-01-22T15:31:13Z</time>
      </trkpt>
      <trkpt lat="48.57791" lon="-2.5513">
        <ele>32</ele>
        <time>2012-01-22T15:31:14Z</time>
      </trkpt>
      <trkpt lat="48.57791" lon="-2.55132">
        <ele>32</ele>
        <time>2012-01-22T15:31:15Z</time>
      </trkpt>
      <trkpt lat="48.57791" lon="-2.55134">
        <ele>32</ele>
        <time>2012-01-22T15:31:16Z</time>
      </trkpt>
      <trkpt lat="48.57792" lon="-2.55136">
        <ele>32</ele>
        <time>2012-01-22T15:31:17Z</time>
      </trkpt>
      <trkpt lat="48.57792" lon="-2.55138">
        <ele>32</ele>
        <time>2012-01-22T15:31:18Z</time>
      </trkpt>
      <trkpt lat="48.57791" lon="-2.5514">
        <ele>32</ele>
        <time>2012-01-22T15:31:19Z</time>
      </trkpt>
      <trkpt lat="48.57791" lon="-2.55142">
        <ele>32</ele>
        <time>2012-01-22T15:31:20Z</time>
      </trkpt>
      <trkpt lat="48.57791" lon="-2.55144">
        <ele>32</ele>
        <time>2012-01-22T15:31:21Z</time>
      </trkpt>
      <trkpt lat="48.57791" lon="-2.55146">
        <ele>32</ele>
        <time>2012-01-22T15:31:22Z</time>
      </trkpt>
      <trkpt lat="48.57791" lon="-2.55148">
        <ele>32</ele>
        <time>2012-01-22T15:31:23Z</time>
      </trkpt>
      <trkpt lat="48.57791" lon="-2.5515">
        <ele>32</ele>
        <time>2012-01-22T15:31:24Z</time>
      </trkpt>
      <trkpt lat="48.57791" lon="-2.55152">
        <ele>32</ele>
        <time>2012-01-22T15:31:25Z</time>
      </trkpt>
      <trkpt lat="48.57791" lon="-2.55154">
        <ele>32</ele>
        <time>2012-01-22T15:31:26Z</time>
      </trkpt>
      <trkpt lat="48.57791" lon="-2.55156">
        <ele>32</ele>
        <time>2012-01-22T15:31:27Z</time>
      </trkpt>
      <trkpt lat="48.57791" lon="-2.55158">
        <ele>32</ele>
        <time>2012-01-22T15:31:28Z</time>
      </trkpt>
      <trkpt lat="48.57791" lon="-2.5516">
        <ele>32</ele>
        <time>2012-01-22T15:31:29Z</time>
      </trkpt>
      <trkpt lat="48.57791" lon="-2.55162">
        <ele>32</ele>
        <time>2012-01-22T15:31:30Z</time>
      </trkpt>
      <trkpt lat="48.57791" lon="-2.55164">
        <ele>32</ele>
        <time>2012-01-22T15:31:31Z</time>
      </trkpt>
      <trkpt lat="48.57791" lon="-2.55166">
        <ele>32</ele>
        <time>2012-01-22T15:31:32Z</time>
      </trkpt>
      <trkpt lat="48.57791" lon="-2.55168">
        <ele>32</ele>
        <time>2012-01-22T15:31:33Z</time>
      </trkpt>
      <trkpt lat="48.57791" lon="-2.5517">
        <ele>32</ele>
        <time>2012-01-22T15:31:34Z</time>
      </trkpt>
      <trkpt lat="48.57791" lon="-2.55172">
        <ele>32</ele>
        <time>2012-01-22T15:31:35Z</time>
      </trkpt>
      <trkpt lat="48.57791" lon="-2.55174">
        <ele>32</ele>
        <time>2012-01-22T15:31:36Z</time>
      </trkpt>
      <trkpt lat="48.57791" lon="-2.55176">
        <ele>32</ele>
        <time>2012-01-22T15:31:37Z</time>
      </trkpt>
      <trkpt lat="48.57791" lon="-2.55178">
        <ele>32</ele>
        <time>2012-01-22T15:31:38Z</time>
      </trkpt>
      <trkpt lat="48.57791" lon="-2.5518">
        <ele>32</ele>
        <time>2012-01-22T15:31:39Z</time>
      </trkpt>
      <trkpt lat="48.57791" lon="-2.55182">
        <ele>32</ele>
        <time>2012-01-22T15:31:40Z</time>
      </trkpt>
      <trkpt lat="48.57791" lon="-2.55184">
        <ele>32</ele>
        <time>2012-01-22T15:31:41Z</time>
      </trkpt>
      <trkpt lat="48.57791" lon="-2.55186">
        <ele>32</ele>
        <time>2012-01-22T15:31:42Z</time>
      </trkpt>
      <trkpt lat="48.57791" lon="-2.55188">
        <ele>32</ele>
        <time>2012-01-22T15:31:43Z</time>
      </trkpt>
      <trkpt lat="48.57791" lon="-2.55189">
        <ele>32</ele>
        <time>2012-01-22T15:31:44Z</time>
      </trkpt>
      <trkpt lat="48.57791" lon="-2.55191">
        <ele>32</ele>
        <time>2012-01-22T15:31:45Z</time>
      </trkpt>
      <trkpt lat="48.57791" lon="-2.55193">
        <ele>32</ele>
        <time>2012-01-22T15:31:46Z</time>
      </trkpt>
      <trkpt lat="48.57791" lon="-2.55195">
        <ele>32</ele>
        <time>2012-01-22T15:31:47Z</time>
      </trkpt>
      <trkpt lat="48.57791" lon="-2.55197">
        <ele>32</ele>
        <time>2012-01-22T15:31:48Z</time>
      </trkpt>
      <trkpt lat="48.57791" lon="-2.55199">
        <ele>32</ele>
        <time>2012-01-22T15:31:49Z</time>
      </trkpt>
      <trkpt lat="48.57792" lon="-2.55201">
        <ele>32</ele>
        <time>2012-01-22T15:31:50Z</time>
      </trkpt>
      <trkpt lat="48.57792" lon="-2.55203">
        <ele>32</ele>
        <time>2012-01-22T15:31:51Z</time>
      </trkpt>
      <trkpt lat="48.57792" lon="-2.55205">
        <ele>32</ele>
        <time>2012-01-22T15:31:52Z</time>
      </trkpt>
      <trkpt lat="48.57792" lon="-2.55206">
        <ele>32</ele>
        <time>2012-01-22T15:31:53Z</time>
      </trkpt>
      <trkpt lat="48.57792" lon="-2.55209">
        <ele>32</ele>
        <time>2012-01-22T15:31:55Z</time>
      </trkpt>
      <trkpt lat="48.57793" lon="-2.55212">
        <ele>32</ele>
        <time>2012-01-22T15:31:57Z</time>
      </trkpt>
      <trkpt lat="48.57793" lon="-2.55214">
        <ele>32</ele>
        <time>2012-01-22T15:31:59Z</time>
      </trkpt>
      <trkpt lat="48.57794" lon="-2.55215">
        <ele>32</ele>
        <time>2012-01-22T15:32:16Z</time>
      </trkpt>
      <trkpt lat="48.57795" lon="-2.55217">
        <ele>34</ele>
        <time>2012-01-22T15:32:29Z</time>
      </trkpt>
      <trkpt lat="48.57794" lon="-2.55219">
        <ele>34</ele>
        <time>2012-01-22T15:32:30Z</time>
      </trkpt>
      <trkpt lat="48.57794" lon="-2.55221">
        <ele>34</ele>
        <time>2012-01-22T15:32:31Z</time>
      </trkpt>
      <trkpt lat="48.57794" lon="-2.55223">
        <ele>34</ele>
        <time>2012-01-22T15:32:32Z</time>
      </trkpt>
      <trkpt lat="48.57794" lon="-2.55225">
        <ele>34</ele>
        <time>2012-01-22T15:32:33Z</time>
      </trkpt>
      <trkpt lat="48.57794" lon="-2.55228">
        <ele>34</ele>
        <time>2012-01-22T15:32:34Z</time>
      </trkpt>
      <trkpt lat="48.57793" lon="-2.5523">
        <ele>34</ele>
        <time>2012-01-22T15:32:35Z</time>
      </trkpt>
      <trkpt lat="48.57793" lon="-2.55232">
        <ele>34</ele>
        <time>2012-01-22T15:32:36Z</time>
      </trkpt>
      <trkpt lat="48.57793" lon="-2.55234">
        <ele>34</ele>
        <time>2012-01-22T15:32:37Z</time>
      </trkpt>
      <trkpt lat="48.57793" lon="-2.55237">
        <ele>34</ele>
        <time>2012-01-22T15:32:38Z</time>
      </trkpt>
      <trkpt lat="48.57793" lon="-2.55239">
        <ele>34</ele>
        <time>2012-01-22T15:32:39Z</time>
      </trkpt>
      <trkpt lat="48.57793" lon="-2.55241">
        <ele>34</ele>
        <time>2012-01-22T15:32:40Z</time>
      </trkpt>
      <trkpt lat="48.57794" lon="-2.55243">
        <ele>34</ele>
        <time>2012-01-22T15:32:41Z</time>
      </trkpt>
      <trkpt lat="48.57793" lon="-2.55245">
        <ele>34</ele>
        <time>2012-01-22T15:32:42Z</time>
      </trkpt>
      <trkpt lat="48.57793" lon="-2.55248">
        <ele>34</ele>
        <time>2012-01-22T15:32:43Z</time>
      </trkpt>
      <trkpt lat="48.57793" lon="-2.5525">
        <ele>34</ele>
        <time>2012-01-22T15:32:44Z</time>
      </trkpt>
      <trkpt lat="48.57794" lon="-2.55252">
        <ele>34</ele>
        <time>2012-01-22T15:32:45Z</time>
      </trkpt>
      <trkpt lat="48.57794" lon="-2.55255">
        <ele>34</ele>
        <time>2012-01-22T15:32:46Z</time>
      </trkpt>
      <trkpt lat="48.57794" lon="-2.55257">
        <ele>34</ele>
        <time>2012-01-22T15:32:47Z</time>
      </trkpt>
      <trkpt lat="48.57794" lon="-2.55259">
        <ele>34</ele>
        <time>2012-01-22T15:32:48Z</time>
      </trkpt>
      <trkpt lat="48.57794" lon="-2.55261">
        <ele>34</ele>
        <time>2012-01-22T15:32:49Z</time>
      </trkpt>
      <trkpt lat="48.57794" lon="-2.55264">
        <ele>34</ele>
        <time>2012-01-22T15:32:50Z</time>
      </trkpt>
      <trkpt lat="48.57794" lon="-2.55266">
        <ele>34</ele>
        <time>2012-01-22T15:32:51Z</time>
      </trkpt>
      <trkpt lat="48.57794" lon="-2.55268">
        <ele>34</ele>
        <time>2012-01-22T15:32:52Z</time>
      </trkpt>
      <trkpt lat="48.57794" lon="-2.5527">
        <ele>34</ele>
        <time>2012-01-22T15:32:53Z</time>
      </trkpt>
      <trkpt lat="48.57794" lon="-2.55273">
        <ele>34</ele>
        <time>2012-01-22T15:32:54Z</time>
      </trkpt>
      <trkpt lat="48.57794" lon="-2.55275">
        <ele>34</ele>
        <time>2012-01-22T15:32:55Z</time>
      </trkpt>
      <trkpt lat="48.57794" lon="-2.55277">
        <ele>34</ele>
        <time>2012-01-22T15:32:56Z</time>
      </trkpt>
      <trkpt lat="48.57794" lon="-2.55279">
        <ele>34</ele>
        <time>2012-01-22T15:32:57Z</time>
      </trkpt>
      <trkpt lat="48.57793" lon="-2.55281">
        <ele>34</ele>
        <time>2012-01-22T15:32:59Z</time>
      </trkpt>
      <trkpt lat="48.57793" lon="-2.55283">
        <ele>34</ele>
        <time>2012-01-22T15:33:21Z</time>
      </trkpt>
      <trkpt lat="48.57793" lon="-2.55286">
        <ele>34</ele>
        <time>2012-01-22T15:33:22Z</time>
      </trkpt>
      <trkpt lat="48.57793" lon="-2.55288">
        <ele>34</ele>
        <time>2012-01-22T15:33:23Z</time>
      </trkpt>
      <trkpt lat="48.57793" lon="-2.5529">
        <ele>34</ele>
        <time>2012-01-22T15:33:24Z</time>
      </trkpt>
      <trkpt lat="48.57793" lon="-2.55293">
        <ele>34</ele>
        <time>2012-01-22T15:33:25Z</time>
      </trkpt>
      <trkpt lat="48.57793" lon="-2.55295">
        <ele>34</ele>
        <time>2012-01-22T15:33:26Z</time>
      </trkpt>
      <trkpt lat="48.57793" lon="-2.55297">
        <ele>34</ele>
        <time>2012-01-22T15:33:27Z</time>
      </trkpt>
      <trkpt lat="48.57793" lon="-2.553">
        <ele>34</ele>
        <time>2012-01-22T15:33:28Z</time>
      </trkpt>
      <trkpt lat="48.57793" lon="-2.55302">
        <ele>34</ele>
        <time>2012-01-22T15:33:29Z</time>
      </trkpt>
      <trkpt lat="48.57793" lon="-2.55304">
        <ele>34</ele>
        <time>2012-01-22T15:33:30Z</time>
      </trkpt>
      <trkpt lat="48.57793" lon="-2.55307">
        <ele>34</ele>
        <time>2012-01-22T15:33:31Z</time>
      </trkpt>
      <trkpt lat="48.57793" lon="-2.55309">
        <ele>34</ele>
        <time>2012-01-22T15:33:32Z</time>
      </trkpt>
      <trkpt lat="48.57793" lon="-2.55311">
        <ele>34</ele>
        <time>2012-01-22T15:33:33Z</time>
      </trkpt>
      <trkpt lat="48.57793" lon="-2.55314">
        <ele>34</ele>
        <time>2012-01-22T15:33:34Z</time>
      </trkpt>
      <trkpt lat="48.57793" lon="-2.55316">
        <ele>34</ele>
        <time>2012-01-22T15:33:35Z</time>
      </trkpt>
      <trkpt lat="48.57793" lon="-2.55318">
        <ele>34</ele>
        <time>2012-01-22T15:33:36Z</time>
      </trkpt>
      <trkpt lat="48.57792" lon="-2.55321">
        <ele>34</ele>
        <time>2012-01-22T15:33:37Z</time>
      </trkpt>
      <trkpt lat="48.57792" lon="-2.55323">
        <ele>34</ele>
        <time>2012-01-22T15:33:38Z</time>
      </trkpt>
      <trkpt lat="48.57792" lon="-2.55326">
        <ele>34</ele>
        <time>2012-01-22T15:33:39Z</time>
      </trkpt>
      <trkpt lat="48.57791" lon="-2.55328">
        <ele>34</ele>
        <time>2012-01-22T15:33:40Z</time>
      </trkpt>
      <trkpt lat="48.57791" lon="-2.5533">
        <ele>34</ele>
        <time>2012-01-22T15:33:41Z</time>
      </trkpt>
      <trkpt lat="48.57791" lon="-2.55331">
        <ele>34</ele>
        <time>2012-01-22T15:33:42Z</time>
      </trkpt>
      <trkpt lat="48.5779" lon="-2.55334">
        <ele>34</ele>
        <time>2012-01-22T15:33:43Z</time>
      </trkpt>
      <trkpt lat="48.5779" lon="-2.55336">
        <ele>34</ele>
        <time>2012-01-22T15:33:44Z</time>
      </trkpt>
      <trkpt lat="48.57789" lon="-2.55338">
        <ele>34</ele>
        <time>2012-01-22T15:33:45Z</time>
      </trkpt>
      <trkpt lat="48.57788" lon="-2.55341">
        <ele>34</ele>
        <time>2012-01-22T15:33:46Z</time>
      </trkpt>
      <trkpt lat="48.57788" lon="-2.55343">
        <ele>34</ele>
        <time>2012-01-22T15:33:47Z</time>
      </trkpt>
      <trkpt lat="48.57788" lon="-2.55345">
        <ele>34</ele>
        <time>2012-01-22T15:33:48Z</time>
      </trkpt>
      <trkpt lat="48.57787" lon="-2.55347">
        <ele>34</ele>
        <time>2012-01-22T15:33:49Z</time>
      </trkpt>
      <trkpt lat="48.57787" lon="-2.55349">
        <ele>34</ele>
        <time>2012-01-22T15:33:50Z</time>
      </trkpt>
      <trkpt lat="48.57787" lon="-2.55352">
        <ele>34</ele>
        <time>2012-01-22T15:33:51Z</time>
      </trkpt>
      <trkpt lat="48.57786" lon="-2.55354">
        <ele>34</ele>
        <time>2012-01-22T15:33:52Z</time>
      </trkpt>
      <trkpt lat="48.57786" lon="-2.55356">
        <ele>34</ele>
        <time>2012-01-22T15:33:53Z</time>
      </trkpt>
      <trkpt lat="48.57785" lon="-2.55358">
        <ele>34</ele>
        <time>2012-01-22T15:33:54Z</time>
      </trkpt>
      <trkpt lat="48.57785" lon="-2.5536">
        <ele>34</ele>
        <time>2012-01-22T15:33:55Z</time>
      </trkpt>
      <trkpt lat="48.57785" lon="-2.55362">
        <ele>34</ele>
        <time>2012-01-22T15:33:56Z</time>
      </trkpt>
      <trkpt lat="48.57785" lon="-2.55364">
        <ele>34</ele>
        <time>2012-01-22T15:33:57Z</time>
      </trkpt>
      <trkpt lat="48.57784" lon="-2.55366">
        <ele>34</ele>
        <time>2012-01-22T15:33:58Z</time>
      </trkpt>
      <trkpt lat="48.57784" lon="-2.55369">
        <ele>34</ele>
        <time>2012-01-22T15:33:59Z</time>
      </trkpt>
      <trkpt lat="48.57783" lon="-2.55371">
        <ele>34</ele>
        <time>2012-01-22T15:34:00Z</time>
      </trkpt>
      <trkpt lat="48.57783" lon="-2.55373">
        <ele>34</ele>
        <time>2012-01-22T15:34:01Z</time>
      </trkpt>
      <trkpt lat="48.57783" lon="-2.55376">
        <ele>34</ele>
        <time>2012-01-22T15:34:02Z</time>
      </trkpt>
      <trkpt lat="48.57782" lon="-2.55378">
        <ele>34</ele>
        <time>2012-01-22T15:34:03Z</time>
      </trkpt>
      <trkpt lat="48.57782" lon="-2.5538">
        <ele>34</ele>
        <time>2012-01-22T15:34:04Z</time>
      </trkpt>
      <trkpt lat="48.57781" lon="-2.55382">
        <ele>34</ele>
        <time>2012-01-22T15:34:05Z</time>
      </trkpt>
      <trkpt lat="48.57781" lon="-2.55384">
        <ele>34</ele>
        <time>2012-01-22T15:34:06Z</time>
      </trkpt>
      <trkpt lat="48.5778" lon="-2.55386">
        <ele>34</ele>
        <time>2012-01-22T15:34:07Z</time>
      </trkpt>
      <trkpt lat="48.5778" lon="-2.55388">
        <ele>34</ele>
        <time>2012-01-22T15:34:08Z</time>
      </trkpt>
      <trkpt lat="48.5778" lon="-2.5539">
        <ele>34</ele>
        <time>2012-01-22T15:34:09Z</time>
      </trkpt>
      <trkpt lat="48.5778" lon="-2.55392">
        <ele>34</ele>
        <time>2012-01-22T15:34:10Z</time>
      </trkpt>
      <trkpt lat="48.5778" lon="-2.55394">
        <ele>34</ele>
        <time>2012-01-22T15:34:11Z</time>
      </trkpt>
      <trkpt lat="48.57779" lon="-2.55397">
        <ele>34</ele>
        <time>2012-01-22T15:34:12Z</time>
      </trkpt>
      <trkpt lat="48.57779" lon="-2.55399">
        <ele>34</ele>
        <time>2012-01-22T15:34:13Z</time>
      </trkpt>
      <trkpt lat="48.57779" lon="-2.55401">
        <ele>34</ele>
        <time>2012-01-22T15:34:14Z</time>
      </trkpt>
      <trkpt lat="48.57778" lon="-2.55404">
        <ele>34</ele>
        <time>2012-01-22T15:34:15Z</time>
      </trkpt>
      <trkpt lat="48.57778" lon="-2.55406">
        <ele>34</ele>
        <time>2012-01-22T15:34:16Z</time>
      </trkpt>
      <trkpt lat="48.57777" lon="-2.55408">
        <ele>34</ele>
        <time>2012-01-22T15:34:17Z</time>
      </trkpt>
      <trkpt lat="48.57777" lon="-2.55411">
        <ele>34</ele>
        <time>2012-01-22T15:34:18Z</time>
      </trkpt>
      <trkpt lat="48.57777" lon="-2.55413">
        <ele>34</ele>
        <time>2012-01-22T15:34:19Z</time>
      </trkpt>
      <trkpt lat="48.57776" lon="-2.55415">
        <ele>34</ele>
        <time>2012-01-22T15:34:20Z</time>
      </trkpt>
      <trkpt lat="48.57776" lon="-2.55418">
        <ele>34</ele>
        <time>2012-01-22T15:34:21Z</time>
      </trkpt>
      <trkpt lat="48.57776" lon="-2.5542">
        <ele>34</ele>
        <time>2012-01-22T15:34:22Z</time>
      </trkpt>
      <trkpt lat="48.57776" lon="-2.55422">
        <ele>34</ele>
        <time>2012-01-22T15:34:23Z</time>
      </trkpt>
      <trkpt lat="48.57776" lon="-2.55424">
        <ele>34</ele>
        <time>2012-01-22T15:34:24Z</time>
      </trkpt>
      <trkpt lat="48.57776" lon="-2.55427">
        <ele>34</ele>
        <time>2012-01-22T15:34:25Z</time>
      </trkpt>
      <trkpt lat="48.57775" lon="-2.55429">
        <ele>34</ele>
        <time>2012-01-22T15:34:26Z</time>
      </trkpt>
      <trkpt lat="48.57775" lon="-2.55431">
        <ele>34</ele>
        <time>2012-01-22T15:34:27Z</time>
      </trkpt>
      <trkpt lat="48.57775" lon="-2.55433">
        <ele>34</ele>
        <time>2012-01-22T15:34:28Z</time>
      </trkpt>
      <trkpt lat="48.57775" lon="-2.55435">
        <ele>33</ele>
        <time>2012-01-22T15:34:29Z</time>
      </trkpt>
      <trkpt lat="48.57775" lon="-2.55437">
        <ele>33</ele>
        <time>2012-01-22T15:34:30Z</time>
      </trkpt>
      <trkpt lat="48.57776" lon="-2.55439">
        <ele>33</ele>
        <time>2012-01-22T15:34:31Z</time>
      </trkpt>
      <trkpt lat="48.57777" lon="-2.55441">
        <ele>33</ele>
        <time>2012-01-22T15:34:32Z</time>
      </trkpt>
      <trkpt lat="48.57777" lon="-2.55443">
        <ele>33</ele>
        <time>2012-01-22T15:34:33Z</time>
      </trkpt>
      <trkpt lat="48.57778" lon="-2.55445">
        <ele>32</ele>
        <time>2012-01-22T15:34:35Z</time>
      </trkpt>
      <trkpt lat="48.5778" lon="-2.55447">
        <ele>32</ele>
        <time>2012-01-22T15:34:37Z</time>
      </trkpt>
      <trkpt lat="48.57782" lon="-2.55448">
        <ele>32</ele>
        <time>2012-01-22T15:34:39Z</time>
      </trkpt>
      <trkpt lat="48.57783" lon="-2.55449">
        <ele>31</ele>
        <time>2012-01-22T15:34:40Z</time>
      </trkpt>
      <trkpt lat="48.57785" lon="-2.5545">
        <ele>31</ele>
        <time>2012-01-22T15:34:42Z</time>
      </trkpt>
      <trkpt lat="48.57787" lon="-2.5545">
        <ele>31</ele>
        <time>2012-01-22T15:34:43Z</time>
      </trkpt>
      <trkpt lat="48.57788" lon="-2.55451">
        <ele>31</ele>
        <time>2012-01-22T15:34:44Z</time>
      </trkpt>
      <trkpt lat="48.57789" lon="-2.55452">
        <ele>31</ele>
        <time>2012-01-22T15:34:45Z</time>
      </trkpt>
      <trkpt lat="48.57791" lon="-2.55453">
        <ele>31</ele>
        <time>2012-01-22T15:34:46Z</time>
      </trkpt>
      <trkpt lat="48.57792" lon="-2.55453">
        <ele>31</ele>
        <time>2012-01-22T15:34:47Z</time>
      </trkpt>
      <trkpt lat="48.57793" lon="-2.55453">
        <ele>31</ele>
        <time>2012-01-22T15:34:48Z</time>
      </trkpt>
      <trkpt lat="48.57795" lon="-2.55454">
        <ele>31</ele>
        <time>2012-01-22T15:34:49Z</time>
      </trkpt>
      <trkpt lat="48.57796" lon="-2.55454">
        <ele>31</ele>
        <time>2012-01-22T15:34:50Z</time>
      </trkpt>
      <trkpt lat="48.57798" lon="-2.55455">
        <ele>31</ele>
        <time>2012-01-22T15:34:51Z</time>
      </trkpt>
      <trkpt lat="48.57799" lon="-2.55456">
        <ele>31</ele>
        <time>2012-01-22T15:34:52Z</time>
      </trkpt>
      <trkpt lat="48.57801" lon="-2.55456">
        <ele>31</ele>
        <time>2012-01-22T15:34:53Z</time>
      </trkpt>
      <trkpt lat="48.57802" lon="-2.55457">
        <ele>31</ele>
        <time>2012-01-22T15:34:54Z</time>
      </trkpt>
      <trkpt lat="48.57803" lon="-2.55457">
        <ele>31</ele>
        <time>2012-01-22T15:34:55Z</time>
      </trkpt>
      <trkpt lat="48.57804" lon="-2.55458">
        <ele>31</ele>
        <time>2012-01-22T15:34:56Z</time>
      </trkpt>
      <trkpt lat="48.57806" lon="-2.55459">
        <ele>31</ele>
        <time>2012-01-22T15:34:57Z</time>
      </trkpt>
      <trkpt lat="48.57807" lon="-2.55459">
        <ele>31</ele>
        <time>2012-01-22T15:34:58Z</time>
      </trkpt>
      <trkpt lat="48.57808" lon="-2.5546">
        <ele>31</ele>
        <time>2012-01-22T15:34:59Z</time>
      </trkpt>
      <trkpt lat="48.5781" lon="-2.55462">
        <ele>31</ele>
        <time>2012-01-22T15:35:01Z</time>
      </trkpt>
      <trkpt lat="48.57811" lon="-2.55465">
        <ele>31</ele>
        <time>2012-01-22T15:35:03Z</time>
      </trkpt>
      <trkpt lat="48.57812" lon="-2.55467">
        <ele>31</ele>
        <time>2012-01-22T15:35:05Z</time>
      </trkpt>
      <trkpt lat="48.57814" lon="-2.5547">
        <ele>31</ele>
        <time>2012-01-22T15:35:07Z</time>
      </trkpt>
      <trkpt lat="48.57814" lon="-2.55473">
        <ele>31</ele>
        <time>2012-01-22T15:35:08Z</time>
      </trkpt>
      <trkpt lat="48.57815" lon="-2.55475">
        <ele>31</ele>
        <time>2012-01-22T15:35:09Z</time>
      </trkpt>
      <trkpt lat="48.57816" lon="-2.55478">
        <ele>31</ele>
        <time>2012-01-22T15:35:10Z</time>
      </trkpt>
      <trkpt lat="48.57816" lon="-2.5548">
        <ele>31</ele>
        <time>2012-01-22T15:35:11Z</time>
      </trkpt>
      <trkpt lat="48.57817" lon="-2.55482">
        <ele>31</ele>
        <time>2012-01-22T15:35:12Z</time>
      </trkpt>
      <trkpt lat="48.57817" lon="-2.55484">
        <ele>31</ele>
        <time>2012-01-22T15:35:13Z</time>
      </trkpt>
      <trkpt lat="48.57817" lon="-2.55486">
        <ele>30</ele>
        <time>2012-01-22T15:35:14Z</time>
      </trkpt>
      <trkpt lat="48.57817" lon="-2.55488">
        <ele>30</ele>
        <time>2012-01-22T15:35:15Z</time>
      </trkpt>
      <trkpt lat="48.57817" lon="-2.5549">
        <ele>30</ele>
        <time>2012-01-22T15:35:16Z</time>
      </trkpt>
      <trkpt lat="48.57817" lon="-2.55493">
        <ele>29</ele>
        <time>2012-01-22T15:35:18Z</time>
      </trkpt>
      <trkpt lat="48.57817" lon="-2.55495">
        <ele>29</ele>
        <time>2012-01-22T15:35:19Z</time>
      </trkpt>
      <trkpt lat="48.57817" lon="-2.55497">
        <ele>29</ele>
        <time>2012-01-22T15:35:20Z</time>
      </trkpt>
      <trkpt lat="48.57817" lon="-2.55499">
        <ele>29</ele>
        <time>2012-01-22T15:35:21Z</time>
      </trkpt>
      <trkpt lat="48.57817" lon="-2.55501">
        <ele>28</ele>
        <time>2012-01-22T15:35:22Z</time>
      </trkpt>
      <trkpt lat="48.57818" lon="-2.55503">
        <ele>28</ele>
        <time>2012-01-22T15:35:23Z</time>
      </trkpt>
      <trkpt lat="48.57818" lon="-2.55504">
        <ele>28</ele>
        <time>2012-01-22T15:35:24Z</time>
      </trkpt>
      <trkpt lat="48.57818" lon="-2.55506">
        <ele>28</ele>
        <time>2012-01-22T15:35:25Z</time>
      </trkpt>
      <trkpt lat="48.57818" lon="-2.55509">
        <ele>28</ele>
        <time>2012-01-22T15:35:26Z</time>
      </trkpt>
      <trkpt lat="48.57819" lon="-2.55511">
        <ele>28</ele>
        <time>2012-01-22T15:35:27Z</time>
      </trkpt>
      <trkpt lat="48.57819" lon="-2.55513">
        <ele>27</ele>
        <time>2012-01-22T15:35:28Z</time>
      </trkpt>
      <trkpt lat="48.57819" lon="-2.55515">
        <ele>27</ele>
        <time>2012-01-22T15:35:29Z</time>
      </trkpt>
      <trkpt lat="48.57819" lon="-2.55517">
        <ele>27</ele>
        <time>2012-01-22T15:35:30Z</time>
      </trkpt>
      <trkpt lat="48.5782" lon="-2.5552">
        <ele>27</ele>
        <time>2012-01-22T15:35:32Z</time>
      </trkpt>
      <trkpt lat="48.5782" lon="-2.55522">
        <ele>26</ele>
        <time>2012-01-22T15:35:33Z</time>
      </trkpt>
      <trkpt lat="48.5782" lon="-2.55524">
        <ele>26</ele>
        <time>2012-01-22T15:35:34Z</time>
      </trkpt>
      <trkpt lat="48.57821" lon="-2.55526">
        <ele>26</ele>
        <time>2012-01-22T15:35:35Z</time>
      </trkpt>
      <trkpt lat="48.57821" lon="-2.55528">
        <ele>25</ele>
        <time>2012-01-22T15:35:36Z</time>
      </trkpt>
      <trkpt lat="48.57822" lon="-2.5553">
        <ele>25</ele>
        <time>2012-01-22T15:35:37Z</time>
      </trkpt>
      <trkpt lat="48.57822" lon="-2.55532">
        <ele>24</ele>
        <time>2012-01-22T15:35:38Z</time>
      </trkpt>
      <trkpt lat="48.57822" lon="-2.55534">
        <ele>24</ele>
        <time>2012-01-22T15:35:39Z</time>
      </trkpt>
      <trkpt lat="48.57823" lon="-2.55535">
        <ele>24</ele>
        <time>2012-01-22T15:35:40Z</time>
      </trkpt>
      <trkpt lat="48.57823" lon="-2.55537">
        <ele>23</ele>
        <time>2012-01-22T15:35:41Z</time>
      </trkpt>
      <trkpt lat="48.57823" lon="-2.55539">
        <ele>23</ele>
        <time>2012-01-22T15:35:42Z</time>
      </trkpt>
      <trkpt lat="48.57823" lon="-2.55541">
        <ele>23</ele>
        <time>2012-01-22T15:35:43Z</time>
      </trkpt>
      <trkpt lat="48.57824" lon="-2.55543">
        <ele>23</ele>
        <time>2012-01-22T15:35:44Z</time>
      </trkpt>
      <trkpt lat="48.57824" lon="-2.55545">
        <ele>23</ele>
        <time>2012-01-22T15:35:45Z</time>
      </trkpt>
      <trkpt lat="48.57824" lon="-2.55547">
        <ele>23</ele>
        <time>2012-01-22T15:35:46Z</time>
      </trkpt>
      <trkpt lat="48.57825" lon="-2.55549">
        <ele>23</ele>
        <time>2012-01-22T15:35:47Z</time>
      </trkpt>
      <trkpt lat="48.57826" lon="-2.55551">
        <ele>23</ele>
        <time>2012-01-22T15:35:48Z</time>
      </trkpt>
      <trkpt lat="48.57827" lon="-2.55552">
        <ele>23</ele>
        <time>2012-01-22T15:35:49Z</time>
      </trkpt>
      <trkpt lat="48.57827" lon="-2.55554">
        <ele>23</ele>
        <time>2012-01-22T15:35:50Z</time>
      </trkpt>
      <trkpt lat="48.57827" lon="-2.55556">
        <ele>23</ele>
        <time>2012-01-22T15:35:51Z</time>
      </trkpt>
      <trkpt lat="48.57828" lon="-2.55557">
        <ele>22</ele>
        <time>2012-01-22T15:35:52Z</time>
      </trkpt>
      <trkpt lat="48.57829" lon="-2.55559">
        <ele>22</ele>
        <time>2012-01-22T15:35:53Z</time>
      </trkpt>
      <trkpt lat="48.57829" lon="-2.55561">
        <ele>22</ele>
        <time>2012-01-22T15:35:54Z</time>
      </trkpt>
      <trkpt lat="48.5783" lon="-2.55563">
        <ele>22</ele>
        <time>2012-01-22T15:35:55Z</time>
      </trkpt>
      <trkpt lat="48.57831" lon="-2.55566">
        <ele>21</ele>
        <time>2012-01-22T15:35:57Z</time>
      </trkpt>
      <trkpt lat="48.57832" lon="-2.55569">
        <ele>21</ele>
        <time>2012-01-22T15:35:59Z</time>
      </trkpt>
      <trkpt lat="48.57833" lon="-2.5557">
        <ele>21</ele>
        <time>2012-01-22T15:36:00Z</time>
      </trkpt>
      <trkpt lat="48.57834" lon="-2.55572">
        <ele>21</ele>
        <time>2012-01-22T15:36:01Z</time>
      </trkpt>
      <trkpt lat="48.57835" lon="-2.55575">
        <ele>20</ele>
        <time>2012-01-22T15:36:03Z</time>
      </trkpt>
      <trkpt lat="48.57836" lon="-2.55578">
        <ele>20</ele>
        <time>2012-01-22T15:36:05Z</time>
      </trkpt>
      <trkpt lat="48.57838" lon="-2.55581">
        <ele>19</ele>
        <time>2012-01-22T15:36:07Z</time>
      </trkpt>
      <trkpt lat="48.57839" lon="-2.55583">
        <ele>19</ele>
        <time>2012-01-22T15:36:08Z</time>
      </trkpt>
      <trkpt lat="48.5784" lon="-2.55586">
        <ele>19</ele>
        <time>2012-01-22T15:36:10Z</time>
      </trkpt>
      <trkpt lat="48.57841" lon="-2.55588">
        <ele>18</ele>
        <time>2012-01-22T15:36:11Z</time>
      </trkpt>
      <trkpt lat="48.57843" lon="-2.5559">
        <ele>17</ele>
        <time>2012-01-22T15:36:13Z</time>
      </trkpt>
      <trkpt lat="48.57843" lon="-2.55592">
        <ele>17</ele>
        <time>2012-01-22T15:36:15Z</time>
      </trkpt>
      <trkpt lat="48.57844" lon="-2.55595">
        <ele>17</ele>
        <time>2012-01-22T15:36:17Z</time>
      </trkpt>
      <trkpt lat="48.57845" lon="-2.55598">
        <ele>16</ele>
        <time>2012-01-22T15:36:19Z</time>
      </trkpt>
      <trkpt lat="48.57846" lon="-2.55601">
        <ele>16</ele>
        <time>2012-01-22T15:36:21Z</time>
      </trkpt>
      <trkpt lat="48.57847" lon="-2.55602">
        <ele>15</ele>
        <time>2012-01-22T15:36:22Z</time>
      </trkpt>
      <trkpt lat="48.57849" lon="-2.55605">
        <ele>14</ele>
        <time>2012-01-22T15:36:24Z</time>
      </trkpt>
      <trkpt lat="48.57849" lon="-2.55607">
        <ele>13</ele>
        <time>2012-01-22T15:36:26Z</time>
      </trkpt>
      <trkpt lat="48.57849" lon="-2.55609">
        <ele>13</ele>
        <time>2012-01-22T15:36:27Z</time>
      </trkpt>
      <trkpt lat="48.5785" lon="-2.5561">
        <ele>13</ele>
        <time>2012-01-22T15:36:28Z</time>
      </trkpt>
      <trkpt lat="48.57851" lon="-2.55612">
        <ele>12</ele>
        <time>2012-01-22T15:36:30Z</time>
      </trkpt>
      <trkpt lat="48.57853" lon="-2.55616">
        <ele>12</ele>
        <time>2012-01-22T15:36:32Z</time>
      </trkpt>
      <trkpt lat="48.57853" lon="-2.55618">
        <ele>11</ele>
        <time>2012-01-22T15:36:33Z</time>
      </trkpt>
      <trkpt lat="48.57853" lon="-2.5562">
        <ele>11</ele>
        <time>2012-01-22T15:36:34Z</time>
      </trkpt>
      <trkpt lat="48.57853" lon="-2.55622">
        <ele>11</ele>
        <time>2012-01-22T15:36:35Z</time>
      </trkpt>
      <trkpt lat="48.57853" lon="-2.55624">
        <ele>10</ele>
        <time>2012-01-22T15:36:36Z</time>
      </trkpt>
      <trkpt lat="48.57853" lon="-2.55626">
        <ele>10</ele>
        <time>2012-01-22T15:36:37Z</time>
      </trkpt>
      <trkpt lat="48.57854" lon="-2.55629">
        <ele>10</ele>
        <time>2012-01-22T15:36:39Z</time>
      </trkpt>
      <trkpt lat="48.57855" lon="-2.55631">
        <ele>10</ele>
        <time>2012-01-22T15:36:41Z</time>
      </trkpt>
      <trkpt lat="48.57855" lon="-2.55633">
        <ele>10</ele>
        <time>2012-01-22T15:36:42Z</time>
      </trkpt>
      <trkpt lat="48.57855" lon="-2.55635">
        <ele>9</ele>
        <time>2012-01-22T15:36:43Z</time>
      </trkpt>
      <trkpt lat="48.57856" lon="-2.55638">
        <ele>9</ele>
        <time>2012-01-22T15:36:44Z</time>
      </trkpt>
      <trkpt lat="48.57856" lon="-2.5564">
        <ele>9</ele>
        <time>2012-01-22T15:36:45Z</time>
      </trkpt>
      <trkpt lat="48.57856" lon="-2.55642">
        <ele>8</ele>
        <time>2012-01-22T15:36:46Z</time>
      </trkpt>
      <trkpt lat="48.57856" lon="-2.55645">
        <ele>8</ele>
        <time>2012-01-22T15:36:47Z</time>
      </trkpt>
      <trkpt lat="48.57854" lon="-2.55647">
        <ele>7</ele>
        <time>2012-01-22T15:36:48Z</time>
      </trkpt>
      <trkpt lat="48.57853" lon="-2.55649">
        <ele>7</ele>
        <time>2012-01-22T15:36:49Z</time>
      </trkpt>
      <trkpt lat="48.57852" lon="-2.5565">
        <ele>7</ele>
        <time>2012-01-22T15:36:50Z</time>
      </trkpt>
      <trkpt lat="48.57851" lon="-2.55651">
        <ele>7</ele>
        <time>2012-01-22T15:36:51Z</time>
      </trkpt>
      <trkpt lat="48.5785" lon="-2.55651">
        <ele>7</ele>
        <time>2012-01-22T15:36:52Z</time>
      </trkpt>
      <trkpt lat="48.57847" lon="-2.55652">
        <ele>7</ele>
        <time>2012-01-22T15:36:54Z</time>
      </trkpt>
      <trkpt lat="48.57846" lon="-2.55652">
        <ele>7</ele>
        <time>2012-01-22T15:36:55Z</time>
      </trkpt>
      <trkpt lat="48.57845" lon="-2.55653">
        <ele>7</ele>
        <time>2012-01-22T15:36:56Z</time>
      </trkpt>
      <trkpt lat="48.57843" lon="-2.55654">
        <ele>7</ele>
        <time>2012-01-22T15:36:57Z</time>
      </trkpt>
      <trkpt lat="48.57842" lon="-2.55654">
        <ele>7</ele>
        <time>2012-01-22T15:36:58Z</time>
      </trkpt>
      <trkpt lat="48.57841" lon="-2.55655">
        <ele>7</ele>
        <time>2012-01-22T15:36:59Z</time>
      </trkpt>
      <trkpt lat="48.57839" lon="-2.55656">
        <ele>7</ele>
        <time>2012-01-22T15:37:01Z</time>
      </trkpt>
      <trkpt lat="48.57838" lon="-2.55656">
        <ele>7</ele>
        <time>2012-01-22T15:37:02Z</time>
      </trkpt>
      <trkpt lat="48.57836" lon="-2.55657">
        <ele>7</ele>
        <time>2012-01-22T15:37:03Z</time>
      </trkpt>
      <trkpt lat="48.57834" lon="-2.55657">
        <ele>7</ele>
        <time>2012-01-22T15:37:05Z</time>
      </trkpt>
      <trkpt lat="48.57832" lon="-2.55657">
        <ele>7</ele>
        <time>2012-01-22T15:37:07Z</time>
      </trkpt>
      <trkpt lat="48.5783" lon="-2.55658">
        <ele>7</ele>
        <time>2012-01-22T15:37:09Z</time>
      </trkpt>
      <trkpt lat="48.57829" lon="-2.55658">
        <ele>7</ele>
        <time>2012-01-22T15:37:10Z</time>
      </trkpt>
      <trkpt lat="48.57827" lon="-2.55657">
        <ele>7</ele>
        <time>2012-01-22T15:37:11Z</time>
      </trkpt>
      <trkpt lat="48.57826" lon="-2.55658">
        <ele>7</ele>
        <time>2012-01-22T15:37:12Z</time>
      </trkpt>
      <trkpt lat="48.57824" lon="-2.55659">
        <ele>7</ele>
        <time>2012-01-22T15:37:13Z</time>
      </trkpt>
      <trkpt lat="48.57823" lon="-2.5566">
        <ele>7</ele>
        <time>2012-01-22T15:37:14Z</time>
      </trkpt>
      <trkpt lat="48.57821" lon="-2.5566">
        <ele>7</ele>
        <time>2012-01-22T15:37:15Z</time>
      </trkpt>
      <trkpt lat="48.57819" lon="-2.5566">
        <ele>7</ele>
        <time>2012-01-22T15:37:17Z</time>
      </trkpt>
      <trkpt lat="48.57818" lon="-2.55661">
        <ele>7</ele>
        <time>2012-01-22T15:37:18Z</time>
      </trkpt>
      <trkpt lat="48.57817" lon="-2.55661">
        <ele>7</ele>
        <time>2012-01-22T15:37:19Z</time>
      </trkpt>
      <trkpt lat="48.57816" lon="-2.55662">
        <ele>8</ele>
        <time>2012-01-22T15:37:20Z</time>
      </trkpt>
      <trkpt lat="48.57814" lon="-2.55662">
        <ele>8</ele>
        <time>2012-01-22T15:37:21Z</time>
      </trkpt>
      <trkpt lat="48.57813" lon="-2.55662">
        <ele>8</ele>
        <time>2012-01-22T15:37:22Z</time>
      </trkpt>
      <trkpt lat="48.57811" lon="-2.55662">
        <ele>8</ele>
        <time>2012-01-22T15:37:23Z</time>
      </trkpt>
      <trkpt lat="48.5781" lon="-2.55662">
        <ele>8</ele>
        <time>2012-01-22T15:37:24Z</time>
      </trkpt>
      <trkpt lat="48.57809" lon="-2.55662">
        <ele>8</ele>
        <time>2012-01-22T15:37:25Z</time>
      </trkpt>
      <trkpt lat="48.57807" lon="-2.55663">
        <ele>8</ele>
        <time>2012-01-22T15:37:27Z</time>
      </trkpt>
      <trkpt lat="48.57806" lon="-2.55663">
        <ele>8</ele>
        <time>2012-01-22T15:37:28Z</time>
      </trkpt>
      <trkpt lat="48.57804" lon="-2.55664">
        <ele>8</ele>
        <time>2012-01-22T15:37:29Z</time>
      </trkpt>
      <trkpt lat="48.57803" lon="-2.55664">
        <ele>8</ele>
        <time>2012-01-22T15:37:30Z</time>
      </trkpt>
      <trkpt lat="48.57801" lon="-2.55664">
        <ele>8</ele>
        <time>2012-01-22T15:37:31Z</time>
      </trkpt>
      <trkpt lat="48.578" lon="-2.55665">
        <ele>8</ele>
        <time>2012-01-22T15:37:32Z</time>
      </trkpt>
      <trkpt lat="48.57799" lon="-2.55666">
        <ele>8</ele>
        <time>2012-01-22T15:37:33Z</time>
      </trkpt>
      <trkpt lat="48.57798" lon="-2.55667">
        <ele>8</ele>
        <time>2012-01-22T15:37:34Z</time>
      </trkpt>
      <trkpt lat="48.57796" lon="-2.55668">
        <ele>8</ele>
        <time>2012-01-22T15:37:35Z</time>
      </trkpt>
      <trkpt lat="48.57795" lon="-2.55669">
        <ele>8</ele>
        <time>2012-01-22T15:37:36Z</time>
      </trkpt>
      <trkpt lat="48.57794" lon="-2.5567">
        <ele>8</ele>
        <time>2012-01-22T15:37:37Z</time>
      </trkpt>
      <trkpt lat="48.57793" lon="-2.55672">
        <ele>8</ele>
        <time>2012-01-22T15:37:38Z</time>
      </trkpt>
      <trkpt lat="48.57791" lon="-2.55673">
        <ele>8</ele>
        <time>2012-01-22T15:37:39Z</time>
      </trkpt>
      <trkpt lat="48.5779" lon="-2.55675">
        <ele>8</ele>
        <time>2012-01-22T15:37:40Z</time>
      </trkpt>
      <trkpt lat="48.57789" lon="-2.55677">
        <ele>8</ele>
        <time>2012-01-22T15:37:41Z</time>
      </trkpt>
      <trkpt lat="48.57787" lon="-2.55678">
        <ele>8</ele>
        <time>2012-01-22T15:37:42Z</time>
      </trkpt>
      <trkpt lat="48.57786" lon="-2.55679">
        <ele>8</ele>
        <time>2012-01-22T15:37:43Z</time>
      </trkpt>
      <trkpt lat="48.57785" lon="-2.55679">
        <ele>8</ele>
        <time>2012-01-22T15:37:44Z</time>
      </trkpt>
      <trkpt lat="48.57783" lon="-2.55679">
        <ele>8</ele>
        <time>2012-01-22T15:37:45Z</time>
      </trkpt>
      <trkpt lat="48.57782" lon="-2.55679">
        <ele>8</ele>
        <time>2012-01-22T15:37:46Z</time>
      </trkpt>
      <trkpt lat="48.5778" lon="-2.55679">
        <ele>8</ele>
        <time>2012-01-22T15:37:47Z</time>
      </trkpt>
      <trkpt lat="48.57779" lon="-2.5568">
        <ele>8</ele>
        <time>2012-01-22T15:37:48Z</time>
      </trkpt>
      <trkpt lat="48.57777" lon="-2.55681">
        <ele>8</ele>
        <time>2012-01-22T15:37:49Z</time>
      </trkpt>
      <trkpt lat="48.57776" lon="-2.55681">
        <ele>8</ele>
        <time>2012-01-22T15:37:50Z</time>
      </trkpt>
      <trkpt lat="48.57774" lon="-2.55681">
        <ele>8</ele>
        <time>2012-01-22T15:37:51Z</time>
      </trkpt>
      <trkpt lat="48.57773" lon="-2.55681">
        <ele>8</ele>
        <time>2012-01-22T15:37:52Z</time>
      </trkpt>
      <trkpt lat="48.57772" lon="-2.55682">
        <ele>8</ele>
        <time>2012-01-22T15:37:53Z</time>
      </trkpt>
      <trkpt lat="48.57771" lon="-2.55682">
        <ele>8</ele>
        <time>2012-01-22T15:37:54Z</time>
      </trkpt>
      <trkpt lat="48.57769" lon="-2.55683">
        <ele>8</ele>
        <time>2012-01-22T15:37:55Z</time>
      </trkpt>
      <trkpt lat="48.57768" lon="-2.55683">
        <ele>8</ele>
        <time>2012-01-22T15:37:56Z</time>
      </trkpt>
      <trkpt lat="48.57767" lon="-2.55683">
        <ele>8</ele>
        <time>2012-01-22T15:37:57Z</time>
      </trkpt>
      <trkpt lat="48.57765" lon="-2.55683">
        <ele>8</ele>
        <time>2012-01-22T15:37:59Z</time>
      </trkpt>
      <trkpt lat="48.57763" lon="-2.55683">
        <ele>8</ele>
        <time>2012-01-22T15:38:01Z</time>
      </trkpt>
      <trkpt lat="48.57761" lon="-2.55684">
        <ele>8</ele>
        <time>2012-01-22T15:38:02Z</time>
      </trkpt>
      <trkpt lat="48.5776" lon="-2.55685">
        <ele>8</ele>
        <time>2012-01-22T15:38:03Z</time>
      </trkpt>
      <trkpt lat="48.57759" lon="-2.55685">
        <ele>8</ele>
        <time>2012-01-22T15:38:04Z</time>
      </trkpt>
      <trkpt lat="48.57757" lon="-2.55685">
        <ele>8</ele>
        <time>2012-01-22T15:38:05Z</time>
      </trkpt>
      <trkpt lat="48.57756" lon="-2.55686">
        <ele>8</ele>
        <time>2012-01-22T15:38:06Z</time>
      </trkpt>
      <trkpt lat="48.57755" lon="-2.55686">
        <ele>8</ele>
        <time>2012-01-22T15:38:07Z</time>
      </trkpt>
      <trkpt lat="48.57754" lon="-2.55687">
        <ele>8</ele>
        <time>2012-01-22T15:38:08Z</time>
      </trkpt>
      <trkpt lat="48.57752" lon="-2.55687">
        <ele>8</ele>
        <time>2012-01-22T15:38:09Z</time>
      </trkpt>
      <trkpt lat="48.57751" lon="-2.55688">
        <ele>8</ele>
        <time>2012-01-22T15:38:10Z</time>
      </trkpt>
      <trkpt lat="48.5775" lon="-2.55689">
        <ele>8</ele>
        <time>2012-01-22T15:38:11Z</time>
      </trkpt>
      <trkpt lat="48.57748" lon="-2.55689">
        <ele>8</ele>
        <time>2012-01-22T15:38:12Z</time>
      </trkpt>
      <trkpt lat="48.57747" lon="-2.5569">
        <ele>8</ele>
        <time>2012-01-22T15:38:13Z</time>
      </trkpt>
      <trkpt lat="48.57746" lon="-2.55691">
        <ele>7</ele>
        <time>2012-01-22T15:38:14Z</time>
      </trkpt>
      <trkpt lat="48.57745" lon="-2.55692">
        <ele>7</ele>
        <time>2012-01-22T15:38:15Z</time>
      </trkpt>
      <trkpt lat="48.57743" lon="-2.55693">
        <ele>7</ele>
        <time>2012-01-22T15:38:16Z</time>
      </trkpt>
      <trkpt lat="48.57742" lon="-2.55694">
        <ele>7</ele>
        <time>2012-01-22T15:38:17Z</time>
      </trkpt>
      <trkpt lat="48.5774" lon="-2.55696">
        <ele>7</ele>
        <time>2012-01-22T15:38:19Z</time>
      </trkpt>
      <trkpt lat="48.57738" lon="-2.55697">
        <ele>7</ele>
        <time>2012-01-22T15:38:21Z</time>
      </trkpt>
      <trkpt lat="48.57737" lon="-2.55699">
        <ele>7</ele>
        <time>2012-01-22T15:38:23Z</time>
      </trkpt>
      <trkpt lat="48.57735" lon="-2.557">
        <ele>7</ele>
        <time>2012-01-22T15:38:25Z</time>
      </trkpt>
      <trkpt lat="48.57735" lon="-2.55702">
        <ele>7</ele>
        <time>2012-01-22T15:38:28Z</time>
      </trkpt>
      <trkpt lat="48.57734" lon="-2.55704">
        <ele>7</ele>
        <time>2012-01-22T15:38:30Z</time>
      </trkpt>
      <trkpt lat="48.57734" lon="-2.55706">
        <ele>7</ele>
        <time>2012-01-22T15:38:35Z</time>
      </trkpt>
      <trkpt lat="48.57735" lon="-2.55708">
        <ele>7</ele>
        <time>2012-01-22T15:38:42Z</time>
      </trkpt>
      <trkpt lat="48.57734" lon="-2.5571">
        <ele>7</ele>
        <time>2012-01-22T15:38:44Z</time>
      </trkpt>
      <trkpt lat="48.57733" lon="-2.55712">
        <ele>7</ele>
        <time>2012-01-22T15:38:47Z</time>
      </trkpt>
      <trkpt lat="48.57733" lon="-2.55714">
        <ele>7</ele>
        <time>2012-01-22T15:38:51Z</time>
      </trkpt>
      <trkpt lat="48.57732" lon="-2.55712">
        <ele>7</ele>
        <time>2012-01-22T15:39:00Z</time>
      </trkpt>
      <trkpt lat="48.57732" lon="-2.5571">
        <ele>7</ele>
        <time>2012-01-22T15:39:02Z</time>
      </trkpt>
      <trkpt lat="48.57732" lon="-2.55708">
        <ele>7</ele>
        <time>2012-01-22T15:39:04Z</time>
      </trkpt>
      <trkpt lat="48.57731" lon="-2.5571">
        <ele>8</ele>
        <time>2012-01-22T15:39:31Z</time>
      </trkpt>
      <trkpt lat="48.57732" lon="-2.55708">
        <ele>8</ele>
        <time>2012-01-22T15:39:39Z</time>
      </trkpt>
      <trkpt lat="48.57732" lon="-2.55705">
        <ele>8</ele>
        <time>2012-01-22T15:39:43Z</time>
      </trkpt>
      <trkpt lat="48.57731" lon="-2.55703">
        <ele>8</ele>
        <time>2012-01-22T15:39:45Z</time>
      </trkpt>
      <trkpt lat="48.5773" lon="-2.55701">
        <ele>7</ele>
        <time>2012-01-22T15:39:48Z</time>
      </trkpt>
      <trkpt lat="48.57731" lon="-2.55703">
        <ele>4</ele>
        <time>2012-01-22T15:39:59Z</time>
      </trkpt>
      <trkpt lat="48.5773" lon="-2.55702">
        <ele>3</ele>
        <time>2012-01-22T15:40:02Z</time>
      </trkpt>
      <trkpt lat="48.5773" lon="-2.55701">
        <ele>2</ele>
        <time>2012-01-22T15:40:06Z</time>
      </trkpt>
      <trkpt lat="48.57729" lon="-2.55699">
        <ele>1</ele>
        <time>2012-01-22T15:40:15Z</time>
      </trkpt>
      <trkpt lat="48.57728" lon="-2.557">
        <ele>1</ele>
        <time>2012-01-22T15:40:18Z</time>
      </trkpt>
      <trkpt lat="48.57728" lon="-2.55698">
        <ele>4</ele>
        <time>2012-01-22T15:40:25Z</time>
      </trkpt>
      <trkpt lat="48.57727" lon="-2.55697">
        <ele>8</ele>
        <time>2012-01-22T15:40:29Z</time>
      </trkpt>
      <trkpt lat="48.57727" lon="-2.55699">
        <ele>10</ele>
        <time>2012-01-22T15:40:34Z</time>
      </trkpt>
      <trkpt lat="48.57728" lon="-2.55701">
        <ele>10</ele>
        <time>2012-01-22T15:40:37Z</time>
      </trkpt>
      <trkpt lat="48.57728" lon="-2.55703">
        <ele>10</ele>
        <time>2012-01-22T15:40:39Z</time>
      </trkpt>
      <trkpt lat="48.57727" lon="-2.55703">
        <ele>12</ele>
        <time>2012-01-22T15:40:47Z</time>
      </trkpt>
      <trkpt lat="48.57727" lon="-2.55701">
        <ele>12</ele>
        <time>2012-01-22T15:40:49Z</time>
      </trkpt>
      <trkpt lat="48.57727" lon="-2.55699">
        <ele>12</ele>
        <time>2012-01-22T15:40:51Z</time>
      </trkpt>
      <trkpt lat="48.57728" lon="-2.55697">
        <ele>13</ele>
        <time>2012-01-22T15:40:53Z</time>
      </trkpt>
      <trkpt lat="48.57729" lon="-2.55697">
        <ele>13</ele>
        <time>2012-01-22T15:40:55Z</time>
      </trkpt>
      <trkpt lat="48.57729" lon="-2.55699">
        <ele>13</ele>
        <time>2012-01-22T15:40:59Z</time>
      </trkpt>
      <trkpt lat="48.57729" lon="-2.55701">
        <ele>13</ele>
        <time>2012-01-22T15:41:02Z</time>
      </trkpt>
      <trkpt lat="48.57729" lon="-2.55703">
        <ele>13</ele>
        <time>2012-01-22T15:41:07Z</time>
      </trkpt>
      <trkpt lat="48.57729" lon="-2.55706">
        <ele>13</ele>
        <time>2012-01-22T15:41:10Z</time>
      </trkpt>
      <trkpt lat="48.57728" lon="-2.55708">
        <ele>13</ele>
        <time>2012-01-22T15:41:11Z</time>
      </trkpt>
      <trkpt lat="48.57727" lon="-2.5571">
        <ele>13</ele>
        <time>2012-01-22T15:41:13Z</time>
      </trkpt>
      <trkpt lat="48.57727" lon="-2.55712">
        <ele>16</ele>
        <time>2012-01-22T15:41:16Z</time>
      </trkpt>
      <trkpt lat="48.57728" lon="-2.5571">
        <ele>18</ele>
        <time>2012-01-22T15:41:25Z</time>
      </trkpt>
      <trkpt lat="48.57729" lon="-2.55706">
        <ele>18</ele>
        <time>2012-01-22T15:41:28Z</time>
      </trkpt>
      <trkpt lat="48.57729" lon="-2.55708">
        <ele>18</ele>
        <time>2012-01-22T15:41:35Z</time>
      </trkpt>
      <trkpt lat="48.5773" lon="-2.55708">
        <ele>17</ele>
        <time>2012-01-22T15:41:46Z</time>
      </trkpt>
      <trkpt lat="48.5773" lon="-2.5571">
        <ele>15</ele>
        <time>2012-01-22T15:41:51Z</time>
      </trkpt>
      <trkpt lat="48.5773" lon="-2.55708">
        <ele>10</ele>
        <time>2012-01-22T15:41:59Z</time>
      </trkpt>
      <trkpt lat="48.57731" lon="-2.55707">
        <ele>9</ele>
        <time>2012-01-22T15:42:01Z</time>
      </trkpt>
      <trkpt lat="48.57732" lon="-2.55705">
        <ele>4</ele>
        <time>2012-01-22T15:42:07Z</time>
      </trkpt>
      <trkpt lat="48.57734" lon="-2.55703">
        <ele>2</ele>
        <time>2012-01-22T15:42:11Z</time>
      </trkpt>
      <trkpt lat="48.57735" lon="-2.55701">
        <ele>2</ele>
        <time>2012-01-22T15:42:13Z</time>
      </trkpt>
      <trkpt lat="48.57736" lon="-2.55702">
        <ele>2</ele>
        <time>2012-01-22T15:42:15Z</time>
      </trkpt>
      <trkpt lat="48.57737" lon="-2.55702">
        <ele>2</ele>
        <time>2012-01-22T15:42:17Z</time>
      </trkpt>
      <trkpt lat="48.57737" lon="-2.55704">
        <ele>2</ele>
        <time>2012-01-22T15:42:21Z</time>
      </trkpt>
      <trkpt lat="48.57738" lon="-2.55706">
        <ele>2</ele>
        <time>2012-01-22T15:42:24Z</time>
      </trkpt>
      <trkpt lat="48.57737" lon="-2.55708">
        <ele>2</ele>
        <time>2012-01-22T15:42:27Z</time>
      </trkpt>
      <trkpt lat="48.57737" lon="-2.5571">
        <ele>2</ele>
        <time>2012-01-22T15:42:30Z</time>
      </trkpt>
      <trkpt lat="48.57737" lon="-2.55712">
        <ele>2</ele>
        <time>2012-01-22T15:42:33Z</time>
      </trkpt>
      <trkpt lat="48.57736" lon="-2.55714">
        <ele>2</ele>
        <time>2012-01-22T15:42:35Z</time>
      </trkpt>
      <trkpt lat="48.57735" lon="-2.55716">
        <ele>2</ele>
        <time>2012-01-22T15:42:38Z</time>
      </trkpt>
      <trkpt lat="48.57735" lon="-2.55717">
        <ele>2</ele>
        <time>2012-01-22T15:42:43Z</time>
      </trkpt>
      <trkpt lat="48.57734" lon="-2.55719">
        <ele>2</ele>
        <time>2012-01-22T15:42:48Z</time>
      </trkpt>
      <trkpt lat="48.57733" lon="-2.55721">
        <ele>-1</ele>
        <time>2012-01-22T15:43:02Z</time>
      </trkpt>
      <trkpt lat="48.57732" lon="-2.55722">
        <ele>-2</ele>
        <time>2012-01-22T15:43:10Z</time>
      </trkpt>
      <trkpt lat="48.57734" lon="-2.55722">
        <ele>-2</ele>
        <time>2012-01-22T15:43:18Z</time>
      </trkpt>
      <trkpt lat="48.57735" lon="-2.55721">
        <ele>-2</ele>
        <time>2012-01-22T15:43:20Z</time>
      </trkpt>
      <trkpt lat="48.57733" lon="-2.55723">
        <ele>-1</ele>
        <time>2012-01-22T15:43:30Z</time>
      </trkpt>
      <trkpt lat="48.57732" lon="-2.5572">
        <ele>-1</ele>
        <time>2012-01-22T15:43:34Z</time>
      </trkpt>
      <trkpt lat="48.57731" lon="-2.55718">
        <ele>10.7</ele>
        <time>2012-01-22T15:43:38Z</time>
      </trkpt>
      <trkpt lat="48.57729" lon="-2.55718">
        <ele>10.7</ele>
        <time>2012-01-22T15:43:39Z</time>
      </trkpt>
      <trkpt lat="48.57728" lon="-2.55718">
        <ele>10.7</ele>
        <time>2012-01-22T15:43:40Z</time>
      </trkpt>
      <trkpt lat="48.57726" lon="-2.5572">
        <ele>10.8</ele>
        <time>2012-01-22T15:43:43Z</time>
      </trkpt>
      <trkpt lat="48.57727" lon="-2.55718">
        <ele>10.7</ele>
        <time>2012-01-22T15:43:50Z</time>
      </trkpt>
      <trkpt lat="48.57729" lon="-2.55718">
        <ele>10.7</ele>
        <time>2012-01-22T15:43:57Z</time>
      </trkpt>
      <trkpt lat="48.5773" lon="-2.55719">
        <ele>10.8</ele>
        <time>2012-01-22T15:44:03Z</time>
      </trkpt>
      <trkpt lat="48.57731" lon="-2.55718">
        <ele>10.7</ele>
        <time>2012-01-22T15:44:05Z</time>
      </trkpt>
      <trkpt lat="48.57733" lon="-2.55716">
        <ele>10.5</ele>
        <time>2012-01-22T15:44:09Z</time>
      </trkpt>
      <trkpt lat="48.57732" lon="-2.55714">
        <ele>10.3</ele>
        <time>2012-01-22T15:44:11Z</time>
      </trkpt>
      <trkpt lat="48.57734" lon="-2.55712">
        <ele>10.1</ele>
        <time>2012-01-22T15:44:14Z</time>
      </trkpt>
      <trkpt lat="48.57735" lon="-2.55712">
        <ele>10.1</ele>
        <time>2012-01-22T15:44:21Z</time>
      </trkpt>
      <trkpt lat="48.57734" lon="-2.55713">
        <ele>10.2</ele>
        <time>2012-01-22T15:44:31Z</time>
      </trkpt>
      <trkpt lat="48.57732" lon="-2.55712">
        <ele>10.2</ele>
        <time>2012-01-22T15:44:33Z</time>
      </trkpt>
      <trkpt lat="48.57731" lon="-2.55711">
        <ele>10</ele>
        <time>2012-01-22T15:44:37Z</time>
      </trkpt>
      <trkpt lat="48.5773" lon="-2.55709">
        <ele>9.9</ele>
        <time>2012-01-22T15:44:41Z</time>
      </trkpt>
      <trkpt lat="48.57731" lon="-2.55707">
        <ele>2</ele>
        <time>2012-01-22T15:44:49Z</time>
      </trkpt>
      <trkpt lat="48.57732" lon="-2.55705">
        <ele>4</ele>
        <time>2012-01-22T15:44:55Z</time>
      </trkpt>
      <trkpt lat="48.57732" lon="-2.55707">
        <ele>4</ele>
        <time>2012-01-22T15:45:01Z</time>
      </trkpt>
      <trkpt lat="48.57734" lon="-2.55708">
        <ele>4</ele>
        <time>2012-01-22T15:45:06Z</time>
      </trkpt>
      <trkpt lat="48.57735" lon="-2.55709">
        <ele>4</ele>
        <time>2012-01-22T15:45:11Z</time>
      </trkpt>
      <trkpt lat="48.57736" lon="-2.5571">
        <ele>4</ele>
        <time>2012-01-22T15:45:13Z</time>
      </trkpt>
      <trkpt lat="48.57738" lon="-2.55711">
        <ele>4</ele>
        <time>2012-01-22T15:45:15Z</time>
      </trkpt>
      <trkpt lat="48.57739" lon="-2.55711">
        <ele>6</ele>
        <time>2012-01-22T15:45:19Z</time>
      </trkpt>
      <trkpt lat="48.57738" lon="-2.55713">
        <ele>6</ele>
        <time>2012-01-22T15:45:28Z</time>
      </trkpt>
      <trkpt lat="48.5774" lon="-2.55713">
        <ele>6</ele>
        <time>2012-01-22T15:45:31Z</time>
      </trkpt>
      <trkpt lat="48.57741" lon="-2.55713">
        <ele>6</ele>
        <time>2012-01-22T15:45:33Z</time>
      </trkpt>
      <trkpt lat="48.57742" lon="-2.55712">
        <ele>6</ele>
        <time>2012-01-22T15:45:36Z</time>
      </trkpt>
      <trkpt lat="48.57744" lon="-2.55712">
        <ele>6</ele>
        <time>2012-01-22T15:45:39Z</time>
      </trkpt>
      <trkpt lat="48.57745" lon="-2.55712">
        <ele>6</ele>
        <time>2012-01-22T15:45:41Z</time>
      </trkpt>
      <trkpt lat="48.57747" lon="-2.5571">
        <ele>6</ele>
        <time>2012-01-22T15:45:43Z</time>
      </trkpt>
      <trkpt lat="48.57748" lon="-2.5571">
        <ele>6</ele>
        <time>2012-01-22T15:45:44Z</time>
      </trkpt>
      <trkpt lat="48.5775" lon="-2.55709">
        <ele>6</ele>
        <time>2012-01-22T15:45:46Z</time>
      </trkpt>
      <trkpt lat="48.57751" lon="-2.55709">
        <ele>6</ele>
        <time>2012-01-22T15:45:47Z</time>
      </trkpt>
      <trkpt lat="48.57754" lon="-2.55709">
        <ele>6</ele>
        <time>2012-01-22T15:45:49Z</time>
      </trkpt>
      <trkpt lat="48.57755" lon="-2.55709">
        <ele>6</ele>
        <time>2012-01-22T15:45:50Z</time>
      </trkpt>
      <trkpt lat="48.57756" lon="-2.55709">
        <ele>6</ele>
        <time>2012-01-22T15:45:51Z</time>
      </trkpt>
      <trkpt lat="48.57757" lon="-2.55709">
        <ele>6</ele>
        <time>2012-01-22T15:45:52Z</time>
      </trkpt>
      <trkpt lat="48.57759" lon="-2.5571">
        <ele>6</ele>
        <time>2012-01-22T15:45:53Z</time>
      </trkpt>
      <trkpt lat="48.5776" lon="-2.5571">
        <ele>6</ele>
        <time>2012-01-22T15:45:54Z</time>
      </trkpt>
      <trkpt lat="48.57761" lon="-2.55712">
        <ele>6</ele>
        <time>2012-01-22T15:45:57Z</time>
      </trkpt>
      <trkpt lat="48.57764" lon="-2.55714">
        <ele>6</ele>
        <time>2012-01-22T15:45:59Z</time>
      </trkpt>
      <trkpt lat="48.57765" lon="-2.55716">
        <ele>6</ele>
        <time>2012-01-22T15:46:01Z</time>
      </trkpt>
      <trkpt lat="48.57767" lon="-2.55718">
        <ele>6</ele>
        <time>2012-01-22T15:46:03Z</time>
      </trkpt>
      <trkpt lat="48.57769" lon="-2.5572">
        <ele>6</ele>
        <time>2012-01-22T15:46:05Z</time>
      </trkpt>
      <trkpt lat="48.5777" lon="-2.55721">
        <ele>6</ele>
        <time>2012-01-22T15:46:06Z</time>
      </trkpt>
      <trkpt lat="48.57772" lon="-2.55723">
        <ele>6</ele>
        <time>2012-01-22T15:46:08Z</time>
      </trkpt>
      <trkpt lat="48.57773" lon="-2.55725">
        <ele>6</ele>
        <time>2012-01-22T15:46:10Z</time>
      </trkpt>
      <trkpt lat="48.57775" lon="-2.55727">
        <ele>6</ele>
        <time>2012-01-22T15:46:12Z</time>
      </trkpt>
      <trkpt lat="48.57777" lon="-2.55729">
        <ele>6</ele>
        <time>2012-01-22T15:46:14Z</time>
      </trkpt>
      <trkpt lat="48.57779" lon="-2.55731">
        <ele>6</ele>
        <time>2012-01-22T15:46:16Z</time>
      </trkpt>
      <trkpt lat="48.5778" lon="-2.55733">
        <ele>6</ele>
        <time>2012-01-22T15:46:18Z</time>
      </trkpt>
      <trkpt lat="48.57782" lon="-2.55735">
        <ele>6</ele>
        <time>2012-01-22T15:46:20Z</time>
      </trkpt>
      <trkpt lat="48.57783" lon="-2.55736">
        <ele>6</ele>
        <time>2012-01-22T15:46:21Z</time>
      </trkpt>
      <trkpt lat="48.57785" lon="-2.55739">
        <ele>6</ele>
        <time>2012-01-22T15:46:23Z</time>
      </trkpt>
      <trkpt lat="48.57787" lon="-2.55741">
        <ele>6</ele>
        <time>2012-01-22T15:46:25Z</time>
      </trkpt>
      <trkpt lat="48.57789" lon="-2.55743">
        <ele>6</ele>
        <time>2012-01-22T15:46:27Z</time>
      </trkpt>
      <trkpt lat="48.5779" lon="-2.55746">
        <ele>6</ele>
        <time>2012-01-22T15:46:29Z</time>
      </trkpt>
      <trkpt lat="48.57792" lon="-2.55748">
        <ele>6</ele>
        <time>2012-01-22T15:46:31Z</time>
      </trkpt>
      <trkpt lat="48.57793" lon="-2.55749">
        <ele>6</ele>
        <time>2012-01-22T15:46:32Z</time>
      </trkpt>
      <trkpt lat="48.57795" lon="-2.55751">
        <ele>6</ele>
        <time>2012-01-22T15:46:34Z</time>
      </trkpt>
      <trkpt lat="48.57796" lon="-2.55753">
        <ele>6</ele>
        <time>2012-01-22T15:46:35Z</time>
      </trkpt>
      <trkpt lat="48.57798" lon="-2.55754">
        <ele>6</ele>
        <time>2012-01-22T15:46:37Z</time>
      </trkpt>
      <trkpt lat="48.57801" lon="-2.55757">
        <ele>6</ele>
        <time>2012-01-22T15:46:39Z</time>
      </trkpt>
      <trkpt lat="48.57802" lon="-2.55758">
        <ele>6</ele>
        <time>2012-01-22T15:46:40Z</time>
      </trkpt>
      <trkpt lat="48.57804" lon="-2.5576">
        <ele>6</ele>
        <time>2012-01-22T15:46:42Z</time>
      </trkpt>
      <trkpt lat="48.57805" lon="-2.55761">
        <ele>6</ele>
        <time>2012-01-22T15:46:43Z</time>
      </trkpt>
      <trkpt lat="48.57806" lon="-2.55762">
        <ele>6</ele>
        <time>2012-01-22T15:46:44Z</time>
      </trkpt>
      <trkpt lat="48.57808" lon="-2.55763">
        <ele>6</ele>
        <time>2012-01-22T15:46:45Z</time>
      </trkpt>
      <trkpt lat="48.5781" lon="-2.55765">
        <ele>6</ele>
        <time>2012-01-22T15:46:47Z</time>
      </trkpt>
      <trkpt lat="48.57811" lon="-2.55766">
        <ele>6</ele>
        <time>2012-01-22T15:46:48Z</time>
      </trkpt>
      <trkpt lat="48.57813" lon="-2.55767">
        <ele>6</ele>
        <time>2012-01-22T15:46:49Z</time>
      </trkpt>
      <trkpt lat="48.57814" lon="-2.55767">
        <ele>6</ele>
        <time>2012-01-22T15:46:50Z</time>
      </trkpt>
      <trkpt lat="48.57816" lon="-2.55769">
        <ele>6</ele>
        <time>2012-01-22T15:46:52Z</time>
      </trkpt>
      <trkpt lat="48.57817" lon="-2.55769">
        <ele>6</ele>
        <time>2012-01-22T15:46:53Z</time>
      </trkpt>
      <trkpt lat="48.57819" lon="-2.5577">
        <ele>6</ele>
        <time>2012-01-22T15:46:54Z</time>
      </trkpt>
      <trkpt lat="48.5782" lon="-2.55771">
        <ele>6</ele>
        <time>2012-01-22T15:46:55Z</time>
      </trkpt>
      <trkpt lat="48.57821" lon="-2.55772">
        <ele>6</ele>
        <time>2012-01-22T15:46:56Z</time>
      </trkpt>
      <trkpt lat="48.57822" lon="-2.55772">
        <ele>6</ele>
        <time>2012-01-22T15:46:57Z</time>
      </trkpt>
      <trkpt lat="48.57824" lon="-2.55774">
        <ele>6</ele>
        <time>2012-01-22T15:46:59Z</time>
      </trkpt>
      <trkpt lat="48.57827" lon="-2.55775">
        <ele>6</ele>
        <time>2012-01-22T15:47:01Z</time>
      </trkpt>
      <trkpt lat="48.57828" lon="-2.55776">
        <ele>6</ele>
        <time>2012-01-22T15:47:02Z</time>
      </trkpt>
      <trkpt lat="48.57829" lon="-2.55776">
        <ele>6</ele>
        <time>2012-01-22T15:47:03Z</time>
      </trkpt>
      <trkpt lat="48.5783" lon="-2.55776">
        <ele>6</ele>
        <time>2012-01-22T15:47:04Z</time>
      </trkpt>
      <trkpt lat="48.57831" lon="-2.55776">
        <ele>6</ele>
        <time>2012-01-22T15:47:05Z</time>
      </trkpt>
      <trkpt lat="48.57832" lon="-2.55776">
        <ele>6</ele>
        <time>2012-01-22T15:47:06Z</time>
      </trkpt>
      <trkpt lat="48.57834" lon="-2.55776">
        <ele>6</ele>
        <time>2012-01-22T15:47:07Z</time>
      </trkpt>
      <trkpt lat="48.57835" lon="-2.55777">
        <ele>6</ele>
        <time>2012-01-22T15:47:08Z</time>
      </trkpt>
      <trkpt lat="48.57837" lon="-2.55777">
        <ele>6</ele>
        <time>2012-01-22T15:47:10Z</time>
      </trkpt>
      <trkpt lat="48.57838" lon="-2.55778">
        <ele>6</ele>
        <time>2012-01-22T15:47:11Z</time>
      </trkpt>
      <trkpt lat="48.5784" lon="-2.55778">
        <ele>6</ele>
        <time>2012-01-22T15:47:13Z</time>
      </trkpt>
      <trkpt lat="48.57842" lon="-2.55779">
        <ele>6</ele>
        <time>2012-01-22T15:47:14Z</time>
      </trkpt>
      <trkpt lat="48.57843" lon="-2.55779">
        <ele>6</ele>
        <time>2012-01-22T15:47:15Z</time>
      </trkpt>
      <trkpt lat="48.57844" lon="-2.5578">
        <ele>6</ele>
        <time>2012-01-22T15:47:16Z</time>
      </trkpt>
      <trkpt lat="48.57846" lon="-2.5578">
        <ele>6</ele>
        <time>2012-01-22T15:47:17Z</time>
      </trkpt>
      <trkpt lat="48.57847" lon="-2.55781">
        <ele>6</ele>
        <time>2012-01-22T15:47:18Z</time>
      </trkpt>
      <trkpt lat="48.57848" lon="-2.55781">
        <ele>6</ele>
        <time>2012-01-22T15:47:19Z</time>
      </trkpt>
      <trkpt lat="48.57849" lon="-2.55782">
        <ele>6</ele>
        <time>2012-01-22T15:47:20Z</time>
      </trkpt>
      <trkpt lat="48.57851" lon="-2.55782">
        <ele>6</ele>
        <time>2012-01-22T15:47:22Z</time>
      </trkpt>
      <trkpt lat="48.57853" lon="-2.55783">
        <ele>6</ele>
        <time>2012-01-22T15:47:24Z</time>
      </trkpt>
      <trkpt lat="48.57855" lon="-2.55784">
        <ele>6</ele>
        <time>2012-01-22T15:47:26Z</time>
      </trkpt>
      <trkpt lat="48.57856" lon="-2.55784">
        <ele>6</ele>
        <time>2012-01-22T15:47:27Z</time>
      </trkpt>
      <trkpt lat="48.57859" lon="-2.55783">
        <ele>6</ele>
        <time>2012-01-22T15:47:29Z</time>
      </trkpt>
      <trkpt lat="48.5786" lon="-2.55784">
        <ele>5</ele>
        <time>2012-01-22T15:47:30Z</time>
      </trkpt>
      <trkpt lat="48.57861" lon="-2.55785">
        <ele>5</ele>
        <time>2012-01-22T15:47:31Z</time>
      </trkpt>
      <trkpt lat="48.57862" lon="-2.55787">
        <ele>5</ele>
        <time>2012-01-22T15:47:33Z</time>
      </trkpt>
      <trkpt lat="48.57864" lon="-2.55788">
        <ele>5</ele>
        <time>2012-01-22T15:47:35Z</time>
      </trkpt>
      <trkpt lat="48.57866" lon="-2.55789">
        <ele>5</ele>
        <time>2012-01-22T15:47:37Z</time>
      </trkpt>
      <trkpt lat="48.57868" lon="-2.55789">
        <ele>5</ele>
        <time>2012-01-22T15:47:39Z</time>
      </trkpt>
      <trkpt lat="48.57869" lon="-2.55789">
        <ele>5</ele>
        <time>2012-01-22T15:47:41Z</time>
      </trkpt>
      <trkpt lat="48.57871" lon="-2.5579">
        <ele>5</ele>
        <time>2012-01-22T15:47:42Z</time>
      </trkpt>
      <trkpt lat="48.57872" lon="-2.5579">
        <ele>5</ele>
        <time>2012-01-22T15:47:43Z</time>
      </trkpt>
      <trkpt lat="48.57874" lon="-2.5579">
        <ele>5</ele>
        <time>2012-01-22T15:47:44Z</time>
      </trkpt>
      <trkpt lat="48.57875" lon="-2.55791">
        <ele>5</ele>
        <time>2012-01-22T15:47:45Z</time>
      </trkpt>
      <trkpt lat="48.57876" lon="-2.55792">
        <ele>5</ele>
        <time>2012-01-22T15:47:46Z</time>
      </trkpt>
      <trkpt lat="48.57878" lon="-2.55793">
        <ele>5</ele>
        <time>2012-01-22T15:47:48Z</time>
      </trkpt>
      <trkpt lat="48.5788" lon="-2.55793">
        <ele>5</ele>
        <time>2012-01-22T15:47:49Z</time>
      </trkpt>
      <trkpt lat="48.57881" lon="-2.55795">
        <ele>5</ele>
        <time>2012-01-22T15:47:50Z</time>
      </trkpt>
      <trkpt lat="48.57883" lon="-2.55794">
        <ele>5</ele>
        <time>2012-01-22T15:47:53Z</time>
      </trkpt>
      <trkpt lat="48.57885" lon="-2.55795">
        <ele>5</ele>
        <time>2012-01-22T15:47:55Z</time>
      </trkpt>
      <trkpt lat="48.57886" lon="-2.55796">
        <ele>5</ele>
        <time>2012-01-22T15:47:56Z</time>
      </trkpt>
      <trkpt lat="48.57888" lon="-2.55799">
        <ele>5</ele>
        <time>2012-01-22T15:47:57Z</time>
      </trkpt>
      <trkpt lat="48.57889" lon="-2.55801">
        <ele>5</ele>
        <time>2012-01-22T15:47:59Z</time>
      </trkpt>
      <trkpt lat="48.5789" lon="-2.55803">
        <ele>5</ele>
        <time>2012-01-22T15:48:01Z</time>
      </trkpt>
      <trkpt lat="48.57892" lon="-2.55804">
        <ele>5</ele>
        <time>2012-01-22T15:48:03Z</time>
      </trkpt>
      <trkpt lat="48.57892" lon="-2.55806">
        <ele>4</ele>
        <time>2012-01-22T15:48:05Z</time>
      </trkpt>
      <trkpt lat="48.57893" lon="-2.55809">
        <ele>4</ele>
        <time>2012-01-22T15:48:07Z</time>
      </trkpt>
      <trkpt lat="48.57896" lon="-2.5581">
        <ele>3</ele>
        <time>2012-01-22T15:48:08Z</time>
      </trkpt>
      <trkpt lat="48.57897" lon="-2.55811">
        <ele>3</ele>
        <time>2012-01-22T15:48:09Z</time>
      </trkpt>
      <trkpt lat="48.57899" lon="-2.55813">
        <ele>3</ele>
        <time>2012-01-22T15:48:10Z</time>
      </trkpt>
      <trkpt lat="48.57901" lon="-2.55814">
        <ele>3</ele>
        <time>2012-01-22T15:48:11Z</time>
      </trkpt>
      <trkpt lat="48.57902" lon="-2.55815">
        <ele>3</ele>
        <time>2012-01-22T15:48:12Z</time>
      </trkpt>
      <trkpt lat="48.57905" lon="-2.55819">
        <ele>3</ele>
        <time>2012-01-22T15:48:14Z</time>
      </trkpt>
      <trkpt lat="48.57906" lon="-2.5582">
        <ele>3</ele>
        <time>2012-01-22T15:48:15Z</time>
      </trkpt>
      <trkpt lat="48.57907" lon="-2.55822">
        <ele>3</ele>
        <time>2012-01-22T15:48:16Z</time>
      </trkpt>
      <trkpt lat="48.57908" lon="-2.55824">
        <ele>3</ele>
        <time>2012-01-22T15:48:17Z</time>
      </trkpt>
      <trkpt lat="48.57909" lon="-2.55827">
        <ele>3</ele>
        <time>2012-01-22T15:48:19Z</time>
      </trkpt>
      <trkpt lat="48.57909" lon="-2.5583">
        <ele>2</ele>
        <time>2012-01-22T15:48:21Z</time>
      </trkpt>
      <trkpt lat="48.57909" lon="-2.55832">
        <ele>1</ele>
        <time>2012-01-22T15:48:22Z</time>
      </trkpt>
      <trkpt lat="48.5791" lon="-2.55834">
        <ele>6.3</ele>
        <time>2012-01-22T15:48:23Z</time>
      </trkpt>
      <trkpt lat="48.5791" lon="-2.55836">
        <ele>6.3</ele>
        <time>2012-01-22T15:48:24Z</time>
      </trkpt>
      <trkpt lat="48.57911" lon="-2.55838">
        <ele>6.4</ele>
        <time>2012-01-22T15:48:25Z</time>
      </trkpt>
      <trkpt lat="48.57911" lon="-2.5584">
        <ele>6.4</ele>
        <time>2012-01-22T15:48:26Z</time>
      </trkpt>
      <trkpt lat="48.57911" lon="-2.55842">
        <ele>6.5</ele>
        <time>2012-01-22T15:48:27Z</time>
      </trkpt>
      <trkpt lat="48.57912" lon="-2.55844">
        <ele>6.5</ele>
        <time>2012-01-22T15:48:28Z</time>
      </trkpt>
      <trkpt lat="48.57912" lon="-2.55847">
        <ele>6.6</ele>
        <time>2012-01-22T15:48:29Z</time>
      </trkpt>
      <trkpt lat="48.57912" lon="-2.55849">
        <ele>6.6</ele>
        <time>2012-01-22T15:48:30Z</time>
      </trkpt>
      <trkpt lat="48.57913" lon="-2.55852">
        <ele>6.7</ele>
        <time>2012-01-22T15:48:31Z</time>
      </trkpt>
      <trkpt lat="48.57913" lon="-2.55854">
        <ele>6.8</ele>
        <time>2012-01-22T15:48:32Z</time>
      </trkpt>
      <trkpt lat="48.57914" lon="-2.55856">
        <ele>6.8</ele>
        <time>2012-01-22T15:48:33Z</time>
      </trkpt>
      <trkpt lat="48.57914" lon="-2.55858">
        <ele>6.9</ele>
        <time>2012-01-22T15:48:34Z</time>
      </trkpt>
      <trkpt lat="48.57914" lon="-2.5586">
        <ele>7</ele>
        <time>2012-01-22T15:48:35Z</time>
      </trkpt>
      <trkpt lat="48.57914" lon="-2.55862">
        <ele>7</ele>
        <time>2012-01-22T15:48:36Z</time>
      </trkpt>
      <trkpt lat="48.57914" lon="-2.55865">
        <ele>7</ele>
        <time>2012-01-22T15:48:37Z</time>
      </trkpt>
      <trkpt lat="48.57914" lon="-2.55867">
        <ele>7</ele>
        <time>2012-01-22T15:48:38Z</time>
      </trkpt>
      <trkpt lat="48.57914" lon="-2.55869">
        <ele>7</ele>
        <time>2012-01-22T15:48:39Z</time>
      </trkpt>
      <trkpt lat="48.57914" lon="-2.55871">
        <ele>7</ele>
        <time>2012-01-22T15:48:40Z</time>
      </trkpt>
      <trkpt lat="48.57914" lon="-2.55873">
        <ele>7</ele>
        <time>2012-01-22T15:48:41Z</time>
      </trkpt>
      <trkpt lat="48.57914" lon="-2.55875">
        <ele>7</ele>
        <time>2012-01-22T15:48:42Z</time>
      </trkpt>
      <trkpt lat="48.57913" lon="-2.55877">
        <ele>7</ele>
        <time>2012-01-22T15:48:43Z</time>
      </trkpt>
      <trkpt lat="48.57913" lon="-2.55878">
        <ele>7</ele>
        <time>2012-01-22T15:48:44Z</time>
      </trkpt>
      <trkpt lat="48.57913" lon="-2.5588">
        <ele>7</ele>
        <time>2012-01-22T15:48:45Z</time>
      </trkpt>
      <trkpt lat="48.57913" lon="-2.55882">
        <ele>7</ele>
        <time>2012-01-22T15:48:46Z</time>
      </trkpt>
      <trkpt lat="48.57913" lon="-2.55884">
        <ele>7</ele>
        <time>2012-01-22T15:48:47Z</time>
      </trkpt>
      <trkpt lat="48.57913" lon="-2.55886">
        <ele>7</ele>
        <time>2012-01-22T15:48:48Z</time>
      </trkpt>
      <trkpt lat="48.57912" lon="-2.55888">
        <ele>7</ele>
        <time>2012-01-22T15:48:49Z</time>
      </trkpt>
      <trkpt lat="48.57912" lon="-2.5589">
        <ele>7</ele>
        <time>2012-01-22T15:48:50Z</time>
      </trkpt>
      <trkpt lat="48.57912" lon="-2.55892">
        <ele>6.9</ele>
        <time>2012-01-22T15:48:51Z</time>
      </trkpt>
      <trkpt lat="48.57912" lon="-2.55894">
        <ele>6.9</ele>
        <time>2012-01-22T15:48:52Z</time>
      </trkpt>
      <trkpt lat="48.57912" lon="-2.55896">
        <ele>6.8</ele>
        <time>2012-01-22T15:48:53Z</time>
      </trkpt>
      <trkpt lat="48.57912" lon="-2.55898">
        <ele>6.7</ele>
        <time>2012-01-22T15:48:54Z</time>
      </trkpt>
      <trkpt lat="48.57912" lon="-2.55901">
        <ele>6.7</ele>
        <time>2012-01-22T15:48:55Z</time>
      </trkpt>
      <trkpt lat="48.57912" lon="-2.55903">
        <ele>6.6</ele>
        <time>2012-01-22T15:48:56Z</time>
      </trkpt>
      <trkpt lat="48.57912" lon="-2.55905">
        <ele>6.5</ele>
        <time>2012-01-22T15:48:57Z</time>
      </trkpt>
      <trkpt lat="48.57911" lon="-2.55907">
        <ele>6.5</ele>
        <time>2012-01-22T15:48:58Z</time>
      </trkpt>
      <trkpt lat="48.57911" lon="-2.55909">
        <ele>6.4</ele>
        <time>2012-01-22T15:48:59Z</time>
      </trkpt>
      <trkpt lat="48.57911" lon="-2.5591">
        <ele>6.4</ele>
        <time>2012-01-22T15:49:00Z</time>
      </trkpt>
      <trkpt lat="48.57911" lon="-2.55912">
        <ele>6.3</ele>
        <time>2012-01-22T15:49:01Z</time>
      </trkpt>
      <trkpt lat="48.57911" lon="-2.55914">
        <ele>6.3</ele>
        <time>2012-01-22T15:49:02Z</time>
      </trkpt>
      <trkpt lat="48.57911" lon="-2.55917">
        <ele>6.2</ele>
        <time>2012-01-22T15:49:03Z</time>
      </trkpt>
      <trkpt lat="48.5791" lon="-2.55919">
        <ele>6.2</ele>
        <time>2012-01-22T15:49:04Z</time>
      </trkpt>
      <trkpt lat="48.5791" lon="-2.55921">
        <ele>6.2</ele>
        <time>2012-01-22T15:49:05Z</time>
      </trkpt>
      <trkpt lat="48.5791" lon="-2.55923">
        <ele>6.2</ele>
        <time>2012-01-22T15:49:06Z</time>
      </trkpt>
      <trkpt lat="48.57909" lon="-2.55925">
        <ele>6.3</ele>
        <time>2012-01-22T15:49:07Z</time>
      </trkpt>
      <trkpt lat="48.57909" lon="-2.55927">
        <ele>6.3</ele>
        <time>2012-01-22T15:49:08Z</time>
      </trkpt>
      <trkpt lat="48.57909" lon="-2.55929">
        <ele>6.3</ele>
        <time>2012-01-22T15:49:09Z</time>
      </trkpt>
      <trkpt lat="48.57909" lon="-2.55931">
        <ele>6.3</ele>
        <time>2012-01-22T15:49:10Z</time>
      </trkpt>
      <trkpt lat="48.57908" lon="-2.55933">
        <ele>6.3</ele>
        <time>2012-01-22T15:49:11Z</time>
      </trkpt>
      <trkpt lat="48.57908" lon="-2.55935">
        <ele>6.3</ele>
        <time>2012-01-22T15:49:12Z</time>
      </trkpt>
      <trkpt lat="48.57908" lon="-2.55937">
        <ele>6.3</ele>
        <time>2012-01-22T15:49:13Z</time>
      </trkpt>
      <trkpt lat="48.57908" lon="-2.55939">
        <ele>6.3</ele>
        <time>2012-01-22T15:49:14Z</time>
      </trkpt>
      <trkpt lat="48.57908" lon="-2.55942">
        <ele>6.3</ele>
        <time>2012-01-22T15:49:15Z</time>
      </trkpt>
      <trkpt lat="48.57908" lon="-2.55943">
        <ele>6.3</ele>
        <time>2012-01-22T15:49:16Z</time>
      </trkpt>
      <trkpt lat="48.57907" lon="-2.55945">
        <ele>6.3</ele>
        <time>2012-01-22T15:49:17Z</time>
      </trkpt>
      <trkpt lat="48.57907" lon="-2.55947">
        <ele>6.3</ele>
        <time>2012-01-22T15:49:18Z</time>
      </trkpt>
      <trkpt lat="48.57906" lon="-2.55949">
        <ele>6.4</ele>
        <time>2012-01-22T15:49:19Z</time>
      </trkpt>
      <trkpt lat="48.57906" lon="-2.55952">
        <ele>6.4</ele>
        <time>2012-01-22T15:49:20Z</time>
      </trkpt>
      <trkpt lat="48.57906" lon="-2.55954">
        <ele>6.4</ele>
        <time>2012-01-22T15:49:21Z</time>
      </trkpt>
      <trkpt lat="48.57906" lon="-2.55956">
        <ele>6.4</ele>
        <time>2012-01-22T15:49:22Z</time>
      </trkpt>
      <trkpt lat="48.57905" lon="-2.55958">
        <ele>6.4</ele>
        <time>2012-01-22T15:49:23Z</time>
      </trkpt>
      <trkpt lat="48.57905" lon="-2.55959">
        <ele>6.4</ele>
        <time>2012-01-22T15:49:24Z</time>
      </trkpt>
      <trkpt lat="48.57904" lon="-2.55961">
        <ele>6.5</ele>
        <time>2012-01-22T15:49:25Z</time>
      </trkpt>
      <trkpt lat="48.57904" lon="-2.55963">
        <ele>6.5</ele>
        <time>2012-01-22T15:49:26Z</time>
      </trkpt>
      <trkpt lat="48.57903" lon="-2.55965">
        <ele>6.5</ele>
        <time>2012-01-22T15:49:27Z</time>
      </trkpt>
      <trkpt lat="48.57903" lon="-2.55967">
        <ele>6.5</ele>
        <time>2012-01-22T15:49:28Z</time>
      </trkpt>
      <trkpt lat="48.57903" lon="-2.55969">
        <ele>6.5</ele>
        <time>2012-01-22T15:49:29Z</time>
      </trkpt>
      <trkpt lat="48.57903" lon="-2.55971">
        <ele>6.5</ele>
        <time>2012-01-22T15:49:30Z</time>
      </trkpt>
      <trkpt lat="48.57903" lon="-2.55973">
        <ele>6.5</ele>
        <time>2012-01-22T15:49:31Z</time>
      </trkpt>
      <trkpt lat="48.57902" lon="-2.55975">
        <ele>6.6</ele>
        <time>2012-01-22T15:49:32Z</time>
      </trkpt>
      <trkpt lat="48.57902" lon="-2.55977">
        <ele>6.6</ele>
        <time>2012-01-22T15:49:33Z</time>
      </trkpt>
      <trkpt lat="48.57903" lon="-2.55979">
        <ele>6.6</ele>
        <time>2012-01-22T15:49:34Z</time>
      </trkpt>
      <trkpt lat="48.57903" lon="-2.55981">
        <ele>6.7</ele>
        <time>2012-01-22T15:49:35Z</time>
      </trkpt>
      <trkpt lat="48.57903" lon="-2.55983">
        <ele>6.7</ele>
        <time>2012-01-22T15:49:36Z</time>
      </trkpt>
      <trkpt lat="48.57903" lon="-2.55985">
        <ele>6.8</ele>
        <time>2012-01-22T15:49:37Z</time>
      </trkpt>
      <trkpt lat="48.57903" lon="-2.55988">
        <ele>6.8</ele>
        <time>2012-01-22T15:49:38Z</time>
      </trkpt>
      <trkpt lat="48.57903" lon="-2.5599">
        <ele>6.8</ele>
        <time>2012-01-22T15:49:40Z</time>
      </trkpt>
      <trkpt lat="48.57904" lon="-2.55992">
        <ele>6.8</ele>
        <time>2012-01-22T15:49:42Z</time>
      </trkpt>
      <trkpt lat="48.57904" lon="-2.55994">
        <ele>6.8</ele>
        <time>2012-01-22T15:49:44Z</time>
      </trkpt>
      <trkpt lat="48.57906" lon="-2.55997">
        <ele>6.8</ele>
        <time>2012-01-22T15:49:46Z</time>
      </trkpt>
      <trkpt lat="48.57906" lon="-2.55999">
        <ele>6.7</ele>
        <time>2012-01-22T15:49:47Z</time>
      </trkpt>
      <trkpt lat="48.57907" lon="-2.56001">
        <ele>6.7</ele>
        <time>2012-01-22T15:49:48Z</time>
      </trkpt>
      <trkpt lat="48.57907" lon="-2.56002">
        <ele>6.8</ele>
        <time>2012-01-22T15:49:49Z</time>
      </trkpt>
      <trkpt lat="48.57907" lon="-2.56004">
        <ele>6.8</ele>
        <time>2012-01-22T15:49:50Z</time>
      </trkpt>
      <trkpt lat="48.57908" lon="-2.56006">
        <ele>6.8</ele>
        <time>2012-01-22T15:49:51Z</time>
      </trkpt>
      <trkpt lat="48.57908" lon="-2.56008">
        <ele>6.8</ele>
        <time>2012-01-22T15:49:52Z</time>
      </trkpt>
      <trkpt lat="48.57909" lon="-2.5601">
        <ele>6.8</ele>
        <time>2012-01-22T15:49:53Z</time>
      </trkpt>
      <trkpt lat="48.57909" lon="-2.56012">
        <ele>6.8</ele>
        <time>2012-01-22T15:49:54Z</time>
      </trkpt>
      <trkpt lat="48.57909" lon="-2.56014">
        <ele>6.8</ele>
        <time>2012-01-22T15:49:55Z</time>
      </trkpt>
      <trkpt lat="48.57909" lon="-2.56016">
        <ele>6.8</ele>
        <time>2012-01-22T15:49:56Z</time>
      </trkpt>
      <trkpt lat="48.57909" lon="-2.56017">
        <ele>6.9</ele>
        <time>2012-01-22T15:49:57Z</time>
      </trkpt>
      <trkpt lat="48.5791" lon="-2.56019">
        <ele>6.8</ele>
        <time>2012-01-22T15:49:58Z</time>
      </trkpt>
      <trkpt lat="48.5791" lon="-2.56021">
        <ele>6.8</ele>
        <time>2012-01-22T15:49:59Z</time>
      </trkpt>
      <trkpt lat="48.57911" lon="-2.56023">
        <ele>6.8</ele>
        <time>2012-01-22T15:50:00Z</time>
      </trkpt>
      <trkpt lat="48.57911" lon="-2.56026">
        <ele>6.8</ele>
        <time>2012-01-22T15:50:01Z</time>
      </trkpt>
      <trkpt lat="48.57911" lon="-2.56028">
        <ele>6.8</ele>
        <time>2012-01-22T15:50:02Z</time>
      </trkpt>
      <trkpt lat="48.57911" lon="-2.5603">
        <ele>6.8</ele>
        <time>2012-01-22T15:50:03Z</time>
      </trkpt>
      <trkpt lat="48.57911" lon="-2.56032">
        <ele>6.9</ele>
        <time>2012-01-22T15:50:04Z</time>
      </trkpt>
      <trkpt lat="48.57912" lon="-2.56034">
        <ele>6.9</ele>
        <time>2012-01-22T15:50:05Z</time>
      </trkpt>
      <trkpt lat="48.57912" lon="-2.56036">
        <ele>7</ele>
        <time>2012-01-22T15:50:06Z</time>
      </trkpt>
      <trkpt lat="48.57912" lon="-2.56038">
        <ele>7</ele>
        <time>2012-01-22T15:50:07Z</time>
      </trkpt>
      <trkpt lat="48.57912" lon="-2.56041">
        <ele>7.1</ele>
        <time>2012-01-22T15:50:08Z</time>
      </trkpt>
      <trkpt lat="48.57913" lon="-2.56043">
        <ele>7.1</ele>
        <time>2012-01-22T15:50:09Z</time>
      </trkpt>
      <trkpt lat="48.57913" lon="-2.56045">
        <ele>7.1</ele>
        <time>2012-01-22T15:50:10Z</time>
      </trkpt>
      <trkpt lat="48.57914" lon="-2.56047">
        <ele>7.1</ele>
        <time>2012-01-22T15:50:11Z</time>
      </trkpt>
      <trkpt lat="48.57914" lon="-2.56049">
        <ele>7.2</ele>
        <time>2012-01-22T15:50:12Z</time>
      </trkpt>
      <trkpt lat="48.57914" lon="-2.56052">
        <ele>7.2</ele>
        <time>2012-01-22T15:50:13Z</time>
      </trkpt>
      <trkpt lat="48.57914" lon="-2.56054">
        <ele>7.3</ele>
        <time>2012-01-22T15:50:14Z</time>
      </trkpt>
      <trkpt lat="48.57914" lon="-2.56057">
        <ele>7.3</ele>
        <time>2012-01-22T15:50:15Z</time>
      </trkpt>
      <trkpt lat="48.57915" lon="-2.56059">
        <ele>7.3</ele>
        <time>2012-01-22T15:50:16Z</time>
      </trkpt>
      <trkpt lat="48.57915" lon="-2.56061">
        <ele>7.2</ele>
        <time>2012-01-22T15:50:17Z</time>
      </trkpt>
      <trkpt lat="48.57915" lon="-2.56063">
        <ele>7.2</ele>
        <time>2012-01-22T15:50:18Z</time>
      </trkpt>
      <trkpt lat="48.57916" lon="-2.56065">
        <ele>7.1</ele>
        <time>2012-01-22T15:50:19Z</time>
      </trkpt>
      <trkpt lat="48.57916" lon="-2.56066">
        <ele>7.1</ele>
        <time>2012-01-22T15:50:20Z</time>
      </trkpt>
      <trkpt lat="48.57916" lon="-2.56068">
        <ele>7.1</ele>
        <time>2012-01-22T15:50:21Z</time>
      </trkpt>
      <trkpt lat="48.57916" lon="-2.56071">
        <ele>7.1</ele>
        <time>2012-01-22T15:50:22Z</time>
      </trkpt>
      <trkpt lat="48.57917" lon="-2.56073">
        <ele>7</ele>
        <time>2012-01-22T15:50:23Z</time>
      </trkpt>
      <trkpt lat="48.57916" lon="-2.56075">
        <ele>7.1</ele>
        <time>2012-01-22T15:50:24Z</time>
      </trkpt>
      <trkpt lat="48.57916" lon="-2.56077">
        <ele>7.1</ele>
        <time>2012-01-22T15:50:25Z</time>
      </trkpt>
      <trkpt lat="48.57917" lon="-2.5608">
        <ele>7</ele>
        <time>2012-01-22T15:50:26Z</time>
      </trkpt>
      <trkpt lat="48.57917" lon="-2.56081">
        <ele>7</ele>
        <time>2012-01-22T15:50:27Z</time>
      </trkpt>
      <trkpt lat="48.57917" lon="-2.56083">
        <ele>7</ele>
        <time>2012-01-22T15:50:28Z</time>
      </trkpt>
      <trkpt lat="48.57918" lon="-2.56085">
        <ele>7</ele>
        <time>2012-01-22T15:50:29Z</time>
      </trkpt>
      <trkpt lat="48.57918" lon="-2.56087">
        <ele>7.1</ele>
        <time>2012-01-22T15:50:30Z</time>
      </trkpt>
      <trkpt lat="48.57918" lon="-2.56089">
        <ele>7.1</ele>
        <time>2012-01-22T15:50:31Z</time>
      </trkpt>
      <trkpt lat="48.57918" lon="-2.56091">
        <ele>7.2</ele>
        <time>2012-01-22T15:50:32Z</time>
      </trkpt>
      <trkpt lat="48.57918" lon="-2.56093">
        <ele>7.3</ele>
        <time>2012-01-22T15:50:33Z</time>
      </trkpt>
      <trkpt lat="48.57918" lon="-2.56094">
        <ele>7.3</ele>
        <time>2012-01-22T15:50:34Z</time>
      </trkpt>
      <trkpt lat="48.57917" lon="-2.56097">
        <ele>7.5</ele>
        <time>2012-01-22T15:50:36Z</time>
      </trkpt>
      <trkpt lat="48.57917" lon="-2.56099">
        <ele>7.5</ele>
        <time>2012-01-22T15:50:37Z</time>
      </trkpt>
      <trkpt lat="48.57917" lon="-2.56101">
        <ele>7.6</ele>
        <time>2012-01-22T15:50:38Z</time>
      </trkpt>
      <trkpt lat="48.57917" lon="-2.56103">
        <ele>7.7</ele>
        <time>2012-01-22T15:50:39Z</time>
      </trkpt>
      <trkpt lat="48.57917" lon="-2.56105">
        <ele>7.8</ele>
        <time>2012-01-22T15:50:40Z</time>
      </trkpt>
      <trkpt lat="48.57917" lon="-2.56107">
        <ele>7.8</ele>
        <time>2012-01-22T15:50:41Z</time>
      </trkpt>
      <trkpt lat="48.57917" lon="-2.56109">
        <ele>7.9</ele>
        <time>2012-01-22T15:50:42Z</time>
      </trkpt>
      <trkpt lat="48.57917" lon="-2.56111">
        <ele>7.9</ele>
        <time>2012-01-22T15:50:43Z</time>
      </trkpt>
      <trkpt lat="48.57917" lon="-2.56113">
        <ele>7.9</ele>
        <time>2012-01-22T15:50:44Z</time>
      </trkpt>
      <trkpt lat="48.57917" lon="-2.56115">
        <ele>7.9</ele>
        <time>2012-01-22T15:50:45Z</time>
      </trkpt>
      <trkpt lat="48.57917" lon="-2.56117">
        <ele>7.9</ele>
        <time>2012-01-22T15:50:46Z</time>
      </trkpt>
      <trkpt lat="48.57917" lon="-2.5612">
        <ele>8</ele>
        <time>2012-01-22T15:50:47Z</time>
      </trkpt>
      <trkpt lat="48.57917" lon="-2.56122">
        <ele>7.9</ele>
        <time>2012-01-22T15:50:48Z</time>
      </trkpt>
      <trkpt lat="48.57917" lon="-2.56124">
        <ele>7.9</ele>
        <time>2012-01-22T15:50:49Z</time>
      </trkpt>
      <trkpt lat="48.57917" lon="-2.56126">
        <ele>7.9</ele>
        <time>2012-01-22T15:50:50Z</time>
      </trkpt>
      <trkpt lat="48.57917" lon="-2.56128">
        <ele>7.9</ele>
        <time>2012-01-22T15:50:51Z</time>
      </trkpt>
      <trkpt lat="48.57917" lon="-2.5613">
        <ele>7.9</ele>
        <time>2012-01-22T15:50:52Z</time>
      </trkpt>
      <trkpt lat="48.57917" lon="-2.56132">
        <ele>7.9</ele>
        <time>2012-01-22T15:50:53Z</time>
      </trkpt>
      <trkpt lat="48.57917" lon="-2.56134">
        <ele>7.9</ele>
        <time>2012-01-22T15:50:54Z</time>
      </trkpt>
      <trkpt lat="48.57917" lon="-2.56136">
        <ele>7.9</ele>
        <time>2012-01-22T15:50:55Z</time>
      </trkpt>
      <trkpt lat="48.57918" lon="-2.56137">
        <ele>7.9</ele>
        <time>2012-01-22T15:50:56Z</time>
      </trkpt>
      <trkpt lat="48.57918" lon="-2.56139">
        <ele>7.9</ele>
        <time>2012-01-22T15:50:57Z</time>
      </trkpt>
      <trkpt lat="48.57918" lon="-2.56142">
        <ele>7.9</ele>
        <time>2012-01-22T15:50:59Z</time>
      </trkpt>
      <trkpt lat="48.57918" lon="-2.56144">
        <ele>7.9</ele>
        <time>2012-01-22T15:51:00Z</time>
      </trkpt>
      <trkpt lat="48.57918" lon="-2.56146">
        <ele>7.9</ele>
        <time>2012-01-22T15:51:01Z</time>
      </trkpt>
      <trkpt lat="48.57918" lon="-2.56148">
        <ele>7.9</ele>
        <time>2012-01-22T15:51:02Z</time>
      </trkpt>
      <trkpt lat="48.57918" lon="-2.5615">
        <ele>7.9</ele>
        <time>2012-01-22T15:51:03Z</time>
      </trkpt>
      <trkpt lat="48.57919" lon="-2.56152">
        <ele>7.8</ele>
        <time>2012-01-22T15:51:04Z</time>
      </trkpt>
      <trkpt lat="48.57919" lon="-2.56154">
        <ele>7.8</ele>
        <time>2012-01-22T15:51:05Z</time>
      </trkpt>
      <trkpt lat="48.57919" lon="-2.56156">
        <ele>7.9</ele>
        <time>2012-01-22T15:51:06Z</time>
      </trkpt>
      <trkpt lat="48.57919" lon="-2.56158">
        <ele>7.9</ele>
        <time>2012-01-22T15:51:07Z</time>
      </trkpt>
      <trkpt lat="48.57919" lon="-2.5616">
        <ele>7.9</ele>
        <time>2012-01-22T15:51:09Z</time>
      </trkpt>
      <trkpt lat="48.57919" lon="-2.56163">
        <ele>7.9</ele>
        <time>2012-01-22T15:51:10Z</time>
      </trkpt>
      <trkpt lat="48.57918" lon="-2.56165">
        <ele>7.9</ele>
        <time>2012-01-22T15:51:11Z</time>
      </trkpt>
      <trkpt lat="48.57919" lon="-2.56168">
        <ele>7.8</ele>
        <time>2012-01-22T15:51:12Z</time>
      </trkpt>
      <trkpt lat="48.57919" lon="-2.5617">
        <ele>7.6</ele>
        <time>2012-01-22T15:51:13Z</time>
      </trkpt>
      <trkpt lat="48.57918" lon="-2.56172">
        <ele>7.5</ele>
        <time>2012-01-22T15:51:14Z</time>
      </trkpt>
      <trkpt lat="48.57918" lon="-2.56174">
        <ele>7.4</ele>
        <time>2012-01-22T15:51:15Z</time>
      </trkpt>
      <trkpt lat="48.57917" lon="-2.56177">
        <ele>7.2</ele>
        <time>2012-01-22T15:51:17Z</time>
      </trkpt>
      <trkpt lat="48.57917" lon="-2.56179">
        <ele>7.1</ele>
        <time>2012-01-22T15:51:18Z</time>
      </trkpt>
      <trkpt lat="48.57916" lon="-2.56181">
        <ele>7</ele>
        <time>2012-01-22T15:51:19Z</time>
      </trkpt>
      <trkpt lat="48.57916" lon="-2.56184">
        <ele>6.9</ele>
        <time>2012-01-22T15:51:20Z</time>
      </trkpt>
      <trkpt lat="48.57916" lon="-2.56186">
        <ele>6.8</ele>
        <time>2012-01-22T15:51:21Z</time>
      </trkpt>
      <trkpt lat="48.57915" lon="-2.56188">
        <ele>6.8</ele>
        <time>2012-01-22T15:51:22Z</time>
      </trkpt>
      <trkpt lat="48.57914" lon="-2.5619">
        <ele>6.8</ele>
        <time>2012-01-22T15:51:24Z</time>
      </trkpt>
      <trkpt lat="48.57913" lon="-2.56193">
        <ele>6.9</ele>
        <time>2012-01-22T15:51:26Z</time>
      </trkpt>
      <trkpt lat="48.57912" lon="-2.56195">
        <ele>6.9</ele>
        <time>2012-01-22T15:51:27Z</time>
      </trkpt>
      <trkpt lat="48.57912" lon="-2.56196">
        <ele>7</ele>
        <time>2012-01-22T15:51:28Z</time>
      </trkpt>
      <trkpt lat="48.57911" lon="-2.562">
        <ele>7.1</ele>
        <time>2012-01-22T15:51:30Z</time>
      </trkpt>
      <trkpt lat="48.5791" lon="-2.56202">
        <ele>7.2</ele>
        <time>2012-01-22T15:51:31Z</time>
      </trkpt>
      <trkpt lat="48.57909" lon="-2.56203">
        <ele>7.2</ele>
        <time>2012-01-22T15:51:32Z</time>
      </trkpt>
      <trkpt lat="48.57909" lon="-2.56205">
        <ele>7.1</ele>
        <time>2012-01-22T15:51:33Z</time>
      </trkpt>
      <trkpt lat="48.57909" lon="-2.56207">
        <ele>7.1</ele>
        <time>2012-01-22T15:51:34Z</time>
      </trkpt>
      <trkpt lat="48.57908" lon="-2.56208">
        <ele>7.1</ele>
        <time>2012-01-22T15:51:35Z</time>
      </trkpt>
      <trkpt lat="48.57907" lon="-2.5621">
        <ele>7</ele>
        <time>2012-01-22T15:51:36Z</time>
      </trkpt>
      <trkpt lat="48.57906" lon="-2.56212">
        <ele>7</ele>
        <time>2012-01-22T15:51:37Z</time>
      </trkpt>
      <trkpt lat="48.57905" lon="-2.56214">
        <ele>7</ele>
        <time>2012-01-22T15:51:38Z</time>
      </trkpt>
      <trkpt lat="48.57904" lon="-2.56216">
        <ele>6.9</ele>
        <time>2012-01-22T15:51:39Z</time>
      </trkpt>
      <trkpt lat="48.57902" lon="-2.56219">
        <ele>6.8</ele>
        <time>2012-01-22T15:51:41Z</time>
      </trkpt>
      <trkpt lat="48.57901" lon="-2.56221">
        <ele>6.7</ele>
        <time>2012-01-22T15:51:43Z</time>
      </trkpt>
      <trkpt lat="48.57899" lon="-2.56224">
        <ele>6.6</ele>
        <time>2012-01-22T15:51:45Z</time>
      </trkpt>
      <trkpt lat="48.57898" lon="-2.56225">
        <ele>6.7</ele>
        <time>2012-01-22T15:51:46Z</time>
      </trkpt>
      <trkpt lat="48.57897" lon="-2.56227">
        <ele>6.7</ele>
        <time>2012-01-22T15:51:47Z</time>
      </trkpt>
      <trkpt lat="48.57896" lon="-2.5623">
        <ele>6.8</ele>
        <time>2012-01-22T15:51:49Z</time>
      </trkpt>
      <trkpt lat="48.57894" lon="-2.56233">
        <ele>6.8</ele>
        <time>2012-01-22T15:51:51Z</time>
      </trkpt>
      <trkpt lat="48.57894" lon="-2.56234">
        <ele>6.8</ele>
        <time>2012-01-22T15:51:52Z</time>
      </trkpt>
      <trkpt lat="48.57893" lon="-2.56236">
        <ele>6.8</ele>
        <time>2012-01-22T15:51:53Z</time>
      </trkpt>
      <trkpt lat="48.57893" lon="-2.56239">
        <ele>6.9</ele>
        <time>2012-01-22T15:51:55Z</time>
      </trkpt>
      <trkpt lat="48.57893" lon="-2.5624">
        <ele>6.9</ele>
        <time>2012-01-22T15:51:56Z</time>
      </trkpt>
      <trkpt lat="48.57892" lon="-2.56242">
        <ele>6.9</ele>
        <time>2012-01-22T15:51:57Z</time>
      </trkpt>
      <trkpt lat="48.57892" lon="-2.56245">
        <ele>6.9</ele>
        <time>2012-01-22T15:51:59Z</time>
      </trkpt>
      <trkpt lat="48.57892" lon="-2.56247">
        <ele>6.9</ele>
        <time>2012-01-22T15:52:01Z</time>
      </trkpt>
      <trkpt lat="48.57893" lon="-2.56249">
        <ele>6.9</ele>
        <time>2012-01-22T15:52:04Z</time>
      </trkpt>
      <trkpt lat="48.57894" lon="-2.56251">
        <ele>6.8</ele>
        <time>2012-01-22T15:52:06Z</time>
      </trkpt>
      <trkpt lat="48.57896" lon="-2.56253">
        <ele>6.7</ele>
        <time>2012-01-22T15:52:08Z</time>
      </trkpt>
      <trkpt lat="48.57897" lon="-2.56255">
        <ele>6.6</ele>
        <time>2012-01-22T15:52:10Z</time>
      </trkpt>
      <trkpt lat="48.57898" lon="-2.56256">
        <ele>6.6</ele>
        <time>2012-01-22T15:52:12Z</time>
      </trkpt>
      <trkpt lat="48.57899" lon="-2.56257">
        <ele>6.6</ele>
        <time>2012-01-22T15:52:13Z</time>
      </trkpt>
      <trkpt lat="48.57901" lon="-2.56257">
        <ele>6.5</ele>
        <time>2012-01-22T15:52:14Z</time>
      </trkpt>
      <trkpt lat="48.57903" lon="-2.56258">
        <ele>6.5</ele>
        <time>2012-01-22T15:52:15Z</time>
      </trkpt>
      <trkpt lat="48.57904" lon="-2.56258">
        <ele>6.5</ele>
        <time>2012-01-22T15:52:16Z</time>
      </trkpt>
      <trkpt lat="48.57903" lon="-2.56261">
        <ele>6.5</ele>
        <time>2012-01-22T15:52:20Z</time>
      </trkpt>
      <trkpt lat="48.57902" lon="-2.56263">
        <ele>6.5</ele>
        <time>2012-01-22T15:52:21Z</time>
      </trkpt>
      <trkpt lat="48.579" lon="-2.56264">
        <ele>6.5</ele>
        <time>2012-01-22T15:52:22Z</time>
      </trkpt>
      <trkpt lat="48.57899" lon="-2.56266">
        <ele>6.5</ele>
        <time>2012-01-22T15:52:23Z</time>
      </trkpt>
      <trkpt lat="48.57899" lon="-2.56269">
        <ele>6.5</ele>
        <time>2012-01-22T15:52:25Z</time>
      </trkpt>
      <trkpt lat="48.57901" lon="-2.56271">
        <ele>6.5</ele>
        <time>2012-01-22T15:52:27Z</time>
      </trkpt>
      <trkpt lat="48.57903" lon="-2.56274">
        <ele>6.5</ele>
        <time>2012-01-22T15:52:29Z</time>
      </trkpt>
      <trkpt lat="48.57905" lon="-2.56277">
        <ele>6.6</ele>
        <time>2012-01-22T15:52:31Z</time>
      </trkpt>
      <trkpt lat="48.57906" lon="-2.56278">
        <ele>6.6</ele>
        <time>2012-01-22T15:52:32Z</time>
      </trkpt>
      <trkpt lat="48.57908" lon="-2.56279">
        <ele>6.6</ele>
        <time>2012-01-22T15:52:33Z</time>
      </trkpt>
      <trkpt lat="48.5791" lon="-2.56282">
        <ele>6.7</ele>
        <time>2012-01-22T15:52:35Z</time>
      </trkpt>
      <trkpt lat="48.57911" lon="-2.56283">
        <ele>6.7</ele>
        <time>2012-01-22T15:52:36Z</time>
      </trkpt>
      <trkpt lat="48.57911" lon="-2.56287">
        <ele>6.7</ele>
        <time>2012-01-22T15:52:37Z</time>
      </trkpt>
      <trkpt lat="48.57912" lon="-2.5629">
        <ele>6.7</ele>
        <time>2012-01-22T15:52:39Z</time>
      </trkpt>
      <trkpt lat="48.57912" lon="-2.56292">
        <ele>6.6</ele>
        <time>2012-01-22T15:52:40Z</time>
      </trkpt>
      <trkpt lat="48.57911" lon="-2.56294">
        <ele>6.6</ele>
        <time>2012-01-22T15:52:41Z</time>
      </trkpt>
      <trkpt lat="48.57911" lon="-2.56295">
        <ele>6.5</ele>
        <time>2012-01-22T15:52:42Z</time>
      </trkpt>
      <trkpt lat="48.5791" lon="-2.56297">
        <ele>6.4</ele>
        <time>2012-01-22T15:52:43Z</time>
      </trkpt>
      <trkpt lat="48.57909" lon="-2.56299">
        <ele>6.3</ele>
        <time>2012-01-22T15:52:44Z</time>
      </trkpt>
      <trkpt lat="48.57909" lon="-2.56301">
        <ele>6.3</ele>
        <time>2012-01-22T15:52:45Z</time>
      </trkpt>
      <trkpt lat="48.57909" lon="-2.56302">
        <ele>6.2</ele>
        <time>2012-01-22T15:52:46Z</time>
      </trkpt>
      <trkpt lat="48.57907" lon="-2.56305">
        <ele>6</ele>
        <time>2012-01-22T15:52:48Z</time>
      </trkpt>
      <trkpt lat="48.57907" lon="-2.56307">
        <ele>6</ele>
        <time>2012-01-22T15:52:49Z</time>
      </trkpt>
      <trkpt lat="48.57905" lon="-2.5631">
        <ele>5.9</ele>
        <time>2012-01-22T15:52:51Z</time>
      </trkpt>
      <trkpt lat="48.57904" lon="-2.56312">
        <ele>1</ele>
        <time>2012-01-22T15:52:53Z</time>
      </trkpt>
      <trkpt lat="48.57903" lon="-2.56314">
        <ele>1</ele>
        <time>2012-01-22T15:52:55Z</time>
      </trkpt>
      <trkpt lat="48.57902" lon="-2.56317">
        <ele>1</ele>
        <time>2012-01-22T15:52:57Z</time>
      </trkpt>
      <trkpt lat="48.57902" lon="-2.56319">
        <ele>1</ele>
        <time>2012-01-22T15:52:58Z</time>
      </trkpt>
      <trkpt lat="48.57902" lon="-2.56321">
        <ele>1</ele>
        <time>2012-01-22T15:52:59Z</time>
      </trkpt>
      <trkpt lat="48.57901" lon="-2.56323">
        <ele>1</ele>
        <time>2012-01-22T15:53:00Z</time>
      </trkpt>
      <trkpt lat="48.57901" lon="-2.56325">
        <ele>1</ele>
        <time>2012-01-22T15:53:01Z</time>
      </trkpt>
      <trkpt lat="48.579" lon="-2.56327">
        <ele>1</ele>
        <time>2012-01-22T15:53:02Z</time>
      </trkpt>
      <trkpt lat="48.57899" lon="-2.5633">
        <ele>1</ele>
        <time>2012-01-22T15:53:04Z</time>
      </trkpt>
      <trkpt lat="48.57898" lon="-2.56332">
        <ele>1</ele>
        <time>2012-01-22T15:53:05Z</time>
      </trkpt>
      <trkpt lat="48.57898" lon="-2.56333">
        <ele>1</ele>
        <time>2012-01-22T15:53:06Z</time>
      </trkpt>
      <trkpt lat="48.57897" lon="-2.56335">
        <ele>1</ele>
        <time>2012-01-22T15:53:07Z</time>
      </trkpt>
      <trkpt lat="48.57896" lon="-2.56337">
        <ele>1</ele>
        <time>2012-01-22T15:53:08Z</time>
      </trkpt>
      <trkpt lat="48.57896" lon="-2.56339">
        <ele>1</ele>
        <time>2012-01-22T15:53:09Z</time>
      </trkpt>
      <trkpt lat="48.57895" lon="-2.56342">
        <ele>1</ele>
        <time>2012-01-22T15:53:11Z</time>
      </trkpt>
      <trkpt lat="48.57894" lon="-2.56344">
        <ele>1</ele>
        <time>2012-01-22T15:53:12Z</time>
      </trkpt>
      <trkpt lat="48.57893" lon="-2.56345">
        <ele>1</ele>
        <time>2012-01-22T15:53:13Z</time>
      </trkpt>
      <trkpt lat="48.57893" lon="-2.56347">
        <ele>1</ele>
        <time>2012-01-22T15:53:14Z</time>
      </trkpt>
      <trkpt lat="48.57892" lon="-2.56349">
        <ele>1</ele>
        <time>2012-01-22T15:53:15Z</time>
      </trkpt>
      <trkpt lat="48.57892" lon="-2.56351">
        <ele>1</ele>
        <time>2012-01-22T15:53:16Z</time>
      </trkpt>
      <trkpt lat="48.57891" lon="-2.56353">
        <ele>1</ele>
        <time>2012-01-22T15:53:17Z</time>
      </trkpt>
      <trkpt lat="48.5789" lon="-2.56354">
        <ele>1</ele>
        <time>2012-01-22T15:53:18Z</time>
      </trkpt>
      <trkpt lat="48.5789" lon="-2.56356">
        <ele>1</ele>
        <time>2012-01-22T15:53:19Z</time>
      </trkpt>
      <trkpt lat="48.57889" lon="-2.56358">
        <ele>1</ele>
        <time>2012-01-22T15:53:20Z</time>
      </trkpt>
      <trkpt lat="48.57888" lon="-2.5636">
        <ele>1</ele>
        <time>2012-01-22T15:53:21Z</time>
      </trkpt>
      <trkpt lat="48.57888" lon="-2.56362">
        <ele>1</ele>
        <time>2012-01-22T15:53:22Z</time>
      </trkpt>
      <trkpt lat="48.57887" lon="-2.56363">
        <ele>1</ele>
        <time>2012-01-22T15:53:23Z</time>
      </trkpt>
      <trkpt lat="48.57887" lon="-2.56365">
        <ele>1</ele>
        <time>2012-01-22T15:53:24Z</time>
      </trkpt>
      <trkpt lat="48.57886" lon="-2.56367">
        <ele>1</ele>
        <time>2012-01-22T15:53:25Z</time>
      </trkpt>
      <trkpt lat="48.57885" lon="-2.5637">
        <ele>1</ele>
        <time>2012-01-22T15:53:27Z</time>
      </trkpt>
      <trkpt lat="48.57885" lon="-2.56371">
        <ele>1</ele>
        <time>2012-01-22T15:53:28Z</time>
      </trkpt>
      <trkpt lat="48.57885" lon="-2.56373">
        <ele>1</ele>
        <time>2012-01-22T15:53:29Z</time>
      </trkpt>
      <trkpt lat="48.57884" lon="-2.56375">
        <ele>1</ele>
        <time>2012-01-22T15:53:30Z</time>
      </trkpt>
      <trkpt lat="48.57884" lon="-2.56377">
        <ele>1</ele>
        <time>2012-01-22T15:53:31Z</time>
      </trkpt>
      <trkpt lat="48.57883" lon="-2.56378">
        <ele>1</ele>
        <time>2012-01-22T15:53:32Z</time>
      </trkpt>
      <trkpt lat="48.57883" lon="-2.5638">
        <ele>1</ele>
        <time>2012-01-22T15:53:33Z</time>
      </trkpt>
      <trkpt lat="48.57883" lon="-2.56382">
        <ele>1</ele>
        <time>2012-01-22T15:53:34Z</time>
      </trkpt>
      <trkpt lat="48.57882" lon="-2.56384">
        <ele>1</ele>
        <time>2012-01-22T15:53:35Z</time>
      </trkpt>
      <trkpt lat="48.57882" lon="-2.56386">
        <ele>1</ele>
        <time>2012-01-22T15:53:36Z</time>
      </trkpt>
      <trkpt lat="48.57881" lon="-2.56387">
        <ele>1</ele>
        <time>2012-01-22T15:53:37Z</time>
      </trkpt>
      <trkpt lat="48.57881" lon="-2.56391">
        <ele>1</ele>
        <time>2012-01-22T15:53:39Z</time>
      </trkpt>
      <trkpt lat="48.5788" lon="-2.56394">
        <ele>1</ele>
        <time>2012-01-22T15:53:41Z</time>
      </trkpt>
      <trkpt lat="48.5788" lon="-2.56396">
        <ele>1</ele>
        <time>2012-01-22T15:53:42Z</time>
      </trkpt>
      <trkpt lat="48.57879" lon="-2.56397">
        <ele>1</ele>
        <time>2012-01-22T15:53:43Z</time>
      </trkpt>
      <trkpt lat="48.57878" lon="-2.56399">
        <ele>1</ele>
        <time>2012-01-22T15:53:44Z</time>
      </trkpt>
      <trkpt lat="48.57877" lon="-2.56401">
        <ele>1</ele>
        <time>2012-01-22T15:53:45Z</time>
      </trkpt>
      <trkpt lat="48.57877" lon="-2.56403">
        <ele>1</ele>
        <time>2012-01-22T15:53:46Z</time>
      </trkpt>
      <trkpt lat="48.57876" lon="-2.56406">
        <ele>1</ele>
        <time>2012-01-22T15:53:48Z</time>
      </trkpt>
      <trkpt lat="48.57875" lon="-2.56408">
        <ele>1</ele>
        <time>2012-01-22T15:53:49Z</time>
      </trkpt>
      <trkpt lat="48.57875" lon="-2.5641">
        <ele>2</ele>
        <time>2012-01-22T15:53:50Z</time>
      </trkpt>
      <trkpt lat="48.57874" lon="-2.56412">
        <ele>2</ele>
        <time>2012-01-22T15:53:51Z</time>
      </trkpt>
      <trkpt lat="48.57874" lon="-2.56414">
        <ele>2</ele>
        <time>2012-01-22T15:53:52Z</time>
      </trkpt>
      <trkpt lat="48.57873" lon="-2.56416">
        <ele>2</ele>
        <time>2012-01-22T15:53:53Z</time>
      </trkpt>
      <trkpt lat="48.57872" lon="-2.56417">
        <ele>2</ele>
        <time>2012-01-22T15:53:54Z</time>
      </trkpt>
      <trkpt lat="48.57871" lon="-2.5642">
        <ele>2</ele>
        <time>2012-01-22T15:53:56Z</time>
      </trkpt>
      <trkpt lat="48.57869" lon="-2.56423">
        <ele>2</ele>
        <time>2012-01-22T15:53:58Z</time>
      </trkpt>
      <trkpt lat="48.57867" lon="-2.56425">
        <ele>2</ele>
        <time>2012-01-22T15:54:00Z</time>
      </trkpt>
      <trkpt lat="48.57866" lon="-2.56428">
        <ele>2</ele>
        <time>2012-01-22T15:54:02Z</time>
      </trkpt>
      <trkpt lat="48.57865" lon="-2.56431">
        <ele>2</ele>
        <time>2012-01-22T15:54:04Z</time>
      </trkpt>
      <trkpt lat="48.57864" lon="-2.56434">
        <ele>2</ele>
        <time>2012-01-22T15:54:06Z</time>
      </trkpt>
      <trkpt lat="48.57863" lon="-2.56437">
        <ele>2</ele>
        <time>2012-01-22T15:54:08Z</time>
      </trkpt>
      <trkpt lat="48.57862" lon="-2.56439">
        <ele>2</ele>
        <time>2012-01-22T15:54:09Z</time>
      </trkpt>
      <trkpt lat="48.57862" lon="-2.56441">
        <ele>2</ele>
        <time>2012-01-22T15:54:10Z</time>
      </trkpt>
      <trkpt lat="48.57861" lon="-2.56443">
        <ele>2</ele>
        <time>2012-01-22T15:54:11Z</time>
      </trkpt>
      <trkpt lat="48.57861" lon="-2.56445">
        <ele>2</ele>
        <time>2012-01-22T15:54:12Z</time>
      </trkpt>
      <trkpt lat="48.5786" lon="-2.56447">
        <ele>2</ele>
        <time>2012-01-22T15:54:14Z</time>
      </trkpt>
      <trkpt lat="48.57859" lon="-2.56451">
        <ele>2</ele>
        <time>2012-01-22T15:54:16Z</time>
      </trkpt>
      <trkpt lat="48.57859" lon="-2.56452">
        <ele>2</ele>
        <time>2012-01-22T15:54:17Z</time>
      </trkpt>
      <trkpt lat="48.57858" lon="-2.56454">
        <ele>2</ele>
        <time>2012-01-22T15:54:18Z</time>
      </trkpt>
      <trkpt lat="48.57858" lon="-2.56456">
        <ele>2</ele>
        <time>2012-01-22T15:54:19Z</time>
      </trkpt>
      <trkpt lat="48.57857" lon="-2.56459">
        <ele>2</ele>
        <time>2012-01-22T15:54:21Z</time>
      </trkpt>
      <trkpt lat="48.57856" lon="-2.56461">
        <ele>2</ele>
        <time>2012-01-22T15:54:22Z</time>
      </trkpt>
      <trkpt lat="48.57856" lon="-2.56463">
        <ele>2</ele>
        <time>2012-01-22T15:54:23Z</time>
      </trkpt>
      <trkpt lat="48.57855" lon="-2.56465">
        <ele>2</ele>
        <time>2012-01-22T15:54:24Z</time>
      </trkpt>
      <trkpt lat="48.57854" lon="-2.56467">
        <ele>2</ele>
        <time>2012-01-22T15:54:25Z</time>
      </trkpt>
      <trkpt lat="48.57854" lon="-2.56468">
        <ele>2</ele>
        <time>2012-01-22T15:54:26Z</time>
      </trkpt>
      <trkpt lat="48.57852" lon="-2.56471">
        <ele>2</ele>
        <time>2012-01-22T15:54:28Z</time>
      </trkpt>
      <trkpt lat="48.57851" lon="-2.56474">
        <ele>2</ele>
        <time>2012-01-22T15:54:30Z</time>
      </trkpt>
      <trkpt lat="48.57851" lon="-2.56476">
        <ele>2</ele>
        <time>2012-01-22T15:54:31Z</time>
      </trkpt>
      <trkpt lat="48.5785" lon="-2.56477">
        <ele>2</ele>
        <time>2012-01-22T15:54:32Z</time>
      </trkpt>
      <trkpt lat="48.5785" lon="-2.56479">
        <ele>2</ele>
        <time>2012-01-22T15:54:33Z</time>
      </trkpt>
      <trkpt lat="48.5785" lon="-2.56481">
        <ele>2</ele>
        <time>2012-01-22T15:54:34Z</time>
      </trkpt>
      <trkpt lat="48.5785" lon="-2.56484">
        <ele>2</ele>
        <time>2012-01-22T15:54:36Z</time>
      </trkpt>
      <trkpt lat="48.57848" lon="-2.56486">
        <ele>2</ele>
        <time>2012-01-22T15:54:38Z</time>
      </trkpt>
      <trkpt lat="48.57847" lon="-2.56487">
        <ele>2</ele>
        <time>2012-01-22T15:54:40Z</time>
      </trkpt>
      <trkpt lat="48.57845" lon="-2.5649">
        <ele>2</ele>
        <time>2012-01-22T15:54:42Z</time>
      </trkpt>
      <trkpt lat="48.57843" lon="-2.56491">
        <ele>2</ele>
        <time>2012-01-22T15:54:43Z</time>
      </trkpt>
      <trkpt lat="48.57842" lon="-2.56493">
        <ele>2</ele>
        <time>2012-01-22T15:54:44Z</time>
      </trkpt>
      <trkpt lat="48.57841" lon="-2.56495">
        <ele>2</ele>
        <time>2012-01-22T15:54:46Z</time>
      </trkpt>
      <trkpt lat="48.5784" lon="-2.56498">
        <ele>2</ele>
        <time>2012-01-22T15:54:48Z</time>
      </trkpt>
      <trkpt lat="48.57839" lon="-2.565">
        <ele>2</ele>
        <time>2012-01-22T15:54:49Z</time>
      </trkpt>
      <trkpt lat="48.57838" lon="-2.56502">
        <ele>2</ele>
        <time>2012-01-22T15:54:50Z</time>
      </trkpt>
      <trkpt lat="48.57838" lon="-2.56503">
        <ele>2</ele>
        <time>2012-01-22T15:54:51Z</time>
      </trkpt>
      <trkpt lat="48.57837" lon="-2.56506">
        <ele>2</ele>
        <time>2012-01-22T15:54:53Z</time>
      </trkpt>
      <trkpt lat="48.57836" lon="-2.56509">
        <ele>2</ele>
        <time>2012-01-22T15:54:55Z</time>
      </trkpt>
      <trkpt lat="48.57835" lon="-2.56512">
        <ele>2</ele>
        <time>2012-01-22T15:54:57Z</time>
      </trkpt>
      <trkpt lat="48.57834" lon="-2.56514">
        <ele>2</ele>
        <time>2012-01-22T15:54:59Z</time>
      </trkpt>
      <trkpt lat="48.57833" lon="-2.56518">
        <ele>2</ele>
        <time>2012-01-22T15:55:01Z</time>
      </trkpt>
      <trkpt lat="48.57832" lon="-2.56521">
        <ele>2</ele>
        <time>2012-01-22T15:55:03Z</time>
      </trkpt>
      <trkpt lat="48.57831" lon="-2.56523">
        <ele>2</ele>
        <time>2012-01-22T15:55:05Z</time>
      </trkpt>
      <trkpt lat="48.5783" lon="-2.56526">
        <ele>2</ele>
        <time>2012-01-22T15:55:07Z</time>
      </trkpt>
      <trkpt lat="48.5783" lon="-2.56528">
        <ele>2</ele>
        <time>2012-01-22T15:55:09Z</time>
      </trkpt>
      <trkpt lat="48.57829" lon="-2.5653">
        <ele>2</ele>
        <time>2012-01-22T15:55:11Z</time>
      </trkpt>
      <trkpt lat="48.57828" lon="-2.56532">
        <ele>2</ele>
        <time>2012-01-22T15:55:13Z</time>
      </trkpt>
      <trkpt lat="48.57827" lon="-2.56534">
        <ele>2</ele>
        <time>2012-01-22T15:55:16Z</time>
      </trkpt>
      <trkpt lat="48.57827" lon="-2.56535">
        <ele>2</ele>
        <time>2012-01-22T15:55:18Z</time>
      </trkpt>
    </trkseg>
  </trk>
</gpx>